<?xml version="1.0" encoding="UTF-8" standalone="no" ?>
<gpx xmlns="http://www.topografix.com/GPX/1/1" xmlns:xsi="http://www.w3.org/2001/XMLSchema-instance" xsi:schemaLocation="http://www.topografix.com/GPX/1/1 http://www.topografix.com/GPX/1/1/gpx.xsd" version="1.1" creator="VisuGPX - https://www.visugpx.com">
  <metadata>
    <name>tour avec le gnou</name>
    <desc><![CDATA[cima, inarté, ferion, chauve]]></desc>
  </metadata>
  <trk>
    <name><![CDATA[tour avec le gnou_1]]></name>
    <trkseg>
      <trkpt lat="43.78471" lon="7.24602">
        <ele>-48.400001</ele>
        <time>2012-04-19T06:32:33Z</time>
      </trkpt>
      <trkpt lat="43.7846" lon="7.24525">
        <ele>104</ele>
        <time>2012-04-19T06:33:27Z</time>
      </trkpt>
      <trkpt lat="43.78447" lon="7.24494">
        <ele>231.622558</ele>
        <time>2012-04-19T06:33:31Z</time>
      </trkpt>
      <trkpt lat="43.78442" lon="7.24445">
        <ele>493.7</ele>
        <time>2012-04-19T06:33:45Z</time>
      </trkpt>
      <trkpt lat="43.7845" lon="7.24439">
        <ele>536.5</ele>
        <time>2012-04-19T06:34:36Z</time>
      </trkpt>
      <trkpt lat="43.78451" lon="7.24439">
        <ele>535.8</ele>
        <time>2012-04-19T06:34:37Z</time>
      </trkpt>
      <trkpt lat="43.78466" lon="7.24444">
        <ele>509.6</ele>
        <time>2012-04-19T06:35:29Z</time>
      </trkpt>
      <trkpt lat="43.78475" lon="7.24445">
        <ele>502.1</ele>
        <time>2012-04-19T06:37:11Z</time>
      </trkpt>
      <trkpt lat="43.78475" lon="7.24445">
        <ele>502</ele>
        <time>2012-04-19T06:37:12Z</time>
      </trkpt>
      <trkpt lat="43.78477" lon="7.24424">
        <ele>504.6</ele>
        <time>2012-04-19T06:37:44Z</time>
      </trkpt>
      <trkpt lat="43.78474" lon="7.24415">
        <ele>504.8</ele>
        <time>2012-04-19T06:37:47Z</time>
      </trkpt>
      <trkpt lat="43.78471" lon="7.24404">
        <ele>503.9</ele>
        <time>2012-04-19T06:37:52Z</time>
      </trkpt>
      <trkpt lat="43.78467" lon="7.24393">
        <ele>502.8</ele>
        <time>2012-04-19T06:37:56Z</time>
      </trkpt>
      <trkpt lat="43.78461" lon="7.24389">
        <ele>501.9</ele>
        <time>2012-04-19T06:37:59Z</time>
      </trkpt>
      <trkpt lat="43.78453" lon="7.24385">
        <ele>501.9</ele>
        <time>2012-04-19T06:38:02Z</time>
      </trkpt>
      <trkpt lat="43.78445" lon="7.2438">
        <ele>502.5</ele>
        <time>2012-04-19T06:38:06Z</time>
      </trkpt>
      <trkpt lat="43.78453" lon="7.24385">
        <ele>510.3</ele>
        <time>2012-04-19T06:38:20Z</time>
      </trkpt>
      <trkpt lat="43.78455" lon="7.24386">
        <ele>511</ele>
        <time>2012-04-19T06:38:21Z</time>
      </trkpt>
      <trkpt lat="43.78468" lon="7.24395">
        <ele>514.8</ele>
        <time>2012-04-19T06:38:28Z</time>
      </trkpt>
      <trkpt lat="43.78475" lon="7.24399">
        <ele>516.1</ele>
        <time>2012-04-19T06:38:32Z</time>
      </trkpt>
      <trkpt lat="43.78483" lon="7.24404">
        <ele>517.1</ele>
        <time>2012-04-19T06:38:36Z</time>
      </trkpt>
      <trkpt lat="43.7849" lon="7.24409">
        <ele>517.9</ele>
        <time>2012-04-19T06:38:40Z</time>
      </trkpt>
      <trkpt lat="43.78498" lon="7.24413">
        <ele>519.1</ele>
        <time>2012-04-19T06:38:45Z</time>
      </trkpt>
      <trkpt lat="43.78505" lon="7.24415">
        <ele>520.9</ele>
        <time>2012-04-19T06:38:48Z</time>
      </trkpt>
      <trkpt lat="43.78513" lon="7.24419">
        <ele>524.7</ele>
        <time>2012-04-19T06:38:52Z</time>
      </trkpt>
      <trkpt lat="43.7852" lon="7.2442">
        <ele>527</ele>
        <time>2012-04-19T06:38:55Z</time>
      </trkpt>
      <trkpt lat="43.78526" lon="7.24422">
        <ele>528.7</ele>
        <time>2012-04-19T06:38:58Z</time>
      </trkpt>
      <trkpt lat="43.78533" lon="7.24424">
        <ele>529.7</ele>
        <time>2012-04-19T06:39:01Z</time>
      </trkpt>
      <trkpt lat="43.7854" lon="7.24427">
        <ele>530.6</ele>
        <time>2012-04-19T06:39:04Z</time>
      </trkpt>
      <trkpt lat="43.78547" lon="7.24429">
        <ele>531.7</ele>
        <time>2012-04-19T06:39:07Z</time>
      </trkpt>
      <trkpt lat="43.78554" lon="7.24431">
        <ele>533</ele>
        <time>2012-04-19T06:39:10Z</time>
      </trkpt>
      <trkpt lat="43.78561" lon="7.24432">
        <ele>534.3</ele>
        <time>2012-04-19T06:39:13Z</time>
      </trkpt>
      <trkpt lat="43.78567" lon="7.24431">
        <ele>535.6</ele>
        <time>2012-04-19T06:39:16Z</time>
      </trkpt>
      <trkpt lat="43.78576" lon="7.24431">
        <ele>536.8</ele>
        <time>2012-04-19T06:39:20Z</time>
      </trkpt>
      <trkpt lat="43.78583" lon="7.24433">
        <ele>537.2</ele>
        <time>2012-04-19T06:39:24Z</time>
      </trkpt>
      <trkpt lat="43.78585" lon="7.24434">
        <ele>537.3</ele>
        <time>2012-04-19T06:39:25Z</time>
      </trkpt>
      <trkpt lat="43.78599" lon="7.24435">
        <ele>539.2</ele>
        <time>2012-04-19T06:39:32Z</time>
      </trkpt>
      <trkpt lat="43.78606" lon="7.24434">
        <ele>540.6</ele>
        <time>2012-04-19T06:39:36Z</time>
      </trkpt>
      <trkpt lat="43.78614" lon="7.24431">
        <ele>542.2</ele>
        <time>2012-04-19T06:39:41Z</time>
      </trkpt>
      <trkpt lat="43.78621" lon="7.24426">
        <ele>543.5</ele>
        <time>2012-04-19T06:39:45Z</time>
      </trkpt>
      <trkpt lat="43.78629" lon="7.24422">
        <ele>545.3</ele>
        <time>2012-04-19T06:39:50Z</time>
      </trkpt>
      <trkpt lat="43.78636" lon="7.24417">
        <ele>547.3</ele>
        <time>2012-04-19T06:39:54Z</time>
      </trkpt>
      <trkpt lat="43.78643" lon="7.24413">
        <ele>548.8</ele>
        <time>2012-04-19T06:39:58Z</time>
      </trkpt>
      <trkpt lat="43.78651" lon="7.24414">
        <ele>523.4</ele>
        <time>2012-04-19T06:40:03Z</time>
      </trkpt>
      <trkpt lat="43.78658" lon="7.24411">
        <ele>516.9</ele>
        <time>2012-04-19T06:40:07Z</time>
      </trkpt>
      <trkpt lat="43.78666" lon="7.24409">
        <ele>516.5</ele>
        <time>2012-04-19T06:40:11Z</time>
      </trkpt>
      <trkpt lat="43.78674" lon="7.24407">
        <ele>516.5</ele>
        <time>2012-04-19T06:40:15Z</time>
      </trkpt>
      <trkpt lat="43.78681" lon="7.24406">
        <ele>516.2</ele>
        <time>2012-04-19T06:40:19Z</time>
      </trkpt>
      <trkpt lat="43.7869" lon="7.24406">
        <ele>517.8</ele>
        <time>2012-04-19T06:40:24Z</time>
      </trkpt>
      <trkpt lat="43.78697" lon="7.24406">
        <ele>519.2</ele>
        <time>2012-04-19T06:40:28Z</time>
      </trkpt>
      <trkpt lat="43.787" lon="7.24407">
        <ele>519.5</ele>
        <time>2012-04-19T06:40:29Z</time>
      </trkpt>
      <trkpt lat="43.78712" lon="7.24414">
        <ele>521.5</ele>
        <time>2012-04-19T06:40:36Z</time>
      </trkpt>
      <trkpt lat="43.78719" lon="7.24417">
        <ele>523.4</ele>
        <time>2012-04-19T06:40:40Z</time>
      </trkpt>
      <trkpt lat="43.78728" lon="7.24422">
        <ele>524.4</ele>
        <time>2012-04-19T06:40:45Z</time>
      </trkpt>
      <trkpt lat="43.78735" lon="7.24428">
        <ele>525</ele>
        <time>2012-04-19T06:40:50Z</time>
      </trkpt>
      <trkpt lat="43.78742" lon="7.24434">
        <ele>526.6</ele>
        <time>2012-04-19T06:40:55Z</time>
      </trkpt>
      <trkpt lat="43.78748" lon="7.24442">
        <ele>529.4</ele>
        <time>2012-04-19T06:41:01Z</time>
      </trkpt>
      <trkpt lat="43.78753" lon="7.24449">
        <ele>530.8</ele>
        <time>2012-04-19T06:41:05Z</time>
      </trkpt>
      <trkpt lat="43.78758" lon="7.2446">
        <ele>531.7</ele>
        <time>2012-04-19T06:41:10Z</time>
      </trkpt>
      <trkpt lat="43.78761" lon="7.2447">
        <ele>532.7</ele>
        <time>2012-04-19T06:41:14Z</time>
      </trkpt>
      <trkpt lat="43.78764" lon="7.24481">
        <ele>533.4</ele>
        <time>2012-04-19T06:41:18Z</time>
      </trkpt>
      <trkpt lat="43.78766" lon="7.24491">
        <ele>534.9</ele>
        <time>2012-04-19T06:41:22Z</time>
      </trkpt>
      <trkpt lat="43.78772" lon="7.24498">
        <ele>536.5</ele>
        <time>2012-04-19T06:41:26Z</time>
      </trkpt>
      <trkpt lat="43.78779" lon="7.24502">
        <ele>536.9</ele>
        <time>2012-04-19T06:41:30Z</time>
      </trkpt>
      <trkpt lat="43.78781" lon="7.24503">
        <ele>537.1</ele>
        <time>2012-04-19T06:41:31Z</time>
      </trkpt>
      <trkpt lat="43.78793" lon="7.24511">
        <ele>538.6</ele>
        <time>2012-04-19T06:41:38Z</time>
      </trkpt>
      <trkpt lat="43.788" lon="7.24517">
        <ele>539.6</ele>
        <time>2012-04-19T06:41:43Z</time>
      </trkpt>
      <trkpt lat="43.78807" lon="7.24524">
        <ele>541.3</ele>
        <time>2012-04-19T06:41:49Z</time>
      </trkpt>
      <trkpt lat="43.78814" lon="7.24531">
        <ele>544.2</ele>
        <time>2012-04-19T06:41:56Z</time>
      </trkpt>
      <trkpt lat="43.78821" lon="7.24537">
        <ele>545.7</ele>
        <time>2012-04-19T06:42:02Z</time>
      </trkpt>
      <trkpt lat="43.78828" lon="7.24542">
        <ele>546.2</ele>
        <time>2012-04-19T06:42:08Z</time>
      </trkpt>
      <trkpt lat="43.78834" lon="7.2455">
        <ele>549.1</ele>
        <time>2012-04-19T06:42:15Z</time>
      </trkpt>
      <trkpt lat="43.78836" lon="7.24562">
        <ele>551.8</ele>
        <time>2012-04-19T06:42:21Z</time>
      </trkpt>
      <trkpt lat="43.78834" lon="7.24573">
        <ele>553.5</ele>
        <time>2012-04-19T06:42:27Z</time>
      </trkpt>
      <trkpt lat="43.78826" lon="7.24579">
        <ele>554</ele>
        <time>2012-04-19T06:42:33Z</time>
      </trkpt>
      <trkpt lat="43.78825" lon="7.2458">
        <ele>554.2</ele>
        <time>2012-04-19T06:42:34Z</time>
      </trkpt>
      <trkpt lat="43.78812" lon="7.24587">
        <ele>555.9</ele>
        <time>2012-04-19T06:42:41Z</time>
      </trkpt>
      <trkpt lat="43.7881" lon="7.24598">
        <ele>554.6</ele>
        <time>2012-04-19T06:42:45Z</time>
      </trkpt>
      <trkpt lat="43.78815" lon="7.24608">
        <ele>555.4</ele>
        <time>2012-04-19T06:42:49Z</time>
      </trkpt>
      <trkpt lat="43.7882" lon="7.24616">
        <ele>556.2</ele>
        <time>2012-04-19T06:42:53Z</time>
      </trkpt>
      <trkpt lat="43.78827" lon="7.24622">
        <ele>557.3</ele>
        <time>2012-04-19T06:42:57Z</time>
      </trkpt>
      <trkpt lat="43.78833" lon="7.24629">
        <ele>558.3</ele>
        <time>2012-04-19T06:43:02Z</time>
      </trkpt>
      <trkpt lat="43.78839" lon="7.24637">
        <ele>559.1</ele>
        <time>2012-04-19T06:43:07Z</time>
      </trkpt>
      <trkpt lat="43.78846" lon="7.24644">
        <ele>560.6</ele>
        <time>2012-04-19T06:43:12Z</time>
      </trkpt>
      <trkpt lat="43.78852" lon="7.2465">
        <ele>561.6</ele>
        <time>2012-04-19T06:43:17Z</time>
      </trkpt>
      <trkpt lat="43.7886" lon="7.24652">
        <ele>563.6</ele>
        <time>2012-04-19T06:43:21Z</time>
      </trkpt>
      <trkpt lat="43.78867" lon="7.24651">
        <ele>564.5</ele>
        <time>2012-04-19T06:43:25Z</time>
      </trkpt>
      <trkpt lat="43.78875" lon="7.24646">
        <ele>565.1</ele>
        <time>2012-04-19T06:43:29Z</time>
      </trkpt>
      <trkpt lat="43.78883" lon="7.24641">
        <ele>565.2</ele>
        <time>2012-04-19T06:43:33Z</time>
      </trkpt>
      <trkpt lat="43.7889" lon="7.24639">
        <ele>565.5</ele>
        <time>2012-04-19T06:43:36Z</time>
      </trkpt>
      <trkpt lat="43.78892" lon="7.24639">
        <ele>565.7</ele>
        <time>2012-04-19T06:43:37Z</time>
      </trkpt>
      <trkpt lat="43.78904" lon="7.24641">
        <ele>565.9</ele>
        <time>2012-04-19T06:43:42Z</time>
      </trkpt>
      <trkpt lat="43.78912" lon="7.24643">
        <ele>566.5</ele>
        <time>2012-04-19T06:43:45Z</time>
      </trkpt>
      <trkpt lat="43.78919" lon="7.24646">
        <ele>566.9</ele>
        <time>2012-04-19T06:43:48Z</time>
      </trkpt>
      <trkpt lat="43.78925" lon="7.24652">
        <ele>567</ele>
        <time>2012-04-19T06:43:51Z</time>
      </trkpt>
      <trkpt lat="43.7893" lon="7.24659">
        <ele>567.2</ele>
        <time>2012-04-19T06:43:54Z</time>
      </trkpt>
      <trkpt lat="43.78935" lon="7.24665">
        <ele>568.4</ele>
        <time>2012-04-19T06:43:57Z</time>
      </trkpt>
      <trkpt lat="43.78941" lon="7.24674">
        <ele>569</ele>
        <time>2012-04-19T06:44:00Z</time>
      </trkpt>
      <trkpt lat="43.78948" lon="7.2468">
        <ele>569.2</ele>
        <time>2012-04-19T06:44:03Z</time>
      </trkpt>
      <trkpt lat="43.78955" lon="7.24685">
        <ele>569.5</ele>
        <time>2012-04-19T06:44:06Z</time>
      </trkpt>
      <trkpt lat="43.78962" lon="7.24689">
        <ele>569.9</ele>
        <time>2012-04-19T06:44:09Z</time>
      </trkpt>
      <trkpt lat="43.7897" lon="7.2469">
        <ele>570.2</ele>
        <time>2012-04-19T06:44:12Z</time>
      </trkpt>
      <trkpt lat="43.78978" lon="7.24689">
        <ele>569.9</ele>
        <time>2012-04-19T06:44:15Z</time>
      </trkpt>
      <trkpt lat="43.78986" lon="7.24687">
        <ele>571</ele>
        <time>2012-04-19T06:44:18Z</time>
      </trkpt>
      <trkpt lat="43.78993" lon="7.24686">
        <ele>572.1</ele>
        <time>2012-04-19T06:44:21Z</time>
      </trkpt>
      <trkpt lat="43.79001" lon="7.24684">
        <ele>572.8</ele>
        <time>2012-04-19T06:44:24Z</time>
      </trkpt>
      <trkpt lat="43.79008" lon="7.24682">
        <ele>573.3</ele>
        <time>2012-04-19T06:44:27Z</time>
      </trkpt>
      <trkpt lat="43.79016" lon="7.2468">
        <ele>573.5</ele>
        <time>2012-04-19T06:44:30Z</time>
      </trkpt>
      <trkpt lat="43.79024" lon="7.24679">
        <ele>573.9</ele>
        <time>2012-04-19T06:44:33Z</time>
      </trkpt>
      <trkpt lat="43.79032" lon="7.2468">
        <ele>574.8</ele>
        <time>2012-04-19T06:44:36Z</time>
      </trkpt>
      <trkpt lat="43.7904" lon="7.24681">
        <ele>575.9</ele>
        <time>2012-04-19T06:44:39Z</time>
      </trkpt>
      <trkpt lat="43.79042" lon="7.24681">
        <ele>576.3</ele>
        <time>2012-04-19T06:44:40Z</time>
      </trkpt>
      <trkpt lat="43.79055" lon="7.24675">
        <ele>576.4</ele>
        <time>2012-04-19T06:44:45Z</time>
      </trkpt>
      <trkpt lat="43.79062" lon="7.24672">
        <ele>576.8</ele>
        <time>2012-04-19T06:44:48Z</time>
      </trkpt>
      <trkpt lat="43.79071" lon="7.2467">
        <ele>578.1</ele>
        <time>2012-04-19T06:44:51Z</time>
      </trkpt>
      <trkpt lat="43.7908" lon="7.24669">
        <ele>577.8</ele>
        <time>2012-04-19T06:44:54Z</time>
      </trkpt>
      <trkpt lat="43.79086" lon="7.24668">
        <ele>577.9</ele>
        <time>2012-04-19T06:44:56Z</time>
      </trkpt>
      <trkpt lat="43.79095" lon="7.24666">
        <ele>578</ele>
        <time>2012-04-19T06:44:59Z</time>
      </trkpt>
      <trkpt lat="43.79103" lon="7.24665">
        <ele>577.5</ele>
        <time>2012-04-19T06:45:02Z</time>
      </trkpt>
      <trkpt lat="43.79112" lon="7.24667">
        <ele>577.5</ele>
        <time>2012-04-19T06:45:05Z</time>
      </trkpt>
      <trkpt lat="43.79107" lon="7.24676">
        <ele>579.7</ele>
        <time>2012-04-19T06:45:12Z</time>
      </trkpt>
      <trkpt lat="43.79099" lon="7.24682">
        <ele>582.6</ele>
        <time>2012-04-19T06:45:19Z</time>
      </trkpt>
      <trkpt lat="43.7909" lon="7.24686">
        <ele>584.7</ele>
        <time>2012-04-19T06:45:25Z</time>
      </trkpt>
      <trkpt lat="43.79083" lon="7.24692">
        <ele>587.1</ele>
        <time>2012-04-19T06:45:30Z</time>
      </trkpt>
      <trkpt lat="43.79076" lon="7.24695">
        <ele>588.1</ele>
        <time>2012-04-19T06:45:34Z</time>
      </trkpt>
      <trkpt lat="43.79068" lon="7.24701">
        <ele>589.8</ele>
        <time>2012-04-19T06:45:39Z</time>
      </trkpt>
      <trkpt lat="43.79061" lon="7.24706">
        <ele>590.9</ele>
        <time>2012-04-19T06:45:44Z</time>
      </trkpt>
      <trkpt lat="43.7906" lon="7.24708">
        <ele>590.7</ele>
        <time>2012-04-19T06:45:45Z</time>
      </trkpt>
      <trkpt lat="43.79047" lon="7.24721">
        <ele>592.8</ele>
        <time>2012-04-19T06:45:54Z</time>
      </trkpt>
      <trkpt lat="43.79042" lon="7.24728">
        <ele>595</ele>
        <time>2012-04-19T06:45:58Z</time>
      </trkpt>
      <trkpt lat="43.79034" lon="7.24736">
        <ele>596.5</ele>
        <time>2012-04-19T06:46:03Z</time>
      </trkpt>
      <trkpt lat="43.79028" lon="7.24743">
        <ele>598.7</ele>
        <time>2012-04-19T06:46:08Z</time>
      </trkpt>
      <trkpt lat="43.7902" lon="7.24747">
        <ele>601</ele>
        <time>2012-04-19T06:46:13Z</time>
      </trkpt>
      <trkpt lat="43.79012" lon="7.2475">
        <ele>602.1</ele>
        <time>2012-04-19T06:46:17Z</time>
      </trkpt>
      <trkpt lat="43.79005" lon="7.24752">
        <ele>603.6</ele>
        <time>2012-04-19T06:46:20Z</time>
      </trkpt>
      <trkpt lat="43.78997" lon="7.24757">
        <ele>603.4</ele>
        <time>2012-04-19T06:46:23Z</time>
      </trkpt>
      <trkpt lat="43.7899" lon="7.24762">
        <ele>603.4</ele>
        <time>2012-04-19T06:46:26Z</time>
      </trkpt>
      <trkpt lat="43.78984" lon="7.24766">
        <ele>603.6</ele>
        <time>2012-04-19T06:46:28Z</time>
      </trkpt>
      <trkpt lat="43.78976" lon="7.2477">
        <ele>602.7</ele>
        <time>2012-04-19T06:46:30Z</time>
      </trkpt>
      <trkpt lat="43.78971" lon="7.24772">
        <ele>602</ele>
        <time>2012-04-19T06:46:31Z</time>
      </trkpt>
      <trkpt lat="43.78966" lon="7.24774">
        <ele>601.5</ele>
        <time>2012-04-19T06:46:32Z</time>
      </trkpt>
      <trkpt lat="43.78962" lon="7.24777">
        <ele>601.1</ele>
        <time>2012-04-19T06:46:33Z</time>
      </trkpt>
      <trkpt lat="43.78957" lon="7.24779">
        <ele>600.9</ele>
        <time>2012-04-19T06:46:34Z</time>
      </trkpt>
      <trkpt lat="43.78953" lon="7.24781">
        <ele>600.8</ele>
        <time>2012-04-19T06:46:35Z</time>
      </trkpt>
      <trkpt lat="43.78949" lon="7.24785">
        <ele>600</ele>
        <time>2012-04-19T06:46:36Z</time>
      </trkpt>
      <trkpt lat="43.78943" lon="7.24793">
        <ele>599.7</ele>
        <time>2012-04-19T06:46:38Z</time>
      </trkpt>
      <trkpt lat="43.78939" lon="7.24801">
        <ele>599.9</ele>
        <time>2012-04-19T06:46:40Z</time>
      </trkpt>
      <trkpt lat="43.78936" lon="7.24809">
        <ele>599.8</ele>
        <time>2012-04-19T06:46:42Z</time>
      </trkpt>
      <trkpt lat="43.78933" lon="7.24817">
        <ele>600</ele>
        <time>2012-04-19T06:46:44Z</time>
      </trkpt>
      <trkpt lat="43.7893" lon="7.24824">
        <ele>600.3</ele>
        <time>2012-04-19T06:46:46Z</time>
      </trkpt>
      <trkpt lat="43.78928" lon="7.24828">
        <ele>600.4</ele>
        <time>2012-04-19T06:46:47Z</time>
      </trkpt>
      <trkpt lat="43.7892" lon="7.24845">
        <ele>601.7</ele>
        <time>2012-04-19T06:46:52Z</time>
      </trkpt>
      <trkpt lat="43.78918" lon="7.24853">
        <ele>602.3</ele>
        <time>2012-04-19T06:46:54Z</time>
      </trkpt>
      <trkpt lat="43.78915" lon="7.24861">
        <ele>602.1</ele>
        <time>2012-04-19T06:46:56Z</time>
      </trkpt>
      <trkpt lat="43.78913" lon="7.2487">
        <ele>602.1</ele>
        <time>2012-04-19T06:46:58Z</time>
      </trkpt>
      <trkpt lat="43.78911" lon="7.24878">
        <ele>602.2</ele>
        <time>2012-04-19T06:47:00Z</time>
      </trkpt>
      <trkpt lat="43.78909" lon="7.24887">
        <ele>602.7</ele>
        <time>2012-04-19T06:47:02Z</time>
      </trkpt>
      <trkpt lat="43.78908" lon="7.24896">
        <ele>603.6</ele>
        <time>2012-04-19T06:47:04Z</time>
      </trkpt>
      <trkpt lat="43.7891" lon="7.24904">
        <ele>604.3</ele>
        <time>2012-04-19T06:47:06Z</time>
      </trkpt>
      <trkpt lat="43.78918" lon="7.24909">
        <ele>604.5</ele>
        <time>2012-04-19T06:47:09Z</time>
      </trkpt>
      <trkpt lat="43.78926" lon="7.24908">
        <ele>605.3</ele>
        <time>2012-04-19T06:47:13Z</time>
      </trkpt>
      <trkpt lat="43.78935" lon="7.24908">
        <ele>607.2</ele>
        <time>2012-04-19T06:47:18Z</time>
      </trkpt>
      <trkpt lat="43.78943" lon="7.24907">
        <ele>609.5</ele>
        <time>2012-04-19T06:47:24Z</time>
      </trkpt>
      <trkpt lat="43.78952" lon="7.24904">
        <ele>610.9</ele>
        <time>2012-04-19T06:47:31Z</time>
      </trkpt>
      <trkpt lat="43.78959" lon="7.24899">
        <ele>612.7</ele>
        <time>2012-04-19T06:47:38Z</time>
      </trkpt>
      <trkpt lat="43.78968" lon="7.24899">
        <ele>614.7</ele>
        <time>2012-04-19T06:47:45Z</time>
      </trkpt>
      <trkpt lat="43.78977" lon="7.24897">
        <ele>616.3</ele>
        <time>2012-04-19T06:47:53Z</time>
      </trkpt>
      <trkpt lat="43.78977" lon="7.24898">
        <ele>617.1</ele>
        <time>2012-04-19T06:47:54Z</time>
      </trkpt>
      <trkpt lat="43.78993" lon="7.24895">
        <ele>622.6</ele>
        <time>2012-04-19T06:48:09Z</time>
      </trkpt>
      <trkpt lat="43.79002" lon="7.24894">
        <ele>625.4</ele>
        <time>2012-04-19T06:48:15Z</time>
      </trkpt>
      <trkpt lat="43.7901" lon="7.24899">
        <ele>627.7</ele>
        <time>2012-04-19T06:48:22Z</time>
      </trkpt>
      <trkpt lat="43.79017" lon="7.24904">
        <ele>629.9</ele>
        <time>2012-04-19T06:48:28Z</time>
      </trkpt>
      <trkpt lat="43.79025" lon="7.24907">
        <ele>631.8</ele>
        <time>2012-04-19T06:48:35Z</time>
      </trkpt>
      <trkpt lat="43.79032" lon="7.24912">
        <ele>631.3</ele>
        <time>2012-04-19T06:48:41Z</time>
      </trkpt>
      <trkpt lat="43.79039" lon="7.24917">
        <ele>632.9</ele>
        <time>2012-04-19T06:48:48Z</time>
      </trkpt>
      <trkpt lat="43.79047" lon="7.24921">
        <ele>635.9</ele>
        <time>2012-04-19T06:48:55Z</time>
      </trkpt>
      <trkpt lat="43.79048" lon="7.24922">
        <ele>635.7</ele>
        <time>2012-04-19T06:48:56Z</time>
      </trkpt>
      <trkpt lat="43.79062" lon="7.24933">
        <ele>640.3</ele>
        <time>2012-04-19T06:49:09Z</time>
      </trkpt>
      <trkpt lat="43.79067" lon="7.24942">
        <ele>641.2</ele>
        <time>2012-04-19T06:49:16Z</time>
      </trkpt>
      <trkpt lat="43.79072" lon="7.24952">
        <ele>641.8</ele>
        <time>2012-04-19T06:49:22Z</time>
      </trkpt>
      <trkpt lat="43.79077" lon="7.24963">
        <ele>643.1</ele>
        <time>2012-04-19T06:49:29Z</time>
      </trkpt>
      <trkpt lat="43.79078" lon="7.24975">
        <ele>644.6</ele>
        <time>2012-04-19T06:49:37Z</time>
      </trkpt>
      <trkpt lat="43.7908" lon="7.24987">
        <ele>645.4</ele>
        <time>2012-04-19T06:49:43Z</time>
      </trkpt>
      <trkpt lat="43.79085" lon="7.24995">
        <ele>646.6</ele>
        <time>2012-04-19T06:49:48Z</time>
      </trkpt>
      <trkpt lat="43.79091" lon="7.24985">
        <ele>648.5</ele>
        <time>2012-04-19T06:49:56Z</time>
      </trkpt>
      <trkpt lat="43.79091" lon="7.24983">
        <ele>648.6</ele>
        <time>2012-04-19T06:49:57Z</time>
      </trkpt>
      <trkpt lat="43.79099" lon="7.24966">
        <ele>650.1</ele>
        <time>2012-04-19T06:50:09Z</time>
      </trkpt>
      <trkpt lat="43.79103" lon="7.24956">
        <ele>652.2</ele>
        <time>2012-04-19T06:50:15Z</time>
      </trkpt>
      <trkpt lat="43.79105" lon="7.24944">
        <ele>653.4</ele>
        <time>2012-04-19T06:50:22Z</time>
      </trkpt>
      <trkpt lat="43.79108" lon="7.24934">
        <ele>654.8</ele>
        <time>2012-04-19T06:50:28Z</time>
      </trkpt>
      <trkpt lat="43.79115" lon="7.24925">
        <ele>656.4</ele>
        <time>2012-04-19T06:50:33Z</time>
      </trkpt>
      <trkpt lat="43.79123" lon="7.24922">
        <ele>658.7</ele>
        <time>2012-04-19T06:50:39Z</time>
      </trkpt>
      <trkpt lat="43.7913" lon="7.24917">
        <ele>661</ele>
        <time>2012-04-19T06:50:45Z</time>
      </trkpt>
      <trkpt lat="43.79138" lon="7.24911">
        <ele>662.2</ele>
        <time>2012-04-19T06:50:50Z</time>
      </trkpt>
      <trkpt lat="43.79143" lon="7.24901">
        <ele>664.2</ele>
        <time>2012-04-19T06:50:55Z</time>
      </trkpt>
      <trkpt lat="43.79147" lon="7.24891">
        <ele>663.9</ele>
        <time>2012-04-19T06:50:59Z</time>
      </trkpt>
      <trkpt lat="43.79148" lon="7.24888">
        <ele>663.6</ele>
        <time>2012-04-19T06:51:00Z</time>
      </trkpt>
      <trkpt lat="43.79155" lon="7.24871">
        <ele>664.4</ele>
        <time>2012-04-19T06:51:05Z</time>
      </trkpt>
      <trkpt lat="43.79158" lon="7.24865">
        <ele>664.3</ele>
        <time>2012-04-19T06:51:07Z</time>
      </trkpt>
      <trkpt lat="43.7916" lon="7.24854">
        <ele>663.8</ele>
        <time>2012-04-19T06:51:09Z</time>
      </trkpt>
      <trkpt lat="43.79164" lon="7.24846">
        <ele>662.9</ele>
        <time>2012-04-19T06:51:11Z</time>
      </trkpt>
      <trkpt lat="43.7917" lon="7.24837">
        <ele>662.1</ele>
        <time>2012-04-19T06:51:13Z</time>
      </trkpt>
      <trkpt lat="43.79178" lon="7.24835">
        <ele>661</ele>
        <time>2012-04-19T06:51:15Z</time>
      </trkpt>
      <trkpt lat="43.79183" lon="7.24836">
        <ele>660</ele>
        <time>2012-04-19T06:51:16Z</time>
      </trkpt>
      <trkpt lat="43.79188" lon="7.24836">
        <ele>659.2</ele>
        <time>2012-04-19T06:51:17Z</time>
      </trkpt>
      <trkpt lat="43.79195" lon="7.24835">
        <ele>658</ele>
        <time>2012-04-19T06:51:18Z</time>
      </trkpt>
      <trkpt lat="43.79202" lon="7.24834">
        <ele>657</ele>
        <time>2012-04-19T06:51:19Z</time>
      </trkpt>
      <trkpt lat="43.79209" lon="7.24834">
        <ele>656.3</ele>
        <time>2012-04-19T06:51:20Z</time>
      </trkpt>
      <trkpt lat="43.79217" lon="7.24836">
        <ele>655.6</ele>
        <time>2012-04-19T06:51:21Z</time>
      </trkpt>
      <trkpt lat="43.79224" lon="7.24838">
        <ele>655.1</ele>
        <time>2012-04-19T06:51:22Z</time>
      </trkpt>
      <trkpt lat="43.79231" lon="7.24839">
        <ele>654.3</ele>
        <time>2012-04-19T06:51:23Z</time>
      </trkpt>
      <trkpt lat="43.79238" lon="7.2484">
        <ele>653.7</ele>
        <time>2012-04-19T06:51:24Z</time>
      </trkpt>
      <trkpt lat="43.79245" lon="7.24838">
        <ele>652.9</ele>
        <time>2012-04-19T06:51:25Z</time>
      </trkpt>
      <trkpt lat="43.79252" lon="7.24836">
        <ele>652.2</ele>
        <time>2012-04-19T06:51:26Z</time>
      </trkpt>
      <trkpt lat="43.79257" lon="7.24833">
        <ele>651.8</ele>
        <time>2012-04-19T06:51:27Z</time>
      </trkpt>
      <trkpt lat="43.79262" lon="7.24831">
        <ele>651.5</ele>
        <time>2012-04-19T06:51:28Z</time>
      </trkpt>
      <trkpt lat="43.79269" lon="7.24826">
        <ele>651.6</ele>
        <time>2012-04-19T06:51:30Z</time>
      </trkpt>
      <trkpt lat="43.79274" lon="7.24818">
        <ele>651.8</ele>
        <time>2012-04-19T06:51:33Z</time>
      </trkpt>
      <trkpt lat="43.79283" lon="7.24816">
        <ele>651.9</ele>
        <time>2012-04-19T06:51:38Z</time>
      </trkpt>
      <trkpt lat="43.7929" lon="7.24819">
        <ele>652.6</ele>
        <time>2012-04-19T06:51:44Z</time>
      </trkpt>
      <trkpt lat="43.79297" lon="7.24822">
        <ele>652.7</ele>
        <time>2012-04-19T06:51:48Z</time>
      </trkpt>
      <trkpt lat="43.79305" lon="7.24827">
        <ele>653.2</ele>
        <time>2012-04-19T06:51:52Z</time>
      </trkpt>
      <trkpt lat="43.79312" lon="7.24831">
        <ele>653.1</ele>
        <time>2012-04-19T06:51:56Z</time>
      </trkpt>
      <trkpt lat="43.7932" lon="7.24834">
        <ele>653.5</ele>
        <time>2012-04-19T06:52:00Z</time>
      </trkpt>
      <trkpt lat="43.79322" lon="7.24835">
        <ele>653.9</ele>
        <time>2012-04-19T06:52:01Z</time>
      </trkpt>
      <trkpt lat="43.79336" lon="7.24838">
        <ele>655.7</ele>
        <time>2012-04-19T06:52:08Z</time>
      </trkpt>
      <trkpt lat="43.79345" lon="7.24838">
        <ele>657.4</ele>
        <time>2012-04-19T06:52:13Z</time>
      </trkpt>
      <trkpt lat="43.79353" lon="7.24839">
        <ele>660.6</ele>
        <time>2012-04-19T06:52:45Z</time>
      </trkpt>
      <trkpt lat="43.79349" lon="7.24829">
        <ele>661.3</ele>
        <time>2012-04-19T06:52:59Z</time>
      </trkpt>
      <trkpt lat="43.79343" lon="7.2482">
        <ele>661.2</ele>
        <time>2012-04-19T06:53:04Z</time>
      </trkpt>
      <trkpt lat="43.79342" lon="7.24818">
        <ele>661.8</ele>
        <time>2012-04-19T06:53:05Z</time>
      </trkpt>
      <trkpt lat="43.79337" lon="7.24798">
        <ele>664.4</ele>
        <time>2012-04-19T06:53:14Z</time>
      </trkpt>
      <trkpt lat="43.79338" lon="7.24786">
        <ele>666.4</ele>
        <time>2012-04-19T06:53:20Z</time>
      </trkpt>
      <trkpt lat="43.79341" lon="7.24776">
        <ele>667.5</ele>
        <time>2012-04-19T06:53:25Z</time>
      </trkpt>
      <trkpt lat="43.79341" lon="7.24765">
        <ele>668.2</ele>
        <time>2012-04-19T06:53:30Z</time>
      </trkpt>
      <trkpt lat="43.79342" lon="7.24753">
        <ele>669.4</ele>
        <time>2012-04-19T06:53:35Z</time>
      </trkpt>
      <trkpt lat="43.79344" lon="7.24742">
        <ele>670.9</ele>
        <time>2012-04-19T06:53:40Z</time>
      </trkpt>
      <trkpt lat="43.79348" lon="7.24731">
        <ele>670.5</ele>
        <time>2012-04-19T06:53:45Z</time>
      </trkpt>
      <trkpt lat="43.79351" lon="7.24721">
        <ele>670.9</ele>
        <time>2012-04-19T06:53:49Z</time>
      </trkpt>
      <trkpt lat="43.79354" lon="7.24711">
        <ele>671.3</ele>
        <time>2012-04-19T06:53:52Z</time>
      </trkpt>
      <trkpt lat="43.79358" lon="7.24699">
        <ele>671.7</ele>
        <time>2012-04-19T06:53:55Z</time>
      </trkpt>
      <trkpt lat="43.7936" lon="7.24691">
        <ele>671.6</ele>
        <time>2012-04-19T06:53:57Z</time>
      </trkpt>
      <trkpt lat="43.79362" lon="7.24682">
        <ele>671.6</ele>
        <time>2012-04-19T06:53:59Z</time>
      </trkpt>
      <trkpt lat="43.79364" lon="7.24674">
        <ele>671.7</ele>
        <time>2012-04-19T06:54:01Z</time>
      </trkpt>
      <trkpt lat="43.79367" lon="7.24666">
        <ele>672.6</ele>
        <time>2012-04-19T06:54:03Z</time>
      </trkpt>
      <trkpt lat="43.7937" lon="7.24658">
        <ele>672.6</ele>
        <time>2012-04-19T06:54:05Z</time>
      </trkpt>
      <trkpt lat="43.79372" lon="7.24654">
        <ele>672.3</ele>
        <time>2012-04-19T06:54:06Z</time>
      </trkpt>
      <trkpt lat="43.79378" lon="7.24641">
        <ele>672.8</ele>
        <time>2012-04-19T06:54:09Z</time>
      </trkpt>
      <trkpt lat="43.79381" lon="7.24633">
        <ele>673.1</ele>
        <time>2012-04-19T06:54:11Z</time>
      </trkpt>
      <trkpt lat="43.79385" lon="7.24625">
        <ele>673.1</ele>
        <time>2012-04-19T06:54:13Z</time>
      </trkpt>
      <trkpt lat="43.79389" lon="7.24618">
        <ele>673.5</ele>
        <time>2012-04-19T06:54:15Z</time>
      </trkpt>
      <trkpt lat="43.79393" lon="7.24611">
        <ele>675.3</ele>
        <time>2012-04-19T06:54:17Z</time>
      </trkpt>
      <trkpt lat="43.79398" lon="7.24605">
        <ele>675.8</ele>
        <time>2012-04-19T06:54:19Z</time>
      </trkpt>
      <trkpt lat="43.79402" lon="7.24599">
        <ele>675.7</ele>
        <time>2012-04-19T06:54:21Z</time>
      </trkpt>
      <trkpt lat="43.79407" lon="7.24593">
        <ele>675.8</ele>
        <time>2012-04-19T06:54:23Z</time>
      </trkpt>
      <trkpt lat="43.79412" lon="7.24588">
        <ele>676.2</ele>
        <time>2012-04-19T06:54:25Z</time>
      </trkpt>
      <trkpt lat="43.79418" lon="7.2458">
        <ele>676.8</ele>
        <time>2012-04-19T06:54:28Z</time>
      </trkpt>
      <trkpt lat="43.79423" lon="7.24575">
        <ele>677.4</ele>
        <time>2012-04-19T06:54:30Z</time>
      </trkpt>
      <trkpt lat="43.79428" lon="7.2457">
        <ele>677.3</ele>
        <time>2012-04-19T06:54:32Z</time>
      </trkpt>
      <trkpt lat="43.79436" lon="7.24563">
        <ele>677</ele>
        <time>2012-04-19T06:54:35Z</time>
      </trkpt>
      <trkpt lat="43.79441" lon="7.24559">
        <ele>677.5</ele>
        <time>2012-04-19T06:54:37Z</time>
      </trkpt>
      <trkpt lat="43.79446" lon="7.24554">
        <ele>677.7</ele>
        <time>2012-04-19T06:54:39Z</time>
      </trkpt>
      <trkpt lat="43.79451" lon="7.24548">
        <ele>677.9</ele>
        <time>2012-04-19T06:54:41Z</time>
      </trkpt>
      <trkpt lat="43.79456" lon="7.24543">
        <ele>678.4</ele>
        <time>2012-04-19T06:54:43Z</time>
      </trkpt>
      <trkpt lat="43.79462" lon="7.24538">
        <ele>678.3</ele>
        <time>2012-04-19T06:54:45Z</time>
      </trkpt>
      <trkpt lat="43.79468" lon="7.24534">
        <ele>678.4</ele>
        <time>2012-04-19T06:54:47Z</time>
      </trkpt>
      <trkpt lat="43.79473" lon="7.24529">
        <ele>678.9</ele>
        <time>2012-04-19T06:54:49Z</time>
      </trkpt>
      <trkpt lat="43.79479" lon="7.24524">
        <ele>678.3</ele>
        <time>2012-04-19T06:54:51Z</time>
      </trkpt>
      <trkpt lat="43.79485" lon="7.24519">
        <ele>679</ele>
        <time>2012-04-19T06:54:53Z</time>
      </trkpt>
      <trkpt lat="43.7949" lon="7.24514">
        <ele>679.4</ele>
        <time>2012-04-19T06:54:55Z</time>
      </trkpt>
      <trkpt lat="43.79495" lon="7.24509">
        <ele>679.5</ele>
        <time>2012-04-19T06:54:57Z</time>
      </trkpt>
      <trkpt lat="43.79502" lon="7.24503">
        <ele>679.4</ele>
        <time>2012-04-19T06:55:00Z</time>
      </trkpt>
      <trkpt lat="43.79509" lon="7.24496">
        <ele>680.8</ele>
        <time>2012-04-19T06:55:03Z</time>
      </trkpt>
      <trkpt lat="43.79516" lon="7.2449">
        <ele>681.8</ele>
        <time>2012-04-19T06:55:06Z</time>
      </trkpt>
      <trkpt lat="43.79518" lon="7.24488">
        <ele>682.2</ele>
        <time>2012-04-19T06:55:07Z</time>
      </trkpt>
      <trkpt lat="43.7953" lon="7.24478">
        <ele>683.6</ele>
        <time>2012-04-19T06:55:12Z</time>
      </trkpt>
      <trkpt lat="43.79536" lon="7.24472">
        <ele>683.5</ele>
        <time>2012-04-19T06:55:15Z</time>
      </trkpt>
      <trkpt lat="43.79543" lon="7.24465">
        <ele>684.3</ele>
        <time>2012-04-19T06:55:18Z</time>
      </trkpt>
      <trkpt lat="43.7955" lon="7.24457">
        <ele>684.9</ele>
        <time>2012-04-19T06:55:21Z</time>
      </trkpt>
      <trkpt lat="43.79556" lon="7.24449">
        <ele>685.4</ele>
        <time>2012-04-19T06:55:24Z</time>
      </trkpt>
      <trkpt lat="43.79563" lon="7.2444">
        <ele>686</ele>
        <time>2012-04-19T06:55:27Z</time>
      </trkpt>
      <trkpt lat="43.7957" lon="7.24433">
        <ele>686.2</ele>
        <time>2012-04-19T06:55:30Z</time>
      </trkpt>
      <trkpt lat="43.79576" lon="7.24426">
        <ele>686.4</ele>
        <time>2012-04-19T06:55:33Z</time>
      </trkpt>
      <trkpt lat="43.79583" lon="7.24419">
        <ele>686.3</ele>
        <time>2012-04-19T06:55:36Z</time>
      </trkpt>
      <trkpt lat="43.79589" lon="7.24411">
        <ele>686.5</ele>
        <time>2012-04-19T06:55:39Z</time>
      </trkpt>
      <trkpt lat="43.79596" lon="7.24404">
        <ele>687.7</ele>
        <time>2012-04-19T06:55:42Z</time>
      </trkpt>
      <trkpt lat="43.79602" lon="7.24397">
        <ele>688.4</ele>
        <time>2012-04-19T06:55:45Z</time>
      </trkpt>
      <trkpt lat="43.79608" lon="7.2439">
        <ele>688.4</ele>
        <time>2012-04-19T06:55:48Z</time>
      </trkpt>
      <trkpt lat="43.79614" lon="7.24384">
        <ele>689.3</ele>
        <time>2012-04-19T06:55:51Z</time>
      </trkpt>
      <trkpt lat="43.7962" lon="7.24377">
        <ele>689.9</ele>
        <time>2012-04-19T06:55:54Z</time>
      </trkpt>
      <trkpt lat="43.79626" lon="7.2437">
        <ele>690.3</ele>
        <time>2012-04-19T06:55:57Z</time>
      </trkpt>
      <trkpt lat="43.79632" lon="7.24365">
        <ele>691.6</ele>
        <time>2012-04-19T06:56:00Z</time>
      </trkpt>
      <trkpt lat="43.79639" lon="7.24359">
        <ele>691.8</ele>
        <time>2012-04-19T06:56:03Z</time>
      </trkpt>
      <trkpt lat="43.79645" lon="7.24352">
        <ele>692.6</ele>
        <time>2012-04-19T06:56:06Z</time>
      </trkpt>
      <trkpt lat="43.79651" lon="7.24345">
        <ele>692.5</ele>
        <time>2012-04-19T06:56:09Z</time>
      </trkpt>
      <trkpt lat="43.79653" lon="7.24342">
        <ele>692.4</ele>
        <time>2012-04-19T06:56:10Z</time>
      </trkpt>
      <trkpt lat="43.79663" lon="7.24329">
        <ele>693.6</ele>
        <time>2012-04-19T06:56:15Z</time>
      </trkpt>
      <trkpt lat="43.79669" lon="7.2432">
        <ele>694.4</ele>
        <time>2012-04-19T06:56:18Z</time>
      </trkpt>
      <trkpt lat="43.79673" lon="7.24314">
        <ele>694.8</ele>
        <time>2012-04-19T06:56:20Z</time>
      </trkpt>
      <trkpt lat="43.79677" lon="7.24308">
        <ele>695.2</ele>
        <time>2012-04-19T06:56:22Z</time>
      </trkpt>
      <trkpt lat="43.79681" lon="7.24301">
        <ele>695.8</ele>
        <time>2012-04-19T06:56:24Z</time>
      </trkpt>
      <trkpt lat="43.79684" lon="7.24294">
        <ele>696.5</ele>
        <time>2012-04-19T06:56:26Z</time>
      </trkpt>
      <trkpt lat="43.79688" lon="7.24287">
        <ele>696.7</ele>
        <time>2012-04-19T06:56:28Z</time>
      </trkpt>
      <trkpt lat="43.79691" lon="7.2428">
        <ele>696.4</ele>
        <time>2012-04-19T06:56:30Z</time>
      </trkpt>
      <trkpt lat="43.79696" lon="7.24269">
        <ele>696.7</ele>
        <time>2012-04-19T06:56:33Z</time>
      </trkpt>
      <trkpt lat="43.79701" lon="7.24259">
        <ele>696.3</ele>
        <time>2012-04-19T06:56:36Z</time>
      </trkpt>
      <trkpt lat="43.79704" lon="7.24251">
        <ele>696.5</ele>
        <time>2012-04-19T06:56:38Z</time>
      </trkpt>
      <trkpt lat="43.79707" lon="7.24244">
        <ele>697.1</ele>
        <time>2012-04-19T06:56:40Z</time>
      </trkpt>
      <trkpt lat="43.79712" lon="7.24235">
        <ele>697.9</ele>
        <time>2012-04-19T06:56:43Z</time>
      </trkpt>
      <trkpt lat="43.79717" lon="7.24226">
        <ele>698.2</ele>
        <time>2012-04-19T06:56:46Z</time>
      </trkpt>
      <trkpt lat="43.79721" lon="7.24218">
        <ele>697.8</ele>
        <time>2012-04-19T06:56:49Z</time>
      </trkpt>
      <trkpt lat="43.79726" lon="7.2421">
        <ele>698.1</ele>
        <time>2012-04-19T06:56:52Z</time>
      </trkpt>
      <trkpt lat="43.7973" lon="7.24203">
        <ele>698.2</ele>
        <time>2012-04-19T06:56:55Z</time>
      </trkpt>
      <trkpt lat="43.79734" lon="7.24195">
        <ele>698.7</ele>
        <time>2012-04-19T06:56:57Z</time>
      </trkpt>
      <trkpt lat="43.79735" lon="7.24189">
        <ele>698.4</ele>
        <time>2012-04-19T06:56:58Z</time>
      </trkpt>
      <trkpt lat="43.79736" lon="7.24182">
        <ele>698.2</ele>
        <time>2012-04-19T06:56:59Z</time>
      </trkpt>
      <trkpt lat="43.79736" lon="7.24174">
        <ele>698.2</ele>
        <time>2012-04-19T06:57:00Z</time>
      </trkpt>
      <trkpt lat="43.79737" lon="7.24168">
        <ele>698.2</ele>
        <time>2012-04-19T06:57:01Z</time>
      </trkpt>
      <trkpt lat="43.79739" lon="7.24162">
        <ele>697.7</ele>
        <time>2012-04-19T06:57:02Z</time>
      </trkpt>
      <trkpt lat="43.79742" lon="7.24156">
        <ele>697.4</ele>
        <time>2012-04-19T06:57:03Z</time>
      </trkpt>
      <trkpt lat="43.79747" lon="7.24147">
        <ele>696.8</ele>
        <time>2012-04-19T06:57:05Z</time>
      </trkpt>
      <trkpt lat="43.7975" lon="7.2414">
        <ele>697</ele>
        <time>2012-04-19T06:57:07Z</time>
      </trkpt>
      <trkpt lat="43.79756" lon="7.24131">
        <ele>697.4</ele>
        <time>2012-04-19T06:57:10Z</time>
      </trkpt>
      <trkpt lat="43.79757" lon="7.24128">
        <ele>697.3</ele>
        <time>2012-04-19T06:57:11Z</time>
      </trkpt>
      <trkpt lat="43.79765" lon="7.24113">
        <ele>699.5</ele>
        <time>2012-04-19T06:57:16Z</time>
      </trkpt>
      <trkpt lat="43.7977" lon="7.24106">
        <ele>699.7</ele>
        <time>2012-04-19T06:57:19Z</time>
      </trkpt>
      <trkpt lat="43.79776" lon="7.241">
        <ele>700.3</ele>
        <time>2012-04-19T06:57:23Z</time>
      </trkpt>
      <trkpt lat="43.79784" lon="7.24096">
        <ele>701.4</ele>
        <time>2012-04-19T06:57:27Z</time>
      </trkpt>
      <trkpt lat="43.79792" lon="7.24092">
        <ele>702.3</ele>
        <time>2012-04-19T06:57:30Z</time>
      </trkpt>
      <trkpt lat="43.79798" lon="7.24092">
        <ele>702.3</ele>
        <time>2012-04-19T06:57:33Z</time>
      </trkpt>
      <trkpt lat="43.79807" lon="7.24091">
        <ele>702.9</ele>
        <time>2012-04-19T06:57:37Z</time>
      </trkpt>
      <trkpt lat="43.79815" lon="7.2409">
        <ele>702.8</ele>
        <time>2012-04-19T06:57:41Z</time>
      </trkpt>
      <trkpt lat="43.79822" lon="7.24088">
        <ele>703.3</ele>
        <time>2012-04-19T06:57:45Z</time>
      </trkpt>
      <trkpt lat="43.7983" lon="7.24089">
        <ele>704.3</ele>
        <time>2012-04-19T06:57:50Z</time>
      </trkpt>
      <trkpt lat="43.79838" lon="7.24087">
        <ele>705.7</ele>
        <time>2012-04-19T06:57:55Z</time>
      </trkpt>
      <trkpt lat="43.79847" lon="7.24085">
        <ele>706.3</ele>
        <time>2012-04-19T06:58:00Z</time>
      </trkpt>
      <trkpt lat="43.79855" lon="7.24083">
        <ele>706.9</ele>
        <time>2012-04-19T06:58:04Z</time>
      </trkpt>
      <trkpt lat="43.79863" lon="7.24081">
        <ele>708.2</ele>
        <time>2012-04-19T06:58:08Z</time>
      </trkpt>
      <trkpt lat="43.7987" lon="7.2408">
        <ele>708.9</ele>
        <time>2012-04-19T06:58:13Z</time>
      </trkpt>
      <trkpt lat="43.79872" lon="7.24081">
        <ele>708.9</ele>
        <time>2012-04-19T06:58:14Z</time>
      </trkpt>
      <trkpt lat="43.79885" lon="7.24091">
        <ele>712.2</ele>
        <time>2012-04-19T06:58:25Z</time>
      </trkpt>
      <trkpt lat="43.79892" lon="7.24096">
        <ele>714.5</ele>
        <time>2012-04-19T06:58:37Z</time>
      </trkpt>
      <trkpt lat="43.79901" lon="7.24096">
        <ele>715.3</ele>
        <time>2012-04-19T06:58:47Z</time>
      </trkpt>
      <trkpt lat="43.79908" lon="7.24098">
        <ele>715</ele>
        <time>2012-04-19T06:58:55Z</time>
      </trkpt>
      <trkpt lat="43.79914" lon="7.24105">
        <ele>716.6</ele>
        <time>2012-04-19T06:59:01Z</time>
      </trkpt>
      <trkpt lat="43.79921" lon="7.24113">
        <ele>716.2</ele>
        <time>2012-04-19T06:59:07Z</time>
      </trkpt>
      <trkpt lat="43.79929" lon="7.24119">
        <ele>718.9</ele>
        <time>2012-04-19T06:59:13Z</time>
      </trkpt>
      <trkpt lat="43.79936" lon="7.24127">
        <ele>719</ele>
        <time>2012-04-19T06:59:19Z</time>
      </trkpt>
      <trkpt lat="43.79937" lon="7.24128">
        <ele>718.8</ele>
        <time>2012-04-19T06:59:20Z</time>
      </trkpt>
      <trkpt lat="43.79944" lon="7.24145">
        <ele>720.8</ele>
        <time>2012-04-19T06:59:31Z</time>
      </trkpt>
      <trkpt lat="43.79947" lon="7.24155">
        <ele>724</ele>
        <time>2012-04-19T06:59:37Z</time>
      </trkpt>
      <trkpt lat="43.79951" lon="7.24166">
        <ele>725.4</ele>
        <time>2012-04-19T06:59:44Z</time>
      </trkpt>
      <trkpt lat="43.79953" lon="7.24177">
        <ele>727.4</ele>
        <time>2012-04-19T06:59:52Z</time>
      </trkpt>
      <trkpt lat="43.79958" lon="7.24188">
        <ele>752.1</ele>
        <time>2012-04-19T07:00:04Z</time>
      </trkpt>
      <trkpt lat="43.79964" lon="7.24196">
        <ele>755.8</ele>
        <time>2012-04-19T07:00:15Z</time>
      </trkpt>
      <trkpt lat="43.79971" lon="7.24203">
        <ele>758.1</ele>
        <time>2012-04-19T07:00:25Z</time>
      </trkpt>
      <trkpt lat="43.79972" lon="7.24203">
        <ele>758.1</ele>
        <time>2012-04-19T07:00:26Z</time>
      </trkpt>
      <trkpt lat="43.79987" lon="7.24213">
        <ele>759.3</ele>
        <time>2012-04-19T07:00:40Z</time>
      </trkpt>
      <trkpt lat="43.79993" lon="7.24221">
        <ele>760.5</ele>
        <time>2012-04-19T07:00:50Z</time>
      </trkpt>
      <trkpt lat="43.79993" lon="7.24233">
        <ele>759.5</ele>
        <time>2012-04-19T07:01:00Z</time>
      </trkpt>
      <trkpt lat="43.79995" lon="7.24245">
        <ele>760.2</ele>
        <time>2012-04-19T07:01:07Z</time>
      </trkpt>
      <trkpt lat="43.79996" lon="7.24256">
        <ele>760.4</ele>
        <time>2012-04-19T07:01:11Z</time>
      </trkpt>
      <trkpt lat="43.79996" lon="7.24266">
        <ele>759.5</ele>
        <time>2012-04-19T07:01:14Z</time>
      </trkpt>
      <trkpt lat="43.79999" lon="7.24278">
        <ele>758.2</ele>
        <time>2012-04-19T07:01:17Z</time>
      </trkpt>
      <trkpt lat="43.80001" lon="7.24287">
        <ele>757.1</ele>
        <time>2012-04-19T07:01:19Z</time>
      </trkpt>
      <trkpt lat="43.80005" lon="7.24298">
        <ele>756.7</ele>
        <time>2012-04-19T07:01:21Z</time>
      </trkpt>
      <trkpt lat="43.80006" lon="7.24308">
        <ele>755.9</ele>
        <time>2012-04-19T07:01:23Z</time>
      </trkpt>
      <trkpt lat="43.80008" lon="7.24319">
        <ele>754.9</ele>
        <time>2012-04-19T07:01:25Z</time>
      </trkpt>
      <trkpt lat="43.8001" lon="7.2433">
        <ele>755.5</ele>
        <time>2012-04-19T07:01:27Z</time>
      </trkpt>
      <trkpt lat="43.8001" lon="7.24336">
        <ele>755</ele>
        <time>2012-04-19T07:01:28Z</time>
      </trkpt>
      <trkpt lat="43.80013" lon="7.24351">
        <ele>754.3</ele>
        <time>2012-04-19T07:01:31Z</time>
      </trkpt>
      <trkpt lat="43.80015" lon="7.24363">
        <ele>753.8</ele>
        <time>2012-04-19T07:01:33Z</time>
      </trkpt>
      <trkpt lat="43.80017" lon="7.24369">
        <ele>753.5</ele>
        <time>2012-04-19T07:01:34Z</time>
      </trkpt>
      <trkpt lat="43.80019" lon="7.24375">
        <ele>753.3</ele>
        <time>2012-04-19T07:01:35Z</time>
      </trkpt>
      <trkpt lat="43.80022" lon="7.24386">
        <ele>753.1</ele>
        <time>2012-04-19T07:01:37Z</time>
      </trkpt>
      <trkpt lat="43.80024" lon="7.24391">
        <ele>752.7</ele>
        <time>2012-04-19T07:01:38Z</time>
      </trkpt>
      <trkpt lat="43.80027" lon="7.24396">
        <ele>752.5</ele>
        <time>2012-04-19T07:01:39Z</time>
      </trkpt>
      <trkpt lat="43.80029" lon="7.24402">
        <ele>751.7</ele>
        <time>2012-04-19T07:01:40Z</time>
      </trkpt>
      <trkpt lat="43.80032" lon="7.24409">
        <ele>751</ele>
        <time>2012-04-19T07:01:41Z</time>
      </trkpt>
      <trkpt lat="43.80034" lon="7.24415">
        <ele>750.6</ele>
        <time>2012-04-19T07:01:42Z</time>
      </trkpt>
      <trkpt lat="43.80035" lon="7.24421">
        <ele>750.2</ele>
        <time>2012-04-19T07:01:43Z</time>
      </trkpt>
      <trkpt lat="43.80038" lon="7.24427">
        <ele>749.9</ele>
        <time>2012-04-19T07:01:44Z</time>
      </trkpt>
      <trkpt lat="43.80042" lon="7.24432">
        <ele>749.8</ele>
        <time>2012-04-19T07:01:45Z</time>
      </trkpt>
      <trkpt lat="43.80045" lon="7.24438">
        <ele>749.6</ele>
        <time>2012-04-19T07:01:46Z</time>
      </trkpt>
      <trkpt lat="43.8005" lon="7.24442">
        <ele>748.9</ele>
        <time>2012-04-19T07:01:47Z</time>
      </trkpt>
      <trkpt lat="43.80054" lon="7.24445">
        <ele>748.4</ele>
        <time>2012-04-19T07:01:48Z</time>
      </trkpt>
      <trkpt lat="43.80059" lon="7.24455">
        <ele>747.8</ele>
        <time>2012-04-19T07:01:50Z</time>
      </trkpt>
      <trkpt lat="43.80064" lon="7.24463">
        <ele>747</ele>
        <time>2012-04-19T07:01:53Z</time>
      </trkpt>
      <trkpt lat="43.8007" lon="7.24468">
        <ele>746.8</ele>
        <time>2012-04-19T07:01:57Z</time>
      </trkpt>
      <trkpt lat="43.80077" lon="7.24476">
        <ele>745.5</ele>
        <time>2012-04-19T07:02:02Z</time>
      </trkpt>
      <trkpt lat="43.80084" lon="7.24479">
        <ele>745.2</ele>
        <time>2012-04-19T07:02:08Z</time>
      </trkpt>
      <trkpt lat="43.8009" lon="7.24485">
        <ele>746.2</ele>
        <time>2012-04-19T07:02:12Z</time>
      </trkpt>
      <trkpt lat="43.80095" lon="7.24493">
        <ele>746.4</ele>
        <time>2012-04-19T07:02:16Z</time>
      </trkpt>
      <trkpt lat="43.80101" lon="7.24501">
        <ele>747.5</ele>
        <time>2012-04-19T07:02:20Z</time>
      </trkpt>
      <trkpt lat="43.80105" lon="7.24508">
        <ele>747.8</ele>
        <time>2012-04-19T07:02:23Z</time>
      </trkpt>
      <trkpt lat="43.80109" lon="7.24516">
        <ele>747.9</ele>
        <time>2012-04-19T07:02:26Z</time>
      </trkpt>
      <trkpt lat="43.80114" lon="7.24523">
        <ele>748.7</ele>
        <time>2012-04-19T07:02:29Z</time>
      </trkpt>
      <trkpt lat="43.80115" lon="7.24526">
        <ele>748.4</ele>
        <time>2012-04-19T07:02:30Z</time>
      </trkpt>
      <trkpt lat="43.80123" lon="7.24538">
        <ele>749.3</ele>
        <time>2012-04-19T07:02:35Z</time>
      </trkpt>
      <trkpt lat="43.80128" lon="7.24545">
        <ele>750.5</ele>
        <time>2012-04-19T07:02:38Z</time>
      </trkpt>
      <trkpt lat="43.80133" lon="7.24552">
        <ele>750.4</ele>
        <time>2012-04-19T07:02:41Z</time>
      </trkpt>
      <trkpt lat="43.80138" lon="7.24559">
        <ele>751.4</ele>
        <time>2012-04-19T07:02:44Z</time>
      </trkpt>
      <trkpt lat="43.80144" lon="7.24567">
        <ele>753</ele>
        <time>2012-04-19T07:02:48Z</time>
      </trkpt>
      <trkpt lat="43.80151" lon="7.24575">
        <ele>753.9</ele>
        <time>2012-04-19T07:02:53Z</time>
      </trkpt>
      <trkpt lat="43.80157" lon="7.24582">
        <ele>754.4</ele>
        <time>2012-04-19T07:02:59Z</time>
      </trkpt>
      <trkpt lat="43.80165" lon="7.24586">
        <ele>756.3</ele>
        <time>2012-04-19T07:03:06Z</time>
      </trkpt>
      <trkpt lat="43.80174" lon="7.24588">
        <ele>758.8</ele>
        <time>2012-04-19T07:03:22Z</time>
      </trkpt>
      <trkpt lat="43.80173" lon="7.246">
        <ele>762.4</ele>
        <time>2012-04-19T07:03:36Z</time>
      </trkpt>
      <trkpt lat="43.80172" lon="7.24601">
        <ele>762.3</ele>
        <time>2012-04-19T07:03:37Z</time>
      </trkpt>
      <trkpt lat="43.8016" lon="7.24617">
        <ele>767.1</ele>
        <time>2012-04-19T07:03:59Z</time>
      </trkpt>
      <trkpt lat="43.80161" lon="7.24629">
        <ele>772.9</ele>
        <time>2012-04-19T07:04:17Z</time>
      </trkpt>
      <trkpt lat="43.80164" lon="7.24641">
        <ele>776.2</ele>
        <time>2012-04-19T07:04:32Z</time>
      </trkpt>
      <trkpt lat="43.80168" lon="7.24652">
        <ele>779.6</ele>
        <time>2012-04-19T07:04:46Z</time>
      </trkpt>
      <trkpt lat="43.80168" lon="7.24652">
        <ele>779.7</ele>
        <time>2012-04-19T07:04:47Z</time>
      </trkpt>
      <trkpt lat="43.80183" lon="7.24663">
        <ele>786.5</ele>
        <time>2012-04-19T07:05:18Z</time>
      </trkpt>
      <trkpt lat="43.80191" lon="7.24666">
        <ele>788.3</ele>
        <time>2012-04-19T07:05:31Z</time>
      </trkpt>
      <trkpt lat="43.802" lon="7.24668">
        <ele>792.3</ele>
        <time>2012-04-19T07:05:45Z</time>
      </trkpt>
      <trkpt lat="43.80208" lon="7.24672">
        <ele>796.4</ele>
        <time>2012-04-19T07:06:00Z</time>
      </trkpt>
      <trkpt lat="43.80209" lon="7.24673">
        <ele>796.6</ele>
        <time>2012-04-19T07:06:01Z</time>
      </trkpt>
      <trkpt lat="43.80224" lon="7.24683">
        <ele>802.3</ele>
        <time>2012-04-19T07:06:32Z</time>
      </trkpt>
      <trkpt lat="43.8023" lon="7.24691">
        <ele>806</ele>
        <time>2012-04-19T07:06:47Z</time>
      </trkpt>
      <trkpt lat="43.80237" lon="7.24698">
        <ele>808.6</ele>
        <time>2012-04-19T07:07:02Z</time>
      </trkpt>
      <trkpt lat="43.80237" lon="7.24699">
        <ele>809.1</ele>
        <time>2012-04-19T07:07:03Z</time>
      </trkpt>
      <trkpt lat="43.80253" lon="7.24704">
        <ele>815.7</ele>
        <time>2012-04-19T07:07:29Z</time>
      </trkpt>
      <trkpt lat="43.80262" lon="7.24705">
        <ele>817.6</ele>
        <time>2012-04-19T07:07:42Z</time>
      </trkpt>
      <trkpt lat="43.8027" lon="7.24709">
        <ele>822.7</ele>
        <time>2012-04-19T07:07:58Z</time>
      </trkpt>
      <trkpt lat="43.80279" lon="7.24711">
        <ele>824.2</ele>
        <time>2012-04-19T07:08:09Z</time>
      </trkpt>
      <trkpt lat="43.8028" lon="7.24711">
        <ele>824.5</ele>
        <time>2012-04-19T07:08:10Z</time>
      </trkpt>
      <trkpt lat="43.80295" lon="7.24716">
        <ele>830.4</ele>
        <time>2012-04-19T07:08:37Z</time>
      </trkpt>
      <trkpt lat="43.80303" lon="7.24722">
        <ele>833.8</ele>
        <time>2012-04-19T07:08:50Z</time>
      </trkpt>
      <trkpt lat="43.8031" lon="7.24729">
        <ele>836</ele>
        <time>2012-04-19T07:09:02Z</time>
      </trkpt>
      <trkpt lat="43.80318" lon="7.24732">
        <ele>839.4</ele>
        <time>2012-04-19T07:09:30Z</time>
      </trkpt>
      <trkpt lat="43.80318" lon="7.24733">
        <ele>839.5</ele>
        <time>2012-04-19T07:09:31Z</time>
      </trkpt>
      <trkpt lat="43.80328" lon="7.2475">
        <ele>846.3</ele>
        <time>2012-04-19T07:09:59Z</time>
      </trkpt>
      <trkpt lat="43.80337" lon="7.24749">
        <ele>849.5</ele>
        <time>2012-04-19T07:10:14Z</time>
      </trkpt>
      <trkpt lat="43.80346" lon="7.24751">
        <ele>851.9</ele>
        <time>2012-04-19T07:10:27Z</time>
      </trkpt>
      <trkpt lat="43.80354" lon="7.24753">
        <ele>854.7</ele>
        <time>2012-04-19T07:10:41Z</time>
      </trkpt>
      <trkpt lat="43.80355" lon="7.24753">
        <ele>855.1</ele>
        <time>2012-04-19T07:10:42Z</time>
      </trkpt>
      <trkpt lat="43.80371" lon="7.24754">
        <ele>859.8</ele>
        <time>2012-04-19T07:11:04Z</time>
      </trkpt>
      <trkpt lat="43.8038" lon="7.24753">
        <ele>862.3</ele>
        <time>2012-04-19T07:11:14Z</time>
      </trkpt>
      <trkpt lat="43.80387" lon="7.24748">
        <ele>864.2</ele>
        <time>2012-04-19T07:11:25Z</time>
      </trkpt>
      <trkpt lat="43.80395" lon="7.24746">
        <ele>865.5</ele>
        <time>2012-04-19T07:11:32Z</time>
      </trkpt>
      <trkpt lat="43.80403" lon="7.24744">
        <ele>866.8</ele>
        <time>2012-04-19T07:11:39Z</time>
      </trkpt>
      <trkpt lat="43.80411" lon="7.24741">
        <ele>869.3</ele>
        <time>2012-04-19T07:11:46Z</time>
      </trkpt>
      <trkpt lat="43.80412" lon="7.24741">
        <ele>869.6</ele>
        <time>2012-04-19T07:11:47Z</time>
      </trkpt>
      <trkpt lat="43.80427" lon="7.24742">
        <ele>872.9</ele>
        <time>2012-04-19T07:11:59Z</time>
      </trkpt>
      <trkpt lat="43.80434" lon="7.24746">
        <ele>874.5</ele>
        <time>2012-04-19T07:12:06Z</time>
      </trkpt>
      <trkpt lat="43.80441" lon="7.24755">
        <ele>879.2</ele>
        <time>2012-04-19T07:12:31Z</time>
      </trkpt>
      <trkpt lat="43.80447" lon="7.24762">
        <ele>884.1</ele>
        <time>2012-04-19T07:12:54Z</time>
      </trkpt>
      <trkpt lat="43.80448" lon="7.24762">
        <ele>884.3</ele>
        <time>2012-04-19T07:12:55Z</time>
      </trkpt>
      <trkpt lat="43.80462" lon="7.24774">
        <ele>887.8</ele>
        <time>2012-04-19T07:14:46Z</time>
      </trkpt>
      <trkpt lat="43.80462" lon="7.24774">
        <ele>888.1</ele>
        <time>2012-04-19T07:14:47Z</time>
      </trkpt>
      <trkpt lat="43.80474" lon="7.24769">
        <ele>889</ele>
        <time>2012-04-19T07:17:31Z</time>
      </trkpt>
      <trkpt lat="43.80484" lon="7.24764">
        <ele>888.5</ele>
        <time>2012-04-19T07:17:33Z</time>
      </trkpt>
      <trkpt lat="43.80489" lon="7.24762">
        <ele>887.6</ele>
        <time>2012-04-19T07:17:34Z</time>
      </trkpt>
      <trkpt lat="43.80497" lon="7.24758">
        <ele>886.1</ele>
        <time>2012-04-19T07:17:36Z</time>
      </trkpt>
      <trkpt lat="43.80506" lon="7.24754">
        <ele>884.2</ele>
        <time>2012-04-19T07:17:39Z</time>
      </trkpt>
      <trkpt lat="43.80513" lon="7.24751">
        <ele>883.5</ele>
        <time>2012-04-19T07:17:41Z</time>
      </trkpt>
      <trkpt lat="43.80522" lon="7.2475">
        <ele>883.4</ele>
        <time>2012-04-19T07:17:43Z</time>
      </trkpt>
      <trkpt lat="43.80526" lon="7.2475">
        <ele>883.2</ele>
        <time>2012-04-19T07:17:44Z</time>
      </trkpt>
      <trkpt lat="43.80531" lon="7.2475">
        <ele>883</ele>
        <time>2012-04-19T07:17:45Z</time>
      </trkpt>
      <trkpt lat="43.80536" lon="7.24749">
        <ele>882.8</ele>
        <time>2012-04-19T07:17:46Z</time>
      </trkpt>
      <trkpt lat="43.8054" lon="7.24747">
        <ele>882.7</ele>
        <time>2012-04-19T07:17:47Z</time>
      </trkpt>
      <trkpt lat="43.80545" lon="7.24745">
        <ele>883.1</ele>
        <time>2012-04-19T07:17:48Z</time>
      </trkpt>
      <trkpt lat="43.80549" lon="7.24743">
        <ele>883.4</ele>
        <time>2012-04-19T07:17:49Z</time>
      </trkpt>
      <trkpt lat="43.80554" lon="7.24742">
        <ele>883.6</ele>
        <time>2012-04-19T07:17:50Z</time>
      </trkpt>
      <trkpt lat="43.80561" lon="7.24739">
        <ele>882.7</ele>
        <time>2012-04-19T07:17:51Z</time>
      </trkpt>
      <trkpt lat="43.80567" lon="7.24737">
        <ele>882.1</ele>
        <time>2012-04-19T07:17:52Z</time>
      </trkpt>
      <trkpt lat="43.80573" lon="7.24735">
        <ele>881.3</ele>
        <time>2012-04-19T07:17:53Z</time>
      </trkpt>
      <trkpt lat="43.80579" lon="7.24735">
        <ele>880.6</ele>
        <time>2012-04-19T07:17:54Z</time>
      </trkpt>
      <trkpt lat="43.80585" lon="7.24737">
        <ele>880</ele>
        <time>2012-04-19T07:17:55Z</time>
      </trkpt>
      <trkpt lat="43.80589" lon="7.24737">
        <ele>879.6</ele>
        <time>2012-04-19T07:17:56Z</time>
      </trkpt>
      <trkpt lat="43.80594" lon="7.24736">
        <ele>879.3</ele>
        <time>2012-04-19T07:17:57Z</time>
      </trkpt>
      <trkpt lat="43.80602" lon="7.24737">
        <ele>880.1</ele>
        <time>2012-04-19T07:17:59Z</time>
      </trkpt>
      <trkpt lat="43.80608" lon="7.24739">
        <ele>880.2</ele>
        <time>2012-04-19T07:18:01Z</time>
      </trkpt>
      <trkpt lat="43.80617" lon="7.24739">
        <ele>878.4</ele>
        <time>2012-04-19T07:18:04Z</time>
      </trkpt>
      <trkpt lat="43.80624" lon="7.24738">
        <ele>878</ele>
        <time>2012-04-19T07:18:07Z</time>
      </trkpt>
      <trkpt lat="43.8063" lon="7.24735">
        <ele>877.8</ele>
        <time>2012-04-19T07:18:09Z</time>
      </trkpt>
      <trkpt lat="43.80634" lon="7.24733">
        <ele>877.8</ele>
        <time>2012-04-19T07:18:10Z</time>
      </trkpt>
      <trkpt lat="43.80639" lon="7.24732">
        <ele>877.8</ele>
        <time>2012-04-19T07:18:11Z</time>
      </trkpt>
      <trkpt lat="43.80644" lon="7.24732">
        <ele>877.9</ele>
        <time>2012-04-19T07:18:12Z</time>
      </trkpt>
      <trkpt lat="43.80649" lon="7.24732">
        <ele>877.9</ele>
        <time>2012-04-19T07:18:13Z</time>
      </trkpt>
      <trkpt lat="43.80655" lon="7.24733">
        <ele>877</ele>
        <time>2012-04-19T07:18:14Z</time>
      </trkpt>
      <trkpt lat="43.80661" lon="7.24735">
        <ele>876.3</ele>
        <time>2012-04-19T07:18:15Z</time>
      </trkpt>
      <trkpt lat="43.80667" lon="7.24738">
        <ele>875.8</ele>
        <time>2012-04-19T07:18:16Z</time>
      </trkpt>
      <trkpt lat="43.80674" lon="7.24741">
        <ele>875.9</ele>
        <time>2012-04-19T07:18:17Z</time>
      </trkpt>
      <trkpt lat="43.80681" lon="7.24747">
        <ele>875.9</ele>
        <time>2012-04-19T07:18:18Z</time>
      </trkpt>
      <trkpt lat="43.80688" lon="7.24752">
        <ele>874.6</ele>
        <time>2012-04-19T07:18:19Z</time>
      </trkpt>
      <trkpt lat="43.80695" lon="7.24758">
        <ele>873.6</ele>
        <time>2012-04-19T07:18:20Z</time>
      </trkpt>
      <trkpt lat="43.80701" lon="7.24761">
        <ele>872.9</ele>
        <time>2012-04-19T07:18:21Z</time>
      </trkpt>
      <trkpt lat="43.80708" lon="7.24761">
        <ele>871.7</ele>
        <time>2012-04-19T07:18:22Z</time>
      </trkpt>
      <trkpt lat="43.80715" lon="7.2476">
        <ele>870.8</ele>
        <time>2012-04-19T07:18:23Z</time>
      </trkpt>
      <trkpt lat="43.80722" lon="7.2476">
        <ele>869.3</ele>
        <time>2012-04-19T07:18:24Z</time>
      </trkpt>
      <trkpt lat="43.80728" lon="7.24759">
        <ele>868.2</ele>
        <time>2012-04-19T07:18:25Z</time>
      </trkpt>
      <trkpt lat="43.80735" lon="7.24757">
        <ele>866.3</ele>
        <time>2012-04-19T07:18:26Z</time>
      </trkpt>
      <trkpt lat="43.8074" lon="7.24753">
        <ele>864.8</ele>
        <time>2012-04-19T07:18:27Z</time>
      </trkpt>
      <trkpt lat="43.80746" lon="7.24751">
        <ele>863.7</ele>
        <time>2012-04-19T07:18:28Z</time>
      </trkpt>
      <trkpt lat="43.80752" lon="7.2475">
        <ele>861.7</ele>
        <time>2012-04-19T07:18:29Z</time>
      </trkpt>
      <trkpt lat="43.80757" lon="7.24749">
        <ele>860.2</ele>
        <time>2012-04-19T07:18:30Z</time>
      </trkpt>
      <trkpt lat="43.80765" lon="7.24747">
        <ele>855</ele>
        <time>2012-04-19T07:18:33Z</time>
      </trkpt>
      <trkpt lat="43.80766" lon="7.24748">
        <ele>853.5</ele>
        <time>2012-04-19T07:18:34Z</time>
      </trkpt>
      <trkpt lat="43.80773" lon="7.24753">
        <ele>847.6</ele>
        <time>2012-04-19T07:18:39Z</time>
      </trkpt>
      <trkpt lat="43.80777" lon="7.24759">
        <ele>846.8</ele>
        <time>2012-04-19T07:18:40Z</time>
      </trkpt>
      <trkpt lat="43.80783" lon="7.24769">
        <ele>845.8</ele>
        <time>2012-04-19T07:18:42Z</time>
      </trkpt>
      <trkpt lat="43.80787" lon="7.24778">
        <ele>844.4</ele>
        <time>2012-04-19T07:18:44Z</time>
      </trkpt>
      <trkpt lat="43.8079" lon="7.24784">
        <ele>843.8</ele>
        <time>2012-04-19T07:18:45Z</time>
      </trkpt>
      <trkpt lat="43.80793" lon="7.24791">
        <ele>843.3</ele>
        <time>2012-04-19T07:18:46Z</time>
      </trkpt>
      <trkpt lat="43.80797" lon="7.24797">
        <ele>842.9</ele>
        <time>2012-04-19T07:18:47Z</time>
      </trkpt>
      <trkpt lat="43.80801" lon="7.24803">
        <ele>841.8</ele>
        <time>2012-04-19T07:18:48Z</time>
      </trkpt>
      <trkpt lat="43.80807" lon="7.24809">
        <ele>841</ele>
        <time>2012-04-19T07:18:49Z</time>
      </trkpt>
      <trkpt lat="43.80812" lon="7.24815">
        <ele>839.8</ele>
        <time>2012-04-19T07:18:50Z</time>
      </trkpt>
      <trkpt lat="43.80817" lon="7.24818">
        <ele>839</ele>
        <time>2012-04-19T07:18:51Z</time>
      </trkpt>
      <trkpt lat="43.80824" lon="7.24821">
        <ele>836.7</ele>
        <time>2012-04-19T07:18:52Z</time>
      </trkpt>
      <trkpt lat="43.80831" lon="7.24825">
        <ele>834.9</ele>
        <time>2012-04-19T07:18:53Z</time>
      </trkpt>
      <trkpt lat="43.80838" lon="7.2483">
        <ele>833.6</ele>
        <time>2012-04-19T07:18:54Z</time>
      </trkpt>
      <trkpt lat="43.80846" lon="7.24835">
        <ele>831.9</ele>
        <time>2012-04-19T07:18:55Z</time>
      </trkpt>
      <trkpt lat="43.80852" lon="7.2484">
        <ele>830.5</ele>
        <time>2012-04-19T07:18:56Z</time>
      </trkpt>
      <trkpt lat="43.8086" lon="7.24845">
        <ele>826</ele>
        <time>2012-04-19T07:18:58Z</time>
      </trkpt>
      <trkpt lat="43.80856" lon="7.24834">
        <ele>819.6</ele>
        <time>2012-04-19T07:19:20Z</time>
      </trkpt>
      <trkpt lat="43.80852" lon="7.24824">
        <ele>819.8</ele>
        <time>2012-04-19T07:19:26Z</time>
      </trkpt>
      <trkpt lat="43.80851" lon="7.24812">
        <ele>820.8</ele>
        <time>2012-04-19T07:19:32Z</time>
      </trkpt>
      <trkpt lat="43.80849" lon="7.24803">
        <ele>819.5</ele>
        <time>2012-04-19T07:19:35Z</time>
      </trkpt>
      <trkpt lat="43.80849" lon="7.24799">
        <ele>819.3</ele>
        <time>2012-04-19T07:19:36Z</time>
      </trkpt>
      <trkpt lat="43.80848" lon="7.24783">
        <ele>818.4</ele>
        <time>2012-04-19T07:19:40Z</time>
      </trkpt>
      <trkpt lat="43.80847" lon="7.24771">
        <ele>817.9</ele>
        <time>2012-04-19T07:19:42Z</time>
      </trkpt>
      <trkpt lat="43.80846" lon="7.24759">
        <ele>816.9</ele>
        <time>2012-04-19T07:19:45Z</time>
      </trkpt>
      <trkpt lat="43.80845" lon="7.24747">
        <ele>814.7</ele>
        <time>2012-04-19T07:19:49Z</time>
      </trkpt>
      <trkpt lat="43.80844" lon="7.24737">
        <ele>814.5</ele>
        <time>2012-04-19T07:19:52Z</time>
      </trkpt>
      <trkpt lat="43.80844" lon="7.24728">
        <ele>814.3</ele>
        <time>2012-04-19T07:19:54Z</time>
      </trkpt>
      <trkpt lat="43.80844" lon="7.24717">
        <ele>814.3</ele>
        <time>2012-04-19T07:19:56Z</time>
      </trkpt>
      <trkpt lat="43.80845" lon="7.24707">
        <ele>814.8</ele>
        <time>2012-04-19T07:19:58Z</time>
      </trkpt>
      <trkpt lat="43.80845" lon="7.24697">
        <ele>814.1</ele>
        <time>2012-04-19T07:20:00Z</time>
      </trkpt>
      <trkpt lat="43.80845" lon="7.24688">
        <ele>812.8</ele>
        <time>2012-04-19T07:20:02Z</time>
      </trkpt>
      <trkpt lat="43.80847" lon="7.24677">
        <ele>811.8</ele>
        <time>2012-04-19T07:20:04Z</time>
      </trkpt>
      <trkpt lat="43.80848" lon="7.24665">
        <ele>811.5</ele>
        <time>2012-04-19T07:20:06Z</time>
      </trkpt>
      <trkpt lat="43.80849" lon="7.24652">
        <ele>811.2</ele>
        <time>2012-04-19T07:20:08Z</time>
      </trkpt>
      <trkpt lat="43.80849" lon="7.24646">
        <ele>810.9</ele>
        <time>2012-04-19T07:20:09Z</time>
      </trkpt>
      <trkpt lat="43.80851" lon="7.2464">
        <ele>810.6</ele>
        <time>2012-04-19T07:20:10Z</time>
      </trkpt>
      <trkpt lat="43.80854" lon="7.24635">
        <ele>809.6</ele>
        <time>2012-04-19T07:20:11Z</time>
      </trkpt>
      <trkpt lat="43.80858" lon="7.24629">
        <ele>808.9</ele>
        <time>2012-04-19T07:20:12Z</time>
      </trkpt>
      <trkpt lat="43.80863" lon="7.24624">
        <ele>807.6</ele>
        <time>2012-04-19T07:20:13Z</time>
      </trkpt>
      <trkpt lat="43.80867" lon="7.24618">
        <ele>806.7</ele>
        <time>2012-04-19T07:20:14Z</time>
      </trkpt>
      <trkpt lat="43.80871" lon="7.24613">
        <ele>805.3</ele>
        <time>2012-04-19T07:20:15Z</time>
      </trkpt>
      <trkpt lat="43.80874" lon="7.24605">
        <ele>804.4</ele>
        <time>2012-04-19T07:20:16Z</time>
      </trkpt>
      <trkpt lat="43.80879" lon="7.24595">
        <ele>802.3</ele>
        <time>2012-04-19T07:20:18Z</time>
      </trkpt>
      <trkpt lat="43.80883" lon="7.24586">
        <ele>800</ele>
        <time>2012-04-19T07:20:20Z</time>
      </trkpt>
      <trkpt lat="43.80891" lon="7.2458">
        <ele>797.7</ele>
        <time>2012-04-19T07:20:22Z</time>
      </trkpt>
      <trkpt lat="43.80895" lon="7.24575">
        <ele>796.7</ele>
        <time>2012-04-19T07:20:23Z</time>
      </trkpt>
      <trkpt lat="43.80898" lon="7.24569">
        <ele>796</ele>
        <time>2012-04-19T07:20:24Z</time>
      </trkpt>
      <trkpt lat="43.80902" lon="7.24564">
        <ele>795.1</ele>
        <time>2012-04-19T07:20:25Z</time>
      </trkpt>
      <trkpt lat="43.80905" lon="7.2456">
        <ele>794.5</ele>
        <time>2012-04-19T07:20:26Z</time>
      </trkpt>
      <trkpt lat="43.80909" lon="7.24555">
        <ele>793.2</ele>
        <time>2012-04-19T07:20:27Z</time>
      </trkpt>
      <trkpt lat="43.80913" lon="7.24545">
        <ele>788.8</ele>
        <time>2012-04-19T07:20:32Z</time>
      </trkpt>
      <trkpt lat="43.80916" lon="7.24535">
        <ele>787.8</ele>
        <time>2012-04-19T07:20:36Z</time>
      </trkpt>
      <trkpt lat="43.80917" lon="7.24532">
        <ele>787.5</ele>
        <time>2012-04-19T07:20:37Z</time>
      </trkpt>
      <trkpt lat="43.80919" lon="7.24515">
        <ele>785.7</ele>
        <time>2012-04-19T07:20:41Z</time>
      </trkpt>
      <trkpt lat="43.80919" lon="7.24505">
        <ele>785.8</ele>
        <time>2012-04-19T07:20:43Z</time>
      </trkpt>
      <trkpt lat="43.80918" lon="7.24497">
        <ele>785.9</ele>
        <time>2012-04-19T07:20:45Z</time>
      </trkpt>
      <trkpt lat="43.80915" lon="7.24486">
        <ele>786.4</ele>
        <time>2012-04-19T07:20:48Z</time>
      </trkpt>
      <trkpt lat="43.80913" lon="7.24477">
        <ele>786.6</ele>
        <time>2012-04-19T07:20:51Z</time>
      </trkpt>
      <trkpt lat="43.8091" lon="7.24467">
        <ele>786.6</ele>
        <time>2012-04-19T07:20:54Z</time>
      </trkpt>
      <trkpt lat="43.8091" lon="7.24455">
        <ele>787.1</ele>
        <time>2012-04-19T07:20:58Z</time>
      </trkpt>
      <trkpt lat="43.8091" lon="7.24444">
        <ele>789.5</ele>
        <time>2012-04-19T07:21:03Z</time>
      </trkpt>
      <trkpt lat="43.8091" lon="7.24431">
        <ele>791.5</ele>
        <time>2012-04-19T07:21:09Z</time>
      </trkpt>
      <trkpt lat="43.8091" lon="7.24419">
        <ele>792.7</ele>
        <time>2012-04-19T07:21:15Z</time>
      </trkpt>
      <trkpt lat="43.8091" lon="7.24407">
        <ele>794.4</ele>
        <time>2012-04-19T07:21:21Z</time>
      </trkpt>
      <trkpt lat="43.80909" lon="7.24394">
        <ele>796.1</ele>
        <time>2012-04-19T07:21:27Z</time>
      </trkpt>
      <trkpt lat="43.80907" lon="7.24383">
        <ele>796.3</ele>
        <time>2012-04-19T07:21:32Z</time>
      </trkpt>
      <trkpt lat="43.80903" lon="7.24372">
        <ele>797.2</ele>
        <time>2012-04-19T07:21:37Z</time>
      </trkpt>
      <trkpt lat="43.80902" lon="7.24369">
        <ele>797.3</ele>
        <time>2012-04-19T07:21:38Z</time>
      </trkpt>
      <trkpt lat="43.80899" lon="7.2435">
        <ele>796.8</ele>
        <time>2012-04-19T07:21:46Z</time>
      </trkpt>
      <trkpt lat="43.80896" lon="7.24339">
        <ele>798.5</ele>
        <time>2012-04-19T07:21:51Z</time>
      </trkpt>
      <trkpt lat="43.80893" lon="7.2433">
        <ele>800.3</ele>
        <time>2012-04-19T07:21:55Z</time>
      </trkpt>
      <trkpt lat="43.80888" lon="7.24319">
        <ele>800.9</ele>
        <time>2012-04-19T07:21:59Z</time>
      </trkpt>
      <trkpt lat="43.80886" lon="7.24308">
        <ele>800.9</ele>
        <time>2012-04-19T07:22:04Z</time>
      </trkpt>
      <trkpt lat="43.80883" lon="7.24298">
        <ele>803.6</ele>
        <time>2012-04-19T07:22:09Z</time>
      </trkpt>
      <trkpt lat="43.80882" lon="7.24287">
        <ele>805</ele>
        <time>2012-04-19T07:22:14Z</time>
      </trkpt>
      <trkpt lat="43.80883" lon="7.24276">
        <ele>807.6</ele>
        <time>2012-04-19T07:22:20Z</time>
      </trkpt>
      <trkpt lat="43.8089" lon="7.24269">
        <ele>809.3</ele>
        <time>2012-04-19T07:22:27Z</time>
      </trkpt>
      <trkpt lat="43.80898" lon="7.24275">
        <ele>809.4</ele>
        <time>2012-04-19T07:22:32Z</time>
      </trkpt>
      <trkpt lat="43.80902" lon="7.24266">
        <ele>809.8</ele>
        <time>2012-04-19T07:22:37Z</time>
      </trkpt>
      <trkpt lat="43.80901" lon="7.24255">
        <ele>809.1</ele>
        <time>2012-04-19T07:22:56Z</time>
      </trkpt>
      <trkpt lat="43.809" lon="7.24253">
        <ele>809.3</ele>
        <time>2012-04-19T07:22:57Z</time>
      </trkpt>
      <trkpt lat="43.80906" lon="7.24278">
        <ele>809.5</ele>
        <time>2012-04-19T07:23:36Z</time>
      </trkpt>
      <trkpt lat="43.80905" lon="7.24291">
        <ele>810.3</ele>
        <time>2012-04-19T07:23:40Z</time>
      </trkpt>
      <trkpt lat="43.80905" lon="7.24279">
        <ele>809.1</ele>
        <time>2012-04-19T07:24:06Z</time>
      </trkpt>
      <trkpt lat="43.80905" lon="7.24277">
        <ele>808.5</ele>
        <time>2012-04-19T07:24:07Z</time>
      </trkpt>
      <trkpt lat="43.80892" lon="7.24262">
        <ele>808.9</ele>
        <time>2012-04-19T07:24:23Z</time>
      </trkpt>
      <trkpt lat="43.80887" lon="7.2427">
        <ele>809.5</ele>
        <time>2012-04-19T07:24:28Z</time>
      </trkpt>
      <trkpt lat="43.80885" lon="7.24281">
        <ele>808</ele>
        <time>2012-04-19T07:24:32Z</time>
      </trkpt>
      <trkpt lat="43.80886" lon="7.24293">
        <ele>804.8</ele>
        <time>2012-04-19T07:24:38Z</time>
      </trkpt>
      <trkpt lat="43.80888" lon="7.24303">
        <ele>804.3</ele>
        <time>2012-04-19T07:24:41Z</time>
      </trkpt>
      <trkpt lat="43.8089" lon="7.24312">
        <ele>804.6</ele>
        <time>2012-04-19T07:24:43Z</time>
      </trkpt>
      <trkpt lat="43.80895" lon="7.24322">
        <ele>802.8</ele>
        <time>2012-04-19T07:24:46Z</time>
      </trkpt>
      <trkpt lat="43.80898" lon="7.24329">
        <ele>802.2</ele>
        <time>2012-04-19T07:24:48Z</time>
      </trkpt>
      <trkpt lat="43.809" lon="7.24338">
        <ele>801.9</ele>
        <time>2012-04-19T07:24:50Z</time>
      </trkpt>
      <trkpt lat="43.80902" lon="7.24349">
        <ele>800.3</ele>
        <time>2012-04-19T07:24:52Z</time>
      </trkpt>
      <trkpt lat="43.80905" lon="7.24358">
        <ele>798.9</ele>
        <time>2012-04-19T07:24:54Z</time>
      </trkpt>
      <trkpt lat="43.80909" lon="7.24369">
        <ele>797.5</ele>
        <time>2012-04-19T07:24:58Z</time>
      </trkpt>
      <trkpt lat="43.8091" lon="7.24376">
        <ele>797.2</ele>
        <time>2012-04-19T07:25:00Z</time>
      </trkpt>
      <trkpt lat="43.80912" lon="7.24385">
        <ele>796.9</ele>
        <time>2012-04-19T07:25:02Z</time>
      </trkpt>
      <trkpt lat="43.80911" lon="7.24395">
        <ele>797.5</ele>
        <time>2012-04-19T07:25:04Z</time>
      </trkpt>
      <trkpt lat="43.8091" lon="7.24404">
        <ele>796.7</ele>
        <time>2012-04-19T07:25:06Z</time>
      </trkpt>
      <trkpt lat="43.80908" lon="7.24416">
        <ele>794.5</ele>
        <time>2012-04-19T07:25:09Z</time>
      </trkpt>
      <trkpt lat="43.80908" lon="7.2442">
        <ele>794.1</ele>
        <time>2012-04-19T07:25:10Z</time>
      </trkpt>
      <trkpt lat="43.80907" lon="7.24439">
        <ele>790.6</ele>
        <time>2012-04-19T07:25:15Z</time>
      </trkpt>
      <trkpt lat="43.8091" lon="7.24449">
        <ele>789.8</ele>
        <time>2012-04-19T07:25:18Z</time>
      </trkpt>
      <trkpt lat="43.80914" lon="7.24459">
        <ele>787.8</ele>
        <time>2012-04-19T07:25:21Z</time>
      </trkpt>
      <trkpt lat="43.80917" lon="7.24468">
        <ele>787.2</ele>
        <time>2012-04-19T07:25:23Z</time>
      </trkpt>
      <trkpt lat="43.80908" lon="7.24469">
        <ele>785.1</ele>
        <time>2012-04-19T07:25:36Z</time>
      </trkpt>
      <trkpt lat="43.809" lon="7.24464">
        <ele>784</ele>
        <time>2012-04-19T07:25:39Z</time>
      </trkpt>
      <trkpt lat="43.80895" lon="7.24457">
        <ele>783.3</ele>
        <time>2012-04-19T07:25:41Z</time>
      </trkpt>
      <trkpt lat="43.80891" lon="7.2445">
        <ele>782.1</ele>
        <time>2012-04-19T07:25:43Z</time>
      </trkpt>
      <trkpt lat="43.80883" lon="7.24444">
        <ele>777.6</ele>
        <time>2012-04-19T07:26:01Z</time>
      </trkpt>
      <trkpt lat="43.80886" lon="7.24454">
        <ele>779.1</ele>
        <time>2012-04-19T07:26:28Z</time>
      </trkpt>
      <trkpt lat="43.80887" lon="7.24456">
        <ele>779.4</ele>
        <time>2012-04-19T07:26:29Z</time>
      </trkpt>
      <trkpt lat="43.80898" lon="7.2447">
        <ele>780</ele>
        <time>2012-04-19T07:26:38Z</time>
      </trkpt>
      <trkpt lat="43.80907" lon="7.24474">
        <ele>782.7</ele>
        <time>2012-04-19T07:26:44Z</time>
      </trkpt>
      <trkpt lat="43.80914" lon="7.2448">
        <ele>784.3</ele>
        <time>2012-04-19T07:26:52Z</time>
      </trkpt>
      <trkpt lat="43.80917" lon="7.24469">
        <ele>785.7</ele>
        <time>2012-04-19T07:27:01Z</time>
      </trkpt>
      <trkpt lat="43.80914" lon="7.24458">
        <ele>786.9</ele>
        <time>2012-04-19T07:27:09Z</time>
      </trkpt>
      <trkpt lat="43.80912" lon="7.24446">
        <ele>788</ele>
        <time>2012-04-19T07:27:17Z</time>
      </trkpt>
      <trkpt lat="43.80912" lon="7.24434">
        <ele>789.8</ele>
        <time>2012-04-19T07:27:25Z</time>
      </trkpt>
      <trkpt lat="43.80912" lon="7.24422">
        <ele>792.2</ele>
        <time>2012-04-19T07:27:34Z</time>
      </trkpt>
      <trkpt lat="43.80912" lon="7.24421">
        <ele>792.3</ele>
        <time>2012-04-19T07:27:35Z</time>
      </trkpt>
      <trkpt lat="43.80911" lon="7.24399">
        <ele>795.5</ele>
        <time>2012-04-19T07:27:49Z</time>
      </trkpt>
      <trkpt lat="43.80909" lon="7.24389">
        <ele>796.1</ele>
        <time>2012-04-19T07:27:54Z</time>
      </trkpt>
      <trkpt lat="43.80906" lon="7.24377">
        <ele>796.9</ele>
        <time>2012-04-19T07:28:00Z</time>
      </trkpt>
      <trkpt lat="43.80903" lon="7.24367">
        <ele>797.3</ele>
        <time>2012-04-19T07:28:04Z</time>
      </trkpt>
      <trkpt lat="43.80901" lon="7.24355">
        <ele>797.1</ele>
        <time>2012-04-19T07:28:10Z</time>
      </trkpt>
      <trkpt lat="43.80899" lon="7.24344">
        <ele>798.2</ele>
        <time>2012-04-19T07:28:16Z</time>
      </trkpt>
      <trkpt lat="43.80895" lon="7.24334">
        <ele>799.6</ele>
        <time>2012-04-19T07:28:21Z</time>
      </trkpt>
      <trkpt lat="43.80891" lon="7.24325">
        <ele>800.7</ele>
        <time>2012-04-19T07:28:25Z</time>
      </trkpt>
      <trkpt lat="43.8089" lon="7.24315">
        <ele>800.9</ele>
        <time>2012-04-19T07:28:30Z</time>
      </trkpt>
      <trkpt lat="43.80888" lon="7.24303">
        <ele>802.1</ele>
        <time>2012-04-19T07:28:35Z</time>
      </trkpt>
      <trkpt lat="43.80887" lon="7.24291">
        <ele>804.9</ele>
        <time>2012-04-19T07:28:41Z</time>
      </trkpt>
      <trkpt lat="43.80887" lon="7.24288">
        <ele>805.2</ele>
        <time>2012-04-19T07:28:42Z</time>
      </trkpt>
      <trkpt lat="43.80896" lon="7.24276">
        <ele>809.9</ele>
        <time>2012-04-19T07:28:53Z</time>
      </trkpt>
      <trkpt lat="43.80904" lon="7.24273">
        <ele>809.8</ele>
        <time>2012-04-19T07:28:59Z</time>
      </trkpt>
      <trkpt lat="43.80907" lon="7.24262">
        <ele>810.9</ele>
        <time>2012-04-19T07:29:03Z</time>
      </trkpt>
      <trkpt lat="43.80912" lon="7.24253">
        <ele>808.8</ele>
        <time>2012-04-19T07:29:09Z</time>
      </trkpt>
      <trkpt lat="43.8092" lon="7.2425">
        <ele>809.5</ele>
        <time>2012-04-19T07:29:15Z</time>
      </trkpt>
      <trkpt lat="43.80927" lon="7.24251">
        <ele>809.1</ele>
        <time>2012-04-19T07:29:18Z</time>
      </trkpt>
      <trkpt lat="43.80936" lon="7.24252">
        <ele>807.6</ele>
        <time>2012-04-19T07:29:21Z</time>
      </trkpt>
      <trkpt lat="43.80943" lon="7.24245">
        <ele>805</ele>
        <time>2012-04-19T07:29:32Z</time>
      </trkpt>
      <trkpt lat="43.80948" lon="7.24235">
        <ele>805</ele>
        <time>2012-04-19T07:29:34Z</time>
      </trkpt>
      <trkpt lat="43.8095" lon="7.24229">
        <ele>805</ele>
        <time>2012-04-19T07:29:35Z</time>
      </trkpt>
      <trkpt lat="43.80953" lon="7.24224">
        <ele>804.1</ele>
        <time>2012-04-19T07:29:36Z</time>
      </trkpt>
      <trkpt lat="43.80959" lon="7.24215">
        <ele>801.6</ele>
        <time>2012-04-19T07:29:38Z</time>
      </trkpt>
      <trkpt lat="43.80966" lon="7.24208">
        <ele>798</ele>
        <time>2012-04-19T07:29:41Z</time>
      </trkpt>
      <trkpt lat="43.80972" lon="7.24201">
        <ele>795.7</ele>
        <time>2012-04-19T07:29:43Z</time>
      </trkpt>
      <trkpt lat="43.80975" lon="7.24198">
        <ele>794.6</ele>
        <time>2012-04-19T07:29:44Z</time>
      </trkpt>
      <trkpt lat="43.80972" lon="7.24183">
        <ele>787.8</ele>
        <time>2012-04-19T07:29:48Z</time>
      </trkpt>
      <trkpt lat="43.80968" lon="7.24176">
        <ele>785.7</ele>
        <time>2012-04-19T07:29:50Z</time>
      </trkpt>
      <trkpt lat="43.80963" lon="7.24167">
        <ele>784.3</ele>
        <time>2012-04-19T07:29:52Z</time>
      </trkpt>
      <trkpt lat="43.8096" lon="7.24157">
        <ele>783.5</ele>
        <time>2012-04-19T07:29:54Z</time>
      </trkpt>
      <trkpt lat="43.80957" lon="7.24145">
        <ele>780.4</ele>
        <time>2012-04-19T07:29:57Z</time>
      </trkpt>
      <trkpt lat="43.80958" lon="7.24134">
        <ele>778.7</ele>
        <time>2012-04-19T07:30:01Z</time>
      </trkpt>
      <trkpt lat="43.80959" lon="7.24122">
        <ele>774.2</ele>
        <time>2012-04-19T07:30:12Z</time>
      </trkpt>
      <trkpt lat="43.80962" lon="7.24111">
        <ele>772.1</ele>
        <time>2012-04-19T07:30:31Z</time>
      </trkpt>
      <trkpt lat="43.80968" lon="7.24103">
        <ele>770.7</ele>
        <time>2012-04-19T07:30:35Z</time>
      </trkpt>
      <trkpt lat="43.80972" lon="7.24093">
        <ele>767.1</ele>
        <time>2012-04-19T07:30:43Z</time>
      </trkpt>
      <trkpt lat="43.80977" lon="7.24083">
        <ele>765.6</ele>
        <time>2012-04-19T07:30:48Z</time>
      </trkpt>
      <trkpt lat="43.80978" lon="7.24082">
        <ele>765.1</ele>
        <time>2012-04-19T07:30:49Z</time>
      </trkpt>
      <trkpt lat="43.80989" lon="7.24074">
        <ele>762.5</ele>
        <time>2012-04-19T07:30:54Z</time>
      </trkpt>
      <trkpt lat="43.80995" lon="7.24068">
        <ele>760.4</ele>
        <time>2012-04-19T07:30:58Z</time>
      </trkpt>
      <trkpt lat="43.81003" lon="7.24065">
        <ele>758.8</ele>
        <time>2012-04-19T07:31:02Z</time>
      </trkpt>
      <trkpt lat="43.81009" lon="7.24059">
        <ele>755.4</ele>
        <time>2012-04-19T07:31:08Z</time>
      </trkpt>
      <trkpt lat="43.81015" lon="7.24052">
        <ele>754.7</ele>
        <time>2012-04-19T07:31:13Z</time>
      </trkpt>
      <trkpt lat="43.81021" lon="7.24042">
        <ele>753.6</ele>
        <time>2012-04-19T07:31:18Z</time>
      </trkpt>
      <trkpt lat="43.81025" lon="7.24032">
        <ele>751.3</ele>
        <time>2012-04-19T07:31:23Z</time>
      </trkpt>
      <trkpt lat="43.8103" lon="7.24023">
        <ele>746</ele>
        <time>2012-04-19T07:31:35Z</time>
      </trkpt>
      <trkpt lat="43.81037" lon="7.24015">
        <ele>742.2</ele>
        <time>2012-04-19T07:31:54Z</time>
      </trkpt>
      <trkpt lat="43.81037" lon="7.24014">
        <ele>742.1</ele>
        <time>2012-04-19T07:31:55Z</time>
      </trkpt>
      <trkpt lat="43.81045" lon="7.23998">
        <ele>736.1</ele>
        <time>2012-04-19T07:32:09Z</time>
      </trkpt>
      <trkpt lat="43.8105" lon="7.23992">
        <ele>735.6</ele>
        <time>2012-04-19T07:32:12Z</time>
      </trkpt>
      <trkpt lat="43.81057" lon="7.23985">
        <ele>734.7</ele>
        <time>2012-04-19T07:32:15Z</time>
      </trkpt>
      <trkpt lat="43.81063" lon="7.23978">
        <ele>732.9</ele>
        <time>2012-04-19T07:32:18Z</time>
      </trkpt>
      <trkpt lat="43.81069" lon="7.23971">
        <ele>731.3</ele>
        <time>2012-04-19T07:32:21Z</time>
      </trkpt>
      <trkpt lat="43.81076" lon="7.23964">
        <ele>728</ele>
        <time>2012-04-19T07:32:24Z</time>
      </trkpt>
      <trkpt lat="43.81082" lon="7.23954">
        <ele>724.6</ele>
        <time>2012-04-19T07:32:28Z</time>
      </trkpt>
      <trkpt lat="43.81081" lon="7.23942">
        <ele>723</ele>
        <time>2012-04-19T07:32:33Z</time>
      </trkpt>
      <trkpt lat="43.81085" lon="7.23933">
        <ele>718</ele>
        <time>2012-04-19T07:32:50Z</time>
      </trkpt>
      <trkpt lat="43.81089" lon="7.23927">
        <ele>717.9</ele>
        <time>2012-04-19T07:32:52Z</time>
      </trkpt>
      <trkpt lat="43.81096" lon="7.2392">
        <ele>716.7</ele>
        <time>2012-04-19T07:32:55Z</time>
      </trkpt>
      <trkpt lat="43.81099" lon="7.23919">
        <ele>716.2</ele>
        <time>2012-04-19T07:32:56Z</time>
      </trkpt>
      <trkpt lat="43.81108" lon="7.23906">
        <ele>712.6</ele>
        <time>2012-04-19T07:33:02Z</time>
      </trkpt>
      <trkpt lat="43.81114" lon="7.23902">
        <ele>710.2</ele>
        <time>2012-04-19T07:33:05Z</time>
      </trkpt>
      <trkpt lat="43.81122" lon="7.23899">
        <ele>707.9</ele>
        <time>2012-04-19T07:33:08Z</time>
      </trkpt>
      <trkpt lat="43.8113" lon="7.23897">
        <ele>704.7</ele>
        <time>2012-04-19T07:33:11Z</time>
      </trkpt>
      <trkpt lat="43.81139" lon="7.23896">
        <ele>703.1</ele>
        <time>2012-04-19T07:33:14Z</time>
      </trkpt>
      <trkpt lat="43.81144" lon="7.2389">
        <ele>700.4</ele>
        <time>2012-04-19T07:33:18Z</time>
      </trkpt>
      <trkpt lat="43.81151" lon="7.23883">
        <ele>698.5</ele>
        <time>2012-04-19T07:33:23Z</time>
      </trkpt>
      <trkpt lat="43.81155" lon="7.23874">
        <ele>698.1</ele>
        <time>2012-04-19T07:33:29Z</time>
      </trkpt>
      <trkpt lat="43.81159" lon="7.23865">
        <ele>697.6</ele>
        <time>2012-04-19T07:33:33Z</time>
      </trkpt>
      <trkpt lat="43.81164" lon="7.23855">
        <ele>697.1</ele>
        <time>2012-04-19T07:33:39Z</time>
      </trkpt>
      <trkpt lat="43.81167" lon="7.23844">
        <ele>696.8</ele>
        <time>2012-04-19T07:33:42Z</time>
      </trkpt>
      <trkpt lat="43.81169" lon="7.23834">
        <ele>695</ele>
        <time>2012-04-19T07:33:50Z</time>
      </trkpt>
      <trkpt lat="43.81173" lon="7.23825">
        <ele>693.8</ele>
        <time>2012-04-19T07:33:54Z</time>
      </trkpt>
      <trkpt lat="43.81178" lon="7.23819">
        <ele>693.5</ele>
        <time>2012-04-19T07:33:56Z</time>
      </trkpt>
      <trkpt lat="43.81181" lon="7.23816">
        <ele>693.5</ele>
        <time>2012-04-19T07:33:57Z</time>
      </trkpt>
      <trkpt lat="43.81186" lon="7.23802">
        <ele>693</ele>
        <time>2012-04-19T07:34:00Z</time>
      </trkpt>
      <trkpt lat="43.81189" lon="7.23797">
        <ele>692.6</ele>
        <time>2012-04-19T07:34:01Z</time>
      </trkpt>
      <trkpt lat="43.81194" lon="7.23787">
        <ele>692</ele>
        <time>2012-04-19T07:34:03Z</time>
      </trkpt>
      <trkpt lat="43.81198" lon="7.23779">
        <ele>691</ele>
        <time>2012-04-19T07:34:06Z</time>
      </trkpt>
      <trkpt lat="43.81203" lon="7.23769">
        <ele>690</ele>
        <time>2012-04-19T07:34:10Z</time>
      </trkpt>
      <trkpt lat="43.8121" lon="7.23764">
        <ele>689.7</ele>
        <time>2012-04-19T07:34:13Z</time>
      </trkpt>
      <trkpt lat="43.81214" lon="7.23756">
        <ele>688.9</ele>
        <time>2012-04-19T07:34:15Z</time>
      </trkpt>
      <trkpt lat="43.81218" lon="7.23748">
        <ele>687.2</ele>
        <time>2012-04-19T07:34:17Z</time>
      </trkpt>
      <trkpt lat="43.81223" lon="7.23739">
        <ele>685.6</ele>
        <time>2012-04-19T07:34:20Z</time>
      </trkpt>
      <trkpt lat="43.81228" lon="7.2373">
        <ele>684.1</ele>
        <time>2012-04-19T07:34:23Z</time>
      </trkpt>
      <trkpt lat="43.81233" lon="7.23723">
        <ele>683.7</ele>
        <time>2012-04-19T07:34:26Z</time>
      </trkpt>
      <trkpt lat="43.81239" lon="7.23713">
        <ele>684</ele>
        <time>2012-04-19T07:34:30Z</time>
      </trkpt>
      <trkpt lat="43.81243" lon="7.23705">
        <ele>683.1</ele>
        <time>2012-04-19T07:34:33Z</time>
      </trkpt>
      <trkpt lat="43.81248" lon="7.23695">
        <ele>682.2</ele>
        <time>2012-04-19T07:34:37Z</time>
      </trkpt>
      <trkpt lat="43.81252" lon="7.23687">
        <ele>680.8</ele>
        <time>2012-04-19T07:34:40Z</time>
      </trkpt>
      <trkpt lat="43.81255" lon="7.23676">
        <ele>678.7</ele>
        <time>2012-04-19T07:34:44Z</time>
      </trkpt>
      <trkpt lat="43.81255" lon="7.23665">
        <ele>678</ele>
        <time>2012-04-19T07:34:49Z</time>
      </trkpt>
      <trkpt lat="43.81249" lon="7.23657">
        <ele>675.9</ele>
        <time>2012-04-19T07:35:01Z</time>
      </trkpt>
      <trkpt lat="43.81248" lon="7.23656">
        <ele>675.6</ele>
        <time>2012-04-19T07:35:02Z</time>
      </trkpt>
      <trkpt lat="43.81253" lon="7.23634">
        <ele>675.7</ele>
        <time>2012-04-19T07:35:24Z</time>
      </trkpt>
      <trkpt lat="43.81251" lon="7.23622">
        <ele>674.7</ele>
        <time>2012-04-19T07:35:33Z</time>
      </trkpt>
      <trkpt lat="43.81252" lon="7.23613">
        <ele>673.9</ele>
        <time>2012-04-19T07:35:38Z</time>
      </trkpt>
      <trkpt lat="43.81255" lon="7.23601">
        <ele>673.6</ele>
        <time>2012-04-19T07:35:41Z</time>
      </trkpt>
      <trkpt lat="43.81255" lon="7.23593">
        <ele>673.2</ele>
        <time>2012-04-19T07:35:43Z</time>
      </trkpt>
      <trkpt lat="43.81255" lon="7.23584">
        <ele>672.9</ele>
        <time>2012-04-19T07:35:45Z</time>
      </trkpt>
      <trkpt lat="43.81258" lon="7.23574">
        <ele>672.4</ele>
        <time>2012-04-19T07:35:47Z</time>
      </trkpt>
      <trkpt lat="43.81258" lon="7.23563">
        <ele>671.1</ele>
        <time>2012-04-19T07:35:49Z</time>
      </trkpt>
      <trkpt lat="43.81256" lon="7.23552">
        <ele>670.9</ele>
        <time>2012-04-19T07:35:51Z</time>
      </trkpt>
      <trkpt lat="43.81256" lon="7.23542">
        <ele>670.8</ele>
        <time>2012-04-19T07:35:53Z</time>
      </trkpt>
      <trkpt lat="43.81259" lon="7.23534">
        <ele>670.3</ele>
        <time>2012-04-19T07:35:55Z</time>
      </trkpt>
      <trkpt lat="43.81263" lon="7.23523">
        <ele>669.3</ele>
        <time>2012-04-19T07:35:58Z</time>
      </trkpt>
      <trkpt lat="43.81267" lon="7.23513">
        <ele>667.9</ele>
        <time>2012-04-19T07:36:01Z</time>
      </trkpt>
      <trkpt lat="43.81272" lon="7.23503">
        <ele>667.4</ele>
        <time>2012-04-19T07:36:04Z</time>
      </trkpt>
      <trkpt lat="43.81273" lon="7.23499">
        <ele>666.8</ele>
        <time>2012-04-19T07:36:05Z</time>
      </trkpt>
      <trkpt lat="43.81276" lon="7.23486">
        <ele>665.3</ele>
        <time>2012-04-19T07:36:08Z</time>
      </trkpt>
      <trkpt lat="43.81279" lon="7.23478">
        <ele>663.7</ele>
        <time>2012-04-19T07:36:10Z</time>
      </trkpt>
      <trkpt lat="43.81283" lon="7.23471">
        <ele>662.7</ele>
        <time>2012-04-19T07:36:12Z</time>
      </trkpt>
      <trkpt lat="43.81286" lon="7.23464">
        <ele>661.2</ele>
        <time>2012-04-19T07:36:14Z</time>
      </trkpt>
      <trkpt lat="43.8129" lon="7.23457">
        <ele>659.7</ele>
        <time>2012-04-19T07:36:16Z</time>
      </trkpt>
      <trkpt lat="43.81296" lon="7.23447">
        <ele>657.5</ele>
        <time>2012-04-19T07:36:19Z</time>
      </trkpt>
      <trkpt lat="43.81304" lon="7.23446">
        <ele>654.6</ele>
        <time>2012-04-19T07:36:22Z</time>
      </trkpt>
      <trkpt lat="43.81311" lon="7.23447">
        <ele>652.7</ele>
        <time>2012-04-19T07:36:25Z</time>
      </trkpt>
      <trkpt lat="43.81319" lon="7.23446">
        <ele>651.9</ele>
        <time>2012-04-19T07:36:28Z</time>
      </trkpt>
      <trkpt lat="43.81325" lon="7.23453">
        <ele>650.4</ele>
        <time>2012-04-19T07:36:31Z</time>
      </trkpt>
      <trkpt lat="43.8133" lon="7.23459">
        <ele>648.4</ele>
        <time>2012-04-19T07:36:33Z</time>
      </trkpt>
      <trkpt lat="43.81334" lon="7.23468">
        <ele>646.3</ele>
        <time>2012-04-19T07:36:36Z</time>
      </trkpt>
      <trkpt lat="43.81338" lon="7.23479">
        <ele>644</ele>
        <time>2012-04-19T07:36:40Z</time>
      </trkpt>
      <trkpt lat="43.81346" lon="7.23484">
        <ele>640.6</ele>
        <time>2012-04-19T07:37:40Z</time>
      </trkpt>
      <trkpt lat="43.81347" lon="7.23483">
        <ele>640.5</ele>
        <time>2012-04-19T07:37:41Z</time>
      </trkpt>
      <trkpt lat="43.81361" lon="7.23474">
        <ele>631.6</ele>
        <time>2012-04-19T07:38:05Z</time>
      </trkpt>
      <trkpt lat="43.8137" lon="7.23475">
        <ele>628.4</ele>
        <time>2012-04-19T07:38:13Z</time>
      </trkpt>
      <trkpt lat="43.81373" lon="7.23486">
        <ele>626.9</ele>
        <time>2012-04-19T07:38:24Z</time>
      </trkpt>
      <trkpt lat="43.81382" lon="7.23489">
        <ele>625</ele>
        <time>2012-04-19T07:38:36Z</time>
      </trkpt>
      <trkpt lat="43.81388" lon="7.23497">
        <ele>621.5</ele>
        <time>2012-04-19T07:38:53Z</time>
      </trkpt>
      <trkpt lat="43.81388" lon="7.23497">
        <ele>621.2</ele>
        <time>2012-04-19T07:38:54Z</time>
      </trkpt>
      <trkpt lat="43.81402" lon="7.2351">
        <ele>614.1</ele>
        <time>2012-04-19T07:39:33Z</time>
      </trkpt>
      <trkpt lat="43.81411" lon="7.23506">
        <ele>609</ele>
        <time>2012-04-19T07:39:50Z</time>
      </trkpt>
      <trkpt lat="43.81418" lon="7.23502">
        <ele>607.3</ele>
        <time>2012-04-19T07:40:05Z</time>
      </trkpt>
      <trkpt lat="43.81419" lon="7.23501">
        <ele>607.3</ele>
        <time>2012-04-19T07:40:06Z</time>
      </trkpt>
      <trkpt lat="43.81435" lon="7.23494">
        <ele>600.1</ele>
        <time>2012-04-19T07:40:25Z</time>
      </trkpt>
      <trkpt lat="43.81444" lon="7.2349">
        <ele>595.3</ele>
        <time>2012-04-19T07:40:43Z</time>
      </trkpt>
      <trkpt lat="43.81449" lon="7.23481">
        <ele>593.7</ele>
        <time>2012-04-19T07:41:17Z</time>
      </trkpt>
      <trkpt lat="43.81449" lon="7.23481">
        <ele>593.8</ele>
        <time>2012-04-19T07:41:18Z</time>
      </trkpt>
      <trkpt lat="43.81467" lon="7.2348">
        <ele>584</ele>
        <time>2012-04-19T07:42:20Z</time>
      </trkpt>
      <trkpt lat="43.81467" lon="7.2348">
        <ele>583.9</ele>
        <time>2012-04-19T07:42:21Z</time>
      </trkpt>
      <trkpt lat="43.81481" lon="7.23493">
        <ele>571.4</ele>
        <time>2012-04-19T07:43:24Z</time>
      </trkpt>
      <trkpt lat="43.81481" lon="7.23493">
        <ele>570.9</ele>
        <time>2012-04-19T07:43:25Z</time>
      </trkpt>
      <trkpt lat="43.81495" lon="7.235">
        <ele>562.8</ele>
        <time>2012-04-19T07:44:04Z</time>
      </trkpt>
      <trkpt lat="43.81502" lon="7.23491">
        <ele>558.5</ele>
        <time>2012-04-19T07:44:28Z</time>
      </trkpt>
      <trkpt lat="43.81502" lon="7.2349">
        <ele>558.4</ele>
        <time>2012-04-19T07:44:29Z</time>
      </trkpt>
      <trkpt lat="43.81511" lon="7.2347">
        <ele>553.8</ele>
        <time>2012-04-19T07:46:13Z</time>
      </trkpt>
      <trkpt lat="43.81511" lon="7.23469">
        <ele>553.3</ele>
        <time>2012-04-19T07:46:14Z</time>
      </trkpt>
      <trkpt lat="43.81525" lon="7.23455">
        <ele>537.2</ele>
        <time>2012-04-19T07:47:07Z</time>
      </trkpt>
      <trkpt lat="43.81527" lon="7.23444">
        <ele>529.8</ele>
        <time>2012-04-19T07:47:33Z</time>
      </trkpt>
      <trkpt lat="43.81527" lon="7.23443">
        <ele>529.7</ele>
        <time>2012-04-19T07:47:34Z</time>
      </trkpt>
      <trkpt lat="43.81538" lon="7.23424">
        <ele>519.2</ele>
        <time>2012-04-19T07:48:20Z</time>
      </trkpt>
      <trkpt lat="43.81545" lon="7.23429">
        <ele>518.7</ele>
        <time>2012-04-19T07:49:07Z</time>
      </trkpt>
      <trkpt lat="43.81545" lon="7.23431">
        <ele>518.4</ele>
        <time>2012-04-19T07:49:08Z</time>
      </trkpt>
      <trkpt lat="43.81551" lon="7.23448">
        <ele>517.8</ele>
        <time>2012-04-19T07:49:15Z</time>
      </trkpt>
      <trkpt lat="43.81554" lon="7.23456">
        <ele>518.2</ele>
        <time>2012-04-19T07:49:18Z</time>
      </trkpt>
      <trkpt lat="43.81557" lon="7.23467">
        <ele>519.1</ele>
        <time>2012-04-19T07:49:21Z</time>
      </trkpt>
      <trkpt lat="43.81558" lon="7.23475">
        <ele>518.9</ele>
        <time>2012-04-19T07:49:23Z</time>
      </trkpt>
      <trkpt lat="43.81559" lon="7.23484">
        <ele>519.1</ele>
        <time>2012-04-19T07:49:25Z</time>
      </trkpt>
      <trkpt lat="43.81559" lon="7.23493">
        <ele>518.6</ele>
        <time>2012-04-19T07:49:27Z</time>
      </trkpt>
      <trkpt lat="43.81559" lon="7.23503">
        <ele>518.5</ele>
        <time>2012-04-19T07:49:29Z</time>
      </trkpt>
      <trkpt lat="43.81558" lon="7.23513">
        <ele>519</ele>
        <time>2012-04-19T07:49:31Z</time>
      </trkpt>
      <trkpt lat="43.81557" lon="7.23523">
        <ele>518.6</ele>
        <time>2012-04-19T07:49:33Z</time>
      </trkpt>
      <trkpt lat="43.81555" lon="7.23532">
        <ele>518.3</ele>
        <time>2012-04-19T07:49:35Z</time>
      </trkpt>
      <trkpt lat="43.81555" lon="7.23542">
        <ele>518.2</ele>
        <time>2012-04-19T07:49:37Z</time>
      </trkpt>
      <trkpt lat="43.81554" lon="7.23552">
        <ele>517.9</ele>
        <time>2012-04-19T07:49:39Z</time>
      </trkpt>
      <trkpt lat="43.81551" lon="7.23562">
        <ele>517.7</ele>
        <time>2012-04-19T07:49:41Z</time>
      </trkpt>
      <trkpt lat="43.81549" lon="7.23571">
        <ele>517.6</ele>
        <time>2012-04-19T07:49:43Z</time>
      </trkpt>
      <trkpt lat="43.81548" lon="7.23581">
        <ele>518.1</ele>
        <time>2012-04-19T07:49:45Z</time>
      </trkpt>
      <trkpt lat="43.81548" lon="7.23592">
        <ele>518.2</ele>
        <time>2012-04-19T07:49:47Z</time>
      </trkpt>
      <trkpt lat="43.81551" lon="7.23603">
        <ele>517.8</ele>
        <time>2012-04-19T07:49:49Z</time>
      </trkpt>
      <trkpt lat="43.81552" lon="7.23615">
        <ele>517.9</ele>
        <time>2012-04-19T07:49:51Z</time>
      </trkpt>
      <trkpt lat="43.81553" lon="7.23621">
        <ele>518</ele>
        <time>2012-04-19T07:49:52Z</time>
      </trkpt>
      <trkpt lat="43.81553" lon="7.23628">
        <ele>518</ele>
        <time>2012-04-19T07:49:53Z</time>
      </trkpt>
      <trkpt lat="43.81554" lon="7.23634">
        <ele>518</ele>
        <time>2012-04-19T07:49:54Z</time>
      </trkpt>
      <trkpt lat="43.81555" lon="7.23641">
        <ele>518</ele>
        <time>2012-04-19T07:49:55Z</time>
      </trkpt>
      <trkpt lat="43.81555" lon="7.23648">
        <ele>517.9</ele>
        <time>2012-04-19T07:49:56Z</time>
      </trkpt>
      <trkpt lat="43.81556" lon="7.23655">
        <ele>517.8</ele>
        <time>2012-04-19T07:49:57Z</time>
      </trkpt>
      <trkpt lat="43.81557" lon="7.23662">
        <ele>517.7</ele>
        <time>2012-04-19T07:49:58Z</time>
      </trkpt>
      <trkpt lat="43.81557" lon="7.23668">
        <ele>517.7</ele>
        <time>2012-04-19T07:49:59Z</time>
      </trkpt>
      <trkpt lat="43.81558" lon="7.23675">
        <ele>517.6</ele>
        <time>2012-04-19T07:50:00Z</time>
      </trkpt>
      <trkpt lat="43.81559" lon="7.23682">
        <ele>517.5</ele>
        <time>2012-04-19T07:50:01Z</time>
      </trkpt>
      <trkpt lat="43.81561" lon="7.23688">
        <ele>517.4</ele>
        <time>2012-04-19T07:50:02Z</time>
      </trkpt>
      <trkpt lat="43.81563" lon="7.23695">
        <ele>517.4</ele>
        <time>2012-04-19T07:50:03Z</time>
      </trkpt>
      <trkpt lat="43.81565" lon="7.23701">
        <ele>517.4</ele>
        <time>2012-04-19T07:50:04Z</time>
      </trkpt>
      <trkpt lat="43.81567" lon="7.23707">
        <ele>517.4</ele>
        <time>2012-04-19T07:50:05Z</time>
      </trkpt>
      <trkpt lat="43.8157" lon="7.23718">
        <ele>517.2</ele>
        <time>2012-04-19T07:50:07Z</time>
      </trkpt>
      <trkpt lat="43.81569" lon="7.23729">
        <ele>516.9</ele>
        <time>2012-04-19T07:50:09Z</time>
      </trkpt>
      <trkpt lat="43.81565" lon="7.23737">
        <ele>517.3</ele>
        <time>2012-04-19T07:50:11Z</time>
      </trkpt>
      <trkpt lat="43.81562" lon="7.2374">
        <ele>517.1</ele>
        <time>2012-04-19T07:50:12Z</time>
      </trkpt>
      <trkpt lat="43.81554" lon="7.23747">
        <ele>517.7</ele>
        <time>2012-04-19T07:50:15Z</time>
      </trkpt>
      <trkpt lat="43.81549" lon="7.23752">
        <ele>518.6</ele>
        <time>2012-04-19T07:50:17Z</time>
      </trkpt>
      <trkpt lat="43.81541" lon="7.23758">
        <ele>519.3</ele>
        <time>2012-04-19T07:50:20Z</time>
      </trkpt>
      <trkpt lat="43.81536" lon="7.23765">
        <ele>519.4</ele>
        <time>2012-04-19T07:50:23Z</time>
      </trkpt>
      <trkpt lat="43.81529" lon="7.23771">
        <ele>520.3</ele>
        <time>2012-04-19T07:50:26Z</time>
      </trkpt>
      <trkpt lat="43.81523" lon="7.23777">
        <ele>521</ele>
        <time>2012-04-19T07:50:29Z</time>
      </trkpt>
      <trkpt lat="43.81517" lon="7.23782">
        <ele>521.6</ele>
        <time>2012-04-19T07:50:32Z</time>
      </trkpt>
      <trkpt lat="43.8151" lon="7.23788">
        <ele>522.1</ele>
        <time>2012-04-19T07:50:35Z</time>
      </trkpt>
      <trkpt lat="43.81505" lon="7.23795">
        <ele>522.3</ele>
        <time>2012-04-19T07:50:38Z</time>
      </trkpt>
      <trkpt lat="43.81499" lon="7.23803">
        <ele>522.9</ele>
        <time>2012-04-19T07:50:43Z</time>
      </trkpt>
      <trkpt lat="43.81492" lon="7.23811">
        <ele>523.6</ele>
        <time>2012-04-19T07:50:50Z</time>
      </trkpt>
      <trkpt lat="43.81484" lon="7.23818">
        <ele>525</ele>
        <time>2012-04-19T07:50:57Z</time>
      </trkpt>
      <trkpt lat="43.81477" lon="7.23824">
        <ele>525.5</ele>
        <time>2012-04-19T07:51:03Z</time>
      </trkpt>
      <trkpt lat="43.8147" lon="7.2383">
        <ele>525.8</ele>
        <time>2012-04-19T07:51:08Z</time>
      </trkpt>
      <trkpt lat="43.81463" lon="7.23835">
        <ele>526.8</ele>
        <time>2012-04-19T07:51:13Z</time>
      </trkpt>
      <trkpt lat="43.81461" lon="7.23837">
        <ele>527.3</ele>
        <time>2012-04-19T07:51:14Z</time>
      </trkpt>
      <trkpt lat="43.81448" lon="7.23843">
        <ele>528.3</ele>
        <time>2012-04-19T07:51:21Z</time>
      </trkpt>
      <trkpt lat="43.8144" lon="7.23846">
        <ele>529.2</ele>
        <time>2012-04-19T07:51:24Z</time>
      </trkpt>
      <trkpt lat="43.81433" lon="7.2385">
        <ele>529.8</ele>
        <time>2012-04-19T07:51:27Z</time>
      </trkpt>
      <trkpt lat="43.81426" lon="7.23855">
        <ele>531</ele>
        <time>2012-04-19T07:51:30Z</time>
      </trkpt>
      <trkpt lat="43.81419" lon="7.2386">
        <ele>532.1</ele>
        <time>2012-04-19T07:51:33Z</time>
      </trkpt>
      <trkpt lat="43.81413" lon="7.23866">
        <ele>532</ele>
        <time>2012-04-19T07:51:36Z</time>
      </trkpt>
      <trkpt lat="43.81406" lon="7.23871">
        <ele>532.6</ele>
        <time>2012-04-19T07:51:39Z</time>
      </trkpt>
      <trkpt lat="43.81399" lon="7.23877">
        <ele>533.9</ele>
        <time>2012-04-19T07:51:42Z</time>
      </trkpt>
      <trkpt lat="43.81394" lon="7.23886">
        <ele>534.7</ele>
        <time>2012-04-19T07:51:45Z</time>
      </trkpt>
      <trkpt lat="43.81392" lon="7.23896">
        <ele>534.9</ele>
        <time>2012-04-19T07:51:48Z</time>
      </trkpt>
      <trkpt lat="43.81395" lon="7.23907">
        <ele>534.6</ele>
        <time>2012-04-19T07:51:51Z</time>
      </trkpt>
      <trkpt lat="43.814" lon="7.23915">
        <ele>535.8</ele>
        <time>2012-04-19T07:51:54Z</time>
      </trkpt>
      <trkpt lat="43.81407" lon="7.2392">
        <ele>537.1</ele>
        <time>2012-04-19T07:51:57Z</time>
      </trkpt>
      <trkpt lat="43.81414" lon="7.23923">
        <ele>537.2</ele>
        <time>2012-04-19T07:52:00Z</time>
      </trkpt>
      <trkpt lat="43.81421" lon="7.23927">
        <ele>537.4</ele>
        <time>2012-04-19T07:52:03Z</time>
      </trkpt>
      <trkpt lat="43.81427" lon="7.23931">
        <ele>538.5</ele>
        <time>2012-04-19T07:52:06Z</time>
      </trkpt>
      <trkpt lat="43.81433" lon="7.23938">
        <ele>539.3</ele>
        <time>2012-04-19T07:52:09Z</time>
      </trkpt>
      <trkpt lat="43.81439" lon="7.23945">
        <ele>539.4</ele>
        <time>2012-04-19T07:52:12Z</time>
      </trkpt>
      <trkpt lat="43.81445" lon="7.23952">
        <ele>540.1</ele>
        <time>2012-04-19T07:52:15Z</time>
      </trkpt>
      <trkpt lat="43.81447" lon="7.23954">
        <ele>540.3</ele>
        <time>2012-04-19T07:52:16Z</time>
      </trkpt>
      <trkpt lat="43.81458" lon="7.23964">
        <ele>541.2</ele>
        <time>2012-04-19T07:52:21Z</time>
      </trkpt>
      <trkpt lat="43.81463" lon="7.23971">
        <ele>542.9</ele>
        <time>2012-04-19T07:52:24Z</time>
      </trkpt>
      <trkpt lat="43.81468" lon="7.23978">
        <ele>543.6</ele>
        <time>2012-04-19T07:52:27Z</time>
      </trkpt>
      <trkpt lat="43.81474" lon="7.23985">
        <ele>544.1</ele>
        <time>2012-04-19T07:52:30Z</time>
      </trkpt>
      <trkpt lat="43.8148" lon="7.23991">
        <ele>543.5</ele>
        <time>2012-04-19T07:52:33Z</time>
      </trkpt>
      <trkpt lat="43.81485" lon="7.23999">
        <ele>544.5</ele>
        <time>2012-04-19T07:52:36Z</time>
      </trkpt>
      <trkpt lat="43.81489" lon="7.24008">
        <ele>545.3</ele>
        <time>2012-04-19T07:52:39Z</time>
      </trkpt>
      <trkpt lat="43.81492" lon="7.24018">
        <ele>546.2</ele>
        <time>2012-04-19T07:52:42Z</time>
      </trkpt>
      <trkpt lat="43.81494" lon="7.2403">
        <ele>547.3</ele>
        <time>2012-04-19T07:52:45Z</time>
      </trkpt>
      <trkpt lat="43.81495" lon="7.24042">
        <ele>548.6</ele>
        <time>2012-04-19T07:52:48Z</time>
      </trkpt>
      <trkpt lat="43.81494" lon="7.24053">
        <ele>548.3</ele>
        <time>2012-04-19T07:52:51Z</time>
      </trkpt>
      <trkpt lat="43.81492" lon="7.24064">
        <ele>548.4</ele>
        <time>2012-04-19T07:52:54Z</time>
      </trkpt>
      <trkpt lat="43.81489" lon="7.24075">
        <ele>549.3</ele>
        <time>2012-04-19T07:52:57Z</time>
      </trkpt>
      <trkpt lat="43.81486" lon="7.24086">
        <ele>550.8</ele>
        <time>2012-04-19T07:53:00Z</time>
      </trkpt>
      <trkpt lat="43.81484" lon="7.24096">
        <ele>551.2</ele>
        <time>2012-04-19T07:53:03Z</time>
      </trkpt>
      <trkpt lat="43.81481" lon="7.24105">
        <ele>550.8</ele>
        <time>2012-04-19T07:53:06Z</time>
      </trkpt>
      <trkpt lat="43.8148" lon="7.24117">
        <ele>551.3</ele>
        <time>2012-04-19T07:53:10Z</time>
      </trkpt>
      <trkpt lat="43.81479" lon="7.24129">
        <ele>552.4</ele>
        <time>2012-04-19T07:53:14Z</time>
      </trkpt>
      <trkpt lat="43.81478" lon="7.24141">
        <ele>554.5</ele>
        <time>2012-04-19T07:53:18Z</time>
      </trkpt>
      <trkpt lat="43.81478" lon="7.24144">
        <ele>555</ele>
        <time>2012-04-19T07:53:19Z</time>
      </trkpt>
      <trkpt lat="43.81479" lon="7.2416">
        <ele>555.3</ele>
        <time>2012-04-19T07:53:24Z</time>
      </trkpt>
      <trkpt lat="43.81479" lon="7.2417">
        <ele>555.6</ele>
        <time>2012-04-19T07:53:27Z</time>
      </trkpt>
      <trkpt lat="43.8148" lon="7.24179">
        <ele>556.8</ele>
        <time>2012-04-19T07:53:30Z</time>
      </trkpt>
      <trkpt lat="43.8148" lon="7.24189">
        <ele>557</ele>
        <time>2012-04-19T07:53:33Z</time>
      </trkpt>
      <trkpt lat="43.8148" lon="7.24199">
        <ele>557.9</ele>
        <time>2012-04-19T07:53:36Z</time>
      </trkpt>
      <trkpt lat="43.8148" lon="7.24209">
        <ele>558.7</ele>
        <time>2012-04-19T07:53:39Z</time>
      </trkpt>
      <trkpt lat="43.8148" lon="7.2422">
        <ele>559.9</ele>
        <time>2012-04-19T07:53:43Z</time>
      </trkpt>
      <trkpt lat="43.81478" lon="7.24232">
        <ele>560.8</ele>
        <time>2012-04-19T07:53:48Z</time>
      </trkpt>
      <trkpt lat="43.81478" lon="7.24242">
        <ele>561.6</ele>
        <time>2012-04-19T07:53:53Z</time>
      </trkpt>
      <trkpt lat="43.81479" lon="7.24231">
        <ele>562</ele>
        <time>2012-04-19T07:54:05Z</time>
      </trkpt>
      <trkpt lat="43.81479" lon="7.24221">
        <ele>562</ele>
        <time>2012-04-19T07:54:07Z</time>
      </trkpt>
      <trkpt lat="43.81479" lon="7.24215">
        <ele>562</ele>
        <time>2012-04-19T07:54:08Z</time>
      </trkpt>
      <trkpt lat="43.81479" lon="7.24208">
        <ele>561.7</ele>
        <time>2012-04-19T07:54:09Z</time>
      </trkpt>
      <trkpt lat="43.81478" lon="7.24201">
        <ele>561.4</ele>
        <time>2012-04-19T07:54:10Z</time>
      </trkpt>
      <trkpt lat="43.81478" lon="7.24194">
        <ele>561.2</ele>
        <time>2012-04-19T07:54:11Z</time>
      </trkpt>
      <trkpt lat="43.81478" lon="7.24186">
        <ele>560.6</ele>
        <time>2012-04-19T07:54:12Z</time>
      </trkpt>
      <trkpt lat="43.81478" lon="7.24177">
        <ele>560.1</ele>
        <time>2012-04-19T07:54:13Z</time>
      </trkpt>
      <trkpt lat="43.81477" lon="7.24169">
        <ele>559.5</ele>
        <time>2012-04-19T07:54:14Z</time>
      </trkpt>
      <trkpt lat="43.81477" lon="7.2416">
        <ele>559.1</ele>
        <time>2012-04-19T07:54:15Z</time>
      </trkpt>
      <trkpt lat="43.81476" lon="7.24151">
        <ele>558.8</ele>
        <time>2012-04-19T07:54:16Z</time>
      </trkpt>
      <trkpt lat="43.81477" lon="7.24142">
        <ele>558.4</ele>
        <time>2012-04-19T07:54:17Z</time>
      </trkpt>
      <trkpt lat="43.81477" lon="7.24133">
        <ele>558.1</ele>
        <time>2012-04-19T07:54:18Z</time>
      </trkpt>
      <trkpt lat="43.81478" lon="7.24123">
        <ele>557.5</ele>
        <time>2012-04-19T07:54:19Z</time>
      </trkpt>
      <trkpt lat="43.81481" lon="7.24114">
        <ele>557</ele>
        <time>2012-04-19T07:54:20Z</time>
      </trkpt>
      <trkpt lat="43.81483" lon="7.24104">
        <ele>556.3</ele>
        <time>2012-04-19T07:54:21Z</time>
      </trkpt>
      <trkpt lat="43.81486" lon="7.24094">
        <ele>555.8</ele>
        <time>2012-04-19T07:54:22Z</time>
      </trkpt>
      <trkpt lat="43.81489" lon="7.24084">
        <ele>555.5</ele>
        <time>2012-04-19T07:54:23Z</time>
      </trkpt>
      <trkpt lat="43.81491" lon="7.24074">
        <ele>555</ele>
        <time>2012-04-19T07:54:24Z</time>
      </trkpt>
      <trkpt lat="43.81491" lon="7.24063">
        <ele>554.6</ele>
        <time>2012-04-19T07:54:25Z</time>
      </trkpt>
      <trkpt lat="43.81489" lon="7.24052">
        <ele>554.2</ele>
        <time>2012-04-19T07:54:26Z</time>
      </trkpt>
      <trkpt lat="43.81487" lon="7.24042">
        <ele>553.9</ele>
        <time>2012-04-19T07:54:27Z</time>
      </trkpt>
      <trkpt lat="43.81483" lon="7.24033">
        <ele>552.8</ele>
        <time>2012-04-19T07:54:28Z</time>
      </trkpt>
      <trkpt lat="43.81479" lon="7.24024">
        <ele>552</ele>
        <time>2012-04-19T07:54:29Z</time>
      </trkpt>
      <trkpt lat="43.81474" lon="7.24016">
        <ele>551.4</ele>
        <time>2012-04-19T07:54:30Z</time>
      </trkpt>
      <trkpt lat="43.81468" lon="7.24009">
        <ele>550.4</ele>
        <time>2012-04-19T07:54:31Z</time>
      </trkpt>
      <trkpt lat="43.81462" lon="7.24001">
        <ele>549.6</ele>
        <time>2012-04-19T07:54:32Z</time>
      </trkpt>
      <trkpt lat="43.81456" lon="7.23993">
        <ele>549</ele>
        <time>2012-04-19T07:54:33Z</time>
      </trkpt>
      <trkpt lat="43.81449" lon="7.23986">
        <ele>548.5</ele>
        <time>2012-04-19T07:54:34Z</time>
      </trkpt>
      <trkpt lat="43.81442" lon="7.23978">
        <ele>548.2</ele>
        <time>2012-04-19T07:54:35Z</time>
      </trkpt>
      <trkpt lat="43.81436" lon="7.23971">
        <ele>547</ele>
        <time>2012-04-19T07:54:36Z</time>
      </trkpt>
      <trkpt lat="43.81429" lon="7.23963">
        <ele>546.1</ele>
        <time>2012-04-19T07:54:37Z</time>
      </trkpt>
      <trkpt lat="43.81423" lon="7.23954">
        <ele>545</ele>
        <time>2012-04-19T07:54:38Z</time>
      </trkpt>
      <trkpt lat="43.81417" lon="7.23944">
        <ele>544.1</ele>
        <time>2012-04-19T07:54:39Z</time>
      </trkpt>
      <trkpt lat="43.81411" lon="7.23935">
        <ele>542.6</ele>
        <time>2012-04-19T07:54:40Z</time>
      </trkpt>
      <trkpt lat="43.81403" lon="7.23928">
        <ele>541.4</ele>
        <time>2012-04-19T07:54:41Z</time>
      </trkpt>
      <trkpt lat="43.81396" lon="7.23923">
        <ele>540.5</ele>
        <time>2012-04-19T07:54:42Z</time>
      </trkpt>
      <trkpt lat="43.81391" lon="7.23915">
        <ele>539.7</ele>
        <time>2012-04-19T07:54:43Z</time>
      </trkpt>
      <trkpt lat="43.81387" lon="7.23907">
        <ele>539.1</ele>
        <time>2012-04-19T07:54:44Z</time>
      </trkpt>
      <trkpt lat="43.81385" lon="7.23898">
        <ele>538.2</ele>
        <time>2012-04-19T07:54:45Z</time>
      </trkpt>
      <trkpt lat="43.81387" lon="7.2389">
        <ele>537.5</ele>
        <time>2012-04-19T07:54:46Z</time>
      </trkpt>
      <trkpt lat="43.81391" lon="7.23884">
        <ele>537</ele>
        <time>2012-04-19T07:54:47Z</time>
      </trkpt>
      <trkpt lat="43.81396" lon="7.23879">
        <ele>536.7</ele>
        <time>2012-04-19T07:54:48Z</time>
      </trkpt>
      <trkpt lat="43.81402" lon="7.23874">
        <ele>536.4</ele>
        <time>2012-04-19T07:54:49Z</time>
      </trkpt>
      <trkpt lat="43.81408" lon="7.23869">
        <ele>536</ele>
        <time>2012-04-19T07:54:50Z</time>
      </trkpt>
      <trkpt lat="43.81414" lon="7.23864">
        <ele>535.7</ele>
        <time>2012-04-19T07:54:51Z</time>
      </trkpt>
      <trkpt lat="43.81421" lon="7.23859">
        <ele>535.6</ele>
        <time>2012-04-19T07:54:52Z</time>
      </trkpt>
      <trkpt lat="43.81428" lon="7.23855">
        <ele>535.5</ele>
        <time>2012-04-19T07:54:53Z</time>
      </trkpt>
      <trkpt lat="43.81435" lon="7.2385">
        <ele>535.4</ele>
        <time>2012-04-19T07:54:54Z</time>
      </trkpt>
      <trkpt lat="43.81442" lon="7.23846">
        <ele>534.6</ele>
        <time>2012-04-19T07:54:55Z</time>
      </trkpt>
      <trkpt lat="43.81449" lon="7.23843">
        <ele>533.9</ele>
        <time>2012-04-19T07:54:56Z</time>
      </trkpt>
      <trkpt lat="43.81456" lon="7.23839">
        <ele>533.2</ele>
        <time>2012-04-19T07:54:57Z</time>
      </trkpt>
      <trkpt lat="43.81461" lon="7.23835">
        <ele>532.7</ele>
        <time>2012-04-19T07:54:58Z</time>
      </trkpt>
      <trkpt lat="43.81467" lon="7.23831">
        <ele>531.3</ele>
        <time>2012-04-19T07:54:59Z</time>
      </trkpt>
      <trkpt lat="43.81471" lon="7.23827">
        <ele>530.3</ele>
        <time>2012-04-19T07:55:00Z</time>
      </trkpt>
      <trkpt lat="43.81475" lon="7.23823">
        <ele>529.5</ele>
        <time>2012-04-19T07:55:01Z</time>
      </trkpt>
      <trkpt lat="43.81482" lon="7.23816">
        <ele>528.4</ele>
        <time>2012-04-19T07:55:03Z</time>
      </trkpt>
      <trkpt lat="43.81488" lon="7.2381">
        <ele>526.2</ele>
        <time>2012-04-19T07:55:05Z</time>
      </trkpt>
      <trkpt lat="43.81493" lon="7.23803">
        <ele>525.9</ele>
        <time>2012-04-19T07:55:07Z</time>
      </trkpt>
      <trkpt lat="43.815" lon="7.2381">
        <ele>520.1</ele>
        <time>2012-04-19T07:55:20Z</time>
      </trkpt>
      <trkpt lat="43.81502" lon="7.23808">
        <ele>518.8</ele>
        <time>2012-04-19T07:55:21Z</time>
      </trkpt>
      <trkpt lat="43.81494" lon="7.23831">
        <ele>515.1</ele>
        <time>2012-04-19T07:55:28Z</time>
      </trkpt>
      <trkpt lat="43.81491" lon="7.23837">
        <ele>515.1</ele>
        <time>2012-04-19T07:55:29Z</time>
      </trkpt>
      <trkpt lat="43.81489" lon="7.23844">
        <ele>514.2</ele>
        <time>2012-04-19T07:55:30Z</time>
      </trkpt>
      <trkpt lat="43.81486" lon="7.23852">
        <ele>513.5</ele>
        <time>2012-04-19T07:55:31Z</time>
      </trkpt>
      <trkpt lat="43.81483" lon="7.23858">
        <ele>513</ele>
        <time>2012-04-19T07:55:32Z</time>
      </trkpt>
      <trkpt lat="43.81478" lon="7.23862">
        <ele>512.6</ele>
        <time>2012-04-19T07:55:33Z</time>
      </trkpt>
      <trkpt lat="43.81474" lon="7.23866">
        <ele>512.4</ele>
        <time>2012-04-19T07:55:34Z</time>
      </trkpt>
      <trkpt lat="43.81469" lon="7.23869">
        <ele>511.6</ele>
        <time>2012-04-19T07:55:35Z</time>
      </trkpt>
      <trkpt lat="43.81465" lon="7.23873">
        <ele>511.1</ele>
        <time>2012-04-19T07:55:36Z</time>
      </trkpt>
      <trkpt lat="43.81461" lon="7.23878">
        <ele>510.2</ele>
        <time>2012-04-19T07:55:37Z</time>
      </trkpt>
      <trkpt lat="43.81456" lon="7.23887">
        <ele>509.2</ele>
        <time>2012-04-19T07:55:39Z</time>
      </trkpt>
      <trkpt lat="43.81461" lon="7.23896">
        <ele>506.7</ele>
        <time>2012-04-19T07:55:45Z</time>
      </trkpt>
      <trkpt lat="43.81469" lon="7.23899">
        <ele>505.2</ele>
        <time>2012-04-19T07:55:50Z</time>
      </trkpt>
      <trkpt lat="43.81478" lon="7.239">
        <ele>507.2</ele>
        <time>2012-04-19T07:55:56Z</time>
      </trkpt>
      <trkpt lat="43.81485" lon="7.23904">
        <ele>508</ele>
        <time>2012-04-19T07:56:02Z</time>
      </trkpt>
      <trkpt lat="43.81492" lon="7.23908">
        <ele>508.1</ele>
        <time>2012-04-19T07:56:05Z</time>
      </trkpt>
      <trkpt lat="43.81499" lon="7.23916">
        <ele>508.2</ele>
        <time>2012-04-19T07:56:08Z</time>
      </trkpt>
      <trkpt lat="43.81505" lon="7.23924">
        <ele>507.9</ele>
        <time>2012-04-19T07:56:11Z</time>
      </trkpt>
      <trkpt lat="43.81512" lon="7.23931">
        <ele>508.8</ele>
        <time>2012-04-19T07:56:14Z</time>
      </trkpt>
      <trkpt lat="43.81516" lon="7.23936">
        <ele>508.5</ele>
        <time>2012-04-19T07:56:16Z</time>
      </trkpt>
      <trkpt lat="43.81522" lon="7.23945">
        <ele>508.6</ele>
        <time>2012-04-19T07:56:19Z</time>
      </trkpt>
      <trkpt lat="43.81528" lon="7.2395">
        <ele>508.6</ele>
        <time>2012-04-19T07:56:22Z</time>
      </trkpt>
      <trkpt lat="43.81531" lon="7.23952">
        <ele>508.7</ele>
        <time>2012-04-19T07:56:23Z</time>
      </trkpt>
      <trkpt lat="43.81538" lon="7.23964">
        <ele>508.1</ele>
        <time>2012-04-19T07:56:26Z</time>
      </trkpt>
      <trkpt lat="43.81541" lon="7.23972">
        <ele>508.4</ele>
        <time>2012-04-19T07:56:28Z</time>
      </trkpt>
      <trkpt lat="43.81544" lon="7.2398">
        <ele>508.8</ele>
        <time>2012-04-19T07:56:30Z</time>
      </trkpt>
      <trkpt lat="43.81546" lon="7.23988">
        <ele>508.8</ele>
        <time>2012-04-19T07:56:32Z</time>
      </trkpt>
      <trkpt lat="43.81547" lon="7.23997">
        <ele>508.6</ele>
        <time>2012-04-19T07:56:34Z</time>
      </trkpt>
      <trkpt lat="43.81549" lon="7.24008">
        <ele>508.2</ele>
        <time>2012-04-19T07:56:37Z</time>
      </trkpt>
      <trkpt lat="43.8155" lon="7.24017">
        <ele>508.4</ele>
        <time>2012-04-19T07:56:39Z</time>
      </trkpt>
      <trkpt lat="43.81551" lon="7.24027">
        <ele>509</ele>
        <time>2012-04-19T07:56:42Z</time>
      </trkpt>
      <trkpt lat="43.81552" lon="7.24037">
        <ele>508.7</ele>
        <time>2012-04-19T07:56:45Z</time>
      </trkpt>
      <trkpt lat="43.81553" lon="7.24047">
        <ele>510.7</ele>
        <time>2012-04-19T07:56:49Z</time>
      </trkpt>
      <trkpt lat="43.81552" lon="7.24059">
        <ele>510.8</ele>
        <time>2012-04-19T07:56:53Z</time>
      </trkpt>
      <trkpt lat="43.81551" lon="7.24068">
        <ele>510.7</ele>
        <time>2012-04-19T07:56:56Z</time>
      </trkpt>
      <trkpt lat="43.8155" lon="7.2408">
        <ele>511.5</ele>
        <time>2012-04-19T07:57:00Z</time>
      </trkpt>
      <trkpt lat="43.81549" lon="7.2409">
        <ele>512</ele>
        <time>2012-04-19T07:57:04Z</time>
      </trkpt>
      <trkpt lat="43.81547" lon="7.24101">
        <ele>512.4</ele>
        <time>2012-04-19T07:57:08Z</time>
      </trkpt>
      <trkpt lat="43.81547" lon="7.24113">
        <ele>513.8</ele>
        <time>2012-04-19T07:57:13Z</time>
      </trkpt>
      <trkpt lat="43.81549" lon="7.24125">
        <ele>514.3</ele>
        <time>2012-04-19T07:57:18Z</time>
      </trkpt>
      <trkpt lat="43.81553" lon="7.24135">
        <ele>514.8</ele>
        <time>2012-04-19T07:57:23Z</time>
      </trkpt>
      <trkpt lat="43.81558" lon="7.24143">
        <ele>514.6</ele>
        <time>2012-04-19T07:57:27Z</time>
      </trkpt>
      <trkpt lat="43.8156" lon="7.24145">
        <ele>514.5</ele>
        <time>2012-04-19T07:57:28Z</time>
      </trkpt>
      <trkpt lat="43.81572" lon="7.24152">
        <ele>516.8</ele>
        <time>2012-04-19T07:57:36Z</time>
      </trkpt>
      <trkpt lat="43.8158" lon="7.24155">
        <ele>517.6</ele>
        <time>2012-04-19T07:57:40Z</time>
      </trkpt>
      <trkpt lat="43.81587" lon="7.24159">
        <ele>517.4</ele>
        <time>2012-04-19T07:57:44Z</time>
      </trkpt>
      <trkpt lat="43.81595" lon="7.24159">
        <ele>518.4</ele>
        <time>2012-04-19T07:57:47Z</time>
      </trkpt>
      <trkpt lat="43.81601" lon="7.24161">
        <ele>517.6</ele>
        <time>2012-04-19T07:57:49Z</time>
      </trkpt>
      <trkpt lat="43.81607" lon="7.24164">
        <ele>517.7</ele>
        <time>2012-04-19T07:57:51Z</time>
      </trkpt>
      <trkpt lat="43.81614" lon="7.24165">
        <ele>517.5</ele>
        <time>2012-04-19T07:57:53Z</time>
      </trkpt>
      <trkpt lat="43.81621" lon="7.24167">
        <ele>517</ele>
        <time>2012-04-19T07:57:55Z</time>
      </trkpt>
      <trkpt lat="43.81629" lon="7.24169">
        <ele>516.3</ele>
        <time>2012-04-19T07:57:57Z</time>
      </trkpt>
      <trkpt lat="43.81636" lon="7.2417">
        <ele>515.6</ele>
        <time>2012-04-19T07:57:59Z</time>
      </trkpt>
      <trkpt lat="43.81642" lon="7.24174">
        <ele>515.7</ele>
        <time>2012-04-19T07:58:01Z</time>
      </trkpt>
      <trkpt lat="43.81646" lon="7.24181">
        <ele>515.6</ele>
        <time>2012-04-19T07:58:03Z</time>
      </trkpt>
      <trkpt lat="43.81649" lon="7.24191">
        <ele>516</ele>
        <time>2012-04-19T07:58:05Z</time>
      </trkpt>
      <trkpt lat="43.81652" lon="7.24201">
        <ele>516.1</ele>
        <time>2012-04-19T07:58:07Z</time>
      </trkpt>
      <trkpt lat="43.81655" lon="7.24212">
        <ele>515.6</ele>
        <time>2012-04-19T07:58:09Z</time>
      </trkpt>
      <trkpt lat="43.81658" lon="7.24219">
        <ele>514.9</ele>
        <time>2012-04-19T07:58:11Z</time>
      </trkpt>
      <trkpt lat="43.81663" lon="7.24225">
        <ele>514.6</ele>
        <time>2012-04-19T07:58:13Z</time>
      </trkpt>
      <trkpt lat="43.81671" lon="7.24229">
        <ele>513.8</ele>
        <time>2012-04-19T07:58:16Z</time>
      </trkpt>
      <trkpt lat="43.81677" lon="7.24233">
        <ele>512.7</ele>
        <time>2012-04-19T07:58:18Z</time>
      </trkpt>
      <trkpt lat="43.81682" lon="7.24236">
        <ele>513.2</ele>
        <time>2012-04-19T07:58:20Z</time>
      </trkpt>
      <trkpt lat="43.81688" lon="7.24239">
        <ele>513.4</ele>
        <time>2012-04-19T07:58:22Z</time>
      </trkpt>
      <trkpt lat="43.81695" lon="7.24244">
        <ele>513.1</ele>
        <time>2012-04-19T07:58:25Z</time>
      </trkpt>
      <trkpt lat="43.81701" lon="7.2425">
        <ele>513.3</ele>
        <time>2012-04-19T07:58:28Z</time>
      </trkpt>
      <trkpt lat="43.81702" lon="7.24252">
        <ele>513.6</ele>
        <time>2012-04-19T07:58:29Z</time>
      </trkpt>
      <trkpt lat="43.8171" lon="7.24265">
        <ele>514.5</ele>
        <time>2012-04-19T07:58:35Z</time>
      </trkpt>
      <trkpt lat="43.81719" lon="7.24266">
        <ele>511.9</ele>
        <time>2012-04-19T07:58:43Z</time>
      </trkpt>
      <trkpt lat="43.81723" lon="7.24275">
        <ele>509</ele>
        <time>2012-04-19T07:59:33Z</time>
      </trkpt>
      <trkpt lat="43.81723" lon="7.24278">
        <ele>508.8</ele>
        <time>2012-04-19T07:59:34Z</time>
      </trkpt>
      <trkpt lat="43.81717" lon="7.24298">
        <ele>508.1</ele>
        <time>2012-04-19T07:59:40Z</time>
      </trkpt>
      <trkpt lat="43.81722" lon="7.24308">
        <ele>504.1</ele>
        <time>2012-04-19T08:01:44Z</time>
      </trkpt>
      <trkpt lat="43.81722" lon="7.24308">
        <ele>503.6</ele>
        <time>2012-04-19T08:01:45Z</time>
      </trkpt>
      <trkpt lat="43.81715" lon="7.24326">
        <ele>504</ele>
        <time>2012-04-19T08:02:26Z</time>
      </trkpt>
      <trkpt lat="43.81708" lon="7.24335">
        <ele>504.5</ele>
        <time>2012-04-19T08:02:29Z</time>
      </trkpt>
      <trkpt lat="43.81703" lon="7.24341">
        <ele>504.5</ele>
        <time>2012-04-19T08:02:31Z</time>
      </trkpt>
      <trkpt lat="43.81698" lon="7.24347">
        <ele>504.4</ele>
        <time>2012-04-19T08:02:33Z</time>
      </trkpt>
      <trkpt lat="43.81693" lon="7.24353">
        <ele>504.3</ele>
        <time>2012-04-19T08:02:35Z</time>
      </trkpt>
      <trkpt lat="43.81687" lon="7.24359">
        <ele>504.3</ele>
        <time>2012-04-19T08:02:37Z</time>
      </trkpt>
      <trkpt lat="43.81682" lon="7.24367">
        <ele>504.2</ele>
        <time>2012-04-19T08:02:39Z</time>
      </trkpt>
      <trkpt lat="43.81677" lon="7.24374">
        <ele>504.5</ele>
        <time>2012-04-19T08:02:41Z</time>
      </trkpt>
      <trkpt lat="43.8167" lon="7.24381">
        <ele>505</ele>
        <time>2012-04-19T08:02:43Z</time>
      </trkpt>
      <trkpt lat="43.81663" lon="7.24387">
        <ele>504.7</ele>
        <time>2012-04-19T08:02:45Z</time>
      </trkpt>
      <trkpt lat="43.8166" lon="7.2439">
        <ele>504.6</ele>
        <time>2012-04-19T08:02:46Z</time>
      </trkpt>
      <trkpt lat="43.81652" lon="7.24398">
        <ele>504.9</ele>
        <time>2012-04-19T08:02:49Z</time>
      </trkpt>
      <trkpt lat="43.81646" lon="7.24402">
        <ele>505.1</ele>
        <time>2012-04-19T08:02:51Z</time>
      </trkpt>
      <trkpt lat="43.8164" lon="7.24408">
        <ele>505.4</ele>
        <time>2012-04-19T08:02:53Z</time>
      </trkpt>
      <trkpt lat="43.81636" lon="7.24411">
        <ele>505.2</ele>
        <time>2012-04-19T08:02:54Z</time>
      </trkpt>
      <trkpt lat="43.81632" lon="7.24414">
        <ele>505.1</ele>
        <time>2012-04-19T08:02:55Z</time>
      </trkpt>
      <trkpt lat="43.81627" lon="7.24418">
        <ele>505.6</ele>
        <time>2012-04-19T08:02:56Z</time>
      </trkpt>
      <trkpt lat="43.81623" lon="7.2442">
        <ele>506</ele>
        <time>2012-04-19T08:02:57Z</time>
      </trkpt>
      <trkpt lat="43.81618" lon="7.24423">
        <ele>506.3</ele>
        <time>2012-04-19T08:02:58Z</time>
      </trkpt>
      <trkpt lat="43.81613" lon="7.24426">
        <ele>506.3</ele>
        <time>2012-04-19T08:02:59Z</time>
      </trkpt>
      <trkpt lat="43.81608" lon="7.24429">
        <ele>506.3</ele>
        <time>2012-04-19T08:03:00Z</time>
      </trkpt>
      <trkpt lat="43.816" lon="7.24433">
        <ele>504.6</ele>
        <time>2012-04-19T08:03:03Z</time>
      </trkpt>
      <trkpt lat="43.81593" lon="7.24435">
        <ele>503.7</ele>
        <time>2012-04-19T08:03:06Z</time>
      </trkpt>
      <trkpt lat="43.81586" lon="7.24437">
        <ele>503.3</ele>
        <time>2012-04-19T08:03:08Z</time>
      </trkpt>
      <trkpt lat="43.81578" lon="7.2444">
        <ele>503.1</ele>
        <time>2012-04-19T08:03:10Z</time>
      </trkpt>
      <trkpt lat="43.8157" lon="7.24443">
        <ele>503.2</ele>
        <time>2012-04-19T08:03:12Z</time>
      </trkpt>
      <trkpt lat="43.81569" lon="7.24452">
        <ele>499.4</ele>
        <time>2012-04-19T08:03:20Z</time>
      </trkpt>
      <trkpt lat="43.81572" lon="7.24463">
        <ele>493.6</ele>
        <time>2012-04-19T08:03:27Z</time>
      </trkpt>
      <trkpt lat="43.81572" lon="7.24475">
        <ele>486.7</ele>
        <time>2012-04-19T08:03:34Z</time>
      </trkpt>
      <trkpt lat="43.81571" lon="7.24487">
        <ele>480.2</ele>
        <time>2012-04-19T08:03:42Z</time>
      </trkpt>
      <trkpt lat="43.81576" lon="7.24496">
        <ele>472.6</ele>
        <time>2012-04-19T08:03:52Z</time>
      </trkpt>
      <trkpt lat="43.81577" lon="7.24497">
        <ele>472.2</ele>
        <time>2012-04-19T08:03:53Z</time>
      </trkpt>
      <trkpt lat="43.8158" lon="7.24512">
        <ele>464.1</ele>
        <time>2012-04-19T08:04:05Z</time>
      </trkpt>
      <trkpt lat="43.81587" lon="7.24513">
        <ele>462.5</ele>
        <time>2012-04-19T08:04:07Z</time>
      </trkpt>
      <trkpt lat="43.81592" lon="7.24513">
        <ele>461.9</ele>
        <time>2012-04-19T08:04:08Z</time>
      </trkpt>
      <trkpt lat="43.81598" lon="7.24512">
        <ele>461.4</ele>
        <time>2012-04-19T08:04:09Z</time>
      </trkpt>
      <trkpt lat="43.81603" lon="7.24512">
        <ele>460.3</ele>
        <time>2012-04-19T08:04:10Z</time>
      </trkpt>
      <trkpt lat="43.81611" lon="7.24508">
        <ele>457.9</ele>
        <time>2012-04-19T08:04:12Z</time>
      </trkpt>
      <trkpt lat="43.81616" lon="7.24513">
        <ele>454.1</ele>
        <time>2012-04-19T08:04:16Z</time>
      </trkpt>
      <trkpt lat="43.8162" lon="7.24512">
        <ele>453.4</ele>
        <time>2012-04-19T08:04:17Z</time>
      </trkpt>
      <trkpt lat="43.81625" lon="7.24509">
        <ele>452.9</ele>
        <time>2012-04-19T08:04:18Z</time>
      </trkpt>
      <trkpt lat="43.81633" lon="7.24506">
        <ele>450.6</ele>
        <time>2012-04-19T08:04:20Z</time>
      </trkpt>
      <trkpt lat="43.81641" lon="7.24506">
        <ele>448.6</ele>
        <time>2012-04-19T08:04:22Z</time>
      </trkpt>
      <trkpt lat="43.81647" lon="7.24505">
        <ele>447.8</ele>
        <time>2012-04-19T08:04:23Z</time>
      </trkpt>
      <trkpt lat="43.81653" lon="7.24503">
        <ele>446.8</ele>
        <time>2012-04-19T08:04:24Z</time>
      </trkpt>
      <trkpt lat="43.81658" lon="7.24501">
        <ele>446</ele>
        <time>2012-04-19T08:04:25Z</time>
      </trkpt>
      <trkpt lat="43.81665" lon="7.24497">
        <ele>443.7</ele>
        <time>2012-04-19T08:04:27Z</time>
      </trkpt>
      <trkpt lat="43.81668" lon="7.24507">
        <ele>436.3</ele>
        <time>2012-04-19T08:04:43Z</time>
      </trkpt>
      <trkpt lat="43.81665" lon="7.24517">
        <ele>436.2</ele>
        <time>2012-04-19T08:04:45Z</time>
      </trkpt>
      <trkpt lat="43.81659" lon="7.24524">
        <ele>436</ele>
        <time>2012-04-19T08:04:47Z</time>
      </trkpt>
      <trkpt lat="43.81654" lon="7.24529">
        <ele>435.9</ele>
        <time>2012-04-19T08:04:49Z</time>
      </trkpt>
      <trkpt lat="43.81648" lon="7.24534">
        <ele>436.2</ele>
        <time>2012-04-19T08:04:51Z</time>
      </trkpt>
      <trkpt lat="43.81642" lon="7.2454">
        <ele>436.5</ele>
        <time>2012-04-19T08:04:53Z</time>
      </trkpt>
      <trkpt lat="43.81637" lon="7.24545">
        <ele>436.7</ele>
        <time>2012-04-19T08:04:55Z</time>
      </trkpt>
      <trkpt lat="43.81634" lon="7.24547">
        <ele>436.6</ele>
        <time>2012-04-19T08:04:56Z</time>
      </trkpt>
      <trkpt lat="43.81626" lon="7.24556">
        <ele>436</ele>
        <time>2012-04-19T08:04:59Z</time>
      </trkpt>
      <trkpt lat="43.81622" lon="7.24562">
        <ele>435.6</ele>
        <time>2012-04-19T08:05:01Z</time>
      </trkpt>
      <trkpt lat="43.81615" lon="7.2457">
        <ele>435.5</ele>
        <time>2012-04-19T08:05:04Z</time>
      </trkpt>
      <trkpt lat="43.81614" lon="7.24581">
        <ele>435.2</ele>
        <time>2012-04-19T08:05:09Z</time>
      </trkpt>
      <trkpt lat="43.81614" lon="7.24591">
        <ele>434.7</ele>
        <time>2012-04-19T08:05:12Z</time>
      </trkpt>
      <trkpt lat="43.81609" lon="7.24599">
        <ele>435.3</ele>
        <time>2012-04-19T08:05:15Z</time>
      </trkpt>
      <trkpt lat="43.81602" lon="7.24604">
        <ele>435.1</ele>
        <time>2012-04-19T08:05:18Z</time>
      </trkpt>
      <trkpt lat="43.81597" lon="7.24609">
        <ele>434.3</ele>
        <time>2012-04-19T08:05:20Z</time>
      </trkpt>
      <trkpt lat="43.81591" lon="7.24618">
        <ele>434.3</ele>
        <time>2012-04-19T08:05:23Z</time>
      </trkpt>
      <trkpt lat="43.81588" lon="7.24626">
        <ele>434.1</ele>
        <time>2012-04-19T08:05:25Z</time>
      </trkpt>
      <trkpt lat="43.8159" lon="7.24637">
        <ele>433.3</ele>
        <time>2012-04-19T08:05:28Z</time>
      </trkpt>
      <trkpt lat="43.81594" lon="7.24641">
        <ele>432.9</ele>
        <time>2012-04-19T08:05:29Z</time>
      </trkpt>
      <trkpt lat="43.81598" lon="7.24652">
        <ele>428.6</ele>
        <time>2012-04-19T08:05:34Z</time>
      </trkpt>
      <trkpt lat="43.81593" lon="7.2466">
        <ele>427.7</ele>
        <time>2012-04-19T08:05:39Z</time>
      </trkpt>
      <trkpt lat="43.81588" lon="7.24666">
        <ele>427.5</ele>
        <time>2012-04-19T08:05:42Z</time>
      </trkpt>
      <trkpt lat="43.81582" lon="7.24674">
        <ele>427.6</ele>
        <time>2012-04-19T08:05:45Z</time>
      </trkpt>
      <trkpt lat="43.81575" lon="7.24681">
        <ele>426.9</ele>
        <time>2012-04-19T08:05:51Z</time>
      </trkpt>
      <trkpt lat="43.81567" lon="7.24682">
        <ele>425.8</ele>
        <time>2012-04-19T08:06:00Z</time>
      </trkpt>
      <trkpt lat="43.81566" lon="7.24682">
        <ele>425.5</ele>
        <time>2012-04-19T08:06:01Z</time>
      </trkpt>
      <trkpt lat="43.81553" lon="7.24692">
        <ele>423.6</ele>
        <time>2012-04-19T08:06:20Z</time>
      </trkpt>
      <trkpt lat="43.81545" lon="7.24698">
        <ele>426.9</ele>
        <time>2012-04-19T08:06:45Z</time>
      </trkpt>
      <trkpt lat="43.81541" lon="7.24709">
        <ele>433.7</ele>
        <time>2012-04-19T08:07:17Z</time>
      </trkpt>
      <trkpt lat="43.81541" lon="7.2471">
        <ele>434</ele>
        <time>2012-04-19T08:07:18Z</time>
      </trkpt>
      <trkpt lat="43.81535" lon="7.2473">
        <ele>441.6</ele>
        <time>2012-04-19T08:07:51Z</time>
      </trkpt>
      <trkpt lat="43.81533" lon="7.24742">
        <ele>445.3</ele>
        <time>2012-04-19T08:08:07Z</time>
      </trkpt>
      <trkpt lat="43.81536" lon="7.24753">
        <ele>447.8</ele>
        <time>2012-04-19T08:08:19Z</time>
      </trkpt>
      <trkpt lat="43.81536" lon="7.24755">
        <ele>447.9</ele>
        <time>2012-04-19T08:08:20Z</time>
      </trkpt>
      <trkpt lat="43.81542" lon="7.24776">
        <ele>452.7</ele>
        <time>2012-04-19T08:09:00Z</time>
      </trkpt>
      <trkpt lat="43.81544" lon="7.24786">
        <ele>453.9</ele>
        <time>2012-04-19T08:09:07Z</time>
      </trkpt>
      <trkpt lat="43.81545" lon="7.24798">
        <ele>456.3</ele>
        <time>2012-04-19T08:09:16Z</time>
      </trkpt>
      <trkpt lat="43.81546" lon="7.2481">
        <ele>458.2</ele>
        <time>2012-04-19T08:09:24Z</time>
      </trkpt>
      <trkpt lat="43.81546" lon="7.24811">
        <ele>458.3</ele>
        <time>2012-04-19T08:09:25Z</time>
      </trkpt>
      <trkpt lat="43.81543" lon="7.24832">
        <ele>462.5</ele>
        <time>2012-04-19T08:10:00Z</time>
      </trkpt>
      <trkpt lat="43.81535" lon="7.24833">
        <ele>465.4</ele>
        <time>2012-04-19T08:10:14Z</time>
      </trkpt>
      <trkpt lat="43.81527" lon="7.2484">
        <ele>468.4</ele>
        <time>2012-04-19T08:10:29Z</time>
      </trkpt>
      <trkpt lat="43.81527" lon="7.2484">
        <ele>468.9</ele>
        <time>2012-04-19T08:10:30Z</time>
      </trkpt>
      <trkpt lat="43.8151" lon="7.24844">
        <ele>474.8</ele>
        <time>2012-04-19T08:11:00Z</time>
      </trkpt>
      <trkpt lat="43.81502" lon="7.24849">
        <ele>477.8</ele>
        <time>2012-04-19T08:11:14Z</time>
      </trkpt>
      <trkpt lat="43.81496" lon="7.24858">
        <ele>483</ele>
        <time>2012-04-19T08:11:57Z</time>
      </trkpt>
      <trkpt lat="43.81496" lon="7.24858">
        <ele>483.1</ele>
        <time>2012-04-19T08:11:58Z</time>
      </trkpt>
      <trkpt lat="43.81487" lon="7.24855">
        <ele>484.1</ele>
        <time>2012-04-19T08:13:50Z</time>
      </trkpt>
      <trkpt lat="43.81474" lon="7.24864">
        <ele>485.3</ele>
        <time>2012-04-19T08:13:59Z</time>
      </trkpt>
      <trkpt lat="43.81469" lon="7.24873">
        <ele>487.1</ele>
        <time>2012-04-19T08:14:03Z</time>
      </trkpt>
      <trkpt lat="43.81466" lon="7.24884">
        <ele>488.1</ele>
        <time>2012-04-19T08:14:07Z</time>
      </trkpt>
      <trkpt lat="43.81465" lon="7.24896">
        <ele>488.1</ele>
        <time>2012-04-19T08:14:11Z</time>
      </trkpt>
      <trkpt lat="43.81465" lon="7.24908">
        <ele>488.4</ele>
        <time>2012-04-19T08:14:15Z</time>
      </trkpt>
      <trkpt lat="43.81463" lon="7.24918">
        <ele>489.3</ele>
        <time>2012-04-19T08:14:19Z</time>
      </trkpt>
      <trkpt lat="43.81456" lon="7.24925">
        <ele>489.6</ele>
        <time>2012-04-19T08:14:24Z</time>
      </trkpt>
      <trkpt lat="43.81449" lon="7.24929">
        <ele>491.8</ele>
        <time>2012-04-19T08:14:29Z</time>
      </trkpt>
      <trkpt lat="43.81443" lon="7.24937">
        <ele>492.8</ele>
        <time>2012-04-19T08:14:34Z</time>
      </trkpt>
      <trkpt lat="43.81441" lon="7.24947">
        <ele>493.9</ele>
        <time>2012-04-19T08:14:38Z</time>
      </trkpt>
      <trkpt lat="43.8144" lon="7.24958">
        <ele>495.8</ele>
        <time>2012-04-19T08:14:42Z</time>
      </trkpt>
      <trkpt lat="43.81439" lon="7.2497">
        <ele>496.1</ele>
        <time>2012-04-19T08:14:47Z</time>
      </trkpt>
      <trkpt lat="43.81436" lon="7.24979">
        <ele>496.3</ele>
        <time>2012-04-19T08:14:51Z</time>
      </trkpt>
      <trkpt lat="43.81434" lon="7.24981">
        <ele>496.8</ele>
        <time>2012-04-19T08:14:52Z</time>
      </trkpt>
      <trkpt lat="43.81423" lon="7.24991">
        <ele>498.7</ele>
        <time>2012-04-19T08:15:00Z</time>
      </trkpt>
      <trkpt lat="43.81416" lon="7.24995">
        <ele>500.9</ele>
        <time>2012-04-19T08:15:05Z</time>
      </trkpt>
      <trkpt lat="43.81407" lon="7.24993">
        <ele>501.9</ele>
        <time>2012-04-19T08:15:10Z</time>
      </trkpt>
      <trkpt lat="43.81402" lon="7.24983">
        <ele>503.6</ele>
        <time>2012-04-19T08:15:16Z</time>
      </trkpt>
      <trkpt lat="43.81394" lon="7.24988">
        <ele>505.6</ele>
        <time>2012-04-19T08:15:22Z</time>
      </trkpt>
      <trkpt lat="43.81387" lon="7.24993">
        <ele>505</ele>
        <time>2012-04-19T08:15:27Z</time>
      </trkpt>
      <trkpt lat="43.81379" lon="7.24991">
        <ele>506.2</ele>
        <time>2012-04-19T08:15:32Z</time>
      </trkpt>
      <trkpt lat="43.81372" lon="7.24985">
        <ele>508.4</ele>
        <time>2012-04-19T08:15:38Z</time>
      </trkpt>
      <trkpt lat="43.81364" lon="7.24986">
        <ele>509.9</ele>
        <time>2012-04-19T08:15:44Z</time>
      </trkpt>
      <trkpt lat="43.81356" lon="7.24991">
        <ele>511</ele>
        <time>2012-04-19T08:15:49Z</time>
      </trkpt>
      <trkpt lat="43.81349" lon="7.24992">
        <ele>511.9</ele>
        <time>2012-04-19T08:15:53Z</time>
      </trkpt>
      <trkpt lat="43.81342" lon="7.24986">
        <ele>512.9</ele>
        <time>2012-04-19T08:15:58Z</time>
      </trkpt>
      <trkpt lat="43.81341" lon="7.24984">
        <ele>513.1</ele>
        <time>2012-04-19T08:15:59Z</time>
      </trkpt>
      <trkpt lat="43.81333" lon="7.2497">
        <ele>514.4</ele>
        <time>2012-04-19T08:16:06Z</time>
      </trkpt>
      <trkpt lat="43.81327" lon="7.24963">
        <ele>515.2</ele>
        <time>2012-04-19T08:16:10Z</time>
      </trkpt>
      <trkpt lat="43.81322" lon="7.24955">
        <ele>515.7</ele>
        <time>2012-04-19T08:16:14Z</time>
      </trkpt>
      <trkpt lat="43.81323" lon="7.24944">
        <ele>516.9</ele>
        <time>2012-04-19T08:16:18Z</time>
      </trkpt>
      <trkpt lat="43.81329" lon="7.24934">
        <ele>517</ele>
        <time>2012-04-19T08:16:23Z</time>
      </trkpt>
      <trkpt lat="43.81334" lon="7.24925">
        <ele>518.1</ele>
        <time>2012-04-19T08:16:28Z</time>
      </trkpt>
      <trkpt lat="43.8134" lon="7.24919">
        <ele>519.9</ele>
        <time>2012-04-19T08:16:32Z</time>
      </trkpt>
      <trkpt lat="43.81344" lon="7.24909">
        <ele>520.4</ele>
        <time>2012-04-19T08:16:36Z</time>
      </trkpt>
      <trkpt lat="43.81339" lon="7.24899">
        <ele>521.2</ele>
        <time>2012-04-19T08:16:40Z</time>
      </trkpt>
      <trkpt lat="43.8133" lon="7.24897">
        <ele>521.8</ele>
        <time>2012-04-19T08:16:44Z</time>
      </trkpt>
      <trkpt lat="43.81322" lon="7.24898">
        <ele>522.3</ele>
        <time>2012-04-19T08:16:48Z</time>
      </trkpt>
      <trkpt lat="43.81314" lon="7.249">
        <ele>523.2</ele>
        <time>2012-04-19T08:16:52Z</time>
      </trkpt>
      <trkpt lat="43.81306" lon="7.24902">
        <ele>524.6</ele>
        <time>2012-04-19T08:16:56Z</time>
      </trkpt>
      <trkpt lat="43.81298" lon="7.24903">
        <ele>525.2</ele>
        <time>2012-04-19T08:17:00Z</time>
      </trkpt>
      <trkpt lat="43.81296" lon="7.24903">
        <ele>525.6</ele>
        <time>2012-04-19T08:17:01Z</time>
      </trkpt>
      <trkpt lat="43.81281" lon="7.24904">
        <ele>527.8</ele>
        <time>2012-04-19T08:17:08Z</time>
      </trkpt>
      <trkpt lat="43.81272" lon="7.24902">
        <ele>529.1</ele>
        <time>2012-04-19T08:17:12Z</time>
      </trkpt>
      <trkpt lat="43.81265" lon="7.249">
        <ele>529.5</ele>
        <time>2012-04-19T08:17:15Z</time>
      </trkpt>
      <trkpt lat="43.81257" lon="7.24897">
        <ele>529.3</ele>
        <time>2012-04-19T08:17:19Z</time>
      </trkpt>
      <trkpt lat="43.81251" lon="7.24892">
        <ele>530.1</ele>
        <time>2012-04-19T08:17:22Z</time>
      </trkpt>
      <trkpt lat="43.81246" lon="7.24885">
        <ele>531.1</ele>
        <time>2012-04-19T08:17:25Z</time>
      </trkpt>
      <trkpt lat="43.81243" lon="7.24873">
        <ele>531.9</ele>
        <time>2012-04-19T08:17:29Z</time>
      </trkpt>
      <trkpt lat="43.81239" lon="7.24863">
        <ele>532.7</ele>
        <time>2012-04-19T08:17:33Z</time>
      </trkpt>
      <trkpt lat="43.81234" lon="7.24856">
        <ele>533.9</ele>
        <time>2012-04-19T08:17:36Z</time>
      </trkpt>
      <trkpt lat="43.81231" lon="7.24848">
        <ele>534.4</ele>
        <time>2012-04-19T08:17:39Z</time>
      </trkpt>
      <trkpt lat="43.81231" lon="7.24836">
        <ele>534.5</ele>
        <time>2012-04-19T08:17:43Z</time>
      </trkpt>
      <trkpt lat="43.81236" lon="7.24826">
        <ele>535.5</ele>
        <time>2012-04-19T08:17:47Z</time>
      </trkpt>
      <trkpt lat="43.81239" lon="7.24816">
        <ele>536.3</ele>
        <time>2012-04-19T08:17:51Z</time>
      </trkpt>
      <trkpt lat="43.81238" lon="7.24804">
        <ele>537.9</ele>
        <time>2012-04-19T08:17:56Z</time>
      </trkpt>
      <trkpt lat="43.81231" lon="7.24806">
        <ele>538</ele>
        <time>2012-04-19T08:18:02Z</time>
      </trkpt>
      <trkpt lat="43.8123" lon="7.24809">
        <ele>538.6</ele>
        <time>2012-04-19T08:18:03Z</time>
      </trkpt>
      <trkpt lat="43.81222" lon="7.24823">
        <ele>540.1</ele>
        <time>2012-04-19T08:18:09Z</time>
      </trkpt>
      <trkpt lat="43.81217" lon="7.24831">
        <ele>539.8</ele>
        <time>2012-04-19T08:18:12Z</time>
      </trkpt>
      <trkpt lat="43.81214" lon="7.24839">
        <ele>540.2</ele>
        <time>2012-04-19T08:18:15Z</time>
      </trkpt>
      <trkpt lat="43.81211" lon="7.24851">
        <ele>542.1</ele>
        <time>2012-04-19T08:18:19Z</time>
      </trkpt>
      <trkpt lat="43.81212" lon="7.24862">
        <ele>542.8</ele>
        <time>2012-04-19T08:18:23Z</time>
      </trkpt>
      <trkpt lat="43.81214" lon="7.24874">
        <ele>543.2</ele>
        <time>2012-04-19T08:18:27Z</time>
      </trkpt>
      <trkpt lat="43.81212" lon="7.24884">
        <ele>543.4</ele>
        <time>2012-04-19T08:18:30Z</time>
      </trkpt>
      <trkpt lat="43.81213" lon="7.24895">
        <ele>545.4</ele>
        <time>2012-04-19T08:18:33Z</time>
      </trkpt>
      <trkpt lat="43.81217" lon="7.24904">
        <ele>545.2</ele>
        <time>2012-04-19T08:18:36Z</time>
      </trkpt>
      <trkpt lat="43.81222" lon="7.24911">
        <ele>544.7</ele>
        <time>2012-04-19T08:18:39Z</time>
      </trkpt>
      <trkpt lat="43.81227" lon="7.24917">
        <ele>545.1</ele>
        <time>2012-04-19T08:18:42Z</time>
      </trkpt>
      <trkpt lat="43.81234" lon="7.24924">
        <ele>545.9</ele>
        <time>2012-04-19T08:18:46Z</time>
      </trkpt>
      <trkpt lat="43.81239" lon="7.24934">
        <ele>547.4</ele>
        <time>2012-04-19T08:18:50Z</time>
      </trkpt>
      <trkpt lat="43.8124" lon="7.24946">
        <ele>547.4</ele>
        <time>2012-04-19T08:18:54Z</time>
      </trkpt>
      <trkpt lat="43.8124" lon="7.24958">
        <ele>548.9</ele>
        <time>2012-04-19T08:18:58Z</time>
      </trkpt>
      <trkpt lat="43.81241" lon="7.2497">
        <ele>550.4</ele>
        <time>2012-04-19T08:19:02Z</time>
      </trkpt>
      <trkpt lat="43.81245" lon="7.2498">
        <ele>550.7</ele>
        <time>2012-04-19T08:19:06Z</time>
      </trkpt>
      <trkpt lat="43.81246" lon="7.24982">
        <ele>551.1</ele>
        <time>2012-04-19T08:19:07Z</time>
      </trkpt>
      <trkpt lat="43.81259" lon="7.24995">
        <ele>552.8</ele>
        <time>2012-04-19T08:19:14Z</time>
      </trkpt>
      <trkpt lat="43.81265" lon="7.25002">
        <ele>553.8</ele>
        <time>2012-04-19T08:19:18Z</time>
      </trkpt>
      <trkpt lat="43.8127" lon="7.25012">
        <ele>553.8</ele>
        <time>2012-04-19T08:19:22Z</time>
      </trkpt>
      <trkpt lat="43.81272" lon="7.25023">
        <ele>554.8</ele>
        <time>2012-04-19T08:19:26Z</time>
      </trkpt>
      <trkpt lat="43.8127" lon="7.25035">
        <ele>556.2</ele>
        <time>2012-04-19T08:19:30Z</time>
      </trkpt>
      <trkpt lat="43.81268" lon="7.25044">
        <ele>557.1</ele>
        <time>2012-04-19T08:19:33Z</time>
      </trkpt>
      <trkpt lat="43.81267" lon="7.25056">
        <ele>557.1</ele>
        <time>2012-04-19T08:19:37Z</time>
      </trkpt>
      <trkpt lat="43.81265" lon="7.25068">
        <ele>558</ele>
        <time>2012-04-19T08:19:41Z</time>
      </trkpt>
      <trkpt lat="43.81265" lon="7.2508">
        <ele>559</ele>
        <time>2012-04-19T08:19:45Z</time>
      </trkpt>
      <trkpt lat="43.81269" lon="7.2509">
        <ele>560.6</ele>
        <time>2012-04-19T08:19:49Z</time>
      </trkpt>
      <trkpt lat="43.81275" lon="7.25097">
        <ele>561.5</ele>
        <time>2012-04-19T08:19:53Z</time>
      </trkpt>
      <trkpt lat="43.81283" lon="7.25101">
        <ele>562.7</ele>
        <time>2012-04-19T08:19:57Z</time>
      </trkpt>
      <trkpt lat="43.8129" lon="7.25103">
        <ele>562.6</ele>
        <time>2012-04-19T08:20:01Z</time>
      </trkpt>
      <trkpt lat="43.81298" lon="7.25105">
        <ele>563.5</ele>
        <time>2012-04-19T08:20:05Z</time>
      </trkpt>
      <trkpt lat="43.81306" lon="7.25106">
        <ele>564.6</ele>
        <time>2012-04-19T08:20:09Z</time>
      </trkpt>
      <trkpt lat="43.81308" lon="7.25107">
        <ele>564.7</ele>
        <time>2012-04-19T08:20:10Z</time>
      </trkpt>
      <trkpt lat="43.81321" lon="7.25113">
        <ele>566.4</ele>
        <time>2012-04-19T08:20:17Z</time>
      </trkpt>
      <trkpt lat="43.81327" lon="7.25121">
        <ele>567.6</ele>
        <time>2012-04-19T08:20:21Z</time>
      </trkpt>
      <trkpt lat="43.81332" lon="7.25131">
        <ele>567.3</ele>
        <time>2012-04-19T08:20:25Z</time>
      </trkpt>
      <trkpt lat="43.81334" lon="7.25142">
        <ele>567.9</ele>
        <time>2012-04-19T08:20:29Z</time>
      </trkpt>
      <trkpt lat="43.81335" lon="7.25151">
        <ele>569.2</ele>
        <time>2012-04-19T08:20:32Z</time>
      </trkpt>
      <trkpt lat="43.81335" lon="7.25163">
        <ele>569.7</ele>
        <time>2012-04-19T08:20:36Z</time>
      </trkpt>
      <trkpt lat="43.81336" lon="7.25175">
        <ele>571.4</ele>
        <time>2012-04-19T08:20:40Z</time>
      </trkpt>
      <trkpt lat="43.8134" lon="7.25185">
        <ele>572.5</ele>
        <time>2012-04-19T08:20:44Z</time>
      </trkpt>
      <trkpt lat="43.81348" lon="7.25192">
        <ele>572.7</ele>
        <time>2012-04-19T08:20:48Z</time>
      </trkpt>
      <trkpt lat="43.81355" lon="7.25192">
        <ele>573.6</ele>
        <time>2012-04-19T08:20:52Z</time>
      </trkpt>
      <trkpt lat="43.81364" lon="7.25189">
        <ele>574.3</ele>
        <time>2012-04-19T08:20:56Z</time>
      </trkpt>
      <trkpt lat="43.8137" lon="7.25185">
        <ele>575.2</ele>
        <time>2012-04-19T08:20:59Z</time>
      </trkpt>
      <trkpt lat="43.81376" lon="7.25183">
        <ele>575.9</ele>
        <time>2012-04-19T08:21:02Z</time>
      </trkpt>
      <trkpt lat="43.81383" lon="7.25179">
        <ele>576.8</ele>
        <time>2012-04-19T08:21:05Z</time>
      </trkpt>
      <trkpt lat="43.81391" lon="7.25177">
        <ele>576.9</ele>
        <time>2012-04-19T08:21:09Z</time>
      </trkpt>
      <trkpt lat="43.81399" lon="7.25175">
        <ele>577.5</ele>
        <time>2012-04-19T08:21:13Z</time>
      </trkpt>
      <trkpt lat="43.81401" lon="7.25175">
        <ele>577.8</ele>
        <time>2012-04-19T08:21:14Z</time>
      </trkpt>
      <trkpt lat="43.81414" lon="7.25172">
        <ele>578.7</ele>
        <time>2012-04-19T08:21:20Z</time>
      </trkpt>
      <trkpt lat="43.81423" lon="7.2517">
        <ele>580</ele>
        <time>2012-04-19T08:21:24Z</time>
      </trkpt>
      <trkpt lat="43.81431" lon="7.25169">
        <ele>580.6</ele>
        <time>2012-04-19T08:21:28Z</time>
      </trkpt>
      <trkpt lat="43.81438" lon="7.25168">
        <ele>580.4</ele>
        <time>2012-04-19T08:21:31Z</time>
      </trkpt>
      <trkpt lat="43.81445" lon="7.25168">
        <ele>581.3</ele>
        <time>2012-04-19T08:21:34Z</time>
      </trkpt>
      <trkpt lat="43.81453" lon="7.25167">
        <ele>582</ele>
        <time>2012-04-19T08:21:38Z</time>
      </trkpt>
      <trkpt lat="43.81462" lon="7.25167">
        <ele>583.6</ele>
        <time>2012-04-19T08:21:42Z</time>
      </trkpt>
      <trkpt lat="43.8147" lon="7.25168">
        <ele>584.6</ele>
        <time>2012-04-19T08:21:46Z</time>
      </trkpt>
      <trkpt lat="43.81478" lon="7.2517">
        <ele>584.9</ele>
        <time>2012-04-19T08:21:50Z</time>
      </trkpt>
      <trkpt lat="43.81486" lon="7.25175">
        <ele>585.6</ele>
        <time>2012-04-19T08:21:54Z</time>
      </trkpt>
      <trkpt lat="43.81492" lon="7.25181">
        <ele>586.5</ele>
        <time>2012-04-19T08:21:58Z</time>
      </trkpt>
      <trkpt lat="43.81499" lon="7.25186">
        <ele>586.8</ele>
        <time>2012-04-19T08:22:02Z</time>
      </trkpt>
      <trkpt lat="43.81506" lon="7.25191">
        <ele>588.3</ele>
        <time>2012-04-19T08:22:06Z</time>
      </trkpt>
      <trkpt lat="43.81515" lon="7.25195">
        <ele>589.2</ele>
        <time>2012-04-19T08:22:10Z</time>
      </trkpt>
      <trkpt lat="43.81522" lon="7.252">
        <ele>590.5</ele>
        <time>2012-04-19T08:22:14Z</time>
      </trkpt>
      <trkpt lat="43.8153" lon="7.25205">
        <ele>590.8</ele>
        <time>2012-04-19T08:22:18Z</time>
      </trkpt>
      <trkpt lat="43.81532" lon="7.25206">
        <ele>591.1</ele>
        <time>2012-04-19T08:22:19Z</time>
      </trkpt>
      <trkpt lat="43.81547" lon="7.2521">
        <ele>592.7</ele>
        <time>2012-04-19T08:22:26Z</time>
      </trkpt>
      <trkpt lat="43.81555" lon="7.25214">
        <ele>593.3</ele>
        <time>2012-04-19T08:22:30Z</time>
      </trkpt>
      <trkpt lat="43.81563" lon="7.25218">
        <ele>594.1</ele>
        <time>2012-04-19T08:22:34Z</time>
      </trkpt>
      <trkpt lat="43.81571" lon="7.25223">
        <ele>594.8</ele>
        <time>2012-04-19T08:22:38Z</time>
      </trkpt>
      <trkpt lat="43.81577" lon="7.25227">
        <ele>595.3</ele>
        <time>2012-04-19T08:22:41Z</time>
      </trkpt>
      <trkpt lat="43.81585" lon="7.25234">
        <ele>596.2</ele>
        <time>2012-04-19T08:22:45Z</time>
      </trkpt>
      <trkpt lat="43.8159" lon="7.2524">
        <ele>597</ele>
        <time>2012-04-19T08:22:48Z</time>
      </trkpt>
      <trkpt lat="43.81596" lon="7.25246">
        <ele>598.2</ele>
        <time>2012-04-19T08:22:51Z</time>
      </trkpt>
      <trkpt lat="43.81604" lon="7.25252">
        <ele>598.4</ele>
        <time>2012-04-19T08:22:55Z</time>
      </trkpt>
      <trkpt lat="43.81611" lon="7.25257">
        <ele>599</ele>
        <time>2012-04-19T08:22:59Z</time>
      </trkpt>
      <trkpt lat="43.81619" lon="7.25264">
        <ele>599.3</ele>
        <time>2012-04-19T08:23:03Z</time>
      </trkpt>
      <trkpt lat="43.81625" lon="7.25273">
        <ele>601.2</ele>
        <time>2012-04-19T08:23:07Z</time>
      </trkpt>
      <trkpt lat="43.81629" lon="7.2528">
        <ele>601.4</ele>
        <time>2012-04-19T08:23:10Z</time>
      </trkpt>
      <trkpt lat="43.81633" lon="7.25288">
        <ele>602</ele>
        <time>2012-04-19T08:23:13Z</time>
      </trkpt>
      <trkpt lat="43.81637" lon="7.25299">
        <ele>602.3</ele>
        <time>2012-04-19T08:23:17Z</time>
      </trkpt>
      <trkpt lat="43.81642" lon="7.2531">
        <ele>603</ele>
        <time>2012-04-19T08:23:21Z</time>
      </trkpt>
      <trkpt lat="43.81643" lon="7.25313">
        <ele>603.2</ele>
        <time>2012-04-19T08:23:22Z</time>
      </trkpt>
      <trkpt lat="43.81648" lon="7.25326">
        <ele>603.6</ele>
        <time>2012-04-19T08:23:27Z</time>
      </trkpt>
      <trkpt lat="43.81651" lon="7.25335">
        <ele>604.7</ele>
        <time>2012-04-19T08:23:30Z</time>
      </trkpt>
      <trkpt lat="43.81655" lon="7.25343">
        <ele>605.6</ele>
        <time>2012-04-19T08:23:33Z</time>
      </trkpt>
      <trkpt lat="43.81658" lon="7.25352">
        <ele>606.5</ele>
        <time>2012-04-19T08:23:36Z</time>
      </trkpt>
      <trkpt lat="43.81661" lon="7.25361">
        <ele>607.4</ele>
        <time>2012-04-19T08:23:39Z</time>
      </trkpt>
      <trkpt lat="43.81664" lon="7.25369">
        <ele>607.4</ele>
        <time>2012-04-19T08:23:42Z</time>
      </trkpt>
      <trkpt lat="43.81668" lon="7.2538">
        <ele>607.7</ele>
        <time>2012-04-19T08:23:46Z</time>
      </trkpt>
      <trkpt lat="43.81672" lon="7.25389">
        <ele>609</ele>
        <time>2012-04-19T08:23:49Z</time>
      </trkpt>
      <trkpt lat="43.81677" lon="7.25399">
        <ele>610.4</ele>
        <time>2012-04-19T08:23:53Z</time>
      </trkpt>
      <trkpt lat="43.81682" lon="7.25409">
        <ele>610.2</ele>
        <time>2012-04-19T08:23:57Z</time>
      </trkpt>
      <trkpt lat="43.81687" lon="7.25419">
        <ele>610.9</ele>
        <time>2012-04-19T08:24:01Z</time>
      </trkpt>
      <trkpt lat="43.81691" lon="7.25426">
        <ele>611.8</ele>
        <time>2012-04-19T08:24:04Z</time>
      </trkpt>
      <trkpt lat="43.81696" lon="7.25436">
        <ele>613.4</ele>
        <time>2012-04-19T08:24:08Z</time>
      </trkpt>
      <trkpt lat="43.817" lon="7.25445">
        <ele>627.8</ele>
        <time>2012-04-19T08:24:12Z</time>
      </trkpt>
      <trkpt lat="43.81704" lon="7.25455">
        <ele>635.3</ele>
        <time>2012-04-19T08:24:17Z</time>
      </trkpt>
      <trkpt lat="43.81707" lon="7.25466">
        <ele>639.6</ele>
        <time>2012-04-19T08:28:23Z</time>
      </trkpt>
      <trkpt lat="43.81709" lon="7.25467">
        <ele>639.7</ele>
        <time>2012-04-19T08:28:24Z</time>
      </trkpt>
      <trkpt lat="43.81721" lon="7.25479">
        <ele>640.3</ele>
        <time>2012-04-19T08:28:39Z</time>
      </trkpt>
      <trkpt lat="43.81728" lon="7.25484">
        <ele>640</ele>
        <time>2012-04-19T08:28:44Z</time>
      </trkpt>
      <trkpt lat="43.81735" lon="7.25491">
        <ele>639.9</ele>
        <time>2012-04-19T08:28:47Z</time>
      </trkpt>
      <trkpt lat="43.8174" lon="7.25499">
        <ele>639.4</ele>
        <time>2012-04-19T08:28:49Z</time>
      </trkpt>
      <trkpt lat="43.81744" lon="7.25508">
        <ele>639</ele>
        <time>2012-04-19T08:28:51Z</time>
      </trkpt>
      <trkpt lat="43.81749" lon="7.25518">
        <ele>638.5</ele>
        <time>2012-04-19T08:28:53Z</time>
      </trkpt>
      <trkpt lat="43.81751" lon="7.25524">
        <ele>638.1</ele>
        <time>2012-04-19T08:28:54Z</time>
      </trkpt>
      <trkpt lat="43.81754" lon="7.25531">
        <ele>637.9</ele>
        <time>2012-04-19T08:28:55Z</time>
      </trkpt>
      <trkpt lat="43.81756" lon="7.25538">
        <ele>637.6</ele>
        <time>2012-04-19T08:28:56Z</time>
      </trkpt>
      <trkpt lat="43.81758" lon="7.25546">
        <ele>637.4</ele>
        <time>2012-04-19T08:28:57Z</time>
      </trkpt>
      <trkpt lat="43.81761" lon="7.25554">
        <ele>636.9</ele>
        <time>2012-04-19T08:28:58Z</time>
      </trkpt>
      <trkpt lat="43.81763" lon="7.25562">
        <ele>636.5</ele>
        <time>2012-04-19T08:28:59Z</time>
      </trkpt>
      <trkpt lat="43.81764" lon="7.2557">
        <ele>635.9</ele>
        <time>2012-04-19T08:29:00Z</time>
      </trkpt>
      <trkpt lat="43.81765" lon="7.25579">
        <ele>635.6</ele>
        <time>2012-04-19T08:29:01Z</time>
      </trkpt>
      <trkpt lat="43.81767" lon="7.25587">
        <ele>635.3</ele>
        <time>2012-04-19T08:29:02Z</time>
      </trkpt>
      <trkpt lat="43.81768" lon="7.25595">
        <ele>634.5</ele>
        <time>2012-04-19T08:29:03Z</time>
      </trkpt>
      <trkpt lat="43.81769" lon="7.25603">
        <ele>634</ele>
        <time>2012-04-19T08:29:04Z</time>
      </trkpt>
      <trkpt lat="43.8177" lon="7.25612">
        <ele>633.3</ele>
        <time>2012-04-19T08:29:05Z</time>
      </trkpt>
      <trkpt lat="43.81771" lon="7.2562">
        <ele>632.8</ele>
        <time>2012-04-19T08:29:06Z</time>
      </trkpt>
      <trkpt lat="43.81772" lon="7.25628">
        <ele>632.1</ele>
        <time>2012-04-19T08:29:07Z</time>
      </trkpt>
      <trkpt lat="43.81773" lon="7.25636">
        <ele>631.5</ele>
        <time>2012-04-19T08:29:08Z</time>
      </trkpt>
      <trkpt lat="43.81775" lon="7.25644">
        <ele>631.1</ele>
        <time>2012-04-19T08:29:09Z</time>
      </trkpt>
      <trkpt lat="43.81776" lon="7.25652">
        <ele>630.1</ele>
        <time>2012-04-19T08:29:10Z</time>
      </trkpt>
      <trkpt lat="43.81778" lon="7.2566">
        <ele>629.4</ele>
        <time>2012-04-19T08:29:11Z</time>
      </trkpt>
      <trkpt lat="43.8178" lon="7.25667">
        <ele>628.6</ele>
        <time>2012-04-19T08:29:12Z</time>
      </trkpt>
      <trkpt lat="43.81782" lon="7.25675">
        <ele>628.1</ele>
        <time>2012-04-19T08:29:13Z</time>
      </trkpt>
      <trkpt lat="43.81784" lon="7.25683">
        <ele>627.7</ele>
        <time>2012-04-19T08:29:14Z</time>
      </trkpt>
      <trkpt lat="43.81786" lon="7.2569">
        <ele>627</ele>
        <time>2012-04-19T08:29:15Z</time>
      </trkpt>
      <trkpt lat="43.81788" lon="7.25698">
        <ele>626.5</ele>
        <time>2012-04-19T08:29:16Z</time>
      </trkpt>
      <trkpt lat="43.81791" lon="7.25705">
        <ele>625.9</ele>
        <time>2012-04-19T08:29:17Z</time>
      </trkpt>
      <trkpt lat="43.81794" lon="7.25712">
        <ele>625.4</ele>
        <time>2012-04-19T08:29:18Z</time>
      </trkpt>
      <trkpt lat="43.81798" lon="7.25719">
        <ele>624.7</ele>
        <time>2012-04-19T08:29:19Z</time>
      </trkpt>
      <trkpt lat="43.81801" lon="7.25726">
        <ele>624.1</ele>
        <time>2012-04-19T08:29:20Z</time>
      </trkpt>
      <trkpt lat="43.81804" lon="7.25733">
        <ele>623.7</ele>
        <time>2012-04-19T08:29:21Z</time>
      </trkpt>
      <trkpt lat="43.81808" lon="7.25739">
        <ele>622.9</ele>
        <time>2012-04-19T08:29:22Z</time>
      </trkpt>
      <trkpt lat="43.81812" lon="7.25745">
        <ele>622.3</ele>
        <time>2012-04-19T08:29:23Z</time>
      </trkpt>
      <trkpt lat="43.81816" lon="7.25749">
        <ele>621.9</ele>
        <time>2012-04-19T08:29:24Z</time>
      </trkpt>
      <trkpt lat="43.81823" lon="7.25755">
        <ele>621.1</ele>
        <time>2012-04-19T08:29:26Z</time>
      </trkpt>
      <trkpt lat="43.81828" lon="7.25758">
        <ele>620.7</ele>
        <time>2012-04-19T08:29:27Z</time>
      </trkpt>
      <trkpt lat="43.81832" lon="7.25759">
        <ele>620.5</ele>
        <time>2012-04-19T08:29:28Z</time>
      </trkpt>
      <trkpt lat="43.81838" lon="7.25761">
        <ele>620</ele>
        <time>2012-04-19T08:29:29Z</time>
      </trkpt>
      <trkpt lat="43.81843" lon="7.25763">
        <ele>619.6</ele>
        <time>2012-04-19T08:29:30Z</time>
      </trkpt>
      <trkpt lat="43.81848" lon="7.25763">
        <ele>618.6</ele>
        <time>2012-04-19T08:29:31Z</time>
      </trkpt>
      <trkpt lat="43.81853" lon="7.25763">
        <ele>617.9</ele>
        <time>2012-04-19T08:29:32Z</time>
      </trkpt>
      <trkpt lat="43.81859" lon="7.25763">
        <ele>617.3</ele>
        <time>2012-04-19T08:29:33Z</time>
      </trkpt>
      <trkpt lat="43.81864" lon="7.25762">
        <ele>616.8</ele>
        <time>2012-04-19T08:29:34Z</time>
      </trkpt>
      <trkpt lat="43.81869" lon="7.2576">
        <ele>616.5</ele>
        <time>2012-04-19T08:29:35Z</time>
      </trkpt>
      <trkpt lat="43.81875" lon="7.25757">
        <ele>615.9</ele>
        <time>2012-04-19T08:29:36Z</time>
      </trkpt>
      <trkpt lat="43.8188" lon="7.25753">
        <ele>615.4</ele>
        <time>2012-04-19T08:29:37Z</time>
      </trkpt>
      <trkpt lat="43.81885" lon="7.25748">
        <ele>614.8</ele>
        <time>2012-04-19T08:29:38Z</time>
      </trkpt>
      <trkpt lat="43.81889" lon="7.25743">
        <ele>614.3</ele>
        <time>2012-04-19T08:29:39Z</time>
      </trkpt>
      <trkpt lat="43.81894" lon="7.25737">
        <ele>614</ele>
        <time>2012-04-19T08:29:40Z</time>
      </trkpt>
      <trkpt lat="43.81898" lon="7.25732">
        <ele>613.3</ele>
        <time>2012-04-19T08:29:41Z</time>
      </trkpt>
      <trkpt lat="43.81902" lon="7.25726">
        <ele>612.8</ele>
        <time>2012-04-19T08:29:42Z</time>
      </trkpt>
      <trkpt lat="43.81906" lon="7.2572">
        <ele>611.9</ele>
        <time>2012-04-19T08:29:43Z</time>
      </trkpt>
      <trkpt lat="43.8191" lon="7.25714">
        <ele>611.2</ele>
        <time>2012-04-19T08:29:44Z</time>
      </trkpt>
      <trkpt lat="43.81914" lon="7.25707">
        <ele>610.5</ele>
        <time>2012-04-19T08:29:45Z</time>
      </trkpt>
      <trkpt lat="43.81917" lon="7.25702">
        <ele>610.1</ele>
        <time>2012-04-19T08:29:46Z</time>
      </trkpt>
      <trkpt lat="43.8192" lon="7.25697">
        <ele>609.7</ele>
        <time>2012-04-19T08:29:47Z</time>
      </trkpt>
      <trkpt lat="43.81923" lon="7.25692">
        <ele>609.2</ele>
        <time>2012-04-19T08:29:48Z</time>
      </trkpt>
      <trkpt lat="43.81926" lon="7.25687">
        <ele>608.7</ele>
        <time>2012-04-19T08:29:49Z</time>
      </trkpt>
      <trkpt lat="43.81929" lon="7.25681">
        <ele>607.9</ele>
        <time>2012-04-19T08:29:50Z</time>
      </trkpt>
      <trkpt lat="43.81932" lon="7.25675">
        <ele>607.2</ele>
        <time>2012-04-19T08:29:51Z</time>
      </trkpt>
      <trkpt lat="43.81935" lon="7.25668">
        <ele>606.7</ele>
        <time>2012-04-19T08:29:52Z</time>
      </trkpt>
      <trkpt lat="43.81938" lon="7.25661">
        <ele>606.3</ele>
        <time>2012-04-19T08:29:53Z</time>
      </trkpt>
      <trkpt lat="43.81941" lon="7.25653">
        <ele>606</ele>
        <time>2012-04-19T08:29:54Z</time>
      </trkpt>
      <trkpt lat="43.81944" lon="7.25645">
        <ele>605.3</ele>
        <time>2012-04-19T08:29:55Z</time>
      </trkpt>
      <trkpt lat="43.81948" lon="7.25636">
        <ele>604.8</ele>
        <time>2012-04-19T08:29:56Z</time>
      </trkpt>
      <trkpt lat="43.81951" lon="7.25627">
        <ele>604.4</ele>
        <time>2012-04-19T08:29:57Z</time>
      </trkpt>
      <trkpt lat="43.81955" lon="7.25618">
        <ele>604.1</ele>
        <time>2012-04-19T08:29:58Z</time>
      </trkpt>
      <trkpt lat="43.81959" lon="7.2561">
        <ele>603.8</ele>
        <time>2012-04-19T08:29:59Z</time>
      </trkpt>
      <trkpt lat="43.81965" lon="7.25603">
        <ele>603.1</ele>
        <time>2012-04-19T08:30:00Z</time>
      </trkpt>
      <trkpt lat="43.81971" lon="7.25597">
        <ele>602.6</ele>
        <time>2012-04-19T08:30:01Z</time>
      </trkpt>
      <trkpt lat="43.81977" lon="7.25593">
        <ele>601.9</ele>
        <time>2012-04-19T08:30:02Z</time>
      </trkpt>
      <trkpt lat="43.81984" lon="7.25586">
        <ele>600.5</ele>
        <time>2012-04-19T08:30:04Z</time>
      </trkpt>
      <trkpt lat="43.81983" lon="7.25597">
        <ele>597.4</ele>
        <time>2012-04-19T08:30:11Z</time>
      </trkpt>
      <trkpt lat="43.81982" lon="7.25606">
        <ele>596</ele>
        <time>2012-04-19T08:30:13Z</time>
      </trkpt>
      <trkpt lat="43.81983" lon="7.25616">
        <ele>594</ele>
        <time>2012-04-19T08:30:15Z</time>
      </trkpt>
      <trkpt lat="43.81984" lon="7.25627">
        <ele>592.2</ele>
        <time>2012-04-19T08:30:17Z</time>
      </trkpt>
      <trkpt lat="43.81986" lon="7.25636">
        <ele>590.5</ele>
        <time>2012-04-19T08:30:19Z</time>
      </trkpt>
      <trkpt lat="43.81988" lon="7.25648">
        <ele>586.3</ele>
        <time>2012-04-19T08:30:23Z</time>
      </trkpt>
      <trkpt lat="43.81989" lon="7.25657">
        <ele>583.3</ele>
        <time>2012-04-19T08:30:27Z</time>
      </trkpt>
      <trkpt lat="43.81992" lon="7.25669">
        <ele>580</ele>
        <time>2012-04-19T08:30:30Z</time>
      </trkpt>
      <trkpt lat="43.81993" lon="7.25673">
        <ele>579.1</ele>
        <time>2012-04-19T08:30:31Z</time>
      </trkpt>
      <trkpt lat="43.81994" lon="7.25685">
        <ele>577.2</ele>
        <time>2012-04-19T08:30:33Z</time>
      </trkpt>
      <trkpt lat="43.81994" lon="7.25692">
        <ele>576.3</ele>
        <time>2012-04-19T08:30:34Z</time>
      </trkpt>
      <trkpt lat="43.81995" lon="7.257">
        <ele>575.1</ele>
        <time>2012-04-19T08:30:35Z</time>
      </trkpt>
      <trkpt lat="43.81995" lon="7.25707">
        <ele>574.2</ele>
        <time>2012-04-19T08:30:36Z</time>
      </trkpt>
      <trkpt lat="43.81996" lon="7.25719">
        <ele>572.4</ele>
        <time>2012-04-19T08:30:38Z</time>
      </trkpt>
      <trkpt lat="43.81998" lon="7.2573">
        <ele>569.8</ele>
        <time>2012-04-19T08:30:40Z</time>
      </trkpt>
      <trkpt lat="43.81999" lon="7.25736">
        <ele>568.5</ele>
        <time>2012-04-19T08:30:41Z</time>
      </trkpt>
      <trkpt lat="43.82" lon="7.25743">
        <ele>566.9</ele>
        <time>2012-04-19T08:30:42Z</time>
      </trkpt>
      <trkpt lat="43.82001" lon="7.2575">
        <ele>565.7</ele>
        <time>2012-04-19T08:30:43Z</time>
      </trkpt>
      <trkpt lat="43.82001" lon="7.25758">
        <ele>564.8</ele>
        <time>2012-04-19T08:30:44Z</time>
      </trkpt>
      <trkpt lat="43.82002" lon="7.25766">
        <ele>563.4</ele>
        <time>2012-04-19T08:30:45Z</time>
      </trkpt>
      <trkpt lat="43.82003" lon="7.25774">
        <ele>562.2</ele>
        <time>2012-04-19T08:30:46Z</time>
      </trkpt>
      <trkpt lat="43.82004" lon="7.25782">
        <ele>560.8</ele>
        <time>2012-04-19T08:30:47Z</time>
      </trkpt>
      <trkpt lat="43.82004" lon="7.2579">
        <ele>559.7</ele>
        <time>2012-04-19T08:30:48Z</time>
      </trkpt>
      <trkpt lat="43.82004" lon="7.25798">
        <ele>558.9</ele>
        <time>2012-04-19T08:30:49Z</time>
      </trkpt>
      <trkpt lat="43.82005" lon="7.25806">
        <ele>557.4</ele>
        <time>2012-04-19T08:30:50Z</time>
      </trkpt>
      <trkpt lat="43.82005" lon="7.25815">
        <ele>556.2</ele>
        <time>2012-04-19T08:30:51Z</time>
      </trkpt>
      <trkpt lat="43.82006" lon="7.25823">
        <ele>555</ele>
        <time>2012-04-19T08:30:52Z</time>
      </trkpt>
      <trkpt lat="43.82007" lon="7.25834">
        <ele>552.9</ele>
        <time>2012-04-19T08:30:54Z</time>
      </trkpt>
      <trkpt lat="43.82008" lon="7.25843">
        <ele>551.4</ele>
        <time>2012-04-19T08:30:56Z</time>
      </trkpt>
      <trkpt lat="43.82009" lon="7.25855">
        <ele>548.4</ele>
        <time>2012-04-19T08:30:59Z</time>
      </trkpt>
      <trkpt lat="43.8201" lon="7.25865">
        <ele>545.1</ele>
        <time>2012-04-19T08:31:02Z</time>
      </trkpt>
      <trkpt lat="43.8201" lon="7.25877">
        <ele>542.9</ele>
        <time>2012-04-19T08:31:05Z</time>
      </trkpt>
      <trkpt lat="43.82007" lon="7.25887">
        <ele>539.8</ele>
        <time>2012-04-19T08:31:08Z</time>
      </trkpt>
      <trkpt lat="43.82002" lon="7.25895">
        <ele>537.7</ele>
        <time>2012-04-19T08:31:12Z</time>
      </trkpt>
      <trkpt lat="43.81998" lon="7.25902">
        <ele>535.8</ele>
        <time>2012-04-19T08:31:18Z</time>
      </trkpt>
      <trkpt lat="43.81994" lon="7.25908">
        <ele>535.5</ele>
        <time>2012-04-19T08:31:20Z</time>
      </trkpt>
      <trkpt lat="43.81989" lon="7.25916">
        <ele>535</ele>
        <time>2012-04-19T08:31:22Z</time>
      </trkpt>
      <trkpt lat="43.81986" lon="7.25921">
        <ele>534.3</ele>
        <time>2012-04-19T08:31:23Z</time>
      </trkpt>
      <trkpt lat="43.81983" lon="7.25927">
        <ele>533.8</ele>
        <time>2012-04-19T08:31:24Z</time>
      </trkpt>
      <trkpt lat="43.81979" lon="7.25937">
        <ele>533</ele>
        <time>2012-04-19T08:31:26Z</time>
      </trkpt>
      <trkpt lat="43.81975" lon="7.25946">
        <ele>532</ele>
        <time>2012-04-19T08:31:28Z</time>
      </trkpt>
      <trkpt lat="43.81973" lon="7.25952">
        <ele>531.7</ele>
        <time>2012-04-19T08:31:29Z</time>
      </trkpt>
      <trkpt lat="43.81967" lon="7.2596">
        <ele>530.2</ele>
        <time>2012-04-19T08:31:31Z</time>
      </trkpt>
      <trkpt lat="43.81964" lon="7.25963">
        <ele>528.9</ele>
        <time>2012-04-19T08:31:32Z</time>
      </trkpt>
      <trkpt lat="43.81962" lon="7.25978">
        <ele>524.7</ele>
        <time>2012-04-19T08:31:37Z</time>
      </trkpt>
      <trkpt lat="43.81959" lon="7.25985">
        <ele>523.1</ele>
        <time>2012-04-19T08:31:39Z</time>
      </trkpt>
      <trkpt lat="43.81955" lon="7.25992">
        <ele>521.8</ele>
        <time>2012-04-19T08:31:41Z</time>
      </trkpt>
      <trkpt lat="43.81953" lon="7.26001">
        <ele>520</ele>
        <time>2012-04-19T08:31:43Z</time>
      </trkpt>
      <trkpt lat="43.81949" lon="7.26011">
        <ele>519.2</ele>
        <time>2012-04-19T08:31:45Z</time>
      </trkpt>
      <trkpt lat="43.81944" lon="7.26021">
        <ele>516.9</ele>
        <time>2012-04-19T08:31:47Z</time>
      </trkpt>
      <trkpt lat="43.81941" lon="7.26026">
        <ele>516.2</ele>
        <time>2012-04-19T08:31:48Z</time>
      </trkpt>
      <trkpt lat="43.81938" lon="7.26032">
        <ele>515.3</ele>
        <time>2012-04-19T08:31:49Z</time>
      </trkpt>
      <trkpt lat="43.81936" lon="7.26037">
        <ele>514.6</ele>
        <time>2012-04-19T08:31:50Z</time>
      </trkpt>
      <trkpt lat="43.81933" lon="7.26043">
        <ele>513.6</ele>
        <time>2012-04-19T08:31:51Z</time>
      </trkpt>
      <trkpt lat="43.8193" lon="7.26049">
        <ele>513</ele>
        <time>2012-04-19T08:31:52Z</time>
      </trkpt>
      <trkpt lat="43.81926" lon="7.26053">
        <ele>512.4</ele>
        <time>2012-04-19T08:31:53Z</time>
      </trkpt>
      <trkpt lat="43.81923" lon="7.26059">
        <ele>511.2</ele>
        <time>2012-04-19T08:31:54Z</time>
      </trkpt>
      <trkpt lat="43.81921" lon="7.26065">
        <ele>510.2</ele>
        <time>2012-04-19T08:31:55Z</time>
      </trkpt>
      <trkpt lat="43.81919" lon="7.26072">
        <ele>508.7</ele>
        <time>2012-04-19T08:31:56Z</time>
      </trkpt>
      <trkpt lat="43.81917" lon="7.26078">
        <ele>507.6</ele>
        <time>2012-04-19T08:31:57Z</time>
      </trkpt>
      <trkpt lat="43.81914" lon="7.26084">
        <ele>506.2</ele>
        <time>2012-04-19T08:31:58Z</time>
      </trkpt>
      <trkpt lat="43.8191" lon="7.26089">
        <ele>505.2</ele>
        <time>2012-04-19T08:31:59Z</time>
      </trkpt>
      <trkpt lat="43.81906" lon="7.26096">
        <ele>504.4</ele>
        <time>2012-04-19T08:32:00Z</time>
      </trkpt>
      <trkpt lat="43.81901" lon="7.26103">
        <ele>503</ele>
        <time>2012-04-19T08:32:01Z</time>
      </trkpt>
      <trkpt lat="43.81897" lon="7.26109">
        <ele>502</ele>
        <time>2012-04-19T08:32:02Z</time>
      </trkpt>
      <trkpt lat="43.81892" lon="7.26115">
        <ele>500.1</ele>
        <time>2012-04-19T08:32:03Z</time>
      </trkpt>
      <trkpt lat="43.81887" lon="7.2612">
        <ele>498.6</ele>
        <time>2012-04-19T08:32:04Z</time>
      </trkpt>
      <trkpt lat="43.81882" lon="7.26124">
        <ele>496.5</ele>
        <time>2012-04-19T08:32:05Z</time>
      </trkpt>
      <trkpt lat="43.81877" lon="7.26128">
        <ele>494.9</ele>
        <time>2012-04-19T08:32:06Z</time>
      </trkpt>
      <trkpt lat="43.81873" lon="7.26132">
        <ele>493.7</ele>
        <time>2012-04-19T08:32:07Z</time>
      </trkpt>
      <trkpt lat="43.81868" lon="7.26135">
        <ele>492.8</ele>
        <time>2012-04-19T08:32:08Z</time>
      </trkpt>
      <trkpt lat="43.81864" lon="7.26138">
        <ele>492.2</ele>
        <time>2012-04-19T08:32:09Z</time>
      </trkpt>
      <trkpt lat="43.81859" lon="7.2614">
        <ele>490.7</ele>
        <time>2012-04-19T08:32:10Z</time>
      </trkpt>
      <trkpt lat="43.81855" lon="7.26144">
        <ele>489.6</ele>
        <time>2012-04-19T08:32:11Z</time>
      </trkpt>
      <trkpt lat="43.81852" lon="7.26149">
        <ele>488.8</ele>
        <time>2012-04-19T08:32:12Z</time>
      </trkpt>
      <trkpt lat="43.81849" lon="7.26155">
        <ele>487.5</ele>
        <time>2012-04-19T08:32:13Z</time>
      </trkpt>
      <trkpt lat="43.81847" lon="7.26161">
        <ele>486.5</ele>
        <time>2012-04-19T08:32:14Z</time>
      </trkpt>
      <trkpt lat="43.81841" lon="7.2617">
        <ele>483.6</ele>
        <time>2012-04-19T08:32:16Z</time>
      </trkpt>
      <trkpt lat="43.81836" lon="7.26178">
        <ele>480.8</ele>
        <time>2012-04-19T08:32:18Z</time>
      </trkpt>
      <trkpt lat="43.8183" lon="7.26187">
        <ele>479.2</ele>
        <time>2012-04-19T08:32:20Z</time>
      </trkpt>
      <trkpt lat="43.81825" lon="7.26195">
        <ele>478.2</ele>
        <time>2012-04-19T08:32:22Z</time>
      </trkpt>
      <trkpt lat="43.8182" lon="7.26202">
        <ele>477</ele>
        <time>2012-04-19T08:32:24Z</time>
      </trkpt>
      <trkpt lat="43.81815" lon="7.26208">
        <ele>475.9</ele>
        <time>2012-04-19T08:32:26Z</time>
      </trkpt>
      <trkpt lat="43.81811" lon="7.26217">
        <ele>474.8</ele>
        <time>2012-04-19T08:32:28Z</time>
      </trkpt>
      <trkpt lat="43.81808" lon="7.26228">
        <ele>473.2</ele>
        <time>2012-04-19T08:32:32Z</time>
      </trkpt>
      <trkpt lat="43.81807" lon="7.26232">
        <ele>472.8</ele>
        <time>2012-04-19T08:32:33Z</time>
      </trkpt>
      <trkpt lat="43.81813" lon="7.26247">
        <ele>471</ele>
        <time>2012-04-19T08:32:37Z</time>
      </trkpt>
      <trkpt lat="43.81817" lon="7.26254">
        <ele>470.1</ele>
        <time>2012-04-19T08:32:39Z</time>
      </trkpt>
      <trkpt lat="43.81819" lon="7.26264">
        <ele>468.5</ele>
        <time>2012-04-19T08:32:41Z</time>
      </trkpt>
      <trkpt lat="43.81819" lon="7.26273">
        <ele>466.4</ele>
        <time>2012-04-19T08:32:43Z</time>
      </trkpt>
      <trkpt lat="43.81821" lon="7.26285">
        <ele>464.9</ele>
        <time>2012-04-19T08:32:45Z</time>
      </trkpt>
      <trkpt lat="43.81822" lon="7.26291">
        <ele>463.6</ele>
        <time>2012-04-19T08:32:46Z</time>
      </trkpt>
      <trkpt lat="43.81823" lon="7.26298">
        <ele>462.7</ele>
        <time>2012-04-19T08:32:47Z</time>
      </trkpt>
      <trkpt lat="43.81824" lon="7.26305">
        <ele>462.1</ele>
        <time>2012-04-19T08:32:48Z</time>
      </trkpt>
      <trkpt lat="43.81825" lon="7.26312">
        <ele>461.6</ele>
        <time>2012-04-19T08:32:49Z</time>
      </trkpt>
      <trkpt lat="43.81825" lon="7.26319">
        <ele>460.9</ele>
        <time>2012-04-19T08:32:50Z</time>
      </trkpt>
      <trkpt lat="43.81825" lon="7.26326">
        <ele>460.4</ele>
        <time>2012-04-19T08:32:51Z</time>
      </trkpt>
      <trkpt lat="43.81824" lon="7.26333">
        <ele>460</ele>
        <time>2012-04-19T08:32:52Z</time>
      </trkpt>
      <trkpt lat="43.81823" lon="7.2634">
        <ele>459.4</ele>
        <time>2012-04-19T08:32:53Z</time>
      </trkpt>
      <trkpt lat="43.81822" lon="7.26346">
        <ele>458.9</ele>
        <time>2012-04-19T08:32:54Z</time>
      </trkpt>
      <trkpt lat="43.81822" lon="7.26352">
        <ele>458.5</ele>
        <time>2012-04-19T08:32:55Z</time>
      </trkpt>
      <trkpt lat="43.81822" lon="7.26364">
        <ele>458</ele>
        <time>2012-04-19T08:32:57Z</time>
      </trkpt>
      <trkpt lat="43.81822" lon="7.26375">
        <ele>457.7</ele>
        <time>2012-04-19T08:32:59Z</time>
      </trkpt>
      <trkpt lat="43.81822" lon="7.26386">
        <ele>457.6</ele>
        <time>2012-04-19T08:33:01Z</time>
      </trkpt>
      <trkpt lat="43.81821" lon="7.26396">
        <ele>457.1</ele>
        <time>2012-04-19T08:33:03Z</time>
      </trkpt>
      <trkpt lat="43.8182" lon="7.26405">
        <ele>457.3</ele>
        <time>2012-04-19T08:33:05Z</time>
      </trkpt>
      <trkpt lat="43.81817" lon="7.26414">
        <ele>457.5</ele>
        <time>2012-04-19T08:33:07Z</time>
      </trkpt>
      <trkpt lat="43.81816" lon="7.26423">
        <ele>457.5</ele>
        <time>2012-04-19T08:33:09Z</time>
      </trkpt>
      <trkpt lat="43.81816" lon="7.26433">
        <ele>457.3</ele>
        <time>2012-04-19T08:33:11Z</time>
      </trkpt>
      <trkpt lat="43.81814" lon="7.26441">
        <ele>457.7</ele>
        <time>2012-04-19T08:33:13Z</time>
      </trkpt>
      <trkpt lat="43.81812" lon="7.26452">
        <ele>457.2</ele>
        <time>2012-04-19T08:33:16Z</time>
      </trkpt>
      <trkpt lat="43.81808" lon="7.26462">
        <ele>458.6</ele>
        <time>2012-04-19T08:33:20Z</time>
      </trkpt>
      <trkpt lat="43.81803" lon="7.26469">
        <ele>460.4</ele>
        <time>2012-04-19T08:33:24Z</time>
      </trkpt>
      <trkpt lat="43.81796" lon="7.26477">
        <ele>461.1</ele>
        <time>2012-04-19T08:33:29Z</time>
      </trkpt>
      <trkpt lat="43.8179" lon="7.26485">
        <ele>462.6</ele>
        <time>2012-04-19T08:33:34Z</time>
      </trkpt>
      <trkpt lat="43.8179" lon="7.26487">
        <ele>462.7</ele>
        <time>2012-04-19T08:33:35Z</time>
      </trkpt>
      <trkpt lat="43.81803" lon="7.26493">
        <ele>464.6</ele>
        <time>2012-04-19T08:33:45Z</time>
      </trkpt>
      <trkpt lat="43.81812" lon="7.26494">
        <ele>468.8</ele>
        <time>2012-04-19T08:34:26Z</time>
      </trkpt>
      <trkpt lat="43.8182" lon="7.26497">
        <ele>473.8</ele>
        <time>2012-04-19T08:34:48Z</time>
      </trkpt>
      <trkpt lat="43.81821" lon="7.26497">
        <ele>474.3</ele>
        <time>2012-04-19T08:34:49Z</time>
      </trkpt>
      <trkpt lat="43.81819" lon="7.26518">
        <ele>483.9</ele>
        <time>2012-04-19T08:35:44Z</time>
      </trkpt>
      <trkpt lat="43.81812" lon="7.26526">
        <ele>485.3</ele>
        <time>2012-04-19T08:35:56Z</time>
      </trkpt>
      <trkpt lat="43.81811" lon="7.26527">
        <ele>485.4</ele>
        <time>2012-04-19T08:35:57Z</time>
      </trkpt>
      <trkpt lat="43.81805" lon="7.26548">
        <ele>491.5</ele>
        <time>2012-04-19T08:36:25Z</time>
      </trkpt>
      <trkpt lat="43.81807" lon="7.2656">
        <ele>497.1</ele>
        <time>2012-04-19T08:36:50Z</time>
      </trkpt>
      <trkpt lat="43.81814" lon="7.26553">
        <ele>497.6</ele>
        <time>2012-04-19T08:37:06Z</time>
      </trkpt>
      <trkpt lat="43.81815" lon="7.26553">
        <ele>497.4</ele>
        <time>2012-04-19T08:37:07Z</time>
      </trkpt>
      <trkpt lat="43.81829" lon="7.26543">
        <ele>498.2</ele>
        <time>2012-04-19T08:37:40Z</time>
      </trkpt>
      <trkpt lat="43.81837" lon="7.26537">
        <ele>499.6</ele>
        <time>2012-04-19T08:37:52Z</time>
      </trkpt>
      <trkpt lat="43.81845" lon="7.26533">
        <ele>502.2</ele>
        <time>2012-04-19T08:38:06Z</time>
      </trkpt>
      <trkpt lat="43.81854" lon="7.26533">
        <ele>505.4</ele>
        <time>2012-04-19T08:38:19Z</time>
      </trkpt>
      <trkpt lat="43.81855" lon="7.26532">
        <ele>505.8</ele>
        <time>2012-04-19T08:38:20Z</time>
      </trkpt>
      <trkpt lat="43.81871" lon="7.26529">
        <ele>509.7</ele>
        <time>2012-04-19T08:38:41Z</time>
      </trkpt>
      <trkpt lat="43.81879" lon="7.26528">
        <ele>511.5</ele>
        <time>2012-04-19T08:38:51Z</time>
      </trkpt>
      <trkpt lat="43.81888" lon="7.26527">
        <ele>512.9</ele>
        <time>2012-04-19T08:39:03Z</time>
      </trkpt>
      <trkpt lat="43.81896" lon="7.26523">
        <ele>512.6</ele>
        <time>2012-04-19T08:39:10Z</time>
      </trkpt>
      <trkpt lat="43.81905" lon="7.26521">
        <ele>513</ele>
        <time>2012-04-19T08:39:16Z</time>
      </trkpt>
      <trkpt lat="43.81913" lon="7.26518">
        <ele>514.3</ele>
        <time>2012-04-19T08:39:22Z</time>
      </trkpt>
      <trkpt lat="43.81914" lon="7.26518">
        <ele>514.2</ele>
        <time>2012-04-19T08:39:23Z</time>
      </trkpt>
      <trkpt lat="43.81928" lon="7.26511">
        <ele>515.4</ele>
        <time>2012-04-19T08:39:32Z</time>
      </trkpt>
      <trkpt lat="43.81936" lon="7.26509">
        <ele>516.1</ele>
        <time>2012-04-19T08:39:37Z</time>
      </trkpt>
      <trkpt lat="43.81945" lon="7.26506">
        <ele>517.6</ele>
        <time>2012-04-19T08:39:49Z</time>
      </trkpt>
      <trkpt lat="43.81953" lon="7.26507">
        <ele>517.8</ele>
        <time>2012-04-19T08:40:37Z</time>
      </trkpt>
      <trkpt lat="43.81954" lon="7.26507">
        <ele>517.8</ele>
        <time>2012-04-19T08:40:38Z</time>
      </trkpt>
      <trkpt lat="43.8197" lon="7.26502">
        <ele>521.2</ele>
        <time>2012-04-19T08:41:12Z</time>
      </trkpt>
      <trkpt lat="43.81977" lon="7.26495">
        <ele>521.2</ele>
        <time>2012-04-19T08:41:18Z</time>
      </trkpt>
      <trkpt lat="43.81984" lon="7.26492">
        <ele>521</ele>
        <time>2012-04-19T08:41:22Z</time>
      </trkpt>
      <trkpt lat="43.81992" lon="7.26489">
        <ele>520.4</ele>
        <time>2012-04-19T08:41:26Z</time>
      </trkpt>
      <trkpt lat="43.82" lon="7.26486">
        <ele>520.1</ele>
        <time>2012-04-19T08:41:30Z</time>
      </trkpt>
      <trkpt lat="43.82008" lon="7.26487">
        <ele>521.1</ele>
        <time>2012-04-19T08:41:35Z</time>
      </trkpt>
      <trkpt lat="43.82015" lon="7.26482">
        <ele>522.3</ele>
        <time>2012-04-19T08:41:40Z</time>
      </trkpt>
      <trkpt lat="43.82018" lon="7.2648">
        <ele>522.2</ele>
        <time>2012-04-19T08:41:41Z</time>
      </trkpt>
      <trkpt lat="43.82033" lon="7.2648">
        <ele>523.8</ele>
        <time>2012-04-19T08:41:53Z</time>
      </trkpt>
      <trkpt lat="43.82041" lon="7.26479">
        <ele>524.6</ele>
        <time>2012-04-19T08:41:59Z</time>
      </trkpt>
      <trkpt lat="43.8205" lon="7.26481">
        <ele>525.8</ele>
        <time>2012-04-19T08:42:17Z</time>
      </trkpt>
      <trkpt lat="43.82057" lon="7.26485">
        <ele>528.6</ele>
        <time>2012-04-19T08:42:31Z</time>
      </trkpt>
      <trkpt lat="43.82064" lon="7.26493">
        <ele>535.2</ele>
        <time>2012-04-19T08:42:51Z</time>
      </trkpt>
      <trkpt lat="43.82065" lon="7.26493">
        <ele>535.3</ele>
        <time>2012-04-19T08:42:52Z</time>
      </trkpt>
      <trkpt lat="43.8208" lon="7.26502">
        <ele>540.2</ele>
        <time>2012-04-19T08:43:22Z</time>
      </trkpt>
      <trkpt lat="43.82089" lon="7.26502">
        <ele>542.2</ele>
        <time>2012-04-19T08:43:33Z</time>
      </trkpt>
      <trkpt lat="43.82096" lon="7.26508">
        <ele>543.5</ele>
        <time>2012-04-19T08:43:50Z</time>
      </trkpt>
      <trkpt lat="43.82103" lon="7.26516">
        <ele>548.6</ele>
        <time>2012-04-19T08:44:09Z</time>
      </trkpt>
      <trkpt lat="43.82103" lon="7.26516">
        <ele>548.9</ele>
        <time>2012-04-19T08:44:10Z</time>
      </trkpt>
      <trkpt lat="43.82117" lon="7.26531">
        <ele>555</ele>
        <time>2012-04-19T08:44:35Z</time>
      </trkpt>
      <trkpt lat="43.82124" lon="7.26537">
        <ele>557.4</ele>
        <time>2012-04-19T08:44:48Z</time>
      </trkpt>
      <trkpt lat="43.82131" lon="7.26545">
        <ele>559.9</ele>
        <time>2012-04-19T08:45:01Z</time>
      </trkpt>
      <trkpt lat="43.82133" lon="7.26557">
        <ele>562.3</ele>
        <time>2012-04-19T08:45:14Z</time>
      </trkpt>
      <trkpt lat="43.82133" lon="7.26558">
        <ele>562.4</ele>
        <time>2012-04-19T08:45:15Z</time>
      </trkpt>
      <trkpt lat="43.82139" lon="7.2658">
        <ele>548.9</ele>
        <time>2012-04-19T08:45:45Z</time>
      </trkpt>
      <trkpt lat="43.82142" lon="7.26591">
        <ele>552</ele>
        <time>2012-04-19T08:46:00Z</time>
      </trkpt>
      <trkpt lat="43.82144" lon="7.26603">
        <ele>555.4</ele>
        <time>2012-04-19T08:46:18Z</time>
      </trkpt>
      <trkpt lat="43.82144" lon="7.26604">
        <ele>555.5</ele>
        <time>2012-04-19T08:46:19Z</time>
      </trkpt>
      <trkpt lat="43.82145" lon="7.26627">
        <ele>562.2</ele>
        <time>2012-04-19T08:46:50Z</time>
      </trkpt>
      <trkpt lat="43.82146" lon="7.26639">
        <ele>565.9</ele>
        <time>2012-04-19T08:47:11Z</time>
      </trkpt>
      <trkpt lat="43.82139" lon="7.26645">
        <ele>570.2</ele>
        <time>2012-04-19T08:47:33Z</time>
      </trkpt>
      <trkpt lat="43.82138" lon="7.26646">
        <ele>570.3</ele>
        <time>2012-04-19T08:47:34Z</time>
      </trkpt>
      <trkpt lat="43.82122" lon="7.26653">
        <ele>575.8</ele>
        <time>2012-04-19T08:48:07Z</time>
      </trkpt>
      <trkpt lat="43.82114" lon="7.26653">
        <ele>577.8</ele>
        <time>2012-04-19T08:48:17Z</time>
      </trkpt>
      <trkpt lat="43.82105" lon="7.26654">
        <ele>580.2</ele>
        <time>2012-04-19T08:48:29Z</time>
      </trkpt>
      <trkpt lat="43.8211" lon="7.26663">
        <ele>584.3</ele>
        <time>2012-04-19T08:49:09Z</time>
      </trkpt>
      <trkpt lat="43.82111" lon="7.26664">
        <ele>584.4</ele>
        <time>2012-04-19T08:49:10Z</time>
      </trkpt>
      <trkpt lat="43.82124" lon="7.26676">
        <ele>587</ele>
        <time>2012-04-19T08:49:24Z</time>
      </trkpt>
      <trkpt lat="43.82121" lon="7.26688">
        <ele>587</ele>
        <time>2012-04-19T08:51:01Z</time>
      </trkpt>
      <trkpt lat="43.82121" lon="7.26688">
        <ele>587</ele>
        <time>2012-04-19T08:51:02Z</time>
      </trkpt>
      <trkpt lat="43.82127" lon="7.26697">
        <ele>587.9</ele>
        <time>2012-04-19T08:52:16Z</time>
      </trkpt>
      <trkpt lat="43.82126" lon="7.26715">
        <ele>588</ele>
        <time>2012-04-19T08:52:21Z</time>
      </trkpt>
      <trkpt lat="43.82126" lon="7.26725">
        <ele>587.5</ele>
        <time>2012-04-19T08:52:24Z</time>
      </trkpt>
      <trkpt lat="43.82127" lon="7.26735">
        <ele>587.3</ele>
        <time>2012-04-19T08:52:27Z</time>
      </trkpt>
      <trkpt lat="43.82126" lon="7.26746">
        <ele>587.6</ele>
        <time>2012-04-19T08:52:32Z</time>
      </trkpt>
      <trkpt lat="43.82126" lon="7.26757">
        <ele>589</ele>
        <time>2012-04-19T08:52:39Z</time>
      </trkpt>
      <trkpt lat="43.8213" lon="7.26768">
        <ele>591</ele>
        <time>2012-04-19T08:52:45Z</time>
      </trkpt>
      <trkpt lat="43.82129" lon="7.2678">
        <ele>592.5</ele>
        <time>2012-04-19T08:52:52Z</time>
      </trkpt>
      <trkpt lat="43.82128" lon="7.26792">
        <ele>593.7</ele>
        <time>2012-04-19T08:52:58Z</time>
      </trkpt>
      <trkpt lat="43.82129" lon="7.26803">
        <ele>594.8</ele>
        <time>2012-04-19T08:53:04Z</time>
      </trkpt>
      <trkpt lat="43.8213" lon="7.26815">
        <ele>595.9</ele>
        <time>2012-04-19T08:53:11Z</time>
      </trkpt>
      <trkpt lat="43.82131" lon="7.26826">
        <ele>596</ele>
        <time>2012-04-19T08:53:17Z</time>
      </trkpt>
      <trkpt lat="43.82134" lon="7.26837">
        <ele>595.7</ele>
        <time>2012-04-19T08:53:22Z</time>
      </trkpt>
      <trkpt lat="43.82134" lon="7.26839">
        <ele>595.8</ele>
        <time>2012-04-19T08:53:23Z</time>
      </trkpt>
      <trkpt lat="43.82134" lon="7.2686">
        <ele>596.5</ele>
        <time>2012-04-19T08:53:32Z</time>
      </trkpt>
      <trkpt lat="43.82136" lon="7.26872">
        <ele>597.2</ele>
        <time>2012-04-19T08:53:38Z</time>
      </trkpt>
      <trkpt lat="43.82141" lon="7.26882">
        <ele>597.7</ele>
        <time>2012-04-19T08:53:43Z</time>
      </trkpt>
      <trkpt lat="43.82142" lon="7.26893">
        <ele>600.2</ele>
        <time>2012-04-19T08:53:52Z</time>
      </trkpt>
      <trkpt lat="43.82142" lon="7.26904">
        <ele>600.5</ele>
        <time>2012-04-19T08:53:57Z</time>
      </trkpt>
      <trkpt lat="43.82143" lon="7.26916">
        <ele>601.2</ele>
        <time>2012-04-19T08:54:02Z</time>
      </trkpt>
      <trkpt lat="43.82145" lon="7.26926">
        <ele>602.2</ele>
        <time>2012-04-19T08:54:07Z</time>
      </trkpt>
      <trkpt lat="43.82147" lon="7.26938">
        <ele>603.1</ele>
        <time>2012-04-19T08:54:12Z</time>
      </trkpt>
      <trkpt lat="43.82148" lon="7.26948">
        <ele>603.1</ele>
        <time>2012-04-19T08:54:16Z</time>
      </trkpt>
      <trkpt lat="43.82149" lon="7.26959">
        <ele>601.9</ele>
        <time>2012-04-19T08:54:20Z</time>
      </trkpt>
      <trkpt lat="43.82152" lon="7.26969">
        <ele>601.7</ele>
        <time>2012-04-19T08:54:23Z</time>
      </trkpt>
      <trkpt lat="43.82153" lon="7.26979">
        <ele>601.9</ele>
        <time>2012-04-19T08:54:26Z</time>
      </trkpt>
      <trkpt lat="43.82153" lon="7.26982">
        <ele>601.7</ele>
        <time>2012-04-19T08:54:27Z</time>
      </trkpt>
      <trkpt lat="43.82158" lon="7.27001">
        <ele>598.6</ele>
        <time>2012-04-19T08:54:36Z</time>
      </trkpt>
      <trkpt lat="43.82166" lon="7.27005">
        <ele>599.2</ele>
        <time>2012-04-19T08:54:43Z</time>
      </trkpt>
      <trkpt lat="43.82175" lon="7.27005">
        <ele>599.8</ele>
        <time>2012-04-19T08:54:53Z</time>
      </trkpt>
      <trkpt lat="43.82184" lon="7.27003">
        <ele>601.9</ele>
        <time>2012-04-19T08:55:00Z</time>
      </trkpt>
      <trkpt lat="43.82183" lon="7.27015">
        <ele>604.4</ele>
        <time>2012-04-19T08:55:27Z</time>
      </trkpt>
      <trkpt lat="43.82191" lon="7.27019">
        <ele>607.8</ele>
        <time>2012-04-19T08:55:49Z</time>
      </trkpt>
      <trkpt lat="43.82192" lon="7.27019">
        <ele>607.8</ele>
        <time>2012-04-19T08:55:50Z</time>
      </trkpt>
      <trkpt lat="43.82207" lon="7.27013">
        <ele>610.8</ele>
        <time>2012-04-19T08:56:09Z</time>
      </trkpt>
      <trkpt lat="43.82215" lon="7.2701">
        <ele>612.4</ele>
        <time>2012-04-19T08:56:16Z</time>
      </trkpt>
      <trkpt lat="43.82224" lon="7.27007">
        <ele>614.3</ele>
        <time>2012-04-19T08:56:23Z</time>
      </trkpt>
      <trkpt lat="43.82231" lon="7.27003">
        <ele>616</ele>
        <time>2012-04-19T08:56:29Z</time>
      </trkpt>
      <trkpt lat="43.8224" lon="7.27005">
        <ele>620.5</ele>
        <time>2012-04-19T08:56:45Z</time>
      </trkpt>
      <trkpt lat="43.82248" lon="7.27005">
        <ele>623.4</ele>
        <time>2012-04-19T08:57:04Z</time>
      </trkpt>
      <trkpt lat="43.82249" lon="7.27005">
        <ele>623.6</ele>
        <time>2012-04-19T08:57:05Z</time>
      </trkpt>
      <trkpt lat="43.82249" lon="7.27007">
        <ele>628.2</ele>
        <time>2012-04-19T08:57:42Z</time>
      </trkpt>
      <trkpt lat="43.82244" lon="7.27015">
        <ele>628.7</ele>
        <time>2012-04-19T08:57:49Z</time>
      </trkpt>
      <trkpt lat="43.82239" lon="7.27025">
        <ele>631.2</ele>
        <time>2012-04-19T08:57:56Z</time>
      </trkpt>
      <trkpt lat="43.82248" lon="7.27022">
        <ele>634.3</ele>
        <time>2012-04-19T08:58:13Z</time>
      </trkpt>
      <trkpt lat="43.82249" lon="7.27022">
        <ele>634.5</ele>
        <time>2012-04-19T08:58:14Z</time>
      </trkpt>
      <trkpt lat="43.82264" lon="7.2702">
        <ele>640.7</ele>
        <time>2012-04-19T08:58:36Z</time>
      </trkpt>
      <trkpt lat="43.82272" lon="7.27018">
        <ele>644.2</ele>
        <time>2012-04-19T08:58:52Z</time>
      </trkpt>
      <trkpt lat="43.82279" lon="7.27012">
        <ele>646.2</ele>
        <time>2012-04-19T08:59:02Z</time>
      </trkpt>
      <trkpt lat="43.82286" lon="7.27006">
        <ele>647.4</ele>
        <time>2012-04-19T08:59:13Z</time>
      </trkpt>
      <trkpt lat="43.82294" lon="7.27">
        <ele>649.5</ele>
        <time>2012-04-19T08:59:26Z</time>
      </trkpt>
      <trkpt lat="43.82294" lon="7.27">
        <ele>649.8</ele>
        <time>2012-04-19T08:59:27Z</time>
      </trkpt>
      <trkpt lat="43.82302" lon="7.26979">
        <ele>653.5</ele>
        <time>2012-04-19T08:59:48Z</time>
      </trkpt>
      <trkpt lat="43.82308" lon="7.26971">
        <ele>653.1</ele>
        <time>2012-04-19T08:59:57Z</time>
      </trkpt>
      <trkpt lat="43.82314" lon="7.26965">
        <ele>653.2</ele>
        <time>2012-04-19T09:00:02Z</time>
      </trkpt>
      <trkpt lat="43.82323" lon="7.26961">
        <ele>655.5</ele>
        <time>2012-04-19T09:00:10Z</time>
      </trkpt>
      <trkpt lat="43.82332" lon="7.2696">
        <ele>657.3</ele>
        <time>2012-04-19T09:00:17Z</time>
      </trkpt>
      <trkpt lat="43.82339" lon="7.26963">
        <ele>659.9</ele>
        <time>2012-04-19T09:00:25Z</time>
      </trkpt>
      <trkpt lat="43.82348" lon="7.26967">
        <ele>662.2</ele>
        <time>2012-04-19T09:00:32Z</time>
      </trkpt>
      <trkpt lat="43.82349" lon="7.26968">
        <ele>662.3</ele>
        <time>2012-04-19T09:00:33Z</time>
      </trkpt>
      <trkpt lat="43.8236" lon="7.26981">
        <ele>663.3</ele>
        <time>2012-04-19T09:00:45Z</time>
      </trkpt>
      <trkpt lat="43.82364" lon="7.26993">
        <ele>664.8</ele>
        <time>2012-04-19T09:00:50Z</time>
      </trkpt>
      <trkpt lat="43.82368" lon="7.27002">
        <ele>664.8</ele>
        <time>2012-04-19T09:00:53Z</time>
      </trkpt>
      <trkpt lat="43.82374" lon="7.27006">
        <ele>664.4</ele>
        <time>2012-04-19T09:00:56Z</time>
      </trkpt>
      <trkpt lat="43.82379" lon="7.27009">
        <ele>664.4</ele>
        <time>2012-04-19T09:00:58Z</time>
      </trkpt>
      <trkpt lat="43.82385" lon="7.27013">
        <ele>664.3</ele>
        <time>2012-04-19T09:01:00Z</time>
      </trkpt>
      <trkpt lat="43.82392" lon="7.27017">
        <ele>664.3</ele>
        <time>2012-04-19T09:01:02Z</time>
      </trkpt>
      <trkpt lat="43.82399" lon="7.27022">
        <ele>664.5</ele>
        <time>2012-04-19T09:01:04Z</time>
      </trkpt>
      <trkpt lat="43.82406" lon="7.27027">
        <ele>664.7</ele>
        <time>2012-04-19T09:01:07Z</time>
      </trkpt>
      <trkpt lat="43.82412" lon="7.27029">
        <ele>664.6</ele>
        <time>2012-04-19T09:01:09Z</time>
      </trkpt>
      <trkpt lat="43.82419" lon="7.27028">
        <ele>664.4</ele>
        <time>2012-04-19T09:01:11Z</time>
      </trkpt>
      <trkpt lat="43.82426" lon="7.27026">
        <ele>664.1</ele>
        <time>2012-04-19T09:01:13Z</time>
      </trkpt>
      <trkpt lat="43.82434" lon="7.27025">
        <ele>664.3</ele>
        <time>2012-04-19T09:01:15Z</time>
      </trkpt>
      <trkpt lat="43.82441" lon="7.27022">
        <ele>664.2</ele>
        <time>2012-04-19T09:01:17Z</time>
      </trkpt>
      <trkpt lat="43.82448" lon="7.2702">
        <ele>663.5</ele>
        <time>2012-04-19T09:01:19Z</time>
      </trkpt>
      <trkpt lat="43.82457" lon="7.27017">
        <ele>662.7</ele>
        <time>2012-04-19T09:01:21Z</time>
      </trkpt>
      <trkpt lat="43.82461" lon="7.27016">
        <ele>662.4</ele>
        <time>2012-04-19T09:01:22Z</time>
      </trkpt>
      <trkpt lat="43.8247" lon="7.27015">
        <ele>661.9</ele>
        <time>2012-04-19T09:01:24Z</time>
      </trkpt>
      <trkpt lat="43.82477" lon="7.27012">
        <ele>661.3</ele>
        <time>2012-04-19T09:01:26Z</time>
      </trkpt>
      <trkpt lat="43.82484" lon="7.27008">
        <ele>661</ele>
        <time>2012-04-19T09:01:28Z</time>
      </trkpt>
      <trkpt lat="43.82491" lon="7.27008">
        <ele>660.4</ele>
        <time>2012-04-19T09:01:30Z</time>
      </trkpt>
      <trkpt lat="43.82499" lon="7.27004">
        <ele>660.6</ele>
        <time>2012-04-19T09:01:34Z</time>
      </trkpt>
      <trkpt lat="43.82501" lon="7.27004">
        <ele>660.8</ele>
        <time>2012-04-19T09:01:35Z</time>
      </trkpt>
      <trkpt lat="43.82512" lon="7.27006">
        <ele>662</ele>
        <time>2012-04-19T09:01:40Z</time>
      </trkpt>
      <trkpt lat="43.82519" lon="7.27009">
        <ele>662</ele>
        <time>2012-04-19T09:01:43Z</time>
      </trkpt>
      <trkpt lat="43.82527" lon="7.27009">
        <ele>663</ele>
        <time>2012-04-19T09:01:47Z</time>
      </trkpt>
      <trkpt lat="43.82536" lon="7.27008">
        <ele>663.3</ele>
        <time>2012-04-19T09:01:51Z</time>
      </trkpt>
      <trkpt lat="43.82542" lon="7.27005">
        <ele>663.9</ele>
        <time>2012-04-19T09:01:54Z</time>
      </trkpt>
      <trkpt lat="43.82549" lon="7.27002">
        <ele>664.1</ele>
        <time>2012-04-19T09:01:57Z</time>
      </trkpt>
      <trkpt lat="43.82557" lon="7.26998">
        <ele>665.1</ele>
        <time>2012-04-19T09:02:02Z</time>
      </trkpt>
      <trkpt lat="43.82564" lon="7.26993">
        <ele>665.7</ele>
        <time>2012-04-19T09:02:07Z</time>
      </trkpt>
      <trkpt lat="43.82571" lon="7.26993">
        <ele>666.4</ele>
        <time>2012-04-19T09:02:10Z</time>
      </trkpt>
      <trkpt lat="43.82579" lon="7.26986">
        <ele>666.6</ele>
        <time>2012-04-19T09:02:14Z</time>
      </trkpt>
      <trkpt lat="43.82583" lon="7.2698">
        <ele>666.9</ele>
        <time>2012-04-19T09:02:16Z</time>
      </trkpt>
      <trkpt lat="43.82589" lon="7.26973">
        <ele>666.6</ele>
        <time>2012-04-19T09:02:18Z</time>
      </trkpt>
      <trkpt lat="43.82597" lon="7.26969">
        <ele>666</ele>
        <time>2012-04-19T09:02:20Z</time>
      </trkpt>
      <trkpt lat="43.82604" lon="7.26967">
        <ele>664.5</ele>
        <time>2012-04-19T09:02:22Z</time>
      </trkpt>
      <trkpt lat="43.82611" lon="7.26966">
        <ele>664.5</ele>
        <time>2012-04-19T09:02:25Z</time>
      </trkpt>
      <trkpt lat="43.82619" lon="7.26967">
        <ele>666.1</ele>
        <time>2012-04-19T09:02:29Z</time>
      </trkpt>
      <trkpt lat="43.82627" lon="7.26969">
        <ele>667.1</ele>
        <time>2012-04-19T09:02:35Z</time>
      </trkpt>
      <trkpt lat="43.82628" lon="7.26969">
        <ele>667.2</ele>
        <time>2012-04-19T09:02:36Z</time>
      </trkpt>
      <trkpt lat="43.82643" lon="7.26973">
        <ele>674.5</ele>
        <time>2012-04-19T09:03:15Z</time>
      </trkpt>
      <trkpt lat="43.8265" lon="7.26981">
        <ele>679.8</ele>
        <time>2012-04-19T09:03:34Z</time>
      </trkpt>
      <trkpt lat="43.82646" lon="7.26991">
        <ele>682.9</ele>
        <time>2012-04-19T09:03:53Z</time>
      </trkpt>
      <trkpt lat="43.82645" lon="7.26992">
        <ele>683.1</ele>
        <time>2012-04-19T09:03:54Z</time>
      </trkpt>
      <trkpt lat="43.82641" lon="7.27015">
        <ele>687.1</ele>
        <time>2012-04-19T09:04:17Z</time>
      </trkpt>
      <trkpt lat="43.82636" lon="7.27024">
        <ele>690.2</ele>
        <time>2012-04-19T09:04:30Z</time>
      </trkpt>
      <trkpt lat="43.82643" lon="7.2703">
        <ele>694</ele>
        <time>2012-04-19T09:04:47Z</time>
      </trkpt>
      <trkpt lat="43.82651" lon="7.27034">
        <ele>695.8</ele>
        <time>2012-04-19T09:05:00Z</time>
      </trkpt>
      <trkpt lat="43.82652" lon="7.27034">
        <ele>696.1</ele>
        <time>2012-04-19T09:05:01Z</time>
      </trkpt>
      <trkpt lat="43.82651" lon="7.27053">
        <ele>702.5</ele>
        <time>2012-04-19T09:05:36Z</time>
      </trkpt>
      <trkpt lat="43.82646" lon="7.27062">
        <ele>704.4</ele>
        <time>2012-04-19T09:05:43Z</time>
      </trkpt>
      <trkpt lat="43.82641" lon="7.27073">
        <ele>705.5</ele>
        <time>2012-04-19T09:05:51Z</time>
      </trkpt>
      <trkpt lat="43.82638" lon="7.27084">
        <ele>708.3</ele>
        <time>2012-04-19T09:06:07Z</time>
      </trkpt>
      <trkpt lat="43.82638" lon="7.27084">
        <ele>708.4</ele>
        <time>2012-04-19T09:06:08Z</time>
      </trkpt>
      <trkpt lat="43.82632" lon="7.27106">
        <ele>716.8</ele>
        <time>2012-04-19T09:06:49Z</time>
      </trkpt>
      <trkpt lat="43.82631" lon="7.27118">
        <ele>722.6</ele>
        <time>2012-04-19T09:07:12Z</time>
      </trkpt>
      <trkpt lat="43.8263" lon="7.27119">
        <ele>723.3</ele>
        <time>2012-04-19T09:07:13Z</time>
      </trkpt>
      <trkpt lat="43.82636" lon="7.27138">
        <ele>733.3</ele>
        <time>2012-04-19T09:08:01Z</time>
      </trkpt>
      <trkpt lat="43.82644" lon="7.27144">
        <ele>735.4</ele>
        <time>2012-04-19T09:08:12Z</time>
      </trkpt>
      <trkpt lat="43.82652" lon="7.27151">
        <ele>737.3</ele>
        <time>2012-04-19T09:09:00Z</time>
      </trkpt>
      <trkpt lat="43.82652" lon="7.27151">
        <ele>737.4</ele>
        <time>2012-04-19T09:09:01Z</time>
      </trkpt>
      <trkpt lat="43.82669" lon="7.27151">
        <ele>740.9</ele>
        <time>2012-04-19T09:09:26Z</time>
      </trkpt>
      <trkpt lat="43.82678" lon="7.27152">
        <ele>741.3</ele>
        <time>2012-04-19T09:09:40Z</time>
      </trkpt>
      <trkpt lat="43.82686" lon="7.27153">
        <ele>744.9</ele>
        <time>2012-04-19T09:09:54Z</time>
      </trkpt>
      <trkpt lat="43.82694" lon="7.27157">
        <ele>747.5</ele>
        <time>2012-04-19T09:10:09Z</time>
      </trkpt>
      <trkpt lat="43.82695" lon="7.27158">
        <ele>747.5</ele>
        <time>2012-04-19T09:10:10Z</time>
      </trkpt>
      <trkpt lat="43.82711" lon="7.27162">
        <ele>752.6</ele>
        <time>2012-04-19T09:10:35Z</time>
      </trkpt>
      <trkpt lat="43.82719" lon="7.27161">
        <ele>754.4</ele>
        <time>2012-04-19T09:10:46Z</time>
      </trkpt>
      <trkpt lat="43.82727" lon="7.27159">
        <ele>756.5</ele>
        <time>2012-04-19T09:10:56Z</time>
      </trkpt>
      <trkpt lat="43.82736" lon="7.27159">
        <ele>757.5</ele>
        <time>2012-04-19T09:11:08Z</time>
      </trkpt>
      <trkpt lat="43.82745" lon="7.27158">
        <ele>759.5</ele>
        <time>2012-04-19T09:11:19Z</time>
      </trkpt>
      <trkpt lat="43.82745" lon="7.27158">
        <ele>759.7</ele>
        <time>2012-04-19T09:11:20Z</time>
      </trkpt>
      <trkpt lat="43.82761" lon="7.27157">
        <ele>765.5</ele>
        <time>2012-04-19T09:11:44Z</time>
      </trkpt>
      <trkpt lat="43.8277" lon="7.27155">
        <ele>767.3</ele>
        <time>2012-04-19T09:11:55Z</time>
      </trkpt>
      <trkpt lat="43.82778" lon="7.27155">
        <ele>770.4</ele>
        <time>2012-04-19T09:12:07Z</time>
      </trkpt>
      <trkpt lat="43.82787" lon="7.27153">
        <ele>773.1</ele>
        <time>2012-04-19T09:12:21Z</time>
      </trkpt>
      <trkpt lat="43.82796" lon="7.27151">
        <ele>774.9</ele>
        <time>2012-04-19T09:12:34Z</time>
      </trkpt>
      <trkpt lat="43.82797" lon="7.27151">
        <ele>775.3</ele>
        <time>2012-04-19T09:12:35Z</time>
      </trkpt>
      <trkpt lat="43.82813" lon="7.27151">
        <ele>779.5</ele>
        <time>2012-04-19T09:12:59Z</time>
      </trkpt>
      <trkpt lat="43.82821" lon="7.27153">
        <ele>782</ele>
        <time>2012-04-19T09:13:11Z</time>
      </trkpt>
      <trkpt lat="43.8283" lon="7.27155">
        <ele>783.5</ele>
        <time>2012-04-19T09:13:25Z</time>
      </trkpt>
      <trkpt lat="43.82838" lon="7.27159">
        <ele>784.7</ele>
        <time>2012-04-19T09:13:32Z</time>
      </trkpt>
      <trkpt lat="43.82845" lon="7.27164">
        <ele>786</ele>
        <time>2012-04-19T09:13:39Z</time>
      </trkpt>
      <trkpt lat="43.82846" lon="7.27165">
        <ele>786.4</ele>
        <time>2012-04-19T09:13:40Z</time>
      </trkpt>
      <trkpt lat="43.82859" lon="7.27171">
        <ele>787</ele>
        <time>2012-04-19T09:13:49Z</time>
      </trkpt>
      <trkpt lat="43.82866" lon="7.27178">
        <ele>787.2</ele>
        <time>2012-04-19T09:13:54Z</time>
      </trkpt>
      <trkpt lat="43.82873" lon="7.27185">
        <ele>788.6</ele>
        <time>2012-04-19T09:14:00Z</time>
      </trkpt>
      <trkpt lat="43.8288" lon="7.27189">
        <ele>788.7</ele>
        <time>2012-04-19T09:14:04Z</time>
      </trkpt>
      <trkpt lat="43.82888" lon="7.27194">
        <ele>788.4</ele>
        <time>2012-04-19T09:14:09Z</time>
      </trkpt>
      <trkpt lat="43.82895" lon="7.27197">
        <ele>789.4</ele>
        <time>2012-04-19T09:14:13Z</time>
      </trkpt>
      <trkpt lat="43.82902" lon="7.27203">
        <ele>789.8</ele>
        <time>2012-04-19T09:14:18Z</time>
      </trkpt>
      <trkpt lat="43.8291" lon="7.27206">
        <ele>790</ele>
        <time>2012-04-19T09:14:24Z</time>
      </trkpt>
      <trkpt lat="43.82918" lon="7.27211">
        <ele>792.2</ele>
        <time>2012-04-19T09:14:31Z</time>
      </trkpt>
      <trkpt lat="43.82925" lon="7.27216">
        <ele>794.3</ele>
        <time>2012-04-19T09:14:37Z</time>
      </trkpt>
      <trkpt lat="43.82933" lon="7.27218">
        <ele>794.9</ele>
        <time>2012-04-19T09:14:42Z</time>
      </trkpt>
      <trkpt lat="43.82935" lon="7.27219">
        <ele>795.3</ele>
        <time>2012-04-19T09:14:43Z</time>
      </trkpt>
      <trkpt lat="43.82948" lon="7.27225">
        <ele>796.8</ele>
        <time>2012-04-19T09:14:52Z</time>
      </trkpt>
      <trkpt lat="43.82956" lon="7.27228">
        <ele>798.5</ele>
        <time>2012-04-19T09:14:58Z</time>
      </trkpt>
      <trkpt lat="43.82964" lon="7.27229">
        <ele>799.3</ele>
        <time>2012-04-19T09:15:03Z</time>
      </trkpt>
      <trkpt lat="43.82973" lon="7.27232">
        <ele>800.2</ele>
        <time>2012-04-19T09:15:09Z</time>
      </trkpt>
      <trkpt lat="43.82982" lon="7.27233">
        <ele>800.9</ele>
        <time>2012-04-19T09:15:15Z</time>
      </trkpt>
      <trkpt lat="43.8299" lon="7.27233">
        <ele>804.6</ele>
        <time>2012-04-19T09:15:27Z</time>
      </trkpt>
      <trkpt lat="43.82998" lon="7.27234">
        <ele>806.5</ele>
        <time>2012-04-19T09:15:38Z</time>
      </trkpt>
      <trkpt lat="43.83007" lon="7.27232">
        <ele>807.9</ele>
        <time>2012-04-19T09:15:48Z</time>
      </trkpt>
      <trkpt lat="43.83008" lon="7.27232">
        <ele>808</ele>
        <time>2012-04-19T09:15:49Z</time>
      </trkpt>
      <trkpt lat="43.83024" lon="7.27229">
        <ele>811.5</ele>
        <time>2012-04-19T09:16:10Z</time>
      </trkpt>
      <trkpt lat="43.83032" lon="7.27228">
        <ele>814.5</ele>
        <time>2012-04-19T09:16:20Z</time>
      </trkpt>
      <trkpt lat="43.8304" lon="7.27224">
        <ele>815.8</ele>
        <time>2012-04-19T09:16:30Z</time>
      </trkpt>
      <trkpt lat="43.83049" lon="7.27224">
        <ele>818.3</ele>
        <time>2012-04-19T09:16:41Z</time>
      </trkpt>
      <trkpt lat="43.83058" lon="7.27225">
        <ele>819.9</ele>
        <time>2012-04-19T09:16:54Z</time>
      </trkpt>
      <trkpt lat="43.83058" lon="7.27226">
        <ele>820.4</ele>
        <time>2012-04-19T09:16:55Z</time>
      </trkpt>
      <trkpt lat="43.83075" lon="7.27226">
        <ele>827</ele>
        <time>2012-04-19T09:17:24Z</time>
      </trkpt>
      <trkpt lat="43.83083" lon="7.27228">
        <ele>828.6</ele>
        <time>2012-04-19T09:17:33Z</time>
      </trkpt>
      <trkpt lat="43.8309" lon="7.27232">
        <ele>829.7</ele>
        <time>2012-04-19T09:17:43Z</time>
      </trkpt>
      <trkpt lat="43.83097" lon="7.27236">
        <ele>830.4</ele>
        <time>2012-04-19T09:17:47Z</time>
      </trkpt>
      <trkpt lat="43.83103" lon="7.27237">
        <ele>830.8</ele>
        <time>2012-04-19T09:17:50Z</time>
      </trkpt>
      <trkpt lat="43.83111" lon="7.27238">
        <ele>829.5</ele>
        <time>2012-04-19T09:17:53Z</time>
      </trkpt>
      <trkpt lat="43.83119" lon="7.27242">
        <ele>827.7</ele>
        <time>2012-04-19T09:17:57Z</time>
      </trkpt>
      <trkpt lat="43.8312" lon="7.27245">
        <ele>827.4</ele>
        <time>2012-04-19T09:17:58Z</time>
      </trkpt>
      <trkpt lat="43.83134" lon="7.27252">
        <ele>830.3</ele>
        <time>2012-04-19T09:18:08Z</time>
      </trkpt>
      <trkpt lat="43.83142" lon="7.27256">
        <ele>832.6</ele>
        <time>2012-04-19T09:18:17Z</time>
      </trkpt>
      <trkpt lat="43.8315" lon="7.27262">
        <ele>833.4</ele>
        <time>2012-04-19T09:18:29Z</time>
      </trkpt>
      <trkpt lat="43.83158" lon="7.27267">
        <ele>835.7</ele>
        <time>2012-04-19T09:18:41Z</time>
      </trkpt>
      <trkpt lat="43.83166" lon="7.27272">
        <ele>837.6</ele>
        <time>2012-04-19T09:18:52Z</time>
      </trkpt>
      <trkpt lat="43.83174" lon="7.27275">
        <ele>839.8</ele>
        <time>2012-04-19T09:19:02Z</time>
      </trkpt>
      <trkpt lat="43.83175" lon="7.27275">
        <ele>840.2</ele>
        <time>2012-04-19T09:19:03Z</time>
      </trkpt>
      <trkpt lat="43.8319" lon="7.27282">
        <ele>840.8</ele>
        <time>2012-04-19T09:19:19Z</time>
      </trkpt>
      <trkpt lat="43.83199" lon="7.27285">
        <ele>843.8</ele>
        <time>2012-04-19T09:19:31Z</time>
      </trkpt>
      <trkpt lat="43.83207" lon="7.27289">
        <ele>846.4</ele>
        <time>2012-04-19T09:19:46Z</time>
      </trkpt>
      <trkpt lat="43.83215" lon="7.27292">
        <ele>847.4</ele>
        <time>2012-04-19T09:19:57Z</time>
      </trkpt>
      <trkpt lat="43.83224" lon="7.27293">
        <ele>850.1</ele>
        <time>2012-04-19T09:20:13Z</time>
      </trkpt>
      <trkpt lat="43.83224" lon="7.27294">
        <ele>850.3</ele>
        <time>2012-04-19T09:20:14Z</time>
      </trkpt>
      <trkpt lat="43.83241" lon="7.273">
        <ele>856.9</ele>
        <time>2012-04-19T09:20:49Z</time>
      </trkpt>
      <trkpt lat="43.83248" lon="7.27306">
        <ele>860.8</ele>
        <time>2012-04-19T09:21:06Z</time>
      </trkpt>
      <trkpt lat="43.83256" lon="7.27309">
        <ele>865.2</ele>
        <time>2012-04-19T09:21:22Z</time>
      </trkpt>
      <trkpt lat="43.83257" lon="7.2731">
        <ele>865.5</ele>
        <time>2012-04-19T09:21:23Z</time>
      </trkpt>
      <trkpt lat="43.83264" lon="7.27325">
        <ele>871.1</ele>
        <time>2012-04-19T09:21:52Z</time>
      </trkpt>
      <trkpt lat="43.83271" lon="7.27332">
        <ele>876.2</ele>
        <time>2012-04-19T09:22:14Z</time>
      </trkpt>
      <trkpt lat="43.83279" lon="7.27338">
        <ele>879.3</ele>
        <time>2012-04-19T09:22:31Z</time>
      </trkpt>
      <trkpt lat="43.83279" lon="7.27338">
        <ele>879.5</ele>
        <time>2012-04-19T09:22:32Z</time>
      </trkpt>
      <trkpt lat="43.83292" lon="7.27352">
        <ele>887.5</ele>
        <time>2012-04-19T09:23:13Z</time>
      </trkpt>
      <trkpt lat="43.83297" lon="7.27361">
        <ele>890.6</ele>
        <time>2012-04-19T09:23:26Z</time>
      </trkpt>
      <trkpt lat="43.83299" lon="7.27373">
        <ele>892.3</ele>
        <time>2012-04-19T09:23:38Z</time>
      </trkpt>
      <trkpt lat="43.83299" lon="7.27374">
        <ele>892.5</ele>
        <time>2012-04-19T09:23:39Z</time>
      </trkpt>
      <trkpt lat="43.8331" lon="7.27389">
        <ele>896.5</ele>
        <time>2012-04-19T09:23:58Z</time>
      </trkpt>
      <trkpt lat="43.83319" lon="7.2739">
        <ele>897.2</ele>
        <time>2012-04-19T09:24:08Z</time>
      </trkpt>
      <trkpt lat="43.83328" lon="7.27391">
        <ele>898.2</ele>
        <time>2012-04-19T09:24:19Z</time>
      </trkpt>
      <trkpt lat="43.83336" lon="7.27397">
        <ele>898.7</ele>
        <time>2012-04-19T09:30:32Z</time>
      </trkpt>
      <trkpt lat="43.83337" lon="7.27397">
        <ele>898.9</ele>
        <time>2012-04-19T09:30:33Z</time>
      </trkpt>
      <trkpt lat="43.83349" lon="7.27393">
        <ele>898</ele>
        <time>2012-04-19T09:30:38Z</time>
      </trkpt>
      <trkpt lat="43.83358" lon="7.27392">
        <ele>897.3</ele>
        <time>2012-04-19T09:30:40Z</time>
      </trkpt>
      <trkpt lat="43.83366" lon="7.27391">
        <ele>896.6</ele>
        <time>2012-04-19T09:30:42Z</time>
      </trkpt>
      <trkpt lat="43.83373" lon="7.27391">
        <ele>895.8</ele>
        <time>2012-04-19T09:30:44Z</time>
      </trkpt>
      <trkpt lat="43.83381" lon="7.27392">
        <ele>891.1</ele>
        <time>2012-04-19T09:30:49Z</time>
      </trkpt>
      <trkpt lat="43.83389" lon="7.27392">
        <ele>889</ele>
        <time>2012-04-19T09:30:52Z</time>
      </trkpt>
      <trkpt lat="43.83397" lon="7.27389">
        <ele>887.6</ele>
        <time>2012-04-19T09:30:54Z</time>
      </trkpt>
      <trkpt lat="43.83403" lon="7.27391">
        <ele>886.4</ele>
        <time>2012-04-19T09:30:56Z</time>
      </trkpt>
      <trkpt lat="43.83411" lon="7.27396">
        <ele>883.1</ele>
        <time>2012-04-19T09:31:00Z</time>
      </trkpt>
      <trkpt lat="43.83406" lon="7.27405">
        <ele>879.6</ele>
        <time>2012-04-19T09:31:05Z</time>
      </trkpt>
      <trkpt lat="43.83405" lon="7.27418">
        <ele>875.4</ele>
        <time>2012-04-19T09:31:11Z</time>
      </trkpt>
      <trkpt lat="43.83411" lon="7.27427">
        <ele>873.2</ele>
        <time>2012-04-19T09:31:15Z</time>
      </trkpt>
      <trkpt lat="43.83416" lon="7.27434">
        <ele>871.2</ele>
        <time>2012-04-19T09:31:18Z</time>
      </trkpt>
      <trkpt lat="43.83417" lon="7.27446">
        <ele>866.8</ele>
        <time>2012-04-19T09:31:25Z</time>
      </trkpt>
      <trkpt lat="43.83418" lon="7.27457">
        <ele>865.1</ele>
        <time>2012-04-19T09:31:28Z</time>
      </trkpt>
      <trkpt lat="43.83418" lon="7.27468">
        <ele>863.2</ele>
        <time>2012-04-19T09:31:31Z</time>
      </trkpt>
      <trkpt lat="43.83421" lon="7.27476">
        <ele>862.1</ele>
        <time>2012-04-19T09:31:33Z</time>
      </trkpt>
      <trkpt lat="43.83423" lon="7.2748">
        <ele>861.6</ele>
        <time>2012-04-19T09:31:34Z</time>
      </trkpt>
      <trkpt lat="43.83431" lon="7.27492">
        <ele>859.6</ele>
        <time>2012-04-19T09:31:38Z</time>
      </trkpt>
      <trkpt lat="43.83439" lon="7.27496">
        <ele>858.2</ele>
        <time>2012-04-19T09:31:42Z</time>
      </trkpt>
      <trkpt lat="43.83444" lon="7.27506">
        <ele>856.5</ele>
        <time>2012-04-19T09:31:51Z</time>
      </trkpt>
      <trkpt lat="43.83451" lon="7.27513">
        <ele>857</ele>
        <time>2012-04-19T09:31:58Z</time>
      </trkpt>
      <trkpt lat="43.83456" lon="7.27521">
        <ele>856.4</ele>
        <time>2012-04-19T09:32:02Z</time>
      </trkpt>
      <trkpt lat="43.83462" lon="7.27526">
        <ele>856.1</ele>
        <time>2012-04-19T09:32:05Z</time>
      </trkpt>
      <trkpt lat="43.83471" lon="7.2753">
        <ele>856.6</ele>
        <time>2012-04-19T09:32:08Z</time>
      </trkpt>
      <trkpt lat="43.83478" lon="7.27534">
        <ele>857</ele>
        <time>2012-04-19T09:32:10Z</time>
      </trkpt>
      <trkpt lat="43.83485" lon="7.27537">
        <ele>855.7</ele>
        <time>2012-04-19T09:32:12Z</time>
      </trkpt>
      <trkpt lat="43.83493" lon="7.2754">
        <ele>854.7</ele>
        <time>2012-04-19T09:32:14Z</time>
      </trkpt>
      <trkpt lat="43.83498" lon="7.27546">
        <ele>854</ele>
        <time>2012-04-19T09:32:16Z</time>
      </trkpt>
      <trkpt lat="43.83504" lon="7.27554">
        <ele>853.1</ele>
        <time>2012-04-19T09:32:18Z</time>
      </trkpt>
      <trkpt lat="43.83508" lon="7.27562">
        <ele>852.1</ele>
        <time>2012-04-19T09:32:20Z</time>
      </trkpt>
      <trkpt lat="43.83513" lon="7.2757">
        <ele>851.4</ele>
        <time>2012-04-19T09:32:22Z</time>
      </trkpt>
      <trkpt lat="43.8352" lon="7.27578">
        <ele>850.4</ele>
        <time>2012-04-19T09:32:24Z</time>
      </trkpt>
      <trkpt lat="43.83527" lon="7.27586">
        <ele>848.8</ele>
        <time>2012-04-19T09:32:26Z</time>
      </trkpt>
      <trkpt lat="43.83533" lon="7.27591">
        <ele>846.1</ele>
        <time>2012-04-19T09:32:29Z</time>
      </trkpt>
      <trkpt lat="43.83537" lon="7.27597">
        <ele>844.5</ele>
        <time>2012-04-19T09:32:31Z</time>
      </trkpt>
      <trkpt lat="43.83543" lon="7.27603">
        <ele>843.1</ele>
        <time>2012-04-19T09:32:33Z</time>
      </trkpt>
      <trkpt lat="43.83548" lon="7.27612">
        <ele>841.4</ele>
        <time>2012-04-19T09:32:35Z</time>
      </trkpt>
      <trkpt lat="43.83552" lon="7.27615">
        <ele>840.9</ele>
        <time>2012-04-19T09:32:36Z</time>
      </trkpt>
      <trkpt lat="43.83559" lon="7.27627">
        <ele>839.2</ele>
        <time>2012-04-19T09:32:39Z</time>
      </trkpt>
      <trkpt lat="43.83565" lon="7.27635">
        <ele>838.1</ele>
        <time>2012-04-19T09:32:41Z</time>
      </trkpt>
      <trkpt lat="43.83571" lon="7.27639">
        <ele>836.3</ele>
        <time>2012-04-19T09:32:43Z</time>
      </trkpt>
      <trkpt lat="43.83579" lon="7.27645">
        <ele>833.5</ele>
        <time>2012-04-19T09:32:46Z</time>
      </trkpt>
      <trkpt lat="43.83583" lon="7.27656">
        <ele>831.9</ele>
        <time>2012-04-19T09:32:49Z</time>
      </trkpt>
      <trkpt lat="43.83574" lon="7.27661">
        <ele>829.3</ele>
        <time>2012-04-19T09:32:53Z</time>
      </trkpt>
      <trkpt lat="43.83569" lon="7.2767">
        <ele>824</ele>
        <time>2012-04-19T09:33:01Z</time>
      </trkpt>
      <trkpt lat="43.83573" lon="7.2768">
        <ele>822.5</ele>
        <time>2012-04-19T09:33:04Z</time>
      </trkpt>
      <trkpt lat="43.83573" lon="7.27689">
        <ele>820.5</ele>
        <time>2012-04-19T09:33:06Z</time>
      </trkpt>
      <trkpt lat="43.83574" lon="7.27701">
        <ele>817.6</ele>
        <time>2012-04-19T09:33:09Z</time>
      </trkpt>
      <trkpt lat="43.83573" lon="7.27711">
        <ele>811.2</ele>
        <time>2012-04-19T09:33:17Z</time>
      </trkpt>
      <trkpt lat="43.83577" lon="7.27719">
        <ele>808.1</ele>
        <time>2012-04-19T09:33:22Z</time>
      </trkpt>
      <trkpt lat="43.83575" lon="7.2773">
        <ele>802.4</ele>
        <time>2012-04-19T09:33:30Z</time>
      </trkpt>
      <trkpt lat="43.83569" lon="7.27733">
        <ele>801.7</ele>
        <time>2012-04-19T09:33:32Z</time>
      </trkpt>
      <trkpt lat="43.83563" lon="7.27736">
        <ele>800.8</ele>
        <time>2012-04-19T09:33:34Z</time>
      </trkpt>
      <trkpt lat="43.83558" lon="7.27741">
        <ele>799.3</ele>
        <time>2012-04-19T09:33:36Z</time>
      </trkpt>
      <trkpt lat="43.83555" lon="7.27744">
        <ele>798.6</ele>
        <time>2012-04-19T09:33:37Z</time>
      </trkpt>
      <trkpt lat="43.83549" lon="7.27756">
        <ele>792.4</ele>
        <time>2012-04-19T09:33:47Z</time>
      </trkpt>
      <trkpt lat="43.83543" lon="7.27763">
        <ele>790.3</ele>
        <time>2012-04-19T09:33:51Z</time>
      </trkpt>
      <trkpt lat="43.83537" lon="7.27769">
        <ele>787.2</ele>
        <time>2012-04-19T09:33:55Z</time>
      </trkpt>
      <trkpt lat="43.83529" lon="7.2777">
        <ele>786.6</ele>
        <time>2012-04-19T09:33:59Z</time>
      </trkpt>
      <trkpt lat="43.83521" lon="7.27769">
        <ele>786</ele>
        <time>2012-04-19T09:34:03Z</time>
      </trkpt>
      <trkpt lat="43.83514" lon="7.2777">
        <ele>786.2</ele>
        <time>2012-04-19T09:34:06Z</time>
      </trkpt>
      <trkpt lat="43.83507" lon="7.27771">
        <ele>786.2</ele>
        <time>2012-04-19T09:34:09Z</time>
      </trkpt>
      <trkpt lat="43.83498" lon="7.27769">
        <ele>786.2</ele>
        <time>2012-04-19T09:34:13Z</time>
      </trkpt>
      <trkpt lat="43.8349" lon="7.27765">
        <ele>788.3</ele>
        <time>2012-04-19T09:35:30Z</time>
      </trkpt>
      <trkpt lat="43.83489" lon="7.27765">
        <ele>789</ele>
        <time>2012-04-19T09:35:31Z</time>
      </trkpt>
      <trkpt lat="43.83473" lon="7.27765">
        <ele>787.9</ele>
        <time>2012-04-19T09:35:41Z</time>
      </trkpt>
      <trkpt lat="43.83465" lon="7.27763">
        <ele>788.4</ele>
        <time>2012-04-19T09:35:44Z</time>
      </trkpt>
      <trkpt lat="43.83457" lon="7.27762">
        <ele>790.1</ele>
        <time>2012-04-19T09:35:48Z</time>
      </trkpt>
      <trkpt lat="43.83449" lon="7.27762">
        <ele>793.2</ele>
        <time>2012-04-19T09:35:59Z</time>
      </trkpt>
      <trkpt lat="43.83441" lon="7.27757">
        <ele>794.1</ele>
        <time>2012-04-19T09:36:18Z</time>
      </trkpt>
      <trkpt lat="43.83433" lon="7.27756">
        <ele>797.8</ele>
        <time>2012-04-19T09:36:30Z</time>
      </trkpt>
      <trkpt lat="43.83424" lon="7.27757">
        <ele>800.6</ele>
        <time>2012-04-19T09:36:42Z</time>
      </trkpt>
      <trkpt lat="43.83423" lon="7.27756">
        <ele>800.5</ele>
        <time>2012-04-19T09:36:43Z</time>
      </trkpt>
      <trkpt lat="43.83409" lon="7.27751">
        <ele>805</ele>
        <time>2012-04-19T09:39:13Z</time>
      </trkpt>
      <trkpt lat="43.83408" lon="7.2775">
        <ele>805</ele>
        <time>2012-04-19T09:39:14Z</time>
      </trkpt>
      <trkpt lat="43.83404" lon="7.2773">
        <ele>807</ele>
        <time>2012-04-19T09:39:27Z</time>
      </trkpt>
      <trkpt lat="43.83401" lon="7.27718">
        <ele>807.3</ele>
        <time>2012-04-19T09:39:33Z</time>
      </trkpt>
      <trkpt lat="43.83399" lon="7.27707">
        <ele>807.7</ele>
        <time>2012-04-19T09:39:39Z</time>
      </trkpt>
      <trkpt lat="43.83396" lon="7.27696">
        <ele>808.5</ele>
        <time>2012-04-19T09:39:45Z</time>
      </trkpt>
      <trkpt lat="43.83392" lon="7.27685">
        <ele>810.1</ele>
        <time>2012-04-19T09:39:52Z</time>
      </trkpt>
      <trkpt lat="43.83389" lon="7.27674">
        <ele>811.4</ele>
        <time>2012-04-19T09:40:00Z</time>
      </trkpt>
      <trkpt lat="43.83384" lon="7.27665">
        <ele>812.1</ele>
        <time>2012-04-19T09:40:07Z</time>
      </trkpt>
      <trkpt lat="43.83378" lon="7.27657">
        <ele>813.3</ele>
        <time>2012-04-19T09:40:13Z</time>
      </trkpt>
      <trkpt lat="43.83371" lon="7.2765">
        <ele>814.5</ele>
        <time>2012-04-19T09:40:19Z</time>
      </trkpt>
      <trkpt lat="43.8337" lon="7.27649">
        <ele>814.9</ele>
        <time>2012-04-19T09:40:20Z</time>
      </trkpt>
      <trkpt lat="43.83357" lon="7.27638">
        <ele>815.5</ele>
        <time>2012-04-19T09:40:28Z</time>
      </trkpt>
      <trkpt lat="43.83349" lon="7.27634">
        <ele>816.1</ele>
        <time>2012-04-19T09:40:33Z</time>
      </trkpt>
      <trkpt lat="43.83343" lon="7.2763">
        <ele>816.5</ele>
        <time>2012-04-19T09:40:36Z</time>
      </trkpt>
      <trkpt lat="43.83335" lon="7.27626">
        <ele>816.7</ele>
        <time>2012-04-19T09:40:40Z</time>
      </trkpt>
      <trkpt lat="43.83328" lon="7.27625">
        <ele>817</ele>
        <time>2012-04-19T09:40:44Z</time>
      </trkpt>
      <trkpt lat="43.83319" lon="7.27625">
        <ele>817</ele>
        <time>2012-04-19T09:40:49Z</time>
      </trkpt>
      <trkpt lat="43.8331" lon="7.27625">
        <ele>819</ele>
        <time>2012-04-19T09:40:58Z</time>
      </trkpt>
      <trkpt lat="43.83302" lon="7.27622">
        <ele>819.7</ele>
        <time>2012-04-19T09:41:14Z</time>
      </trkpt>
      <trkpt lat="43.83293" lon="7.2762">
        <ele>822.6</ele>
        <time>2012-04-19T09:41:25Z</time>
      </trkpt>
      <trkpt lat="43.83292" lon="7.2762">
        <ele>822.7</ele>
        <time>2012-04-19T09:41:26Z</time>
      </trkpt>
      <trkpt lat="43.83277" lon="7.2761">
        <ele>826.6</ele>
        <time>2012-04-19T09:41:58Z</time>
      </trkpt>
      <trkpt lat="43.83269" lon="7.2761">
        <ele>826.5</ele>
        <time>2012-04-19T09:42:03Z</time>
      </trkpt>
      <trkpt lat="43.8326" lon="7.27611">
        <ele>826.6</ele>
        <time>2012-04-19T09:42:06Z</time>
      </trkpt>
      <trkpt lat="43.83251" lon="7.2761">
        <ele>827.2</ele>
        <time>2012-04-19T09:42:09Z</time>
      </trkpt>
      <trkpt lat="43.83243" lon="7.2761">
        <ele>827.8</ele>
        <time>2012-04-19T09:42:15Z</time>
      </trkpt>
      <trkpt lat="43.83234" lon="7.2761">
        <ele>829.7</ele>
        <time>2012-04-19T09:42:22Z</time>
      </trkpt>
      <trkpt lat="43.83226" lon="7.27606">
        <ele>831.7</ele>
        <time>2012-04-19T09:42:28Z</time>
      </trkpt>
      <trkpt lat="43.83225" lon="7.27605">
        <ele>832.3</ele>
        <time>2012-04-19T09:42:29Z</time>
      </trkpt>
      <trkpt lat="43.83209" lon="7.27606">
        <ele>838.4</ele>
        <time>2012-04-19T09:42:45Z</time>
      </trkpt>
      <trkpt lat="43.83201" lon="7.2761">
        <ele>840.6</ele>
        <time>2012-04-19T09:43:03Z</time>
      </trkpt>
      <trkpt lat="43.83199" lon="7.27622">
        <ele>843.7</ele>
        <time>2012-04-19T09:43:24Z</time>
      </trkpt>
      <trkpt lat="43.83197" lon="7.27633">
        <ele>844</ele>
        <time>2012-04-19T09:43:38Z</time>
      </trkpt>
      <trkpt lat="43.83196" lon="7.27634">
        <ele>844.2</ele>
        <time>2012-04-19T09:43:39Z</time>
      </trkpt>
      <trkpt lat="43.83188" lon="7.27653">
        <ele>846.9</ele>
        <time>2012-04-19T09:43:57Z</time>
      </trkpt>
      <trkpt lat="43.83184" lon="7.27664">
        <ele>848.9</ele>
        <time>2012-04-19T09:44:12Z</time>
      </trkpt>
      <trkpt lat="43.83179" lon="7.27673">
        <ele>851</ele>
        <time>2012-04-19T09:44:25Z</time>
      </trkpt>
      <trkpt lat="43.83174" lon="7.27683">
        <ele>855.1</ele>
        <time>2012-04-19T09:44:43Z</time>
      </trkpt>
      <trkpt lat="43.83173" lon="7.27683">
        <ele>855.7</ele>
        <time>2012-04-19T09:44:44Z</time>
      </trkpt>
      <trkpt lat="43.83161" lon="7.27699">
        <ele>858</ele>
        <time>2012-04-19T09:45:05Z</time>
      </trkpt>
      <trkpt lat="43.83155" lon="7.27706">
        <ele>857.8</ele>
        <time>2012-04-19T09:45:12Z</time>
      </trkpt>
      <trkpt lat="43.8315" lon="7.27714">
        <ele>858.2</ele>
        <time>2012-04-19T09:45:17Z</time>
      </trkpt>
      <trkpt lat="43.83145" lon="7.27721">
        <ele>857.3</ele>
        <time>2012-04-19T09:45:20Z</time>
      </trkpt>
      <trkpt lat="43.8314" lon="7.27728">
        <ele>855.9</ele>
        <time>2012-04-19T09:45:23Z</time>
      </trkpt>
      <trkpt lat="43.83134" lon="7.27736">
        <ele>855.8</ele>
        <time>2012-04-19T09:45:26Z</time>
      </trkpt>
      <trkpt lat="43.83128" lon="7.27742">
        <ele>855.1</ele>
        <time>2012-04-19T09:45:29Z</time>
      </trkpt>
      <trkpt lat="43.8312" lon="7.27746">
        <ele>854.6</ele>
        <time>2012-04-19T09:45:33Z</time>
      </trkpt>
      <trkpt lat="43.83114" lon="7.27747">
        <ele>854.3</ele>
        <time>2012-04-19T09:45:36Z</time>
      </trkpt>
      <trkpt lat="43.83108" lon="7.27747">
        <ele>854.4</ele>
        <time>2012-04-19T09:45:38Z</time>
      </trkpt>
      <trkpt lat="43.83101" lon="7.27747">
        <ele>854.5</ele>
        <time>2012-04-19T09:45:40Z</time>
      </trkpt>
      <trkpt lat="43.83095" lon="7.27746">
        <ele>854.4</ele>
        <time>2012-04-19T09:45:42Z</time>
      </trkpt>
      <trkpt lat="43.83086" lon="7.27748">
        <ele>854.5</ele>
        <time>2012-04-19T09:45:45Z</time>
      </trkpt>
      <trkpt lat="43.83083" lon="7.27749">
        <ele>854.6</ele>
        <time>2012-04-19T09:45:46Z</time>
      </trkpt>
      <trkpt lat="43.83071" lon="7.27751">
        <ele>855</ele>
        <time>2012-04-19T09:45:50Z</time>
      </trkpt>
      <trkpt lat="43.83062" lon="7.27751">
        <ele>855.2</ele>
        <time>2012-04-19T09:45:53Z</time>
      </trkpt>
      <trkpt lat="43.83054" lon="7.27754">
        <ele>856.2</ele>
        <time>2012-04-19T09:45:57Z</time>
      </trkpt>
      <trkpt lat="43.83047" lon="7.27759">
        <ele>856.8</ele>
        <time>2012-04-19T09:46:02Z</time>
      </trkpt>
      <trkpt lat="43.8304" lon="7.27765">
        <ele>859.7</ele>
        <time>2012-04-19T09:46:08Z</time>
      </trkpt>
      <trkpt lat="43.83032" lon="7.27769">
        <ele>860.1</ele>
        <time>2012-04-19T09:46:15Z</time>
      </trkpt>
      <trkpt lat="43.83025" lon="7.27773">
        <ele>860.8</ele>
        <time>2012-04-19T09:46:20Z</time>
      </trkpt>
      <trkpt lat="43.83018" lon="7.2778">
        <ele>861.6</ele>
        <time>2012-04-19T09:46:24Z</time>
      </trkpt>
      <trkpt lat="43.8301" lon="7.27785">
        <ele>862.9</ele>
        <time>2012-04-19T09:46:28Z</time>
      </trkpt>
      <trkpt lat="43.83003" lon="7.2779">
        <ele>863.8</ele>
        <time>2012-04-19T09:46:33Z</time>
      </trkpt>
      <trkpt lat="43.82995" lon="7.27793">
        <ele>864.4</ele>
        <time>2012-04-19T09:46:38Z</time>
      </trkpt>
      <trkpt lat="43.82987" lon="7.27797">
        <ele>864.7</ele>
        <time>2012-04-19T09:46:43Z</time>
      </trkpt>
      <trkpt lat="43.8298" lon="7.27803">
        <ele>865.3</ele>
        <time>2012-04-19T09:46:47Z</time>
      </trkpt>
      <trkpt lat="43.82978" lon="7.27804">
        <ele>865.4</ele>
        <time>2012-04-19T09:46:48Z</time>
      </trkpt>
      <trkpt lat="43.82964" lon="7.27812">
        <ele>867.2</ele>
        <time>2012-04-19T09:46:57Z</time>
      </trkpt>
      <trkpt lat="43.82957" lon="7.27814">
        <ele>867.4</ele>
        <time>2012-04-19T09:47:01Z</time>
      </trkpt>
      <trkpt lat="43.82949" lon="7.27817">
        <ele>868.2</ele>
        <time>2012-04-19T09:47:05Z</time>
      </trkpt>
      <trkpt lat="43.82942" lon="7.27822">
        <ele>869</ele>
        <time>2012-04-19T09:47:10Z</time>
      </trkpt>
      <trkpt lat="43.82935" lon="7.27826">
        <ele>869.5</ele>
        <time>2012-04-19T09:47:14Z</time>
      </trkpt>
      <trkpt lat="43.82928" lon="7.27827">
        <ele>869.7</ele>
        <time>2012-04-19T09:47:17Z</time>
      </trkpt>
      <trkpt lat="43.8292" lon="7.27829">
        <ele>869.4</ele>
        <time>2012-04-19T09:47:21Z</time>
      </trkpt>
      <trkpt lat="43.82912" lon="7.2783">
        <ele>869.1</ele>
        <time>2012-04-19T09:47:24Z</time>
      </trkpt>
      <trkpt lat="43.82904" lon="7.27832">
        <ele>870.3</ele>
        <time>2012-04-19T09:47:28Z</time>
      </trkpt>
      <trkpt lat="43.82896" lon="7.27833">
        <ele>870.3</ele>
        <time>2012-04-19T09:47:31Z</time>
      </trkpt>
      <trkpt lat="43.82888" lon="7.27836">
        <ele>869.7</ele>
        <time>2012-04-19T09:47:35Z</time>
      </trkpt>
      <trkpt lat="43.82879" lon="7.27838">
        <ele>870.7</ele>
        <time>2012-04-19T09:47:41Z</time>
      </trkpt>
      <trkpt lat="43.82871" lon="7.2784">
        <ele>870.3</ele>
        <time>2012-04-19T09:47:48Z</time>
      </trkpt>
      <trkpt lat="43.82863" lon="7.27841">
        <ele>869.7</ele>
        <time>2012-04-19T09:47:55Z</time>
      </trkpt>
      <trkpt lat="43.82862" lon="7.27841">
        <ele>869.6</ele>
        <time>2012-04-19T09:47:56Z</time>
      </trkpt>
      <trkpt lat="43.82846" lon="7.27848">
        <ele>870.5</ele>
        <time>2012-04-19T09:48:24Z</time>
      </trkpt>
      <trkpt lat="43.82837" lon="7.27848">
        <ele>869.9</ele>
        <time>2012-04-19T09:49:00Z</time>
      </trkpt>
      <trkpt lat="43.82837" lon="7.27848">
        <ele>870.1</ele>
        <time>2012-04-19T09:49:01Z</time>
      </trkpt>
      <trkpt lat="43.82821" lon="7.27846">
        <ele>870.9</ele>
        <time>2012-04-19T09:49:11Z</time>
      </trkpt>
      <trkpt lat="43.82813" lon="7.27844">
        <ele>869.9</ele>
        <time>2012-04-19T09:49:14Z</time>
      </trkpt>
      <trkpt lat="43.82806" lon="7.27844">
        <ele>869.2</ele>
        <time>2012-04-19T09:49:16Z</time>
      </trkpt>
      <trkpt lat="43.82798" lon="7.27847">
        <ele>868.8</ele>
        <time>2012-04-19T09:49:18Z</time>
      </trkpt>
      <trkpt lat="43.82789" lon="7.27849">
        <ele>868.1</ele>
        <time>2012-04-19T09:49:20Z</time>
      </trkpt>
      <trkpt lat="43.82785" lon="7.27851">
        <ele>867.4</ele>
        <time>2012-04-19T09:49:21Z</time>
      </trkpt>
      <trkpt lat="43.8278" lon="7.27852">
        <ele>866.9</ele>
        <time>2012-04-19T09:49:22Z</time>
      </trkpt>
      <trkpt lat="43.82774" lon="7.27853">
        <ele>866.4</ele>
        <time>2012-04-19T09:49:23Z</time>
      </trkpt>
      <trkpt lat="43.82769" lon="7.27854">
        <ele>866.1</ele>
        <time>2012-04-19T09:49:24Z</time>
      </trkpt>
      <trkpt lat="43.8276" lon="7.27852">
        <ele>864.9</ele>
        <time>2012-04-19T09:49:26Z</time>
      </trkpt>
      <trkpt lat="43.82752" lon="7.27855">
        <ele>861.1</ele>
        <time>2012-04-19T09:49:51Z</time>
      </trkpt>
      <trkpt lat="43.82744" lon="7.2785">
        <ele>862.6</ele>
        <time>2012-04-19T09:50:01Z</time>
      </trkpt>
      <trkpt lat="43.82743" lon="7.2785">
        <ele>862.7</ele>
        <time>2012-04-19T09:50:02Z</time>
      </trkpt>
      <trkpt lat="43.82731" lon="7.27835">
        <ele>866.1</ele>
        <time>2012-04-19T09:50:28Z</time>
      </trkpt>
      <trkpt lat="43.82727" lon="7.27825">
        <ele>866.7</ele>
        <time>2012-04-19T09:50:35Z</time>
      </trkpt>
      <trkpt lat="43.82724" lon="7.27816">
        <ele>866.6</ele>
        <time>2012-04-19T09:50:39Z</time>
      </trkpt>
      <trkpt lat="43.82721" lon="7.27806">
        <ele>866.7</ele>
        <time>2012-04-19T09:50:43Z</time>
      </trkpt>
      <trkpt lat="43.82718" lon="7.27795">
        <ele>867</ele>
        <time>2012-04-19T09:50:47Z</time>
      </trkpt>
      <trkpt lat="43.82716" lon="7.27784">
        <ele>867.1</ele>
        <time>2012-04-19T09:50:51Z</time>
      </trkpt>
      <trkpt lat="43.82716" lon="7.27774">
        <ele>867.1</ele>
        <time>2012-04-19T09:50:54Z</time>
      </trkpt>
      <trkpt lat="43.82715" lon="7.27764">
        <ele>867.2</ele>
        <time>2012-04-19T09:50:57Z</time>
      </trkpt>
      <trkpt lat="43.82714" lon="7.27754">
        <ele>867.2</ele>
        <time>2012-04-19T09:51:00Z</time>
      </trkpt>
      <trkpt lat="43.82715" lon="7.27742">
        <ele>868.1</ele>
        <time>2012-04-19T09:51:04Z</time>
      </trkpt>
      <trkpt lat="43.82715" lon="7.2774">
        <ele>868.2</ele>
        <time>2012-04-19T09:51:05Z</time>
      </trkpt>
      <trkpt lat="43.82709" lon="7.27724">
        <ele>869.2</ele>
        <time>2012-04-19T09:51:12Z</time>
      </trkpt>
      <trkpt lat="43.82702" lon="7.2772">
        <ele>869.4</ele>
        <time>2012-04-19T09:51:16Z</time>
      </trkpt>
      <trkpt lat="43.82694" lon="7.2772">
        <ele>869.2</ele>
        <time>2012-04-19T09:51:20Z</time>
      </trkpt>
      <trkpt lat="43.82685" lon="7.2772">
        <ele>869.4</ele>
        <time>2012-04-19T09:51:24Z</time>
      </trkpt>
      <trkpt lat="43.82677" lon="7.2772">
        <ele>870.3</ele>
        <time>2012-04-19T09:51:30Z</time>
      </trkpt>
      <trkpt lat="43.82669" lon="7.27721">
        <ele>872.1</ele>
        <time>2012-04-19T09:51:38Z</time>
      </trkpt>
      <trkpt lat="43.82661" lon="7.27717">
        <ele>874.9</ele>
        <time>2012-04-19T09:51:47Z</time>
      </trkpt>
      <trkpt lat="43.82653" lon="7.2772">
        <ele>876.4</ele>
        <time>2012-04-19T09:51:54Z</time>
      </trkpt>
      <trkpt lat="43.82645" lon="7.27717">
        <ele>877.9</ele>
        <time>2012-04-19T09:52:01Z</time>
      </trkpt>
      <trkpt lat="43.82637" lon="7.27715">
        <ele>879.6</ele>
        <time>2012-04-19T09:52:11Z</time>
      </trkpt>
      <trkpt lat="43.82636" lon="7.27715">
        <ele>879.8</ele>
        <time>2012-04-19T09:52:12Z</time>
      </trkpt>
      <trkpt lat="43.82619" lon="7.27714">
        <ele>882.6</ele>
        <time>2012-04-19T09:52:39Z</time>
      </trkpt>
      <trkpt lat="43.82612" lon="7.2771">
        <ele>883</ele>
        <time>2012-04-19T09:52:49Z</time>
      </trkpt>
      <trkpt lat="43.82604" lon="7.27704">
        <ele>882.9</ele>
        <time>2012-04-19T09:52:56Z</time>
      </trkpt>
      <trkpt lat="43.82598" lon="7.27698">
        <ele>883.8</ele>
        <time>2012-04-19T09:53:03Z</time>
      </trkpt>
      <trkpt lat="43.8259" lon="7.27696">
        <ele>884.6</ele>
        <time>2012-04-19T09:53:23Z</time>
      </trkpt>
      <trkpt lat="43.82589" lon="7.27696">
        <ele>884.7</ele>
        <time>2012-04-19T09:53:24Z</time>
      </trkpt>
      <trkpt lat="43.82572" lon="7.27692">
        <ele>886.7</ele>
        <time>2012-04-19T09:54:09Z</time>
      </trkpt>
      <trkpt lat="43.82564" lon="7.27694">
        <ele>893.1</ele>
        <time>2012-04-19T09:54:40Z</time>
      </trkpt>
      <trkpt lat="43.82564" lon="7.27695">
        <ele>893.4</ele>
        <time>2012-04-19T09:54:41Z</time>
      </trkpt>
      <trkpt lat="43.8255" lon="7.27708">
        <ele>899.7</ele>
        <time>2012-04-19T09:55:12Z</time>
      </trkpt>
      <trkpt lat="43.82543" lon="7.27714">
        <ele>902.1</ele>
        <time>2012-04-19T09:55:25Z</time>
      </trkpt>
      <trkpt lat="43.82535" lon="7.2772">
        <ele>903.5</ele>
        <time>2012-04-19T09:55:35Z</time>
      </trkpt>
      <trkpt lat="43.82528" lon="7.27726">
        <ele>904.7</ele>
        <time>2012-04-19T09:55:44Z</time>
      </trkpt>
      <trkpt lat="43.82527" lon="7.27727">
        <ele>904.6</ele>
        <time>2012-04-19T09:55:45Z</time>
      </trkpt>
      <trkpt lat="43.82512" lon="7.27733">
        <ele>905.6</ele>
        <time>2012-04-19T09:56:00Z</time>
      </trkpt>
      <trkpt lat="43.82505" lon="7.2774">
        <ele>905.8</ele>
        <time>2012-04-19T09:56:05Z</time>
      </trkpt>
      <trkpt lat="43.82499" lon="7.27746">
        <ele>905.5</ele>
        <time>2012-04-19T09:56:10Z</time>
      </trkpt>
      <trkpt lat="43.82491" lon="7.27751">
        <ele>905.2</ele>
        <time>2012-04-19T09:56:20Z</time>
      </trkpt>
      <trkpt lat="43.82483" lon="7.27756">
        <ele>904</ele>
        <time>2012-04-19T09:56:38Z</time>
      </trkpt>
      <trkpt lat="43.82475" lon="7.27762">
        <ele>903.8</ele>
        <time>2012-04-19T09:57:02Z</time>
      </trkpt>
      <trkpt lat="43.82475" lon="7.27762">
        <ele>903.8</ele>
        <time>2012-04-19T09:57:03Z</time>
      </trkpt>
      <trkpt lat="43.82469" lon="7.27771">
        <ele>905.3</ele>
        <time>2012-04-19T09:58:17Z</time>
      </trkpt>
      <trkpt lat="43.82454" lon="7.27776">
        <ele>905.7</ele>
        <time>2012-04-19T09:58:25Z</time>
      </trkpt>
      <trkpt lat="43.82447" lon="7.27783">
        <ele>906</ele>
        <time>2012-04-19T09:58:30Z</time>
      </trkpt>
      <trkpt lat="43.82439" lon="7.27779">
        <ele>905.5</ele>
        <time>2012-04-19T09:58:35Z</time>
      </trkpt>
      <trkpt lat="43.8243" lon="7.27779">
        <ele>906.5</ele>
        <time>2012-04-19T09:58:40Z</time>
      </trkpt>
      <trkpt lat="43.82421" lon="7.2778">
        <ele>905.7</ele>
        <time>2012-04-19T09:58:43Z</time>
      </trkpt>
      <trkpt lat="43.82415" lon="7.27782">
        <ele>905.8</ele>
        <time>2012-04-19T09:58:45Z</time>
      </trkpt>
      <trkpt lat="43.82409" lon="7.27786">
        <ele>905.7</ele>
        <time>2012-04-19T09:58:47Z</time>
      </trkpt>
      <trkpt lat="43.82401" lon="7.27785">
        <ele>904.5</ele>
        <time>2012-04-19T09:58:50Z</time>
      </trkpt>
      <trkpt lat="43.82393" lon="7.27782">
        <ele>902.5</ele>
        <time>2012-04-19T09:58:54Z</time>
      </trkpt>
      <trkpt lat="43.82388" lon="7.27777">
        <ele>901.8</ele>
        <time>2012-04-19T09:58:56Z</time>
      </trkpt>
      <trkpt lat="43.82382" lon="7.27772">
        <ele>901.1</ele>
        <time>2012-04-19T09:58:58Z</time>
      </trkpt>
      <trkpt lat="43.82375" lon="7.2777">
        <ele>899.7</ele>
        <time>2012-04-19T09:59:00Z</time>
      </trkpt>
      <trkpt lat="43.82369" lon="7.27773">
        <ele>898.4</ele>
        <time>2012-04-19T09:59:02Z</time>
      </trkpt>
      <trkpt lat="43.82362" lon="7.2778">
        <ele>897.4</ele>
        <time>2012-04-19T09:59:05Z</time>
      </trkpt>
      <trkpt lat="43.82356" lon="7.27784">
        <ele>897.2</ele>
        <time>2012-04-19T09:59:07Z</time>
      </trkpt>
      <trkpt lat="43.82349" lon="7.27785">
        <ele>897</ele>
        <time>2012-04-19T09:59:09Z</time>
      </trkpt>
      <trkpt lat="43.82342" lon="7.27785">
        <ele>897.2</ele>
        <time>2012-04-19T09:59:11Z</time>
      </trkpt>
      <trkpt lat="43.82336" lon="7.27785">
        <ele>897.7</ele>
        <time>2012-04-19T09:59:13Z</time>
      </trkpt>
      <trkpt lat="43.82328" lon="7.27783">
        <ele>898</ele>
        <time>2012-04-19T09:59:16Z</time>
      </trkpt>
      <trkpt lat="43.82321" lon="7.27785">
        <ele>898.1</ele>
        <time>2012-04-19T09:59:18Z</time>
      </trkpt>
      <trkpt lat="43.82318" lon="7.27786">
        <ele>898</ele>
        <time>2012-04-19T09:59:19Z</time>
      </trkpt>
      <trkpt lat="43.82308" lon="7.27784">
        <ele>897.4</ele>
        <time>2012-04-19T09:59:22Z</time>
      </trkpt>
      <trkpt lat="43.82301" lon="7.27782">
        <ele>896.6</ele>
        <time>2012-04-19T09:59:24Z</time>
      </trkpt>
      <trkpt lat="43.82296" lon="7.2778">
        <ele>895.5</ele>
        <time>2012-04-19T09:59:26Z</time>
      </trkpt>
      <trkpt lat="43.82289" lon="7.27779">
        <ele>894.3</ele>
        <time>2012-04-19T09:59:28Z</time>
      </trkpt>
      <trkpt lat="43.82284" lon="7.27779">
        <ele>893.8</ele>
        <time>2012-04-19T09:59:29Z</time>
      </trkpt>
      <trkpt lat="43.82279" lon="7.27778">
        <ele>893.4</ele>
        <time>2012-04-19T09:59:30Z</time>
      </trkpt>
      <trkpt lat="43.82272" lon="7.27778">
        <ele>892.9</ele>
        <time>2012-04-19T09:59:31Z</time>
      </trkpt>
      <trkpt lat="43.82266" lon="7.2778">
        <ele>892.5</ele>
        <time>2012-04-19T09:59:32Z</time>
      </trkpt>
      <trkpt lat="43.8226" lon="7.27782">
        <ele>891.6</ele>
        <time>2012-04-19T09:59:33Z</time>
      </trkpt>
      <trkpt lat="43.82255" lon="7.27785">
        <ele>890.8</ele>
        <time>2012-04-19T09:59:34Z</time>
      </trkpt>
      <trkpt lat="43.82246" lon="7.27787">
        <ele>889.7</ele>
        <time>2012-04-19T09:59:36Z</time>
      </trkpt>
      <trkpt lat="43.82239" lon="7.2779">
        <ele>887.5</ele>
        <time>2012-04-19T09:59:41Z</time>
      </trkpt>
      <trkpt lat="43.82232" lon="7.27793">
        <ele>886.8</ele>
        <time>2012-04-19T09:59:44Z</time>
      </trkpt>
      <trkpt lat="43.82225" lon="7.27796">
        <ele>886.4</ele>
        <time>2012-04-19T09:59:46Z</time>
      </trkpt>
      <trkpt lat="43.82218" lon="7.27799">
        <ele>886</ele>
        <time>2012-04-19T09:59:48Z</time>
      </trkpt>
      <trkpt lat="43.8221" lon="7.27802">
        <ele>884.8</ele>
        <time>2012-04-19T09:59:52Z</time>
      </trkpt>
      <trkpt lat="43.82202" lon="7.27802">
        <ele>884.1</ele>
        <time>2012-04-19T09:59:55Z</time>
      </trkpt>
      <trkpt lat="43.82193" lon="7.27803">
        <ele>883.7</ele>
        <time>2012-04-19T09:59:57Z</time>
      </trkpt>
      <trkpt lat="43.82185" lon="7.27808">
        <ele>883.1</ele>
        <time>2012-04-19T09:59:59Z</time>
      </trkpt>
      <trkpt lat="43.82177" lon="7.27811">
        <ele>882.4</ele>
        <time>2012-04-19T10:00:01Z</time>
      </trkpt>
      <trkpt lat="43.82169" lon="7.2781">
        <ele>881.8</ele>
        <time>2012-04-19T10:00:03Z</time>
      </trkpt>
      <trkpt lat="43.82162" lon="7.27815">
        <ele>882.3</ele>
        <time>2012-04-19T10:00:05Z</time>
      </trkpt>
      <trkpt lat="43.82157" lon="7.27821">
        <ele>881.7</ele>
        <time>2012-04-19T10:00:07Z</time>
      </trkpt>
      <trkpt lat="43.82152" lon="7.27827">
        <ele>881.4</ele>
        <time>2012-04-19T10:00:09Z</time>
      </trkpt>
      <trkpt lat="43.82146" lon="7.27832">
        <ele>881</ele>
        <time>2012-04-19T10:00:11Z</time>
      </trkpt>
      <trkpt lat="43.82139" lon="7.27837">
        <ele>880.6</ele>
        <time>2012-04-19T10:00:13Z</time>
      </trkpt>
      <trkpt lat="43.82132" lon="7.27843">
        <ele>880.5</ele>
        <time>2012-04-19T10:00:15Z</time>
      </trkpt>
      <trkpt lat="43.82127" lon="7.27851">
        <ele>880.1</ele>
        <time>2012-04-19T10:00:17Z</time>
      </trkpt>
      <trkpt lat="43.82123" lon="7.2786">
        <ele>879.6</ele>
        <time>2012-04-19T10:00:19Z</time>
      </trkpt>
      <trkpt lat="43.82117" lon="7.27867">
        <ele>879.5</ele>
        <time>2012-04-19T10:00:21Z</time>
      </trkpt>
      <trkpt lat="43.82114" lon="7.2787">
        <ele>879.6</ele>
        <time>2012-04-19T10:00:22Z</time>
      </trkpt>
      <trkpt lat="43.82103" lon="7.27875">
        <ele>879.5</ele>
        <time>2012-04-19T10:00:25Z</time>
      </trkpt>
      <trkpt lat="43.82096" lon="7.27878">
        <ele>879.6</ele>
        <time>2012-04-19T10:00:27Z</time>
      </trkpt>
      <trkpt lat="43.8209" lon="7.27883">
        <ele>879.8</ele>
        <time>2012-04-19T10:00:29Z</time>
      </trkpt>
      <trkpt lat="43.82083" lon="7.2789">
        <ele>880.3</ele>
        <time>2012-04-19T10:00:32Z</time>
      </trkpt>
      <trkpt lat="43.82079" lon="7.27897">
        <ele>880.6</ele>
        <time>2012-04-19T10:00:34Z</time>
      </trkpt>
      <trkpt lat="43.82074" lon="7.27903">
        <ele>880.7</ele>
        <time>2012-04-19T10:00:36Z</time>
      </trkpt>
      <trkpt lat="43.82069" lon="7.27912">
        <ele>881.1</ele>
        <time>2012-04-19T10:00:39Z</time>
      </trkpt>
      <trkpt lat="43.82062" lon="7.2792">
        <ele>882.4</ele>
        <time>2012-04-19T10:00:44Z</time>
      </trkpt>
      <trkpt lat="43.82054" lon="7.27923">
        <ele>883.4</ele>
        <time>2012-04-19T10:00:48Z</time>
      </trkpt>
      <trkpt lat="43.82046" lon="7.27926">
        <ele>883.9</ele>
        <time>2012-04-19T10:00:51Z</time>
      </trkpt>
      <trkpt lat="43.82038" lon="7.2793">
        <ele>884.2</ele>
        <time>2012-04-19T10:00:54Z</time>
      </trkpt>
      <trkpt lat="43.82032" lon="7.27938">
        <ele>884.8</ele>
        <time>2012-04-19T10:00:59Z</time>
      </trkpt>
      <trkpt lat="43.82024" lon="7.27941">
        <ele>885.6</ele>
        <time>2012-04-19T10:01:07Z</time>
      </trkpt>
      <trkpt lat="43.82017" lon="7.27945">
        <ele>885.8</ele>
        <time>2012-04-19T10:01:11Z</time>
      </trkpt>
      <trkpt lat="43.82011" lon="7.27953">
        <ele>886.4</ele>
        <time>2012-04-19T10:01:15Z</time>
      </trkpt>
      <trkpt lat="43.82007" lon="7.27964">
        <ele>887.6</ele>
        <time>2012-04-19T10:01:20Z</time>
      </trkpt>
      <trkpt lat="43.82002" lon="7.27974">
        <ele>888.1</ele>
        <time>2012-04-19T10:01:24Z</time>
      </trkpt>
      <trkpt lat="43.82001" lon="7.27976">
        <ele>888.1</ele>
        <time>2012-04-19T10:01:25Z</time>
      </trkpt>
      <trkpt lat="43.8199" lon="7.27989">
        <ele>889.4</ele>
        <time>2012-04-19T10:01:32Z</time>
      </trkpt>
      <trkpt lat="43.81987" lon="7.28">
        <ele>889.8</ele>
        <time>2012-04-19T10:01:38Z</time>
      </trkpt>
      <trkpt lat="43.81983" lon="7.28011">
        <ele>892</ele>
        <time>2012-04-19T10:01:46Z</time>
      </trkpt>
      <trkpt lat="43.81978" lon="7.28021">
        <ele>894.3</ele>
        <time>2012-04-19T10:02:19Z</time>
      </trkpt>
      <trkpt lat="43.81971" lon="7.28028">
        <ele>896.3</ele>
        <time>2012-04-19T10:02:48Z</time>
      </trkpt>
      <trkpt lat="43.81971" lon="7.28029">
        <ele>896.2</ele>
        <time>2012-04-19T10:02:49Z</time>
      </trkpt>
      <trkpt lat="43.81958" lon="7.28042">
        <ele>898.4</ele>
        <time>2012-04-19T10:03:04Z</time>
      </trkpt>
      <trkpt lat="43.81952" lon="7.28048">
        <ele>898.4</ele>
        <time>2012-04-19T10:03:08Z</time>
      </trkpt>
      <trkpt lat="43.81947" lon="7.28057">
        <ele>899.4</ele>
        <time>2012-04-19T10:03:12Z</time>
      </trkpt>
      <trkpt lat="43.8194" lon="7.28063">
        <ele>900.3</ele>
        <time>2012-04-19T10:03:16Z</time>
      </trkpt>
      <trkpt lat="43.81934" lon="7.28068">
        <ele>900.3</ele>
        <time>2012-04-19T10:03:19Z</time>
      </trkpt>
      <trkpt lat="43.81928" lon="7.28074">
        <ele>900.9</ele>
        <time>2012-04-19T10:03:22Z</time>
      </trkpt>
      <trkpt lat="43.81922" lon="7.28081">
        <ele>900.9</ele>
        <time>2012-04-19T10:03:25Z</time>
      </trkpt>
      <trkpt lat="43.81916" lon="7.28087">
        <ele>900.9</ele>
        <time>2012-04-19T10:03:28Z</time>
      </trkpt>
      <trkpt lat="43.81909" lon="7.28095">
        <ele>900.8</ele>
        <time>2012-04-19T10:03:31Z</time>
      </trkpt>
      <trkpt lat="43.81902" lon="7.28101">
        <ele>901.3</ele>
        <time>2012-04-19T10:03:34Z</time>
      </trkpt>
      <trkpt lat="43.81895" lon="7.28106">
        <ele>901.9</ele>
        <time>2012-04-19T10:03:37Z</time>
      </trkpt>
      <trkpt lat="43.81887" lon="7.28109">
        <ele>901.7</ele>
        <time>2012-04-19T10:03:40Z</time>
      </trkpt>
      <trkpt lat="43.81882" lon="7.28116">
        <ele>902.1</ele>
        <time>2012-04-19T10:03:43Z</time>
      </trkpt>
      <trkpt lat="43.81876" lon="7.28124">
        <ele>901.8</ele>
        <time>2012-04-19T10:03:46Z</time>
      </trkpt>
      <trkpt lat="43.8187" lon="7.28128">
        <ele>901.5</ele>
        <time>2012-04-19T10:03:49Z</time>
      </trkpt>
      <trkpt lat="43.81863" lon="7.28133">
        <ele>900.8</ele>
        <time>2012-04-19T10:03:53Z</time>
      </trkpt>
      <trkpt lat="43.81861" lon="7.28135">
        <ele>900.7</ele>
        <time>2012-04-19T10:03:54Z</time>
      </trkpt>
      <trkpt lat="43.81851" lon="7.28137">
        <ele>900.4</ele>
        <time>2012-04-19T10:03:58Z</time>
      </trkpt>
      <trkpt lat="43.81844" lon="7.28136">
        <ele>899.8</ele>
        <time>2012-04-19T10:04:00Z</time>
      </trkpt>
      <trkpt lat="43.81836" lon="7.28137">
        <ele>899.4</ele>
        <time>2012-04-19T10:04:02Z</time>
      </trkpt>
      <trkpt lat="43.81829" lon="7.2814">
        <ele>899.1</ele>
        <time>2012-04-19T10:04:04Z</time>
      </trkpt>
      <trkpt lat="43.81822" lon="7.28143">
        <ele>898.9</ele>
        <time>2012-04-19T10:04:06Z</time>
      </trkpt>
      <trkpt lat="43.81815" lon="7.28145">
        <ele>898.9</ele>
        <time>2012-04-19T10:04:08Z</time>
      </trkpt>
      <trkpt lat="43.81807" lon="7.28147">
        <ele>899.5</ele>
        <time>2012-04-19T10:04:11Z</time>
      </trkpt>
      <trkpt lat="43.81798" lon="7.28149">
        <ele>900.7</ele>
        <time>2012-04-19T10:04:24Z</time>
      </trkpt>
      <trkpt lat="43.8179" lon="7.28148">
        <ele>901.2</ele>
        <time>2012-04-19T10:04:32Z</time>
      </trkpt>
      <trkpt lat="43.81782" lon="7.28147">
        <ele>902.1</ele>
        <time>2012-04-19T10:04:41Z</time>
      </trkpt>
      <trkpt lat="43.81774" lon="7.28149">
        <ele>903.7</ele>
        <time>2012-04-19T10:04:53Z</time>
      </trkpt>
      <trkpt lat="43.81765" lon="7.28152">
        <ele>904.9</ele>
        <time>2012-04-19T10:05:03Z</time>
      </trkpt>
      <trkpt lat="43.81764" lon="7.28153">
        <ele>905</ele>
        <time>2012-04-19T10:05:04Z</time>
      </trkpt>
      <trkpt lat="43.8175" lon="7.28157">
        <ele>905.9</ele>
        <time>2012-04-19T10:05:20Z</time>
      </trkpt>
      <trkpt lat="43.81741" lon="7.28157">
        <ele>905.9</ele>
        <time>2012-04-19T10:05:24Z</time>
      </trkpt>
      <trkpt lat="43.81733" lon="7.28154">
        <ele>906.4</ele>
        <time>2012-04-19T10:05:27Z</time>
      </trkpt>
      <trkpt lat="43.81725" lon="7.28156">
        <ele>906.6</ele>
        <time>2012-04-19T10:05:30Z</time>
      </trkpt>
      <trkpt lat="43.81718" lon="7.28156">
        <ele>906.3</ele>
        <time>2012-04-19T10:05:33Z</time>
      </trkpt>
      <trkpt lat="43.81711" lon="7.28159">
        <ele>906</ele>
        <time>2012-04-19T10:05:35Z</time>
      </trkpt>
      <trkpt lat="43.81702" lon="7.28159">
        <ele>905.5</ele>
        <time>2012-04-19T10:05:38Z</time>
      </trkpt>
      <trkpt lat="43.81696" lon="7.28162">
        <ele>904.3</ele>
        <time>2012-04-19T10:05:40Z</time>
      </trkpt>
      <trkpt lat="43.81689" lon="7.28168">
        <ele>903.5</ele>
        <time>2012-04-19T10:05:42Z</time>
      </trkpt>
      <trkpt lat="43.81683" lon="7.28172">
        <ele>902.1</ele>
        <time>2012-04-19T10:05:44Z</time>
      </trkpt>
      <trkpt lat="43.81676" lon="7.28174">
        <ele>900</ele>
        <time>2012-04-19T10:05:47Z</time>
      </trkpt>
      <trkpt lat="43.8167" lon="7.28174">
        <ele>898.7</ele>
        <time>2012-04-19T10:05:49Z</time>
      </trkpt>
      <trkpt lat="43.81664" lon="7.28176">
        <ele>897.7</ele>
        <time>2012-04-19T10:05:51Z</time>
      </trkpt>
      <trkpt lat="43.81659" lon="7.2818">
        <ele>896.5</ele>
        <time>2012-04-19T10:05:53Z</time>
      </trkpt>
      <trkpt lat="43.81651" lon="7.28182">
        <ele>894.7</ele>
        <time>2012-04-19T10:05:55Z</time>
      </trkpt>
      <trkpt lat="43.81646" lon="7.28182">
        <ele>893.9</ele>
        <time>2012-04-19T10:05:56Z</time>
      </trkpt>
      <trkpt lat="43.81638" lon="7.2818">
        <ele>892.2</ele>
        <time>2012-04-19T10:05:58Z</time>
      </trkpt>
      <trkpt lat="43.81631" lon="7.28182">
        <ele>890.7</ele>
        <time>2012-04-19T10:06:00Z</time>
      </trkpt>
      <trkpt lat="43.81627" lon="7.28185">
        <ele>890.2</ele>
        <time>2012-04-19T10:06:01Z</time>
      </trkpt>
      <trkpt lat="43.81623" lon="7.28188">
        <ele>889.6</ele>
        <time>2012-04-19T10:06:02Z</time>
      </trkpt>
      <trkpt lat="43.81619" lon="7.28191">
        <ele>889.1</ele>
        <time>2012-04-19T10:06:03Z</time>
      </trkpt>
      <trkpt lat="43.8161" lon="7.28194">
        <ele>888</ele>
        <time>2012-04-19T10:06:05Z</time>
      </trkpt>
      <trkpt lat="43.81606" lon="7.28194">
        <ele>887.4</ele>
        <time>2012-04-19T10:06:06Z</time>
      </trkpt>
      <trkpt lat="43.81593" lon="7.28196">
        <ele>886.8</ele>
        <time>2012-04-19T10:06:09Z</time>
      </trkpt>
      <trkpt lat="43.81586" lon="7.28203">
        <ele>886.7</ele>
        <time>2012-04-19T10:06:11Z</time>
      </trkpt>
      <trkpt lat="43.8158" lon="7.2821">
        <ele>886.4</ele>
        <time>2012-04-19T10:06:13Z</time>
      </trkpt>
      <trkpt lat="43.81572" lon="7.28215">
        <ele>885.5</ele>
        <time>2012-04-19T10:06:15Z</time>
      </trkpt>
      <trkpt lat="43.81565" lon="7.2822">
        <ele>885.2</ele>
        <time>2012-04-19T10:06:17Z</time>
      </trkpt>
      <trkpt lat="43.81557" lon="7.28226">
        <ele>884.8</ele>
        <time>2012-04-19T10:06:19Z</time>
      </trkpt>
      <trkpt lat="43.8155" lon="7.2823">
        <ele>884.2</ele>
        <time>2012-04-19T10:06:21Z</time>
      </trkpt>
      <trkpt lat="43.81542" lon="7.28235">
        <ele>884.4</ele>
        <time>2012-04-19T10:06:23Z</time>
      </trkpt>
      <trkpt lat="43.81535" lon="7.28241">
        <ele>884.5</ele>
        <time>2012-04-19T10:06:25Z</time>
      </trkpt>
      <trkpt lat="43.8153" lon="7.28248">
        <ele>884.4</ele>
        <time>2012-04-19T10:06:27Z</time>
      </trkpt>
      <trkpt lat="43.81523" lon="7.28251">
        <ele>884.6</ele>
        <time>2012-04-19T10:06:29Z</time>
      </trkpt>
      <trkpt lat="43.81516" lon="7.28251">
        <ele>883.9</ele>
        <time>2012-04-19T10:06:33Z</time>
      </trkpt>
      <trkpt lat="43.81509" lon="7.28254">
        <ele>883.9</ele>
        <time>2012-04-19T10:06:37Z</time>
      </trkpt>
      <trkpt lat="43.81503" lon="7.28257">
        <ele>882.8</ele>
        <time>2012-04-19T10:06:39Z</time>
      </trkpt>
      <trkpt lat="43.81496" lon="7.28256">
        <ele>882.3</ele>
        <time>2012-04-19T10:06:41Z</time>
      </trkpt>
      <trkpt lat="43.81488" lon="7.28254">
        <ele>882.3</ele>
        <time>2012-04-19T10:06:43Z</time>
      </trkpt>
      <trkpt lat="43.8148" lon="7.28254">
        <ele>882.3</ele>
        <time>2012-04-19T10:06:45Z</time>
      </trkpt>
      <trkpt lat="43.81472" lon="7.28253">
        <ele>882</ele>
        <time>2012-04-19T10:06:47Z</time>
      </trkpt>
      <trkpt lat="43.81464" lon="7.28252">
        <ele>881.7</ele>
        <time>2012-04-19T10:06:49Z</time>
      </trkpt>
      <trkpt lat="43.81455" lon="7.28253">
        <ele>881.1</ele>
        <time>2012-04-19T10:06:51Z</time>
      </trkpt>
      <trkpt lat="43.81451" lon="7.28255">
        <ele>880.6</ele>
        <time>2012-04-19T10:06:52Z</time>
      </trkpt>
      <trkpt lat="43.81446" lon="7.28256">
        <ele>880.3</ele>
        <time>2012-04-19T10:06:53Z</time>
      </trkpt>
      <trkpt lat="43.81441" lon="7.28258">
        <ele>880</ele>
        <time>2012-04-19T10:06:54Z</time>
      </trkpt>
      <trkpt lat="43.81432" lon="7.28259">
        <ele>879.5</ele>
        <time>2012-04-19T10:07:02Z</time>
      </trkpt>
      <trkpt lat="43.81424" lon="7.28264">
        <ele>880.5</ele>
        <time>2012-04-19T10:07:22Z</time>
      </trkpt>
      <trkpt lat="43.81424" lon="7.28264">
        <ele>880.7</ele>
        <time>2012-04-19T10:07:23Z</time>
      </trkpt>
      <trkpt lat="43.81408" lon="7.2827">
        <ele>884.1</ele>
        <time>2012-04-19T10:07:45Z</time>
      </trkpt>
      <trkpt lat="43.814" lon="7.28264">
        <ele>886.9</ele>
        <time>2012-04-19T10:07:58Z</time>
      </trkpt>
      <trkpt lat="43.81393" lon="7.28258">
        <ele>887.6</ele>
        <time>2012-04-19T10:08:12Z</time>
      </trkpt>
      <trkpt lat="43.8139" lon="7.28246">
        <ele>884.5</ele>
        <time>2012-04-19T10:08:31Z</time>
      </trkpt>
      <trkpt lat="43.8139" lon="7.28246">
        <ele>884.4</ele>
        <time>2012-04-19T10:08:32Z</time>
      </trkpt>
      <trkpt lat="43.81385" lon="7.28224">
        <ele>882.6</ele>
        <time>2012-04-19T10:09:46Z</time>
      </trkpt>
      <trkpt lat="43.81385" lon="7.28224">
        <ele>881.5</ele>
        <time>2012-04-19T10:09:47Z</time>
      </trkpt>
      <trkpt lat="43.8137" lon="7.28225">
        <ele>883.8</ele>
        <time>2012-04-19T10:10:19Z</time>
      </trkpt>
      <trkpt lat="43.81363" lon="7.28218">
        <ele>882.5</ele>
        <time>2012-04-19T10:10:22Z</time>
      </trkpt>
      <trkpt lat="43.81357" lon="7.28212">
        <ele>880.9</ele>
        <time>2012-04-19T10:10:25Z</time>
      </trkpt>
      <trkpt lat="43.81349" lon="7.28208">
        <ele>878.5</ele>
        <time>2012-04-19T10:10:28Z</time>
      </trkpt>
      <trkpt lat="43.81343" lon="7.282">
        <ele>876.5</ele>
        <time>2012-04-19T10:10:31Z</time>
      </trkpt>
      <trkpt lat="43.81339" lon="7.28191">
        <ele>874.3</ele>
        <time>2012-04-19T10:10:36Z</time>
      </trkpt>
      <trkpt lat="43.81336" lon="7.28182">
        <ele>873.1</ele>
        <time>2012-04-19T10:10:40Z</time>
      </trkpt>
      <trkpt lat="43.81332" lon="7.28171">
        <ele>870.6</ele>
        <time>2012-04-19T10:11:50Z</time>
      </trkpt>
      <trkpt lat="43.81332" lon="7.28171">
        <ele>870.3</ele>
        <time>2012-04-19T10:11:51Z</time>
      </trkpt>
      <trkpt lat="43.81325" lon="7.28164">
        <ele>869.6</ele>
        <time>2012-04-19T10:13:36Z</time>
      </trkpt>
      <trkpt lat="43.81333" lon="7.28158">
        <ele>869.1</ele>
        <time>2012-04-19T10:15:50Z</time>
      </trkpt>
      <trkpt lat="43.81327" lon="7.28167">
        <ele>869.9</ele>
        <time>2012-04-19T10:18:43Z</time>
      </trkpt>
      <trkpt lat="43.81319" lon="7.28158">
        <ele>870.1</ele>
        <time>2012-04-19T10:21:56Z</time>
      </trkpt>
      <trkpt lat="43.81311" lon="7.28141">
        <ele>865.2</ele>
        <time>2012-04-19T10:22:25Z</time>
      </trkpt>
      <trkpt lat="43.81312" lon="7.2813">
        <ele>864.1</ele>
        <time>2012-04-19T10:22:29Z</time>
      </trkpt>
      <trkpt lat="43.81313" lon="7.2812">
        <ele>863.6</ele>
        <time>2012-04-19T10:22:32Z</time>
      </trkpt>
      <trkpt lat="43.81312" lon="7.28108">
        <ele>861.3</ele>
        <time>2012-04-19T10:22:44Z</time>
      </trkpt>
      <trkpt lat="43.81315" lon="7.28096">
        <ele>859.3</ele>
        <time>2012-04-19T10:23:15Z</time>
      </trkpt>
      <trkpt lat="43.81316" lon="7.28096">
        <ele>859.2</ele>
        <time>2012-04-19T10:23:16Z</time>
      </trkpt>
      <trkpt lat="43.81321" lon="7.28076">
        <ele>860</ele>
        <time>2012-04-19T10:23:25Z</time>
      </trkpt>
      <trkpt lat="43.81322" lon="7.28067">
        <ele>860.2</ele>
        <time>2012-04-19T10:23:28Z</time>
      </trkpt>
      <trkpt lat="43.81325" lon="7.28055">
        <ele>860.2</ele>
        <time>2012-04-19T10:23:32Z</time>
      </trkpt>
      <trkpt lat="43.81329" lon="7.28046">
        <ele>860.3</ele>
        <time>2012-04-19T10:23:36Z</time>
      </trkpt>
      <trkpt lat="43.81333" lon="7.28036">
        <ele>860.4</ele>
        <time>2012-04-19T10:23:41Z</time>
      </trkpt>
      <trkpt lat="43.81337" lon="7.28025">
        <ele>860</ele>
        <time>2012-04-19T10:24:09Z</time>
      </trkpt>
      <trkpt lat="43.81344" lon="7.28019">
        <ele>860.7</ele>
        <time>2012-04-19T10:24:44Z</time>
      </trkpt>
      <trkpt lat="43.81345" lon="7.28014">
        <ele>860.6</ele>
        <time>2012-04-19T10:24:45Z</time>
      </trkpt>
      <trkpt lat="43.81348" lon="7.27998">
        <ele>859.5</ele>
        <time>2012-04-19T10:24:49Z</time>
      </trkpt>
      <trkpt lat="43.81353" lon="7.27991">
        <ele>858.4</ele>
        <time>2012-04-19T10:24:51Z</time>
      </trkpt>
      <trkpt lat="43.81357" lon="7.27983">
        <ele>857.5</ele>
        <time>2012-04-19T10:24:53Z</time>
      </trkpt>
      <trkpt lat="43.81361" lon="7.27975">
        <ele>854.5</ele>
        <time>2012-04-19T10:24:55Z</time>
      </trkpt>
      <trkpt lat="43.81367" lon="7.27969">
        <ele>852.6</ele>
        <time>2012-04-19T10:24:57Z</time>
      </trkpt>
      <trkpt lat="43.81371" lon="7.27958">
        <ele>850.1</ele>
        <time>2012-04-19T10:24:59Z</time>
      </trkpt>
      <trkpt lat="43.81372" lon="7.27952">
        <ele>848.7</ele>
        <time>2012-04-19T10:25:00Z</time>
      </trkpt>
      <trkpt lat="43.81376" lon="7.27942">
        <ele>846.8</ele>
        <time>2012-04-19T10:25:02Z</time>
      </trkpt>
      <trkpt lat="43.81382" lon="7.27933">
        <ele>844.7</ele>
        <time>2012-04-19T10:25:04Z</time>
      </trkpt>
      <trkpt lat="43.81387" lon="7.27925">
        <ele>842.2</ele>
        <time>2012-04-19T10:25:06Z</time>
      </trkpt>
      <trkpt lat="43.8139" lon="7.27915">
        <ele>840.4</ele>
        <time>2012-04-19T10:25:08Z</time>
      </trkpt>
      <trkpt lat="43.81393" lon="7.27905">
        <ele>838.3</ele>
        <time>2012-04-19T10:25:10Z</time>
      </trkpt>
      <trkpt lat="43.81397" lon="7.27895">
        <ele>835.8</ele>
        <time>2012-04-19T10:25:12Z</time>
      </trkpt>
      <trkpt lat="43.81401" lon="7.27885">
        <ele>834</ele>
        <time>2012-04-19T10:25:14Z</time>
      </trkpt>
      <trkpt lat="43.81403" lon="7.27879">
        <ele>833.4</ele>
        <time>2012-04-19T10:25:15Z</time>
      </trkpt>
      <trkpt lat="43.81408" lon="7.27869">
        <ele>832.7</ele>
        <time>2012-04-19T10:25:17Z</time>
      </trkpt>
      <trkpt lat="43.81413" lon="7.27861">
        <ele>830.8</ele>
        <time>2012-04-19T10:25:19Z</time>
      </trkpt>
      <trkpt lat="43.81417" lon="7.27853">
        <ele>829.2</ele>
        <time>2012-04-19T10:25:21Z</time>
      </trkpt>
      <trkpt lat="43.81421" lon="7.27844">
        <ele>828</ele>
        <time>2012-04-19T10:25:23Z</time>
      </trkpt>
      <trkpt lat="43.81426" lon="7.27833">
        <ele>826.3</ele>
        <time>2012-04-19T10:25:25Z</time>
      </trkpt>
      <trkpt lat="43.81428" lon="7.27827">
        <ele>825.4</ele>
        <time>2012-04-19T10:25:26Z</time>
      </trkpt>
      <trkpt lat="43.81433" lon="7.27817">
        <ele>823.5</ele>
        <time>2012-04-19T10:25:29Z</time>
      </trkpt>
      <trkpt lat="43.81434" lon="7.27806">
        <ele>819.3</ele>
        <time>2012-04-19T10:25:36Z</time>
      </trkpt>
      <trkpt lat="43.8143" lon="7.27795">
        <ele>820.1</ele>
        <time>2012-04-19T10:25:41Z</time>
      </trkpt>
      <trkpt lat="43.81428" lon="7.27785">
        <ele>821.1</ele>
        <time>2012-04-19T10:25:45Z</time>
      </trkpt>
      <trkpt lat="43.81431" lon="7.27776">
        <ele>822</ele>
        <time>2012-04-19T10:25:52Z</time>
      </trkpt>
      <trkpt lat="43.81432" lon="7.27774">
        <ele>821.9</ele>
        <time>2012-04-19T10:25:53Z</time>
      </trkpt>
      <trkpt lat="43.8144" lon="7.27756">
        <ele>823.8</ele>
        <time>2012-04-19T10:26:07Z</time>
      </trkpt>
      <trkpt lat="43.81442" lon="7.27748">
        <ele>823.8</ele>
        <time>2012-04-19T10:26:09Z</time>
      </trkpt>
      <trkpt lat="43.81447" lon="7.27739">
        <ele>824.2</ele>
        <time>2012-04-19T10:26:11Z</time>
      </trkpt>
      <trkpt lat="43.8145" lon="7.27735">
        <ele>824.3</ele>
        <time>2012-04-19T10:26:12Z</time>
      </trkpt>
      <trkpt lat="43.81453" lon="7.27729">
        <ele>823.9</ele>
        <time>2012-04-19T10:26:13Z</time>
      </trkpt>
      <trkpt lat="43.81455" lon="7.27723">
        <ele>823.6</ele>
        <time>2012-04-19T10:26:14Z</time>
      </trkpt>
      <trkpt lat="43.81459" lon="7.27712">
        <ele>822.8</ele>
        <time>2012-04-19T10:26:16Z</time>
      </trkpt>
      <trkpt lat="43.81462" lon="7.27703">
        <ele>821.6</ele>
        <time>2012-04-19T10:26:18Z</time>
      </trkpt>
      <trkpt lat="43.81467" lon="7.27693">
        <ele>820.5</ele>
        <time>2012-04-19T10:26:20Z</time>
      </trkpt>
      <trkpt lat="43.81472" lon="7.27683">
        <ele>819.3</ele>
        <time>2012-04-19T10:26:22Z</time>
      </trkpt>
      <trkpt lat="43.81474" lon="7.27678">
        <ele>818.8</ele>
        <time>2012-04-19T10:26:23Z</time>
      </trkpt>
      <trkpt lat="43.81478" lon="7.27667">
        <ele>818.3</ele>
        <time>2012-04-19T10:26:25Z</time>
      </trkpt>
      <trkpt lat="43.81482" lon="7.27657">
        <ele>818</ele>
        <time>2012-04-19T10:26:27Z</time>
      </trkpt>
      <trkpt lat="43.81485" lon="7.27647">
        <ele>817.3</ele>
        <time>2012-04-19T10:26:29Z</time>
      </trkpt>
      <trkpt lat="43.81487" lon="7.27635">
        <ele>816.7</ele>
        <time>2012-04-19T10:26:40Z</time>
      </trkpt>
      <trkpt lat="43.81491" lon="7.27624">
        <ele>817.4</ele>
        <time>2012-04-19T10:26:53Z</time>
      </trkpt>
      <trkpt lat="43.81494" lon="7.27614">
        <ele>817.7</ele>
        <time>2012-04-19T10:26:56Z</time>
      </trkpt>
      <trkpt lat="43.81496" lon="7.27611">
        <ele>817.8</ele>
        <time>2012-04-19T10:26:57Z</time>
      </trkpt>
      <trkpt lat="43.81507" lon="7.27602">
        <ele>817.8</ele>
        <time>2012-04-19T10:27:02Z</time>
      </trkpt>
      <trkpt lat="43.81512" lon="7.27597">
        <ele>817</ele>
        <time>2012-04-19T10:27:04Z</time>
      </trkpt>
      <trkpt lat="43.81516" lon="7.2759">
        <ele>814.9</ele>
        <time>2012-04-19T10:27:06Z</time>
      </trkpt>
      <trkpt lat="43.81521" lon="7.27581">
        <ele>812.9</ele>
        <time>2012-04-19T10:27:09Z</time>
      </trkpt>
      <trkpt lat="43.81527" lon="7.27573">
        <ele>810.1</ele>
        <time>2012-04-19T10:27:12Z</time>
      </trkpt>
      <trkpt lat="43.81532" lon="7.27564">
        <ele>806.9</ele>
        <time>2012-04-19T10:27:15Z</time>
      </trkpt>
      <trkpt lat="43.8154" lon="7.27561">
        <ele>802.8</ele>
        <time>2012-04-19T10:27:19Z</time>
      </trkpt>
      <trkpt lat="43.81548" lon="7.27557">
        <ele>801.1</ele>
        <time>2012-04-19T10:27:22Z</time>
      </trkpt>
      <trkpt lat="43.81553" lon="7.27552">
        <ele>799.1</ele>
        <time>2012-04-19T10:27:24Z</time>
      </trkpt>
      <trkpt lat="43.81559" lon="7.27545">
        <ele>795.9</ele>
        <time>2012-04-19T10:27:27Z</time>
      </trkpt>
      <trkpt lat="43.81566" lon="7.27539">
        <ele>793.7</ele>
        <time>2012-04-19T10:27:30Z</time>
      </trkpt>
      <trkpt lat="43.81573" lon="7.2753">
        <ele>789.7</ele>
        <time>2012-04-19T10:27:33Z</time>
      </trkpt>
      <trkpt lat="43.81578" lon="7.27522">
        <ele>787.1</ele>
        <time>2012-04-19T10:27:36Z</time>
      </trkpt>
      <trkpt lat="43.81586" lon="7.27521">
        <ele>785.1</ele>
        <time>2012-04-19T10:27:40Z</time>
      </trkpt>
      <trkpt lat="43.81592" lon="7.27517">
        <ele>782.1</ele>
        <time>2012-04-19T10:27:43Z</time>
      </trkpt>
      <trkpt lat="43.81596" lon="7.27509">
        <ele>780.6</ele>
        <time>2012-04-19T10:27:45Z</time>
      </trkpt>
      <trkpt lat="43.816" lon="7.275">
        <ele>779.4</ele>
        <time>2012-04-19T10:27:47Z</time>
      </trkpt>
      <trkpt lat="43.81604" lon="7.27497">
        <ele>778.4</ele>
        <time>2012-04-19T10:27:48Z</time>
      </trkpt>
      <trkpt lat="43.81608" lon="7.27493">
        <ele>777.7</ele>
        <time>2012-04-19T10:27:49Z</time>
      </trkpt>
      <trkpt lat="43.81613" lon="7.27488">
        <ele>776.5</ele>
        <time>2012-04-19T10:27:50Z</time>
      </trkpt>
      <trkpt lat="43.81619" lon="7.27483">
        <ele>775.7</ele>
        <time>2012-04-19T10:27:51Z</time>
      </trkpt>
      <trkpt lat="43.81624" lon="7.27479">
        <ele>774.5</ele>
        <time>2012-04-19T10:27:52Z</time>
      </trkpt>
      <trkpt lat="43.81628" lon="7.27475">
        <ele>773.6</ele>
        <time>2012-04-19T10:27:53Z</time>
      </trkpt>
      <trkpt lat="43.81634" lon="7.27465">
        <ele>771.5</ele>
        <time>2012-04-19T10:27:55Z</time>
      </trkpt>
      <trkpt lat="43.81638" lon="7.2746">
        <ele>770.4</ele>
        <time>2012-04-19T10:27:56Z</time>
      </trkpt>
      <trkpt lat="43.81642" lon="7.27456">
        <ele>769</ele>
        <time>2012-04-19T10:27:57Z</time>
      </trkpt>
      <trkpt lat="43.81648" lon="7.27452">
        <ele>768</ele>
        <time>2012-04-19T10:27:58Z</time>
      </trkpt>
      <trkpt lat="43.81653" lon="7.27447">
        <ele>767.2</ele>
        <time>2012-04-19T10:27:59Z</time>
      </trkpt>
      <trkpt lat="43.81658" lon="7.27441">
        <ele>766.6</ele>
        <time>2012-04-19T10:28:00Z</time>
      </trkpt>
      <trkpt lat="43.81662" lon="7.27436">
        <ele>766.2</ele>
        <time>2012-04-19T10:28:01Z</time>
      </trkpt>
      <trkpt lat="43.81667" lon="7.27431">
        <ele>765.8</ele>
        <time>2012-04-19T10:28:02Z</time>
      </trkpt>
      <trkpt lat="43.81671" lon="7.27426">
        <ele>765.5</ele>
        <time>2012-04-19T10:28:03Z</time>
      </trkpt>
      <trkpt lat="43.81675" lon="7.27421">
        <ele>764.4</ele>
        <time>2012-04-19T10:28:04Z</time>
      </trkpt>
      <trkpt lat="43.81679" lon="7.27416">
        <ele>763.5</ele>
        <time>2012-04-19T10:28:05Z</time>
      </trkpt>
      <trkpt lat="43.81685" lon="7.27408">
        <ele>762.6</ele>
        <time>2012-04-19T10:28:07Z</time>
      </trkpt>
      <trkpt lat="43.8169" lon="7.27401">
        <ele>762.1</ele>
        <time>2012-04-19T10:28:09Z</time>
      </trkpt>
      <trkpt lat="43.81696" lon="7.27392">
        <ele>762.6</ele>
        <time>2012-04-19T10:28:12Z</time>
      </trkpt>
      <trkpt lat="43.81702" lon="7.27384">
        <ele>762.7</ele>
        <time>2012-04-19T10:28:15Z</time>
      </trkpt>
      <trkpt lat="43.81708" lon="7.27376">
        <ele>762.8</ele>
        <time>2012-04-19T10:28:18Z</time>
      </trkpt>
      <trkpt lat="43.81713" lon="7.2737">
        <ele>762.5</ele>
        <time>2012-04-19T10:28:20Z</time>
      </trkpt>
      <trkpt lat="43.81717" lon="7.27362">
        <ele>762.8</ele>
        <time>2012-04-19T10:28:22Z</time>
      </trkpt>
      <trkpt lat="43.8172" lon="7.27353">
        <ele>762.5</ele>
        <time>2012-04-19T10:28:24Z</time>
      </trkpt>
      <trkpt lat="43.81725" lon="7.27344">
        <ele>762</ele>
        <time>2012-04-19T10:28:26Z</time>
      </trkpt>
      <trkpt lat="43.8173" lon="7.27335">
        <ele>761.9</ele>
        <time>2012-04-19T10:28:28Z</time>
      </trkpt>
      <trkpt lat="43.81734" lon="7.27325">
        <ele>761.8</ele>
        <time>2012-04-19T10:28:30Z</time>
      </trkpt>
      <trkpt lat="43.81737" lon="7.27321">
        <ele>761.7</ele>
        <time>2012-04-19T10:28:31Z</time>
      </trkpt>
      <trkpt lat="43.81742" lon="7.2731">
        <ele>761.7</ele>
        <time>2012-04-19T10:28:33Z</time>
      </trkpt>
      <trkpt lat="43.81746" lon="7.27302">
        <ele>761.9</ele>
        <time>2012-04-19T10:28:35Z</time>
      </trkpt>
      <trkpt lat="43.81751" lon="7.27294">
        <ele>762</ele>
        <time>2012-04-19T10:28:37Z</time>
      </trkpt>
      <trkpt lat="43.81756" lon="7.27284">
        <ele>762.3</ele>
        <time>2012-04-19T10:28:39Z</time>
      </trkpt>
      <trkpt lat="43.81759" lon="7.27279">
        <ele>762.3</ele>
        <time>2012-04-19T10:28:40Z</time>
      </trkpt>
      <trkpt lat="43.81763" lon="7.27275">
        <ele>762.2</ele>
        <time>2012-04-19T10:28:41Z</time>
      </trkpt>
      <trkpt lat="43.81766" lon="7.2727">
        <ele>761.3</ele>
        <time>2012-04-19T10:28:42Z</time>
      </trkpt>
      <trkpt lat="43.81771" lon="7.2726">
        <ele>760.2</ele>
        <time>2012-04-19T10:28:44Z</time>
      </trkpt>
      <trkpt lat="43.81776" lon="7.27252">
        <ele>758.8</ele>
        <time>2012-04-19T10:28:46Z</time>
      </trkpt>
      <trkpt lat="43.81781" lon="7.27243">
        <ele>755.4</ele>
        <time>2012-04-19T10:28:49Z</time>
      </trkpt>
      <trkpt lat="43.81785" lon="7.27236">
        <ele>754.1</ele>
        <time>2012-04-19T10:28:51Z</time>
      </trkpt>
      <trkpt lat="43.81789" lon="7.27228">
        <ele>751.9</ele>
        <time>2012-04-19T10:28:53Z</time>
      </trkpt>
      <trkpt lat="43.81795" lon="7.27222">
        <ele>749</ele>
        <time>2012-04-19T10:28:55Z</time>
      </trkpt>
      <trkpt lat="43.81799" lon="7.27215">
        <ele>746.3</ele>
        <time>2012-04-19T10:28:57Z</time>
      </trkpt>
      <trkpt lat="43.81804" lon="7.27208">
        <ele>744.4</ele>
        <time>2012-04-19T10:28:59Z</time>
      </trkpt>
      <trkpt lat="43.8181" lon="7.272">
        <ele>742.3</ele>
        <time>2012-04-19T10:29:01Z</time>
      </trkpt>
      <trkpt lat="43.81812" lon="7.27196">
        <ele>741.4</ele>
        <time>2012-04-19T10:29:02Z</time>
      </trkpt>
      <trkpt lat="43.81821" lon="7.27186">
        <ele>737.9</ele>
        <time>2012-04-19T10:29:05Z</time>
      </trkpt>
      <trkpt lat="43.81827" lon="7.27178">
        <ele>736.6</ele>
        <time>2012-04-19T10:29:07Z</time>
      </trkpt>
      <trkpt lat="43.81831" lon="7.27174">
        <ele>735</ele>
        <time>2012-04-19T10:29:08Z</time>
      </trkpt>
      <trkpt lat="43.81836" lon="7.27165">
        <ele>732.9</ele>
        <time>2012-04-19T10:29:10Z</time>
      </trkpt>
      <trkpt lat="43.81843" lon="7.27157">
        <ele>730.4</ele>
        <time>2012-04-19T10:29:12Z</time>
      </trkpt>
      <trkpt lat="43.81847" lon="7.27154">
        <ele>729.3</ele>
        <time>2012-04-19T10:29:13Z</time>
      </trkpt>
      <trkpt lat="43.81851" lon="7.2715">
        <ele>728.5</ele>
        <time>2012-04-19T10:29:14Z</time>
      </trkpt>
      <trkpt lat="43.81854" lon="7.27144">
        <ele>727.4</ele>
        <time>2012-04-19T10:29:15Z</time>
      </trkpt>
      <trkpt lat="43.81857" lon="7.27138">
        <ele>726.6</ele>
        <time>2012-04-19T10:29:16Z</time>
      </trkpt>
      <trkpt lat="43.81861" lon="7.27133">
        <ele>726</ele>
        <time>2012-04-19T10:29:17Z</time>
      </trkpt>
      <trkpt lat="43.81864" lon="7.27128">
        <ele>725.4</ele>
        <time>2012-04-19T10:29:18Z</time>
      </trkpt>
      <trkpt lat="43.81868" lon="7.27123">
        <ele>724.9</ele>
        <time>2012-04-19T10:29:19Z</time>
      </trkpt>
      <trkpt lat="43.81871" lon="7.27118">
        <ele>723.7</ele>
        <time>2012-04-19T10:29:20Z</time>
      </trkpt>
      <trkpt lat="43.81874" lon="7.27112">
        <ele>722.8</ele>
        <time>2012-04-19T10:29:21Z</time>
      </trkpt>
      <trkpt lat="43.81878" lon="7.27107">
        <ele>722.1</ele>
        <time>2012-04-19T10:29:22Z</time>
      </trkpt>
      <trkpt lat="43.81882" lon="7.27103">
        <ele>721.1</ele>
        <time>2012-04-19T10:29:23Z</time>
      </trkpt>
      <trkpt lat="43.81886" lon="7.27099">
        <ele>720.2</ele>
        <time>2012-04-19T10:29:24Z</time>
      </trkpt>
      <trkpt lat="43.8189" lon="7.27092">
        <ele>718.9</ele>
        <time>2012-04-19T10:29:25Z</time>
      </trkpt>
      <trkpt lat="43.81894" lon="7.27085">
        <ele>717.8</ele>
        <time>2012-04-19T10:29:26Z</time>
      </trkpt>
      <trkpt lat="43.81898" lon="7.27078">
        <ele>717</ele>
        <time>2012-04-19T10:29:27Z</time>
      </trkpt>
      <trkpt lat="43.81903" lon="7.27072">
        <ele>716.4</ele>
        <time>2012-04-19T10:29:28Z</time>
      </trkpt>
      <trkpt lat="43.81908" lon="7.27065">
        <ele>715.9</ele>
        <time>2012-04-19T10:29:29Z</time>
      </trkpt>
      <trkpt lat="43.81913" lon="7.27059">
        <ele>715.4</ele>
        <time>2012-04-19T10:29:30Z</time>
      </trkpt>
      <trkpt lat="43.81918" lon="7.27053">
        <ele>715</ele>
        <time>2012-04-19T10:29:31Z</time>
      </trkpt>
      <trkpt lat="43.81923" lon="7.27047">
        <ele>714</ele>
        <time>2012-04-19T10:29:32Z</time>
      </trkpt>
      <trkpt lat="43.81928" lon="7.27041">
        <ele>713.1</ele>
        <time>2012-04-19T10:29:33Z</time>
      </trkpt>
      <trkpt lat="43.81933" lon="7.27035">
        <ele>712.3</ele>
        <time>2012-04-19T10:29:34Z</time>
      </trkpt>
      <trkpt lat="43.81938" lon="7.27031">
        <ele>711.7</ele>
        <time>2012-04-19T10:29:35Z</time>
      </trkpt>
      <trkpt lat="43.81946" lon="7.27025">
        <ele>711</ele>
        <time>2012-04-19T10:29:37Z</time>
      </trkpt>
      <trkpt lat="43.8195" lon="7.27015">
        <ele>710.4</ele>
        <time>2012-04-19T10:29:40Z</time>
      </trkpt>
      <trkpt lat="43.81954" lon="7.27006">
        <ele>708.1</ele>
        <time>2012-04-19T10:29:45Z</time>
      </trkpt>
      <trkpt lat="43.81958" lon="7.26999">
        <ele>706.7</ele>
        <time>2012-04-19T10:29:48Z</time>
      </trkpt>
      <trkpt lat="43.81964" lon="7.26994">
        <ele>705.3</ele>
        <time>2012-04-19T10:29:50Z</time>
      </trkpt>
      <trkpt lat="43.8197" lon="7.26989">
        <ele>703.8</ele>
        <time>2012-04-19T10:29:52Z</time>
      </trkpt>
      <trkpt lat="43.81977" lon="7.26986">
        <ele>702</ele>
        <time>2012-04-19T10:29:55Z</time>
      </trkpt>
      <trkpt lat="43.8198" lon="7.26975">
        <ele>699.9</ele>
        <time>2012-04-19T10:29:58Z</time>
      </trkpt>
      <trkpt lat="43.81984" lon="7.26969">
        <ele>698.7</ele>
        <time>2012-04-19T10:30:00Z</time>
      </trkpt>
      <trkpt lat="43.81991" lon="7.26961">
        <ele>697</ele>
        <time>2012-04-19T10:30:03Z</time>
      </trkpt>
      <trkpt lat="43.81993" lon="7.26959">
        <ele>696.3</ele>
        <time>2012-04-19T10:30:04Z</time>
      </trkpt>
      <trkpt lat="43.82002" lon="7.26946">
        <ele>693.5</ele>
        <time>2012-04-19T10:30:09Z</time>
      </trkpt>
      <trkpt lat="43.8201" lon="7.26943">
        <ele>691.2</ele>
        <time>2012-04-19T10:30:12Z</time>
      </trkpt>
      <trkpt lat="43.82018" lon="7.26948">
        <ele>688.4</ele>
        <time>2012-04-19T10:30:16Z</time>
      </trkpt>
      <trkpt lat="43.82025" lon="7.26941">
        <ele>686.7</ele>
        <time>2012-04-19T10:30:19Z</time>
      </trkpt>
      <trkpt lat="43.82032" lon="7.26935">
        <ele>683.1</ele>
        <time>2012-04-19T10:30:22Z</time>
      </trkpt>
      <trkpt lat="43.82035" lon="7.26927">
        <ele>681.2</ele>
        <time>2012-04-19T10:30:24Z</time>
      </trkpt>
      <trkpt lat="43.82043" lon="7.26926">
        <ele>678.9</ele>
        <time>2012-04-19T10:30:27Z</time>
      </trkpt>
      <trkpt lat="43.8205" lon="7.26921">
        <ele>674.1</ele>
        <time>2012-04-19T10:30:31Z</time>
      </trkpt>
      <trkpt lat="43.82052" lon="7.26912">
        <ele>673</ele>
        <time>2012-04-19T10:30:33Z</time>
      </trkpt>
      <trkpt lat="43.82053" lon="7.26903">
        <ele>670.9</ele>
        <time>2012-04-19T10:30:35Z</time>
      </trkpt>
      <trkpt lat="43.82052" lon="7.26897">
        <ele>669.5</ele>
        <time>2012-04-19T10:30:36Z</time>
      </trkpt>
      <trkpt lat="43.82051" lon="7.2689">
        <ele>668.5</ele>
        <time>2012-04-19T10:30:37Z</time>
      </trkpt>
      <trkpt lat="43.82049" lon="7.26879">
        <ele>666.3</ele>
        <time>2012-04-19T10:30:39Z</time>
      </trkpt>
      <trkpt lat="43.82045" lon="7.26869">
        <ele>662.8</ele>
        <time>2012-04-19T10:30:42Z</time>
      </trkpt>
      <trkpt lat="43.82046" lon="7.26859">
        <ele>660.6</ele>
        <time>2012-04-19T10:30:46Z</time>
      </trkpt>
      <trkpt lat="43.82046" lon="7.26847">
        <ele>658.5</ele>
        <time>2012-04-19T10:30:49Z</time>
      </trkpt>
      <trkpt lat="43.82042" lon="7.26838">
        <ele>656.6</ele>
        <time>2012-04-19T10:30:51Z</time>
      </trkpt>
      <trkpt lat="43.82035" lon="7.2683">
        <ele>655</ele>
        <time>2012-04-19T10:30:53Z</time>
      </trkpt>
      <trkpt lat="43.8203" lon="7.26823">
        <ele>652.8</ele>
        <time>2012-04-19T10:30:55Z</time>
      </trkpt>
      <trkpt lat="43.82033" lon="7.26817">
        <ele>648.8</ele>
        <time>2012-04-19T10:30:59Z</time>
      </trkpt>
      <trkpt lat="43.8204" lon="7.26812">
        <ele>647.7</ele>
        <time>2012-04-19T10:31:01Z</time>
      </trkpt>
      <trkpt lat="43.82049" lon="7.26809">
        <ele>646.2</ele>
        <time>2012-04-19T10:31:03Z</time>
      </trkpt>
      <trkpt lat="43.8205" lon="7.26798">
        <ele>641.3</ele>
        <time>2012-04-19T10:31:09Z</time>
      </trkpt>
      <trkpt lat="43.82047" lon="7.26793">
        <ele>640.6</ele>
        <time>2012-04-19T10:31:10Z</time>
      </trkpt>
      <trkpt lat="43.82044" lon="7.26789">
        <ele>640</ele>
        <time>2012-04-19T10:31:11Z</time>
      </trkpt>
      <trkpt lat="43.82037" lon="7.26782">
        <ele>638.2</ele>
        <time>2012-04-19T10:31:13Z</time>
      </trkpt>
      <trkpt lat="43.82044" lon="7.26774">
        <ele>633.3</ele>
        <time>2012-04-19T10:31:18Z</time>
      </trkpt>
      <trkpt lat="43.82052" lon="7.26769">
        <ele>631.8</ele>
        <time>2012-04-19T10:31:20Z</time>
      </trkpt>
      <trkpt lat="43.82059" lon="7.26766">
        <ele>629.8</ele>
        <time>2012-04-19T10:31:23Z</time>
      </trkpt>
      <trkpt lat="43.82066" lon="7.26759">
        <ele>627.3</ele>
        <time>2012-04-19T10:31:26Z</time>
      </trkpt>
      <trkpt lat="43.82075" lon="7.26757">
        <ele>625.8</ele>
        <time>2012-04-19T10:31:29Z</time>
      </trkpt>
      <trkpt lat="43.82072" lon="7.26745">
        <ele>623.8</ele>
        <time>2012-04-19T10:31:32Z</time>
      </trkpt>
      <trkpt lat="43.82071" lon="7.26737">
        <ele>621.8</ele>
        <time>2012-04-19T10:31:34Z</time>
      </trkpt>
      <trkpt lat="43.82067" lon="7.2673">
        <ele>620.1</ele>
        <time>2012-04-19T10:31:36Z</time>
      </trkpt>
      <trkpt lat="43.82062" lon="7.26721">
        <ele>617.1</ele>
        <time>2012-04-19T10:31:39Z</time>
      </trkpt>
      <trkpt lat="43.82062" lon="7.2671">
        <ele>614.3</ele>
        <time>2012-04-19T10:31:42Z</time>
      </trkpt>
      <trkpt lat="43.82063" lon="7.26698">
        <ele>609</ele>
        <time>2012-04-19T10:31:46Z</time>
      </trkpt>
      <trkpt lat="43.82068" lon="7.26694">
        <ele>607.1</ele>
        <time>2012-04-19T10:31:48Z</time>
      </trkpt>
      <trkpt lat="43.82076" lon="7.2669">
        <ele>605.9</ele>
        <time>2012-04-19T10:31:50Z</time>
      </trkpt>
      <trkpt lat="43.82082" lon="7.26688">
        <ele>605.5</ele>
        <time>2012-04-19T10:31:51Z</time>
      </trkpt>
      <trkpt lat="43.82087" lon="7.26687">
        <ele>604.3</ele>
        <time>2012-04-19T10:31:52Z</time>
      </trkpt>
      <trkpt lat="43.82093" lon="7.26688">
        <ele>599</ele>
        <time>2012-04-19T10:31:53Z</time>
      </trkpt>
      <trkpt lat="43.82098" lon="7.26687">
        <ele>595.1</ele>
        <time>2012-04-19T10:31:54Z</time>
      </trkpt>
      <trkpt lat="43.82105" lon="7.26688">
        <ele>588.3</ele>
        <time>2012-04-19T10:31:56Z</time>
      </trkpt>
      <trkpt lat="43.8211" lon="7.26679">
        <ele>580</ele>
        <time>2012-04-19T10:32:01Z</time>
      </trkpt>
      <trkpt lat="43.82116" lon="7.2668">
        <ele>577.8</ele>
        <time>2012-04-19T10:32:03Z</time>
      </trkpt>
      <trkpt lat="43.82113" lon="7.26668">
        <ele>571.1</ele>
        <time>2012-04-19T10:32:13Z</time>
      </trkpt>
      <trkpt lat="43.8211" lon="7.26666">
        <ele>570.7</ele>
        <time>2012-04-19T10:32:14Z</time>
      </trkpt>
      <trkpt lat="43.82099" lon="7.26657">
        <ele>569.1</ele>
        <time>2012-04-19T10:32:17Z</time>
      </trkpt>
      <trkpt lat="43.82092" lon="7.26653">
        <ele>568.5</ele>
        <time>2012-04-19T10:32:19Z</time>
      </trkpt>
      <trkpt lat="43.82085" lon="7.26649">
        <ele>568.2</ele>
        <time>2012-04-19T10:32:21Z</time>
      </trkpt>
      <trkpt lat="43.82077" lon="7.26644">
        <ele>567.3</ele>
        <time>2012-04-19T10:32:23Z</time>
      </trkpt>
      <trkpt lat="43.82069" lon="7.26641">
        <ele>565.6</ele>
        <time>2012-04-19T10:32:25Z</time>
      </trkpt>
      <trkpt lat="43.82064" lon="7.26641">
        <ele>564.6</ele>
        <time>2012-04-19T10:32:26Z</time>
      </trkpt>
      <trkpt lat="43.82059" lon="7.26641">
        <ele>563.9</ele>
        <time>2012-04-19T10:32:27Z</time>
      </trkpt>
      <trkpt lat="43.82054" lon="7.2664">
        <ele>563.2</ele>
        <time>2012-04-19T10:32:28Z</time>
      </trkpt>
      <trkpt lat="43.82049" lon="7.26638">
        <ele>562.7</ele>
        <time>2012-04-19T10:32:29Z</time>
      </trkpt>
      <trkpt lat="43.82044" lon="7.26636">
        <ele>562.2</ele>
        <time>2012-04-19T10:32:30Z</time>
      </trkpt>
      <trkpt lat="43.82039" lon="7.26635">
        <ele>561.8</ele>
        <time>2012-04-19T10:32:31Z</time>
      </trkpt>
      <trkpt lat="43.82034" lon="7.26634">
        <ele>560.9</ele>
        <time>2012-04-19T10:32:32Z</time>
      </trkpt>
      <trkpt lat="43.82029" lon="7.26633">
        <ele>560.2</ele>
        <time>2012-04-19T10:32:33Z</time>
      </trkpt>
      <trkpt lat="43.82025" lon="7.26631">
        <ele>559.7</ele>
        <time>2012-04-19T10:32:34Z</time>
      </trkpt>
      <trkpt lat="43.82019" lon="7.2663">
        <ele>558.6</ele>
        <time>2012-04-19T10:32:35Z</time>
      </trkpt>
      <trkpt lat="43.82013" lon="7.2663">
        <ele>557.8</ele>
        <time>2012-04-19T10:32:36Z</time>
      </trkpt>
      <trkpt lat="43.82007" lon="7.2663">
        <ele>556.1</ele>
        <time>2012-04-19T10:32:37Z</time>
      </trkpt>
      <trkpt lat="43.82001" lon="7.2663">
        <ele>554.9</ele>
        <time>2012-04-19T10:32:38Z</time>
      </trkpt>
      <trkpt lat="43.81997" lon="7.26631">
        <ele>553.9</ele>
        <time>2012-04-19T10:32:39Z</time>
      </trkpt>
      <trkpt lat="43.81988" lon="7.26631">
        <ele>552</ele>
        <time>2012-04-19T10:32:41Z</time>
      </trkpt>
      <trkpt lat="43.8198" lon="7.26633">
        <ele>549.5</ele>
        <time>2012-04-19T10:32:43Z</time>
      </trkpt>
      <trkpt lat="43.81972" lon="7.26634">
        <ele>548.5</ele>
        <time>2012-04-19T10:32:45Z</time>
      </trkpt>
      <trkpt lat="43.81966" lon="7.26635">
        <ele>548.2</ele>
        <time>2012-04-19T10:32:46Z</time>
      </trkpt>
      <trkpt lat="43.8196" lon="7.26637">
        <ele>547</ele>
        <time>2012-04-19T10:32:47Z</time>
      </trkpt>
      <trkpt lat="43.81954" lon="7.2664">
        <ele>546.1</ele>
        <time>2012-04-19T10:32:48Z</time>
      </trkpt>
      <trkpt lat="43.81949" lon="7.26641">
        <ele>544.9</ele>
        <time>2012-04-19T10:32:49Z</time>
      </trkpt>
      <trkpt lat="43.81944" lon="7.26642">
        <ele>544</ele>
        <time>2012-04-19T10:32:50Z</time>
      </trkpt>
      <trkpt lat="43.8194" lon="7.26644">
        <ele>542.8</ele>
        <time>2012-04-19T10:32:51Z</time>
      </trkpt>
      <trkpt lat="43.81931" lon="7.26646">
        <ele>541.3</ele>
        <time>2012-04-19T10:32:53Z</time>
      </trkpt>
      <trkpt lat="43.81926" lon="7.26647">
        <ele>540</ele>
        <time>2012-04-19T10:32:54Z</time>
      </trkpt>
      <trkpt lat="43.8192" lon="7.26648">
        <ele>539.1</ele>
        <time>2012-04-19T10:32:55Z</time>
      </trkpt>
      <trkpt lat="43.81913" lon="7.26651">
        <ele>537.3</ele>
        <time>2012-04-19T10:32:57Z</time>
      </trkpt>
      <trkpt lat="43.81906" lon="7.26652">
        <ele>535.7</ele>
        <time>2012-04-19T10:33:00Z</time>
      </trkpt>
      <trkpt lat="43.81897" lon="7.26651">
        <ele>532</ele>
        <time>2012-04-19T10:33:04Z</time>
      </trkpt>
      <trkpt lat="43.8189" lon="7.26654">
        <ele>530.9</ele>
        <time>2012-04-19T10:33:06Z</time>
      </trkpt>
      <trkpt lat="43.81886" lon="7.26657">
        <ele>530.4</ele>
        <time>2012-04-19T10:33:07Z</time>
      </trkpt>
      <trkpt lat="43.81881" lon="7.2666">
        <ele>529.5</ele>
        <time>2012-04-19T10:33:08Z</time>
      </trkpt>
      <trkpt lat="43.81876" lon="7.26663">
        <ele>528.8</ele>
        <time>2012-04-19T10:33:09Z</time>
      </trkpt>
      <trkpt lat="43.8187" lon="7.26667">
        <ele>527.9</ele>
        <time>2012-04-19T10:33:10Z</time>
      </trkpt>
      <trkpt lat="43.81864" lon="7.26671">
        <ele>527.3</ele>
        <time>2012-04-19T10:33:11Z</time>
      </trkpt>
      <trkpt lat="43.81859" lon="7.26675">
        <ele>526.8</ele>
        <time>2012-04-19T10:33:12Z</time>
      </trkpt>
      <trkpt lat="43.81851" lon="7.26679">
        <ele>525.2</ele>
        <time>2012-04-19T10:33:14Z</time>
      </trkpt>
      <trkpt lat="43.81847" lon="7.26681">
        <ele>523.9</ele>
        <time>2012-04-19T10:33:15Z</time>
      </trkpt>
      <trkpt lat="43.81842" lon="7.26685">
        <ele>522.8</ele>
        <time>2012-04-19T10:33:16Z</time>
      </trkpt>
      <trkpt lat="43.81837" lon="7.2669">
        <ele>522.1</ele>
        <time>2012-04-19T10:33:17Z</time>
      </trkpt>
      <trkpt lat="43.81833" lon="7.26695">
        <ele>521.5</ele>
        <time>2012-04-19T10:33:18Z</time>
      </trkpt>
      <trkpt lat="43.81828" lon="7.267">
        <ele>521</ele>
        <time>2012-04-19T10:33:19Z</time>
      </trkpt>
      <trkpt lat="43.81824" lon="7.26704">
        <ele>520.2</ele>
        <time>2012-04-19T10:33:20Z</time>
      </trkpt>
      <trkpt lat="43.81819" lon="7.26709">
        <ele>519.5</ele>
        <time>2012-04-19T10:33:21Z</time>
      </trkpt>
      <trkpt lat="43.81815" lon="7.26714">
        <ele>519</ele>
        <time>2012-04-19T10:33:22Z</time>
      </trkpt>
      <trkpt lat="43.81811" lon="7.26718">
        <ele>518.6</ele>
        <time>2012-04-19T10:33:23Z</time>
      </trkpt>
      <trkpt lat="43.81806" lon="7.26722">
        <ele>518.2</ele>
        <time>2012-04-19T10:33:24Z</time>
      </trkpt>
      <trkpt lat="43.81802" lon="7.26727">
        <ele>517.6</ele>
        <time>2012-04-19T10:33:25Z</time>
      </trkpt>
      <trkpt lat="43.81797" lon="7.2673">
        <ele>517</ele>
        <time>2012-04-19T10:33:26Z</time>
      </trkpt>
      <trkpt lat="43.81793" lon="7.26734">
        <ele>516.2</ele>
        <time>2012-04-19T10:33:27Z</time>
      </trkpt>
      <trkpt lat="43.81788" lon="7.26737">
        <ele>515.6</ele>
        <time>2012-04-19T10:33:28Z</time>
      </trkpt>
      <trkpt lat="43.81783" lon="7.26739">
        <ele>515</ele>
        <time>2012-04-19T10:33:29Z</time>
      </trkpt>
      <trkpt lat="43.81778" lon="7.26741">
        <ele>514.6</ele>
        <time>2012-04-19T10:33:30Z</time>
      </trkpt>
      <trkpt lat="43.81773" lon="7.26744">
        <ele>514.3</ele>
        <time>2012-04-19T10:33:31Z</time>
      </trkpt>
      <trkpt lat="43.81768" lon="7.26747">
        <ele>513.7</ele>
        <time>2012-04-19T10:33:32Z</time>
      </trkpt>
      <trkpt lat="43.81763" lon="7.2675">
        <ele>513.3</ele>
        <time>2012-04-19T10:33:33Z</time>
      </trkpt>
      <trkpt lat="43.81759" lon="7.26754">
        <ele>512.6</ele>
        <time>2012-04-19T10:33:34Z</time>
      </trkpt>
      <trkpt lat="43.81754" lon="7.26758">
        <ele>512.1</ele>
        <time>2012-04-19T10:33:35Z</time>
      </trkpt>
      <trkpt lat="43.8175" lon="7.26763">
        <ele>511.7</ele>
        <time>2012-04-19T10:33:36Z</time>
      </trkpt>
      <trkpt lat="43.81745" lon="7.26767">
        <ele>510.7</ele>
        <time>2012-04-19T10:33:37Z</time>
      </trkpt>
      <trkpt lat="43.81741" lon="7.2677">
        <ele>509.9</ele>
        <time>2012-04-19T10:33:38Z</time>
      </trkpt>
      <trkpt lat="43.81733" lon="7.26774">
        <ele>509.8</ele>
        <time>2012-04-19T10:33:40Z</time>
      </trkpt>
      <trkpt lat="43.81728" lon="7.26776">
        <ele>509.3</ele>
        <time>2012-04-19T10:33:41Z</time>
      </trkpt>
      <trkpt lat="43.81719" lon="7.26778">
        <ele>508.7</ele>
        <time>2012-04-19T10:33:43Z</time>
      </trkpt>
      <trkpt lat="43.81712" lon="7.26777">
        <ele>507.9</ele>
        <time>2012-04-19T10:33:45Z</time>
      </trkpt>
      <trkpt lat="43.81707" lon="7.26776">
        <ele>507.3</ele>
        <time>2012-04-19T10:33:46Z</time>
      </trkpt>
      <trkpt lat="43.81702" lon="7.26776">
        <ele>506.8</ele>
        <time>2012-04-19T10:33:47Z</time>
      </trkpt>
      <trkpt lat="43.81695" lon="7.26777">
        <ele>505.5</ele>
        <time>2012-04-19T10:33:48Z</time>
      </trkpt>
      <trkpt lat="43.81689" lon="7.26778">
        <ele>504.5</ele>
        <time>2012-04-19T10:33:49Z</time>
      </trkpt>
      <trkpt lat="43.81682" lon="7.26779">
        <ele>503.8</ele>
        <time>2012-04-19T10:33:50Z</time>
      </trkpt>
      <trkpt lat="43.81677" lon="7.26782">
        <ele>502.5</ele>
        <time>2012-04-19T10:33:51Z</time>
      </trkpt>
      <trkpt lat="43.81671" lon="7.26785">
        <ele>501.5</ele>
        <time>2012-04-19T10:33:52Z</time>
      </trkpt>
      <trkpt lat="43.81665" lon="7.26788">
        <ele>500.8</ele>
        <time>2012-04-19T10:33:53Z</time>
      </trkpt>
      <trkpt lat="43.81659" lon="7.2679">
        <ele>500.3</ele>
        <time>2012-04-19T10:33:54Z</time>
      </trkpt>
      <trkpt lat="43.81653" lon="7.26793">
        <ele>499.9</ele>
        <time>2012-04-19T10:33:55Z</time>
      </trkpt>
      <trkpt lat="43.81647" lon="7.26797">
        <ele>499</ele>
        <time>2012-04-19T10:33:56Z</time>
      </trkpt>
      <trkpt lat="43.81642" lon="7.268">
        <ele>498.3</ele>
        <time>2012-04-19T10:33:57Z</time>
      </trkpt>
      <trkpt lat="43.81636" lon="7.26803">
        <ele>498.2</ele>
        <time>2012-04-19T10:33:58Z</time>
      </trkpt>
      <trkpt lat="43.81631" lon="7.26805">
        <ele>498.1</ele>
        <time>2012-04-19T10:33:59Z</time>
      </trkpt>
      <trkpt lat="43.81626" lon="7.26808">
        <ele>497.4</ele>
        <time>2012-04-19T10:34:00Z</time>
      </trkpt>
      <trkpt lat="43.81617" lon="7.2681">
        <ele>496.4</ele>
        <time>2012-04-19T10:34:02Z</time>
      </trkpt>
      <trkpt lat="43.8161" lon="7.2681">
        <ele>494.8</ele>
        <time>2012-04-19T10:34:04Z</time>
      </trkpt>
      <trkpt lat="43.81603" lon="7.26807">
        <ele>492.9</ele>
        <time>2012-04-19T10:34:06Z</time>
      </trkpt>
      <trkpt lat="43.81597" lon="7.26807">
        <ele>491.7</ele>
        <time>2012-04-19T10:34:07Z</time>
      </trkpt>
      <trkpt lat="43.81592" lon="7.26807">
        <ele>490.9</ele>
        <time>2012-04-19T10:34:08Z</time>
      </trkpt>
      <trkpt lat="43.81587" lon="7.26806">
        <ele>490.3</ele>
        <time>2012-04-19T10:34:09Z</time>
      </trkpt>
      <trkpt lat="43.81583" lon="7.26804">
        <ele>488.5</ele>
        <time>2012-04-19T10:34:10Z</time>
      </trkpt>
      <trkpt lat="43.81579" lon="7.268">
        <ele>487.3</ele>
        <time>2012-04-19T10:34:11Z</time>
      </trkpt>
      <trkpt lat="43.81574" lon="7.26798">
        <ele>485.6</ele>
        <time>2012-04-19T10:34:12Z</time>
      </trkpt>
      <trkpt lat="43.81569" lon="7.26797">
        <ele>484.3</ele>
        <time>2012-04-19T10:34:13Z</time>
      </trkpt>
      <trkpt lat="43.81564" lon="7.26797">
        <ele>483.3</ele>
        <time>2012-04-19T10:34:14Z</time>
      </trkpt>
      <trkpt lat="43.81559" lon="7.26799">
        <ele>482.4</ele>
        <time>2012-04-19T10:34:15Z</time>
      </trkpt>
      <trkpt lat="43.81554" lon="7.26802">
        <ele>481.7</ele>
        <time>2012-04-19T10:34:16Z</time>
      </trkpt>
      <trkpt lat="43.81542" lon="7.26806">
        <ele>476.6</ele>
        <time>2012-04-19T10:34:34Z</time>
      </trkpt>
      <trkpt lat="43.81535" lon="7.26808">
        <ele>476.4</ele>
        <time>2012-04-19T10:34:38Z</time>
      </trkpt>
      <trkpt lat="43.81527" lon="7.26811">
        <ele>476.3</ele>
        <time>2012-04-19T10:34:41Z</time>
      </trkpt>
      <trkpt lat="43.81519" lon="7.26812">
        <ele>476.3</ele>
        <time>2012-04-19T10:34:44Z</time>
      </trkpt>
      <trkpt lat="43.81516" lon="7.26803">
        <ele>476.1</ele>
        <time>2012-04-19T10:34:48Z</time>
      </trkpt>
      <trkpt lat="43.81513" lon="7.26795">
        <ele>475.8</ele>
        <time>2012-04-19T10:34:50Z</time>
      </trkpt>
      <trkpt lat="43.81507" lon="7.26789">
        <ele>476.2</ele>
        <time>2012-04-19T10:34:52Z</time>
      </trkpt>
      <trkpt lat="43.81501" lon="7.26781">
        <ele>476.7</ele>
        <time>2012-04-19T10:34:54Z</time>
      </trkpt>
      <trkpt lat="43.81493" lon="7.26775">
        <ele>476.6</ele>
        <time>2012-04-19T10:34:56Z</time>
      </trkpt>
      <trkpt lat="43.81489" lon="7.26774">
        <ele>476.2</ele>
        <time>2012-04-19T10:34:57Z</time>
      </trkpt>
      <trkpt lat="43.81484" lon="7.26774">
        <ele>475.9</ele>
        <time>2012-04-19T10:34:58Z</time>
      </trkpt>
      <trkpt lat="43.81479" lon="7.26775">
        <ele>475.7</ele>
        <time>2012-04-19T10:34:59Z</time>
      </trkpt>
      <trkpt lat="43.81474" lon="7.26776">
        <ele>475.3</ele>
        <time>2012-04-19T10:35:00Z</time>
      </trkpt>
      <trkpt lat="43.81469" lon="7.26777">
        <ele>474.9</ele>
        <time>2012-04-19T10:35:01Z</time>
      </trkpt>
      <trkpt lat="43.81463" lon="7.26778">
        <ele>474.7</ele>
        <time>2012-04-19T10:35:02Z</time>
      </trkpt>
      <trkpt lat="43.81457" lon="7.26779">
        <ele>474.6</ele>
        <time>2012-04-19T10:35:03Z</time>
      </trkpt>
      <trkpt lat="43.81451" lon="7.2678">
        <ele>474.5</ele>
        <time>2012-04-19T10:35:04Z</time>
      </trkpt>
      <trkpt lat="43.81444" lon="7.26781">
        <ele>474.4</ele>
        <time>2012-04-19T10:35:05Z</time>
      </trkpt>
      <trkpt lat="43.81438" lon="7.2678">
        <ele>474.4</ele>
        <time>2012-04-19T10:35:06Z</time>
      </trkpt>
      <trkpt lat="43.81431" lon="7.26779">
        <ele>473.6</ele>
        <time>2012-04-19T10:35:07Z</time>
      </trkpt>
      <trkpt lat="43.81425" lon="7.26778">
        <ele>472.9</ele>
        <time>2012-04-19T10:35:08Z</time>
      </trkpt>
      <trkpt lat="43.81418" lon="7.26776">
        <ele>472.7</ele>
        <time>2012-04-19T10:35:09Z</time>
      </trkpt>
      <trkpt lat="43.81411" lon="7.26774">
        <ele>472.5</ele>
        <time>2012-04-19T10:35:10Z</time>
      </trkpt>
      <trkpt lat="43.81404" lon="7.26772">
        <ele>472.3</ele>
        <time>2012-04-19T10:35:11Z</time>
      </trkpt>
      <trkpt lat="43.81398" lon="7.2677">
        <ele>471.8</ele>
        <time>2012-04-19T10:35:12Z</time>
      </trkpt>
      <trkpt lat="43.81391" lon="7.26767">
        <ele>471.3</ele>
        <time>2012-04-19T10:35:13Z</time>
      </trkpt>
      <trkpt lat="43.81384" lon="7.26764">
        <ele>470.6</ele>
        <time>2012-04-19T10:35:14Z</time>
      </trkpt>
      <trkpt lat="43.81378" lon="7.2676">
        <ele>470.1</ele>
        <time>2012-04-19T10:35:15Z</time>
      </trkpt>
      <trkpt lat="43.81371" lon="7.26757">
        <ele>469.5</ele>
        <time>2012-04-19T10:35:16Z</time>
      </trkpt>
      <trkpt lat="43.81365" lon="7.26754">
        <ele>469</ele>
        <time>2012-04-19T10:35:17Z</time>
      </trkpt>
      <trkpt lat="43.81358" lon="7.26751">
        <ele>468.7</ele>
        <time>2012-04-19T10:35:18Z</time>
      </trkpt>
      <trkpt lat="43.81352" lon="7.2675">
        <ele>468</ele>
        <time>2012-04-19T10:35:19Z</time>
      </trkpt>
      <trkpt lat="43.81345" lon="7.26749">
        <ele>467.5</ele>
        <time>2012-04-19T10:35:20Z</time>
      </trkpt>
      <trkpt lat="43.81338" lon="7.26749">
        <ele>466.9</ele>
        <time>2012-04-19T10:35:21Z</time>
      </trkpt>
      <trkpt lat="43.81331" lon="7.26749">
        <ele>466.5</ele>
        <time>2012-04-19T10:35:22Z</time>
      </trkpt>
      <trkpt lat="43.81324" lon="7.2675">
        <ele>465.6</ele>
        <time>2012-04-19T10:35:23Z</time>
      </trkpt>
      <trkpt lat="43.81316" lon="7.26752">
        <ele>465</ele>
        <time>2012-04-19T10:35:24Z</time>
      </trkpt>
      <trkpt lat="43.81309" lon="7.26755">
        <ele>464.5</ele>
        <time>2012-04-19T10:35:25Z</time>
      </trkpt>
      <trkpt lat="43.81303" lon="7.26759">
        <ele>463.9</ele>
        <time>2012-04-19T10:35:26Z</time>
      </trkpt>
      <trkpt lat="43.81296" lon="7.26763">
        <ele>463.4</ele>
        <time>2012-04-19T10:35:27Z</time>
      </trkpt>
      <trkpt lat="43.81289" lon="7.26767">
        <ele>462.7</ele>
        <time>2012-04-19T10:35:28Z</time>
      </trkpt>
      <trkpt lat="43.81282" lon="7.26771">
        <ele>462.2</ele>
        <time>2012-04-19T10:35:29Z</time>
      </trkpt>
      <trkpt lat="43.81275" lon="7.26775">
        <ele>461.8</ele>
        <time>2012-04-19T10:35:30Z</time>
      </trkpt>
      <trkpt lat="43.81269" lon="7.26778">
        <ele>461.3</ele>
        <time>2012-04-19T10:35:31Z</time>
      </trkpt>
      <trkpt lat="43.81261" lon="7.26781">
        <ele>460.9</ele>
        <time>2012-04-19T10:35:32Z</time>
      </trkpt>
      <trkpt lat="43.81254" lon="7.26784">
        <ele>460.4</ele>
        <time>2012-04-19T10:35:33Z</time>
      </trkpt>
      <trkpt lat="43.81247" lon="7.26785">
        <ele>460</ele>
        <time>2012-04-19T10:35:34Z</time>
      </trkpt>
      <trkpt lat="43.81239" lon="7.26786">
        <ele>459.5</ele>
        <time>2012-04-19T10:35:35Z</time>
      </trkpt>
      <trkpt lat="43.81232" lon="7.26786">
        <ele>459.2</ele>
        <time>2012-04-19T10:35:36Z</time>
      </trkpt>
      <trkpt lat="43.81224" lon="7.26785">
        <ele>458.9</ele>
        <time>2012-04-19T10:35:37Z</time>
      </trkpt>
      <trkpt lat="43.81216" lon="7.26784">
        <ele>458.2</ele>
        <time>2012-04-19T10:35:38Z</time>
      </trkpt>
      <trkpt lat="43.81208" lon="7.26782">
        <ele>457.6</ele>
        <time>2012-04-19T10:35:39Z</time>
      </trkpt>
      <trkpt lat="43.812" lon="7.2678">
        <ele>456.8</ele>
        <time>2012-04-19T10:35:40Z</time>
      </trkpt>
      <trkpt lat="43.81192" lon="7.26778">
        <ele>456.1</ele>
        <time>2012-04-19T10:35:41Z</time>
      </trkpt>
      <trkpt lat="43.81184" lon="7.26777">
        <ele>455.7</ele>
        <time>2012-04-19T10:35:42Z</time>
      </trkpt>
      <trkpt lat="43.81176" lon="7.26775">
        <ele>455.4</ele>
        <time>2012-04-19T10:35:43Z</time>
      </trkpt>
      <trkpt lat="43.81168" lon="7.26773">
        <ele>455.1</ele>
        <time>2012-04-19T10:35:44Z</time>
      </trkpt>
      <trkpt lat="43.81161" lon="7.26772">
        <ele>454.2</ele>
        <time>2012-04-19T10:35:45Z</time>
      </trkpt>
      <trkpt lat="43.81153" lon="7.26773">
        <ele>453.5</ele>
        <time>2012-04-19T10:35:46Z</time>
      </trkpt>
      <trkpt lat="43.81145" lon="7.26775">
        <ele>453.2</ele>
        <time>2012-04-19T10:35:47Z</time>
      </trkpt>
      <trkpt lat="43.81137" lon="7.26778">
        <ele>452.9</ele>
        <time>2012-04-19T10:35:48Z</time>
      </trkpt>
      <trkpt lat="43.81129" lon="7.26781">
        <ele>452.2</ele>
        <time>2012-04-19T10:35:49Z</time>
      </trkpt>
      <trkpt lat="43.81121" lon="7.26786">
        <ele>451.6</ele>
        <time>2012-04-19T10:35:50Z</time>
      </trkpt>
      <trkpt lat="43.81113" lon="7.2679">
        <ele>451.2</ele>
        <time>2012-04-19T10:35:51Z</time>
      </trkpt>
      <trkpt lat="43.81105" lon="7.26794">
        <ele>450.7</ele>
        <time>2012-04-19T10:35:52Z</time>
      </trkpt>
      <trkpt lat="43.81097" lon="7.26796">
        <ele>450.3</ele>
        <time>2012-04-19T10:35:53Z</time>
      </trkpt>
      <trkpt lat="43.81088" lon="7.26797">
        <ele>449.9</ele>
        <time>2012-04-19T10:35:54Z</time>
      </trkpt>
      <trkpt lat="43.8108" lon="7.26796">
        <ele>449.5</ele>
        <time>2012-04-19T10:35:55Z</time>
      </trkpt>
      <trkpt lat="43.81071" lon="7.26795">
        <ele>449.3</ele>
        <time>2012-04-19T10:35:56Z</time>
      </trkpt>
      <trkpt lat="43.81063" lon="7.26793">
        <ele>448.4</ele>
        <time>2012-04-19T10:35:57Z</time>
      </trkpt>
      <trkpt lat="43.81054" lon="7.26791">
        <ele>447.7</ele>
        <time>2012-04-19T10:35:58Z</time>
      </trkpt>
      <trkpt lat="43.81045" lon="7.2679">
        <ele>446.8</ele>
        <time>2012-04-19T10:35:59Z</time>
      </trkpt>
      <trkpt lat="43.81036" lon="7.26789">
        <ele>446</ele>
        <time>2012-04-19T10:36:00Z</time>
      </trkpt>
      <trkpt lat="43.81027" lon="7.26789">
        <ele>445.3</ele>
        <time>2012-04-19T10:36:01Z</time>
      </trkpt>
      <trkpt lat="43.81018" lon="7.26789">
        <ele>444.8</ele>
        <time>2012-04-19T10:36:02Z</time>
      </trkpt>
      <trkpt lat="43.81009" lon="7.2679">
        <ele>444.4</ele>
        <time>2012-04-19T10:36:03Z</time>
      </trkpt>
      <trkpt lat="43.81" lon="7.26792">
        <ele>444.1</ele>
        <time>2012-04-19T10:36:04Z</time>
      </trkpt>
      <trkpt lat="43.80991" lon="7.26795">
        <ele>443.9</ele>
        <time>2012-04-19T10:36:05Z</time>
      </trkpt>
      <trkpt lat="43.80982" lon="7.26797">
        <ele>443.2</ele>
        <time>2012-04-19T10:36:06Z</time>
      </trkpt>
      <trkpt lat="43.80972" lon="7.268">
        <ele>442.7</ele>
        <time>2012-04-19T10:36:07Z</time>
      </trkpt>
      <trkpt lat="43.80963" lon="7.26803">
        <ele>442.1</ele>
        <time>2012-04-19T10:36:08Z</time>
      </trkpt>
      <trkpt lat="43.80953" lon="7.26806">
        <ele>441.7</ele>
        <time>2012-04-19T10:36:09Z</time>
      </trkpt>
      <trkpt lat="43.80944" lon="7.26808">
        <ele>441.3</ele>
        <time>2012-04-19T10:36:10Z</time>
      </trkpt>
      <trkpt lat="43.80934" lon="7.26811">
        <ele>440.2</ele>
        <time>2012-04-19T10:36:11Z</time>
      </trkpt>
      <trkpt lat="43.80925" lon="7.26814">
        <ele>439.4</ele>
        <time>2012-04-19T10:36:12Z</time>
      </trkpt>
      <trkpt lat="43.80915" lon="7.26817">
        <ele>438.5</ele>
        <time>2012-04-19T10:36:13Z</time>
      </trkpt>
      <trkpt lat="43.80906" lon="7.2682">
        <ele>437.7</ele>
        <time>2012-04-19T10:36:14Z</time>
      </trkpt>
      <trkpt lat="43.80897" lon="7.26823">
        <ele>437.2</ele>
        <time>2012-04-19T10:36:15Z</time>
      </trkpt>
      <trkpt lat="43.80888" lon="7.26825">
        <ele>436.6</ele>
        <time>2012-04-19T10:36:16Z</time>
      </trkpt>
      <trkpt lat="43.80879" lon="7.26826">
        <ele>436.2</ele>
        <time>2012-04-19T10:36:17Z</time>
      </trkpt>
      <trkpt lat="43.8087" lon="7.26827">
        <ele>435.3</ele>
        <time>2012-04-19T10:36:18Z</time>
      </trkpt>
      <trkpt lat="43.80862" lon="7.26826">
        <ele>434.6</ele>
        <time>2012-04-19T10:36:19Z</time>
      </trkpt>
      <trkpt lat="43.80854" lon="7.26825">
        <ele>434</ele>
        <time>2012-04-19T10:36:20Z</time>
      </trkpt>
      <trkpt lat="43.80846" lon="7.26823">
        <ele>433.5</ele>
        <time>2012-04-19T10:36:21Z</time>
      </trkpt>
      <trkpt lat="43.80837" lon="7.2682">
        <ele>433.1</ele>
        <time>2012-04-19T10:36:22Z</time>
      </trkpt>
      <trkpt lat="43.80829" lon="7.26817">
        <ele>432.5</ele>
        <time>2012-04-19T10:36:23Z</time>
      </trkpt>
      <trkpt lat="43.80821" lon="7.26814">
        <ele>432</ele>
        <time>2012-04-19T10:36:24Z</time>
      </trkpt>
      <trkpt lat="43.80814" lon="7.26811">
        <ele>431.3</ele>
        <time>2012-04-19T10:36:25Z</time>
      </trkpt>
      <trkpt lat="43.80806" lon="7.2681">
        <ele>430.7</ele>
        <time>2012-04-19T10:36:26Z</time>
      </trkpt>
      <trkpt lat="43.80799" lon="7.26809">
        <ele>429.9</ele>
        <time>2012-04-19T10:36:27Z</time>
      </trkpt>
      <trkpt lat="43.80792" lon="7.2681">
        <ele>429.2</ele>
        <time>2012-04-19T10:36:28Z</time>
      </trkpt>
      <trkpt lat="43.80785" lon="7.26811">
        <ele>428.7</ele>
        <time>2012-04-19T10:36:29Z</time>
      </trkpt>
      <trkpt lat="43.80778" lon="7.26813">
        <ele>428.2</ele>
        <time>2012-04-19T10:36:30Z</time>
      </trkpt>
      <trkpt lat="43.80771" lon="7.26815">
        <ele>427.8</ele>
        <time>2012-04-19T10:36:31Z</time>
      </trkpt>
      <trkpt lat="43.80766" lon="7.26817">
        <ele>427.2</ele>
        <time>2012-04-19T10:36:32Z</time>
      </trkpt>
      <trkpt lat="43.8076" lon="7.26819">
        <ele>426.7</ele>
        <time>2012-04-19T10:36:33Z</time>
      </trkpt>
      <trkpt lat="43.80753" lon="7.26821">
        <ele>426.4</ele>
        <time>2012-04-19T10:36:34Z</time>
      </trkpt>
      <trkpt lat="43.80747" lon="7.26824">
        <ele>425.7</ele>
        <time>2012-04-19T10:36:35Z</time>
      </trkpt>
      <trkpt lat="43.80741" lon="7.26827">
        <ele>425.1</ele>
        <time>2012-04-19T10:36:36Z</time>
      </trkpt>
      <trkpt lat="43.80735" lon="7.2683">
        <ele>424.8</ele>
        <time>2012-04-19T10:36:37Z</time>
      </trkpt>
      <trkpt lat="43.80728" lon="7.26833">
        <ele>424.6</ele>
        <time>2012-04-19T10:36:38Z</time>
      </trkpt>
      <trkpt lat="43.80722" lon="7.26836">
        <ele>424</ele>
        <time>2012-04-19T10:36:39Z</time>
      </trkpt>
      <trkpt lat="43.80715" lon="7.2684">
        <ele>423.5</ele>
        <time>2012-04-19T10:36:40Z</time>
      </trkpt>
      <trkpt lat="43.80709" lon="7.26843">
        <ele>423.1</ele>
        <time>2012-04-19T10:36:41Z</time>
      </trkpt>
      <trkpt lat="43.80703" lon="7.26847">
        <ele>422.5</ele>
        <time>2012-04-19T10:36:42Z</time>
      </trkpt>
      <trkpt lat="43.80697" lon="7.26851">
        <ele>422</ele>
        <time>2012-04-19T10:36:43Z</time>
      </trkpt>
      <trkpt lat="43.80691" lon="7.26856">
        <ele>421.9</ele>
        <time>2012-04-19T10:36:44Z</time>
      </trkpt>
      <trkpt lat="43.80686" lon="7.26861">
        <ele>421.7</ele>
        <time>2012-04-19T10:36:45Z</time>
      </trkpt>
      <trkpt lat="43.80681" lon="7.26867">
        <ele>420.9</ele>
        <time>2012-04-19T10:36:46Z</time>
      </trkpt>
      <trkpt lat="43.80675" lon="7.26872">
        <ele>420.2</ele>
        <time>2012-04-19T10:36:47Z</time>
      </trkpt>
      <trkpt lat="43.80669" lon="7.26877">
        <ele>419.7</ele>
        <time>2012-04-19T10:36:48Z</time>
      </trkpt>
      <trkpt lat="43.80662" lon="7.26881">
        <ele>419.2</ele>
        <time>2012-04-19T10:36:49Z</time>
      </trkpt>
      <trkpt lat="43.80654" lon="7.26884">
        <ele>418.7</ele>
        <time>2012-04-19T10:36:50Z</time>
      </trkpt>
      <trkpt lat="43.80647" lon="7.26887">
        <ele>418.5</ele>
        <time>2012-04-19T10:36:51Z</time>
      </trkpt>
      <trkpt lat="43.80639" lon="7.2689">
        <ele>418.4</ele>
        <time>2012-04-19T10:36:52Z</time>
      </trkpt>
      <trkpt lat="43.80632" lon="7.26893">
        <ele>418.3</ele>
        <time>2012-04-19T10:36:53Z</time>
      </trkpt>
      <trkpt lat="43.80624" lon="7.26896">
        <ele>417.7</ele>
        <time>2012-04-19T10:36:54Z</time>
      </trkpt>
      <trkpt lat="43.80616" lon="7.26899">
        <ele>417.2</ele>
        <time>2012-04-19T10:36:55Z</time>
      </trkpt>
      <trkpt lat="43.80609" lon="7.26901">
        <ele>416.6</ele>
        <time>2012-04-19T10:36:56Z</time>
      </trkpt>
      <trkpt lat="43.80601" lon="7.26904">
        <ele>416.1</ele>
        <time>2012-04-19T10:36:57Z</time>
      </trkpt>
      <trkpt lat="43.80593" lon="7.26906">
        <ele>415.8</ele>
        <time>2012-04-19T10:36:58Z</time>
      </trkpt>
      <trkpt lat="43.80586" lon="7.26908">
        <ele>415.6</ele>
        <time>2012-04-19T10:36:59Z</time>
      </trkpt>
      <trkpt lat="43.80579" lon="7.26911">
        <ele>415.4</ele>
        <time>2012-04-19T10:37:00Z</time>
      </trkpt>
      <trkpt lat="43.80571" lon="7.26914">
        <ele>414.4</ele>
        <time>2012-04-19T10:37:01Z</time>
      </trkpt>
      <trkpt lat="43.80563" lon="7.26916">
        <ele>413.7</ele>
        <time>2012-04-19T10:37:02Z</time>
      </trkpt>
      <trkpt lat="43.80556" lon="7.26918">
        <ele>412.8</ele>
        <time>2012-04-19T10:37:03Z</time>
      </trkpt>
      <trkpt lat="43.80548" lon="7.2692">
        <ele>412.1</ele>
        <time>2012-04-19T10:37:04Z</time>
      </trkpt>
      <trkpt lat="43.80541" lon="7.26922">
        <ele>411.2</ele>
        <time>2012-04-19T10:37:05Z</time>
      </trkpt>
      <trkpt lat="43.80533" lon="7.26923">
        <ele>410.6</ele>
        <time>2012-04-19T10:37:06Z</time>
      </trkpt>
      <trkpt lat="43.80526" lon="7.26924">
        <ele>410.1</ele>
        <time>2012-04-19T10:37:07Z</time>
      </trkpt>
      <trkpt lat="43.80518" lon="7.26924">
        <ele>409.7</ele>
        <time>2012-04-19T10:37:08Z</time>
      </trkpt>
      <trkpt lat="43.8051" lon="7.26924">
        <ele>409.4</ele>
        <time>2012-04-19T10:37:09Z</time>
      </trkpt>
      <trkpt lat="43.80502" lon="7.26924">
        <ele>409.2</ele>
        <time>2012-04-19T10:37:10Z</time>
      </trkpt>
      <trkpt lat="43.80494" lon="7.26924">
        <ele>409</ele>
        <time>2012-04-19T10:37:11Z</time>
      </trkpt>
      <trkpt lat="43.80486" lon="7.26923">
        <ele>408.9</ele>
        <time>2012-04-19T10:37:12Z</time>
      </trkpt>
      <trkpt lat="43.80478" lon="7.26923">
        <ele>408.2</ele>
        <time>2012-04-19T10:37:13Z</time>
      </trkpt>
      <trkpt lat="43.80471" lon="7.26924">
        <ele>407.7</ele>
        <time>2012-04-19T10:37:14Z</time>
      </trkpt>
      <trkpt lat="43.80464" lon="7.26923">
        <ele>407.2</ele>
        <time>2012-04-19T10:37:15Z</time>
      </trkpt>
      <trkpt lat="43.80458" lon="7.26923">
        <ele>406.8</ele>
        <time>2012-04-19T10:37:16Z</time>
      </trkpt>
      <trkpt lat="43.80451" lon="7.26923">
        <ele>405.9</ele>
        <time>2012-04-19T10:37:17Z</time>
      </trkpt>
      <trkpt lat="43.80445" lon="7.26923">
        <ele>405.2</ele>
        <time>2012-04-19T10:37:18Z</time>
      </trkpt>
      <trkpt lat="43.8044" lon="7.26922">
        <ele>404.7</ele>
        <time>2012-04-19T10:37:19Z</time>
      </trkpt>
      <trkpt lat="43.80435" lon="7.26921">
        <ele>404.2</ele>
        <time>2012-04-19T10:37:20Z</time>
      </trkpt>
      <trkpt lat="43.80425" lon="7.26918">
        <ele>403</ele>
        <time>2012-04-19T10:37:23Z</time>
      </trkpt>
      <trkpt lat="43.80425" lon="7.26908">
        <ele>401.3</ele>
        <time>2012-04-19T10:37:26Z</time>
      </trkpt>
      <trkpt lat="43.80427" lon="7.26901">
        <ele>400.3</ele>
        <time>2012-04-19T10:37:27Z</time>
      </trkpt>
      <trkpt lat="43.8043" lon="7.26895">
        <ele>399.6</ele>
        <time>2012-04-19T10:37:28Z</time>
      </trkpt>
      <trkpt lat="43.80434" lon="7.26885">
        <ele>398.1</ele>
        <time>2012-04-19T10:37:30Z</time>
      </trkpt>
      <trkpt lat="43.80438" lon="7.26876">
        <ele>395.6</ele>
        <time>2012-04-19T10:37:33Z</time>
      </trkpt>
      <trkpt lat="43.80444" lon="7.26869">
        <ele>391.8</ele>
        <time>2012-04-19T10:37:37Z</time>
      </trkpt>
      <trkpt lat="43.80442" lon="7.26857">
        <ele>389.5</ele>
        <time>2012-04-19T10:37:40Z</time>
      </trkpt>
      <trkpt lat="43.80439" lon="7.26848">
        <ele>384.1</ele>
        <time>2012-04-19T10:37:47Z</time>
      </trkpt>
      <trkpt lat="43.80435" lon="7.26839">
        <ele>383.9</ele>
        <time>2012-04-19T10:37:50Z</time>
      </trkpt>
      <trkpt lat="43.80436" lon="7.26831">
        <ele>383.8</ele>
        <time>2012-04-19T10:37:52Z</time>
      </trkpt>
      <trkpt lat="43.80437" lon="7.26818">
        <ele>383.9</ele>
        <time>2012-04-19T10:37:55Z</time>
      </trkpt>
      <trkpt lat="43.80439" lon="7.26806">
        <ele>384.1</ele>
        <time>2012-04-19T10:38:00Z</time>
      </trkpt>
      <trkpt lat="43.80441" lon="7.26797">
        <ele>384.7</ele>
        <time>2012-04-19T10:39:06Z</time>
      </trkpt>
      <trkpt lat="43.80443" lon="7.26793">
        <ele>384.7</ele>
        <time>2012-04-19T10:39:07Z</time>
      </trkpt>
      <trkpt lat="43.80449" lon="7.26782">
        <ele>386.1</ele>
        <time>2012-04-19T10:39:10Z</time>
      </trkpt>
      <trkpt lat="43.80452" lon="7.26774">
        <ele>386.5</ele>
        <time>2012-04-19T10:39:12Z</time>
      </trkpt>
      <trkpt lat="43.80455" lon="7.26767">
        <ele>386.7</ele>
        <time>2012-04-19T10:39:14Z</time>
      </trkpt>
      <trkpt lat="43.80456" lon="7.26758">
        <ele>386.8</ele>
        <time>2012-04-19T10:39:16Z</time>
      </trkpt>
      <trkpt lat="43.80457" lon="7.26749">
        <ele>387.2</ele>
        <time>2012-04-19T10:39:18Z</time>
      </trkpt>
      <trkpt lat="43.80456" lon="7.26737">
        <ele>388.3</ele>
        <time>2012-04-19T10:39:21Z</time>
      </trkpt>
      <trkpt lat="43.80454" lon="7.26726">
        <ele>389.4</ele>
        <time>2012-04-19T10:39:24Z</time>
      </trkpt>
      <trkpt lat="43.80452" lon="7.26714">
        <ele>390.2</ele>
        <time>2012-04-19T10:39:28Z</time>
      </trkpt>
      <trkpt lat="43.80448" lon="7.26723">
        <ele>392</ele>
        <time>2012-04-19T10:39:37Z</time>
      </trkpt>
      <trkpt lat="43.80448" lon="7.26734">
        <ele>392.4</ele>
        <time>2012-04-19T10:39:41Z</time>
      </trkpt>
      <trkpt lat="43.80447" lon="7.26744">
        <ele>393.8</ele>
        <time>2012-04-19T10:39:45Z</time>
      </trkpt>
      <trkpt lat="43.80441" lon="7.26752">
        <ele>394.5</ele>
        <time>2012-04-19T10:39:50Z</time>
      </trkpt>
      <trkpt lat="43.80433" lon="7.26755">
        <ele>395.3</ele>
        <time>2012-04-19T10:39:54Z</time>
      </trkpt>
      <trkpt lat="43.80424" lon="7.26753">
        <ele>395.8</ele>
        <time>2012-04-19T10:39:58Z</time>
      </trkpt>
      <trkpt lat="43.80417" lon="7.26749">
        <ele>396.3</ele>
        <time>2012-04-19T10:40:01Z</time>
      </trkpt>
      <trkpt lat="43.80412" lon="7.26743">
        <ele>396.5</ele>
        <time>2012-04-19T10:40:04Z</time>
      </trkpt>
      <trkpt lat="43.80407" lon="7.26734">
        <ele>397.9</ele>
        <time>2012-04-19T10:40:07Z</time>
      </trkpt>
      <trkpt lat="43.80406" lon="7.26731">
        <ele>398.3</ele>
        <time>2012-04-19T10:40:08Z</time>
      </trkpt>
      <trkpt lat="43.80398" lon="7.26718">
        <ele>398.7</ele>
        <time>2012-04-19T10:40:12Z</time>
      </trkpt>
      <trkpt lat="43.80396" lon="7.26708">
        <ele>399.1</ele>
        <time>2012-04-19T10:40:14Z</time>
      </trkpt>
      <trkpt lat="43.80395" lon="7.26697">
        <ele>399</ele>
        <time>2012-04-19T10:40:16Z</time>
      </trkpt>
      <trkpt lat="43.80395" lon="7.26691">
        <ele>398.9</ele>
        <time>2012-04-19T10:40:17Z</time>
      </trkpt>
      <trkpt lat="43.80394" lon="7.26685">
        <ele>398.5</ele>
        <time>2012-04-19T10:40:18Z</time>
      </trkpt>
      <trkpt lat="43.80392" lon="7.26679">
        <ele>398.2</ele>
        <time>2012-04-19T10:40:19Z</time>
      </trkpt>
      <trkpt lat="43.80391" lon="7.26672">
        <ele>398.2</ele>
        <time>2012-04-19T10:40:20Z</time>
      </trkpt>
      <trkpt lat="43.8039" lon="7.26666">
        <ele>398.1</ele>
        <time>2012-04-19T10:40:21Z</time>
      </trkpt>
      <trkpt lat="43.80388" lon="7.2666">
        <ele>397.9</ele>
        <time>2012-04-19T10:40:22Z</time>
      </trkpt>
      <trkpt lat="43.80387" lon="7.26654">
        <ele>397.7</ele>
        <time>2012-04-19T10:40:23Z</time>
      </trkpt>
      <trkpt lat="43.80386" lon="7.26642">
        <ele>397.8</ele>
        <time>2012-04-19T10:40:25Z</time>
      </trkpt>
      <trkpt lat="43.80386" lon="7.2663">
        <ele>398.2</ele>
        <time>2012-04-19T10:40:27Z</time>
      </trkpt>
      <trkpt lat="43.80388" lon="7.26619">
        <ele>398.4</ele>
        <time>2012-04-19T10:40:29Z</time>
      </trkpt>
      <trkpt lat="43.8039" lon="7.26609">
        <ele>398.8</ele>
        <time>2012-04-19T10:40:31Z</time>
      </trkpt>
      <trkpt lat="43.80392" lon="7.266">
        <ele>399.4</ele>
        <time>2012-04-19T10:40:33Z</time>
      </trkpt>
      <trkpt lat="43.80395" lon="7.26591">
        <ele>399.5</ele>
        <time>2012-04-19T10:40:35Z</time>
      </trkpt>
      <trkpt lat="43.80396" lon="7.26582">
        <ele>399.8</ele>
        <time>2012-04-19T10:40:37Z</time>
      </trkpt>
      <trkpt lat="43.80398" lon="7.26573">
        <ele>400.2</ele>
        <time>2012-04-19T10:40:39Z</time>
      </trkpt>
      <trkpt lat="43.804" lon="7.26564">
        <ele>400.5</ele>
        <time>2012-04-19T10:40:41Z</time>
      </trkpt>
      <trkpt lat="43.80401" lon="7.26555">
        <ele>400.7</ele>
        <time>2012-04-19T10:40:43Z</time>
      </trkpt>
      <trkpt lat="43.80403" lon="7.26545">
        <ele>401.2</ele>
        <time>2012-04-19T10:40:45Z</time>
      </trkpt>
      <trkpt lat="43.80404" lon="7.26536">
        <ele>401.8</ele>
        <time>2012-04-19T10:40:47Z</time>
      </trkpt>
      <trkpt lat="43.80405" lon="7.26527">
        <ele>402.5</ele>
        <time>2012-04-19T10:40:49Z</time>
      </trkpt>
      <trkpt lat="43.80407" lon="7.26518">
        <ele>403.1</ele>
        <time>2012-04-19T10:40:51Z</time>
      </trkpt>
      <trkpt lat="43.80407" lon="7.26506">
        <ele>403.4</ele>
        <time>2012-04-19T10:40:54Z</time>
      </trkpt>
      <trkpt lat="43.80407" lon="7.26494">
        <ele>404</ele>
        <time>2012-04-19T10:40:57Z</time>
      </trkpt>
      <trkpt lat="43.80407" lon="7.26483">
        <ele>404.3</ele>
        <time>2012-04-19T10:41:00Z</time>
      </trkpt>
      <trkpt lat="43.80405" lon="7.26472">
        <ele>404.7</ele>
        <time>2012-04-19T10:41:03Z</time>
      </trkpt>
      <trkpt lat="43.80407" lon="7.26461">
        <ele>405.6</ele>
        <time>2012-04-19T10:41:06Z</time>
      </trkpt>
      <trkpt lat="43.8041" lon="7.26449">
        <ele>406.2</ele>
        <time>2012-04-19T10:41:09Z</time>
      </trkpt>
      <trkpt lat="43.80411" lon="7.26445">
        <ele>406.6</ele>
        <time>2012-04-19T10:41:10Z</time>
      </trkpt>
      <trkpt lat="43.80416" lon="7.26428">
        <ele>407.9</ele>
        <time>2012-04-19T10:41:15Z</time>
      </trkpt>
      <trkpt lat="43.80418" lon="7.26419">
        <ele>408.9</ele>
        <time>2012-04-19T10:41:18Z</time>
      </trkpt>
      <trkpt lat="43.80421" lon="7.26408">
        <ele>410.5</ele>
        <time>2012-04-19T10:41:22Z</time>
      </trkpt>
      <trkpt lat="43.80424" lon="7.26398">
        <ele>411.3</ele>
        <time>2012-04-19T10:41:26Z</time>
      </trkpt>
      <trkpt lat="43.80426" lon="7.26386">
        <ele>412</ele>
        <time>2012-04-19T10:41:30Z</time>
      </trkpt>
      <trkpt lat="43.80428" lon="7.26374">
        <ele>413.3</ele>
        <time>2012-04-19T10:41:34Z</time>
      </trkpt>
      <trkpt lat="43.80432" lon="7.26363">
        <ele>413.8</ele>
        <time>2012-04-19T10:41:38Z</time>
      </trkpt>
      <trkpt lat="43.80435" lon="7.26352">
        <ele>414.2</ele>
        <time>2012-04-19T10:41:42Z</time>
      </trkpt>
      <trkpt lat="43.80439" lon="7.26341">
        <ele>416.5</ele>
        <time>2012-04-19T10:41:46Z</time>
      </trkpt>
      <trkpt lat="43.80441" lon="7.26331">
        <ele>417.3</ele>
        <time>2012-04-19T10:41:50Z</time>
      </trkpt>
      <trkpt lat="43.8044" lon="7.26321">
        <ele>417.9</ele>
        <time>2012-04-19T10:41:53Z</time>
      </trkpt>
      <trkpt lat="43.80438" lon="7.26311">
        <ele>418.5</ele>
        <time>2012-04-19T10:41:56Z</time>
      </trkpt>
      <trkpt lat="43.80439" lon="7.26301">
        <ele>419</ele>
        <time>2012-04-19T10:41:59Z</time>
      </trkpt>
      <trkpt lat="43.80443" lon="7.26293">
        <ele>420.1</ele>
        <time>2012-04-19T10:42:02Z</time>
      </trkpt>
      <trkpt lat="43.80448" lon="7.26286">
        <ele>420.2</ele>
        <time>2012-04-19T10:42:05Z</time>
      </trkpt>
      <trkpt lat="43.80454" lon="7.26278">
        <ele>421.2</ele>
        <time>2012-04-19T10:42:09Z</time>
      </trkpt>
      <trkpt lat="43.80456" lon="7.26267">
        <ele>422.1</ele>
        <time>2012-04-19T10:42:12Z</time>
      </trkpt>
      <trkpt lat="43.80456" lon="7.26264">
        <ele>422.4</ele>
        <time>2012-04-19T10:42:13Z</time>
      </trkpt>
      <trkpt lat="43.8046" lon="7.26247">
        <ele>423</ele>
        <time>2012-04-19T10:42:18Z</time>
      </trkpt>
      <trkpt lat="43.80461" lon="7.26236">
        <ele>422.6</ele>
        <time>2012-04-19T10:42:21Z</time>
      </trkpt>
      <trkpt lat="43.8046" lon="7.26225">
        <ele>422.5</ele>
        <time>2012-04-19T10:42:23Z</time>
      </trkpt>
      <trkpt lat="43.80461" lon="7.26215">
        <ele>422.8</ele>
        <time>2012-04-19T10:42:25Z</time>
      </trkpt>
      <trkpt lat="43.80461" lon="7.26205">
        <ele>422.9</ele>
        <time>2012-04-19T10:42:27Z</time>
      </trkpt>
      <trkpt lat="43.80461" lon="7.26194">
        <ele>423</ele>
        <time>2012-04-19T10:42:29Z</time>
      </trkpt>
      <trkpt lat="43.80462" lon="7.26183">
        <ele>422.6</ele>
        <time>2012-04-19T10:42:31Z</time>
      </trkpt>
      <trkpt lat="43.80464" lon="7.26174">
        <ele>422</ele>
        <time>2012-04-19T10:42:33Z</time>
      </trkpt>
      <trkpt lat="43.80457" lon="7.26167">
        <ele>421.9</ele>
        <time>2012-04-19T10:42:39Z</time>
      </trkpt>
      <trkpt lat="43.8045" lon="7.26172">
        <ele>422.5</ele>
        <time>2012-04-19T10:42:42Z</time>
      </trkpt>
      <trkpt lat="43.80443" lon="7.26174">
        <ele>423.2</ele>
        <time>2012-04-19T10:42:45Z</time>
      </trkpt>
      <trkpt lat="43.80435" lon="7.26174">
        <ele>423.8</ele>
        <time>2012-04-19T10:42:48Z</time>
      </trkpt>
      <trkpt lat="43.80427" lon="7.26174">
        <ele>424.7</ele>
        <time>2012-04-19T10:42:51Z</time>
      </trkpt>
      <trkpt lat="43.80421" lon="7.26172">
        <ele>424.9</ele>
        <time>2012-04-19T10:42:54Z</time>
      </trkpt>
      <trkpt lat="43.80413" lon="7.26168">
        <ele>425.6</ele>
        <time>2012-04-19T10:42:57Z</time>
      </trkpt>
      <trkpt lat="43.80406" lon="7.26166">
        <ele>426.5</ele>
        <time>2012-04-19T10:42:59Z</time>
      </trkpt>
      <trkpt lat="43.80401" lon="7.26162">
        <ele>427.2</ele>
        <time>2012-04-19T10:43:01Z</time>
      </trkpt>
      <trkpt lat="43.80393" lon="7.26157">
        <ele>427.8</ele>
        <time>2012-04-19T10:43:04Z</time>
      </trkpt>
      <trkpt lat="43.80386" lon="7.2615">
        <ele>428.6</ele>
        <time>2012-04-19T10:43:07Z</time>
      </trkpt>
      <trkpt lat="43.80379" lon="7.26143">
        <ele>429.1</ele>
        <time>2012-04-19T10:43:10Z</time>
      </trkpt>
      <trkpt lat="43.80373" lon="7.26137">
        <ele>430.5</ele>
        <time>2012-04-19T10:43:13Z</time>
      </trkpt>
      <trkpt lat="43.80368" lon="7.26131">
        <ele>431</ele>
        <time>2012-04-19T10:43:16Z</time>
      </trkpt>
      <trkpt lat="43.80366" lon="7.26129">
        <ele>430.9</ele>
        <time>2012-04-19T10:43:17Z</time>
      </trkpt>
      <trkpt lat="43.80356" lon="7.26122">
        <ele>434.3</ele>
        <time>2012-04-19T10:43:26Z</time>
      </trkpt>
      <trkpt lat="43.80348" lon="7.2612">
        <ele>435.5</ele>
        <time>2012-04-19T10:43:32Z</time>
      </trkpt>
      <trkpt lat="43.80341" lon="7.26117">
        <ele>435.9</ele>
        <time>2012-04-19T10:43:35Z</time>
      </trkpt>
      <trkpt lat="43.80334" lon="7.26113">
        <ele>435.9</ele>
        <time>2012-04-19T10:43:38Z</time>
      </trkpt>
      <trkpt lat="43.80327" lon="7.26108">
        <ele>436.8</ele>
        <time>2012-04-19T10:43:41Z</time>
      </trkpt>
      <trkpt lat="43.80321" lon="7.26102">
        <ele>437.1</ele>
        <time>2012-04-19T10:43:44Z</time>
      </trkpt>
      <trkpt lat="43.80315" lon="7.26093">
        <ele>438.2</ele>
        <time>2012-04-19T10:43:55Z</time>
      </trkpt>
      <trkpt lat="43.80311" lon="7.26083">
        <ele>439.4</ele>
        <time>2012-04-19T10:44:06Z</time>
      </trkpt>
      <trkpt lat="43.80305" lon="7.26074">
        <ele>439</ele>
        <time>2012-04-19T10:44:12Z</time>
      </trkpt>
      <trkpt lat="43.80298" lon="7.2607">
        <ele>440.1</ele>
        <time>2012-04-19T10:44:16Z</time>
      </trkpt>
      <trkpt lat="43.80289" lon="7.26068">
        <ele>441.1</ele>
        <time>2012-04-19T10:44:20Z</time>
      </trkpt>
      <trkpt lat="43.80287" lon="7.26068">
        <ele>441.1</ele>
        <time>2012-04-19T10:44:21Z</time>
      </trkpt>
      <trkpt lat="43.80274" lon="7.26062">
        <ele>442.7</ele>
        <time>2012-04-19T10:44:28Z</time>
      </trkpt>
      <trkpt lat="43.80266" lon="7.26058">
        <ele>444.1</ele>
        <time>2012-04-19T10:44:33Z</time>
      </trkpt>
      <trkpt lat="43.80259" lon="7.26052">
        <ele>445.2</ele>
        <time>2012-04-19T10:44:37Z</time>
      </trkpt>
      <trkpt lat="43.80253" lon="7.26046">
        <ele>446.3</ele>
        <time>2012-04-19T10:44:41Z</time>
      </trkpt>
      <trkpt lat="43.80245" lon="7.26042">
        <ele>447.9</ele>
        <time>2012-04-19T10:44:45Z</time>
      </trkpt>
      <trkpt lat="43.80238" lon="7.26038">
        <ele>448.2</ele>
        <time>2012-04-19T10:44:50Z</time>
      </trkpt>
      <trkpt lat="43.80231" lon="7.26033">
        <ele>450.3</ele>
        <time>2012-04-19T10:44:56Z</time>
      </trkpt>
      <trkpt lat="43.80223" lon="7.26027">
        <ele>452.5</ele>
        <time>2012-04-19T10:45:08Z</time>
      </trkpt>
      <trkpt lat="43.80216" lon="7.2602">
        <ele>455.3</ele>
        <time>2012-04-19T10:45:19Z</time>
      </trkpt>
      <trkpt lat="43.8021" lon="7.26011">
        <ele>456.2</ele>
        <time>2012-04-19T10:45:29Z</time>
      </trkpt>
      <trkpt lat="43.8021" lon="7.2601">
        <ele>456.5</ele>
        <time>2012-04-19T10:45:30Z</time>
      </trkpt>
      <trkpt lat="43.80199" lon="7.25997">
        <ele>458.8</ele>
        <time>2012-04-19T10:45:47Z</time>
      </trkpt>
      <trkpt lat="43.80192" lon="7.25992">
        <ele>461.4</ele>
        <time>2012-04-19T10:45:54Z</time>
      </trkpt>
      <trkpt lat="43.80185" lon="7.25985">
        <ele>463</ele>
        <time>2012-04-19T10:46:00Z</time>
      </trkpt>
      <trkpt lat="43.80178" lon="7.25978">
        <ele>463.8</ele>
        <time>2012-04-19T10:46:05Z</time>
      </trkpt>
      <trkpt lat="43.80172" lon="7.25971">
        <ele>464.7</ele>
        <time>2012-04-19T10:46:09Z</time>
      </trkpt>
      <trkpt lat="43.80165" lon="7.25966">
        <ele>464.5</ele>
        <time>2012-04-19T10:46:12Z</time>
      </trkpt>
      <trkpt lat="43.80157" lon="7.25964">
        <ele>464</ele>
        <time>2012-04-19T10:46:15Z</time>
      </trkpt>
      <trkpt lat="43.80151" lon="7.25958">
        <ele>465</ele>
        <time>2012-04-19T10:46:18Z</time>
      </trkpt>
      <trkpt lat="43.80145" lon="7.2595">
        <ele>465.4</ele>
        <time>2012-04-19T10:46:22Z</time>
      </trkpt>
      <trkpt lat="43.80139" lon="7.25945">
        <ele>465.9</ele>
        <time>2012-04-19T10:46:25Z</time>
      </trkpt>
      <trkpt lat="43.80133" lon="7.25937">
        <ele>465.9</ele>
        <time>2012-04-19T10:46:28Z</time>
      </trkpt>
      <trkpt lat="43.80127" lon="7.25931">
        <ele>466.6</ele>
        <time>2012-04-19T10:46:32Z</time>
      </trkpt>
      <trkpt lat="43.80125" lon="7.25929">
        <ele>466.5</ele>
        <time>2012-04-19T10:46:33Z</time>
      </trkpt>
      <trkpt lat="43.80117" lon="7.25914">
        <ele>469</ele>
        <time>2012-04-19T10:46:40Z</time>
      </trkpt>
      <trkpt lat="43.80111" lon="7.25904">
        <ele>471.3</ele>
        <time>2012-04-19T10:46:45Z</time>
      </trkpt>
      <trkpt lat="43.80106" lon="7.25896">
        <ele>472.2</ele>
        <time>2012-04-19T10:46:50Z</time>
      </trkpt>
      <trkpt lat="43.80103" lon="7.25886">
        <ele>473</ele>
        <time>2012-04-19T10:46:55Z</time>
      </trkpt>
      <trkpt lat="43.80102" lon="7.25877">
        <ele>475.1</ele>
        <time>2012-04-19T10:46:59Z</time>
      </trkpt>
      <trkpt lat="43.801" lon="7.25868">
        <ele>475.7</ele>
        <time>2012-04-19T10:47:01Z</time>
      </trkpt>
      <trkpt lat="43.80095" lon="7.25858">
        <ele>474.9</ele>
        <time>2012-04-19T10:47:04Z</time>
      </trkpt>
      <trkpt lat="43.80088" lon="7.25863">
        <ele>474.5</ele>
        <time>2012-04-19T10:47:21Z</time>
      </trkpt>
      <trkpt lat="43.80084" lon="7.25872">
        <ele>475</ele>
        <time>2012-04-19T10:47:26Z</time>
      </trkpt>
      <trkpt lat="43.80078" lon="7.25879">
        <ele>474.7</ele>
        <time>2012-04-19T10:47:29Z</time>
      </trkpt>
      <trkpt lat="43.80073" lon="7.25884">
        <ele>474.6</ele>
        <time>2012-04-19T10:47:31Z</time>
      </trkpt>
      <trkpt lat="43.80067" lon="7.25888">
        <ele>475.2</ele>
        <time>2012-04-19T10:47:33Z</time>
      </trkpt>
      <trkpt lat="43.80063" lon="7.2589">
        <ele>475</ele>
        <time>2012-04-19T10:47:34Z</time>
      </trkpt>
      <trkpt lat="43.80052" lon="7.25895">
        <ele>474.1</ele>
        <time>2012-04-19T10:47:37Z</time>
      </trkpt>
      <trkpt lat="43.80047" lon="7.25896">
        <ele>473.8</ele>
        <time>2012-04-19T10:47:38Z</time>
      </trkpt>
      <trkpt lat="43.80041" lon="7.25897">
        <ele>473.1</ele>
        <time>2012-04-19T10:47:39Z</time>
      </trkpt>
      <trkpt lat="43.80036" lon="7.25896">
        <ele>472.7</ele>
        <time>2012-04-19T10:47:40Z</time>
      </trkpt>
      <trkpt lat="43.80029" lon="7.25894">
        <ele>472</ele>
        <time>2012-04-19T10:47:41Z</time>
      </trkpt>
      <trkpt lat="43.80023" lon="7.25892">
        <ele>471.5</ele>
        <time>2012-04-19T10:47:42Z</time>
      </trkpt>
      <trkpt lat="43.80018" lon="7.2589">
        <ele>471.1</ele>
        <time>2012-04-19T10:47:43Z</time>
      </trkpt>
      <trkpt lat="43.80012" lon="7.25887">
        <ele>470.1</ele>
        <time>2012-04-19T10:47:44Z</time>
      </trkpt>
      <trkpt lat="43.80007" lon="7.25882">
        <ele>469.3</ele>
        <time>2012-04-19T10:47:45Z</time>
      </trkpt>
      <trkpt lat="43.80001" lon="7.25876">
        <ele>467.8</ele>
        <time>2012-04-19T10:47:46Z</time>
      </trkpt>
      <trkpt lat="43.79996" lon="7.2587">
        <ele>466.7</ele>
        <time>2012-04-19T10:47:47Z</time>
      </trkpt>
      <trkpt lat="43.79992" lon="7.25865">
        <ele>465.8</ele>
        <time>2012-04-19T10:47:48Z</time>
      </trkpt>
      <trkpt lat="43.79983" lon="7.25862">
        <ele>461.3</ele>
        <time>2012-04-19T10:47:53Z</time>
      </trkpt>
      <trkpt lat="43.7998" lon="7.25873">
        <ele>463.5</ele>
        <time>2012-04-19T10:48:10Z</time>
      </trkpt>
      <trkpt lat="43.79979" lon="7.25885">
        <ele>466.5</ele>
        <time>2012-04-19T10:48:21Z</time>
      </trkpt>
      <trkpt lat="43.79977" lon="7.25896">
        <ele>467.7</ele>
        <time>2012-04-19T10:48:32Z</time>
      </trkpt>
      <trkpt lat="43.79974" lon="7.25907">
        <ele>469.7</ele>
        <time>2012-04-19T10:48:43Z</time>
      </trkpt>
      <trkpt lat="43.79974" lon="7.25908">
        <ele>469.8</ele>
        <time>2012-04-19T10:48:44Z</time>
      </trkpt>
      <trkpt lat="43.79971" lon="7.25931">
        <ele>474.3</ele>
        <time>2012-04-19T10:49:06Z</time>
      </trkpt>
      <trkpt lat="43.7997" lon="7.25942">
        <ele>474.4</ele>
        <time>2012-04-19T10:49:18Z</time>
      </trkpt>
      <trkpt lat="43.79969" lon="7.25952">
        <ele>475.3</ele>
        <time>2012-04-19T10:49:22Z</time>
      </trkpt>
      <trkpt lat="43.79966" lon="7.25963">
        <ele>476.4</ele>
        <time>2012-04-19T10:49:26Z</time>
      </trkpt>
      <trkpt lat="43.79964" lon="7.25972">
        <ele>477.6</ele>
        <time>2012-04-19T10:49:31Z</time>
      </trkpt>
      <trkpt lat="43.79961" lon="7.2598">
        <ele>477.2</ele>
        <time>2012-04-19T10:49:33Z</time>
      </trkpt>
      <trkpt lat="43.79955" lon="7.2599">
        <ele>476.2</ele>
        <time>2012-04-19T10:49:36Z</time>
      </trkpt>
      <trkpt lat="43.7995" lon="7.26">
        <ele>476.5</ele>
        <time>2012-04-19T10:49:40Z</time>
      </trkpt>
      <trkpt lat="43.79943" lon="7.26007">
        <ele>477.6</ele>
        <time>2012-04-19T10:49:44Z</time>
      </trkpt>
      <trkpt lat="43.79937" lon="7.26013">
        <ele>477.9</ele>
        <time>2012-04-19T10:49:47Z</time>
      </trkpt>
      <trkpt lat="43.79935" lon="7.26015">
        <ele>478.1</ele>
        <time>2012-04-19T10:49:48Z</time>
      </trkpt>
      <trkpt lat="43.79925" lon="7.26024">
        <ele>479.3</ele>
        <time>2012-04-19T10:49:52Z</time>
      </trkpt>
      <trkpt lat="43.79918" lon="7.26029">
        <ele>479</ele>
        <time>2012-04-19T10:49:54Z</time>
      </trkpt>
      <trkpt lat="43.79915" lon="7.26033">
        <ele>478.7</ele>
        <time>2012-04-19T10:49:55Z</time>
      </trkpt>
      <trkpt lat="43.7991" lon="7.26037">
        <ele>478.4</ele>
        <time>2012-04-19T10:49:56Z</time>
      </trkpt>
      <trkpt lat="43.79905" lon="7.26042">
        <ele>478</ele>
        <time>2012-04-19T10:49:57Z</time>
      </trkpt>
      <trkpt lat="43.799" lon="7.26047">
        <ele>477.6</ele>
        <time>2012-04-19T10:49:58Z</time>
      </trkpt>
      <trkpt lat="43.79896" lon="7.26052">
        <ele>477.2</ele>
        <time>2012-04-19T10:49:59Z</time>
      </trkpt>
      <trkpt lat="43.79892" lon="7.26056">
        <ele>477</ele>
        <time>2012-04-19T10:50:00Z</time>
      </trkpt>
      <trkpt lat="43.79885" lon="7.26063">
        <ele>476.1</ele>
        <time>2012-04-19T10:50:02Z</time>
      </trkpt>
      <trkpt lat="43.7988" lon="7.26071">
        <ele>474.3</ele>
        <time>2012-04-19T10:50:04Z</time>
      </trkpt>
      <trkpt lat="43.79875" lon="7.26078">
        <ele>472.3</ele>
        <time>2012-04-19T10:50:06Z</time>
      </trkpt>
      <trkpt lat="43.79869" lon="7.26086">
        <ele>471</ele>
        <time>2012-04-19T10:50:08Z</time>
      </trkpt>
      <trkpt lat="43.79865" lon="7.26089">
        <ele>470.3</ele>
        <time>2012-04-19T10:50:09Z</time>
      </trkpt>
      <trkpt lat="43.79859" lon="7.26098">
        <ele>468.8</ele>
        <time>2012-04-19T10:50:11Z</time>
      </trkpt>
      <trkpt lat="43.79855" lon="7.26102">
        <ele>468.1</ele>
        <time>2012-04-19T10:50:12Z</time>
      </trkpt>
      <trkpt lat="43.79851" lon="7.26107">
        <ele>467.4</ele>
        <time>2012-04-19T10:50:13Z</time>
      </trkpt>
      <trkpt lat="43.79848" lon="7.26112">
        <ele>466.9</ele>
        <time>2012-04-19T10:50:14Z</time>
      </trkpt>
      <trkpt lat="43.79845" lon="7.26117">
        <ele>466.5</ele>
        <time>2012-04-19T10:50:15Z</time>
      </trkpt>
      <trkpt lat="43.7984" lon="7.26124">
        <ele>464.4</ele>
        <time>2012-04-19T10:50:17Z</time>
      </trkpt>
      <trkpt lat="43.79834" lon="7.26129">
        <ele>462.3</ele>
        <time>2012-04-19T10:50:19Z</time>
      </trkpt>
      <trkpt lat="43.79825" lon="7.26129">
        <ele>460.9</ele>
        <time>2012-04-19T10:50:21Z</time>
      </trkpt>
      <trkpt lat="43.79817" lon="7.26124">
        <ele>459.9</ele>
        <time>2012-04-19T10:50:23Z</time>
      </trkpt>
      <trkpt lat="43.7981" lon="7.2612">
        <ele>459.3</ele>
        <time>2012-04-19T10:50:25Z</time>
      </trkpt>
      <trkpt lat="43.79802" lon="7.26116">
        <ele>459</ele>
        <time>2012-04-19T10:50:27Z</time>
      </trkpt>
      <trkpt lat="43.79794" lon="7.26113">
        <ele>458.6</ele>
        <time>2012-04-19T10:50:29Z</time>
      </trkpt>
      <trkpt lat="43.79787" lon="7.26109">
        <ele>457.4</ele>
        <time>2012-04-19T10:50:32Z</time>
      </trkpt>
      <trkpt lat="43.79782" lon="7.26104">
        <ele>457.2</ele>
        <time>2012-04-19T10:50:34Z</time>
      </trkpt>
      <trkpt lat="43.79777" lon="7.26098">
        <ele>456.8</ele>
        <time>2012-04-19T10:50:36Z</time>
      </trkpt>
      <trkpt lat="43.79772" lon="7.26092">
        <ele>456.7</ele>
        <time>2012-04-19T10:50:38Z</time>
      </trkpt>
      <trkpt lat="43.79767" lon="7.26086">
        <ele>457</ele>
        <time>2012-04-19T10:50:40Z</time>
      </trkpt>
      <trkpt lat="43.79761" lon="7.26078">
        <ele>457.5</ele>
        <time>2012-04-19T10:50:43Z</time>
      </trkpt>
      <trkpt lat="43.79756" lon="7.26068">
        <ele>457.5</ele>
        <time>2012-04-19T10:50:46Z</time>
      </trkpt>
      <trkpt lat="43.79753" lon="7.26061">
        <ele>457</ele>
        <time>2012-04-19T10:50:48Z</time>
      </trkpt>
      <trkpt lat="43.7975" lon="7.26053">
        <ele>457.7</ele>
        <time>2012-04-19T10:50:50Z</time>
      </trkpt>
      <trkpt lat="43.79748" lon="7.2605">
        <ele>457.5</ele>
        <time>2012-04-19T10:50:51Z</time>
      </trkpt>
      <trkpt lat="43.79743" lon="7.26038">
        <ele>457.5</ele>
        <time>2012-04-19T10:50:54Z</time>
      </trkpt>
      <trkpt lat="43.7974" lon="7.26031">
        <ele>457.8</ele>
        <time>2012-04-19T10:50:56Z</time>
      </trkpt>
      <trkpt lat="43.79736" lon="7.26023">
        <ele>457.8</ele>
        <time>2012-04-19T10:50:58Z</time>
      </trkpt>
      <trkpt lat="43.79733" lon="7.26016">
        <ele>458.1</ele>
        <time>2012-04-19T10:51:00Z</time>
      </trkpt>
      <trkpt lat="43.79729" lon="7.26008">
        <ele>458.2</ele>
        <time>2012-04-19T10:51:02Z</time>
      </trkpt>
      <trkpt lat="43.79726" lon="7.26">
        <ele>458.7</ele>
        <time>2012-04-19T10:51:04Z</time>
      </trkpt>
      <trkpt lat="43.79723" lon="7.25992">
        <ele>459.1</ele>
        <time>2012-04-19T10:51:06Z</time>
      </trkpt>
      <trkpt lat="43.79719" lon="7.25985">
        <ele>459.4</ele>
        <time>2012-04-19T10:51:08Z</time>
      </trkpt>
      <trkpt lat="43.79716" lon="7.25978">
        <ele>459.7</ele>
        <time>2012-04-19T10:51:10Z</time>
      </trkpt>
      <trkpt lat="43.79713" lon="7.2597">
        <ele>460</ele>
        <time>2012-04-19T10:51:12Z</time>
      </trkpt>
      <trkpt lat="43.79709" lon="7.2596">
        <ele>459.7</ele>
        <time>2012-04-19T10:51:14Z</time>
      </trkpt>
      <trkpt lat="43.79706" lon="7.25951">
        <ele>460</ele>
        <time>2012-04-19T10:51:16Z</time>
      </trkpt>
      <trkpt lat="43.79704" lon="7.25942">
        <ele>460.5</ele>
        <time>2012-04-19T10:51:18Z</time>
      </trkpt>
      <trkpt lat="43.79701" lon="7.25933">
        <ele>460.3</ele>
        <time>2012-04-19T10:51:20Z</time>
      </trkpt>
      <trkpt lat="43.797" lon="7.25923">
        <ele>460.5</ele>
        <time>2012-04-19T10:51:22Z</time>
      </trkpt>
      <trkpt lat="43.79699" lon="7.25913">
        <ele>460.9</ele>
        <time>2012-04-19T10:51:24Z</time>
      </trkpt>
      <trkpt lat="43.79698" lon="7.25903">
        <ele>461</ele>
        <time>2012-04-19T10:51:26Z</time>
      </trkpt>
      <trkpt lat="43.79698" lon="7.25893">
        <ele>461.5</ele>
        <time>2012-04-19T10:51:28Z</time>
      </trkpt>
      <trkpt lat="43.79697" lon="7.25883">
        <ele>462.1</ele>
        <time>2012-04-19T10:51:30Z</time>
      </trkpt>
      <trkpt lat="43.79698" lon="7.25873">
        <ele>462.5</ele>
        <time>2012-04-19T10:51:32Z</time>
      </trkpt>
      <trkpt lat="43.79698" lon="7.25864">
        <ele>462.6</ele>
        <time>2012-04-19T10:51:34Z</time>
      </trkpt>
      <trkpt lat="43.79701" lon="7.25853">
        <ele>462.7</ele>
        <time>2012-04-19T10:51:37Z</time>
      </trkpt>
      <trkpt lat="43.79703" lon="7.25845">
        <ele>463.1</ele>
        <time>2012-04-19T10:51:39Z</time>
      </trkpt>
      <trkpt lat="43.79706" lon="7.25836">
        <ele>463.3</ele>
        <time>2012-04-19T10:51:41Z</time>
      </trkpt>
      <trkpt lat="43.79708" lon="7.25826">
        <ele>463.3</ele>
        <time>2012-04-19T10:51:43Z</time>
      </trkpt>
      <trkpt lat="43.79711" lon="7.25816">
        <ele>464.3</ele>
        <time>2012-04-19T10:51:45Z</time>
      </trkpt>
      <trkpt lat="43.79713" lon="7.25806">
        <ele>464.7</ele>
        <time>2012-04-19T10:51:47Z</time>
      </trkpt>
      <trkpt lat="43.79716" lon="7.25797">
        <ele>465.3</ele>
        <time>2012-04-19T10:51:49Z</time>
      </trkpt>
      <trkpt lat="43.79718" lon="7.25789">
        <ele>465.8</ele>
        <time>2012-04-19T10:51:51Z</time>
      </trkpt>
      <trkpt lat="43.7972" lon="7.25779">
        <ele>466</ele>
        <time>2012-04-19T10:51:53Z</time>
      </trkpt>
      <trkpt lat="43.79722" lon="7.25774">
        <ele>466</ele>
        <time>2012-04-19T10:51:54Z</time>
      </trkpt>
      <trkpt lat="43.79726" lon="7.25763">
        <ele>465.6</ele>
        <time>2012-04-19T10:51:56Z</time>
      </trkpt>
      <trkpt lat="43.79729" lon="7.25758">
        <ele>465.5</ele>
        <time>2012-04-19T10:51:57Z</time>
      </trkpt>
      <trkpt lat="43.79732" lon="7.25746">
        <ele>465.4</ele>
        <time>2012-04-19T10:51:59Z</time>
      </trkpt>
      <trkpt lat="43.79735" lon="7.25735">
        <ele>465.4</ele>
        <time>2012-04-19T10:52:01Z</time>
      </trkpt>
      <trkpt lat="43.79738" lon="7.25724">
        <ele>465.7</ele>
        <time>2012-04-19T10:52:03Z</time>
      </trkpt>
      <trkpt lat="43.79741" lon="7.25713">
        <ele>466.2</ele>
        <time>2012-04-19T10:52:05Z</time>
      </trkpt>
      <trkpt lat="43.79743" lon="7.25703">
        <ele>466.6</ele>
        <time>2012-04-19T10:52:07Z</time>
      </trkpt>
      <trkpt lat="43.79745" lon="7.25691">
        <ele>466.9</ele>
        <time>2012-04-19T10:52:09Z</time>
      </trkpt>
      <trkpt lat="43.79745" lon="7.2568">
        <ele>468</ele>
        <time>2012-04-19T10:52:11Z</time>
      </trkpt>
      <trkpt lat="43.79743" lon="7.25668">
        <ele>468.3</ele>
        <time>2012-04-19T10:52:13Z</time>
      </trkpt>
      <trkpt lat="43.79739" lon="7.25657">
        <ele>467.6</ele>
        <time>2012-04-19T10:52:15Z</time>
      </trkpt>
      <trkpt lat="43.79737" lon="7.25651">
        <ele>467.3</ele>
        <time>2012-04-19T10:52:16Z</time>
      </trkpt>
      <trkpt lat="43.79734" lon="7.25646">
        <ele>467.5</ele>
        <time>2012-04-19T10:52:17Z</time>
      </trkpt>
      <trkpt lat="43.79732" lon="7.2564">
        <ele>467.6</ele>
        <time>2012-04-19T10:52:18Z</time>
      </trkpt>
      <trkpt lat="43.79729" lon="7.25635">
        <ele>467.7</ele>
        <time>2012-04-19T10:52:19Z</time>
      </trkpt>
      <trkpt lat="43.79723" lon="7.25627">
        <ele>467.9</ele>
        <time>2012-04-19T10:52:21Z</time>
      </trkpt>
      <trkpt lat="43.79715" lon="7.25621">
        <ele>467.9</ele>
        <time>2012-04-19T10:52:23Z</time>
      </trkpt>
      <trkpt lat="43.79708" lon="7.25618">
        <ele>467.7</ele>
        <time>2012-04-19T10:52:25Z</time>
      </trkpt>
      <trkpt lat="43.79701" lon="7.25616">
        <ele>469.4</ele>
        <time>2012-04-19T10:52:27Z</time>
      </trkpt>
      <trkpt lat="43.79694" lon="7.25616">
        <ele>469.8</ele>
        <time>2012-04-19T10:52:29Z</time>
      </trkpt>
      <trkpt lat="43.79689" lon="7.25619">
        <ele>469.5</ele>
        <time>2012-04-19T10:52:31Z</time>
      </trkpt>
      <trkpt lat="43.79682" lon="7.25625">
        <ele>469.8</ele>
        <time>2012-04-19T10:52:33Z</time>
      </trkpt>
      <trkpt lat="43.79675" lon="7.25631">
        <ele>470.3</ele>
        <time>2012-04-19T10:52:35Z</time>
      </trkpt>
      <trkpt lat="43.79669" lon="7.25636">
        <ele>470.5</ele>
        <time>2012-04-19T10:52:37Z</time>
      </trkpt>
      <trkpt lat="43.79663" lon="7.25641">
        <ele>471.3</ele>
        <time>2012-04-19T10:52:39Z</time>
      </trkpt>
      <trkpt lat="43.79657" lon="7.25647">
        <ele>471.7</ele>
        <time>2012-04-19T10:52:41Z</time>
      </trkpt>
      <trkpt lat="43.79651" lon="7.25653">
        <ele>472</ele>
        <time>2012-04-19T10:52:43Z</time>
      </trkpt>
      <trkpt lat="43.79646" lon="7.25658">
        <ele>472.1</ele>
        <time>2012-04-19T10:52:45Z</time>
      </trkpt>
      <trkpt lat="43.79641" lon="7.25664">
        <ele>472</ele>
        <time>2012-04-19T10:52:47Z</time>
      </trkpt>
      <trkpt lat="43.79635" lon="7.2567">
        <ele>472</ele>
        <time>2012-04-19T10:52:49Z</time>
      </trkpt>
      <trkpt lat="43.79627" lon="7.25675">
        <ele>472</ele>
        <time>2012-04-19T10:52:51Z</time>
      </trkpt>
      <trkpt lat="43.79619" lon="7.25677">
        <ele>472</ele>
        <time>2012-04-19T10:52:53Z</time>
      </trkpt>
      <trkpt lat="43.79611" lon="7.25677">
        <ele>471.9</ele>
        <time>2012-04-19T10:52:55Z</time>
      </trkpt>
      <trkpt lat="43.79607" lon="7.25677">
        <ele>471.8</ele>
        <time>2012-04-19T10:52:56Z</time>
      </trkpt>
      <trkpt lat="43.79598" lon="7.25675">
        <ele>471.7</ele>
        <time>2012-04-19T10:52:58Z</time>
      </trkpt>
      <trkpt lat="43.79593" lon="7.25674">
        <ele>472</ele>
        <time>2012-04-19T10:52:59Z</time>
      </trkpt>
      <trkpt lat="43.79589" lon="7.25671">
        <ele>472.1</ele>
        <time>2012-04-19T10:53:00Z</time>
      </trkpt>
      <trkpt lat="43.79585" lon="7.25668">
        <ele>472.3</ele>
        <time>2012-04-19T10:53:01Z</time>
      </trkpt>
      <trkpt lat="43.7958" lon="7.25665">
        <ele>472.8</ele>
        <time>2012-04-19T10:53:02Z</time>
      </trkpt>
      <trkpt lat="43.79577" lon="7.25661">
        <ele>473.2</ele>
        <time>2012-04-19T10:53:03Z</time>
      </trkpt>
      <trkpt lat="43.79573" lon="7.25657">
        <ele>473.3</ele>
        <time>2012-04-19T10:53:04Z</time>
      </trkpt>
      <trkpt lat="43.7957" lon="7.25652">
        <ele>473.4</ele>
        <time>2012-04-19T10:53:05Z</time>
      </trkpt>
      <trkpt lat="43.79565" lon="7.25642">
        <ele>473.9</ele>
        <time>2012-04-19T10:53:07Z</time>
      </trkpt>
      <trkpt lat="43.7956" lon="7.25631">
        <ele>474.5</ele>
        <time>2012-04-19T10:53:09Z</time>
      </trkpt>
      <trkpt lat="43.79556" lon="7.25621">
        <ele>475</ele>
        <time>2012-04-19T10:53:11Z</time>
      </trkpt>
      <trkpt lat="43.79549" lon="7.25613">
        <ele>475.6</ele>
        <time>2012-04-19T10:53:13Z</time>
      </trkpt>
      <trkpt lat="43.79544" lon="7.25604">
        <ele>476.1</ele>
        <time>2012-04-19T10:53:15Z</time>
      </trkpt>
      <trkpt lat="43.79538" lon="7.25595">
        <ele>475.4</ele>
        <time>2012-04-19T10:53:17Z</time>
      </trkpt>
      <trkpt lat="43.79534" lon="7.25585">
        <ele>475.4</ele>
        <time>2012-04-19T10:53:19Z</time>
      </trkpt>
      <trkpt lat="43.79531" lon="7.25574">
        <ele>475.8</ele>
        <time>2012-04-19T10:53:21Z</time>
      </trkpt>
      <trkpt lat="43.79525" lon="7.25564">
        <ele>476</ele>
        <time>2012-04-19T10:53:23Z</time>
      </trkpt>
      <trkpt lat="43.79519" lon="7.25556">
        <ele>475.7</ele>
        <time>2012-04-19T10:53:25Z</time>
      </trkpt>
      <trkpt lat="43.79513" lon="7.25549">
        <ele>476.5</ele>
        <time>2012-04-19T10:53:27Z</time>
      </trkpt>
      <trkpt lat="43.79505" lon="7.25544">
        <ele>476.5</ele>
        <time>2012-04-19T10:53:29Z</time>
      </trkpt>
      <trkpt lat="43.79497" lon="7.25541">
        <ele>476.8</ele>
        <time>2012-04-19T10:53:31Z</time>
      </trkpt>
      <trkpt lat="43.79489" lon="7.25543">
        <ele>477.1</ele>
        <time>2012-04-19T10:53:33Z</time>
      </trkpt>
      <trkpt lat="43.79482" lon="7.25547">
        <ele>477.2</ele>
        <time>2012-04-19T10:53:35Z</time>
      </trkpt>
      <trkpt lat="43.79475" lon="7.25551">
        <ele>477.2</ele>
        <time>2012-04-19T10:53:37Z</time>
      </trkpt>
      <trkpt lat="43.79469" lon="7.25555">
        <ele>477.3</ele>
        <time>2012-04-19T10:53:39Z</time>
      </trkpt>
      <trkpt lat="43.79463" lon="7.25559">
        <ele>477.7</ele>
        <time>2012-04-19T10:53:41Z</time>
      </trkpt>
      <trkpt lat="43.79456" lon="7.25562">
        <ele>477.6</ele>
        <time>2012-04-19T10:53:43Z</time>
      </trkpt>
      <trkpt lat="43.79449" lon="7.25564">
        <ele>477.7</ele>
        <time>2012-04-19T10:53:45Z</time>
      </trkpt>
      <trkpt lat="43.79441" lon="7.25566">
        <ele>477.9</ele>
        <time>2012-04-19T10:53:47Z</time>
      </trkpt>
      <trkpt lat="43.79433" lon="7.25567">
        <ele>478.1</ele>
        <time>2012-04-19T10:53:49Z</time>
      </trkpt>
      <trkpt lat="43.79425" lon="7.25565">
        <ele>478.3</ele>
        <time>2012-04-19T10:53:51Z</time>
      </trkpt>
      <trkpt lat="43.79417" lon="7.25563">
        <ele>478.8</ele>
        <time>2012-04-19T10:53:53Z</time>
      </trkpt>
      <trkpt lat="43.7941" lon="7.25559">
        <ele>479.2</ele>
        <time>2012-04-19T10:53:55Z</time>
      </trkpt>
      <trkpt lat="43.79403" lon="7.25554">
        <ele>479.7</ele>
        <time>2012-04-19T10:53:57Z</time>
      </trkpt>
      <trkpt lat="43.79399" lon="7.25552">
        <ele>479.8</ele>
        <time>2012-04-19T10:53:58Z</time>
      </trkpt>
      <trkpt lat="43.79387" lon="7.25546">
        <ele>479.6</ele>
        <time>2012-04-19T10:54:01Z</time>
      </trkpt>
      <trkpt lat="43.79379" lon="7.25541">
        <ele>480.1</ele>
        <time>2012-04-19T10:54:03Z</time>
      </trkpt>
      <trkpt lat="43.79372" lon="7.25538">
        <ele>480.7</ele>
        <time>2012-04-19T10:54:05Z</time>
      </trkpt>
      <trkpt lat="43.79364" lon="7.25534">
        <ele>481.1</ele>
        <time>2012-04-19T10:54:07Z</time>
      </trkpt>
      <trkpt lat="43.79356" lon="7.25528">
        <ele>481</ele>
        <time>2012-04-19T10:54:09Z</time>
      </trkpt>
      <trkpt lat="43.79352" lon="7.25525">
        <ele>481</ele>
        <time>2012-04-19T10:54:10Z</time>
      </trkpt>
      <trkpt lat="43.79348" lon="7.25522">
        <ele>481.3</ele>
        <time>2012-04-19T10:54:11Z</time>
      </trkpt>
      <trkpt lat="43.79344" lon="7.25519">
        <ele>481.5</ele>
        <time>2012-04-19T10:54:12Z</time>
      </trkpt>
      <trkpt lat="43.7934" lon="7.25515">
        <ele>481.7</ele>
        <time>2012-04-19T10:54:13Z</time>
      </trkpt>
      <trkpt lat="43.79336" lon="7.25511">
        <ele>481.9</ele>
        <time>2012-04-19T10:54:14Z</time>
      </trkpt>
      <trkpt lat="43.79332" lon="7.25507">
        <ele>481.6</ele>
        <time>2012-04-19T10:54:15Z</time>
      </trkpt>
      <trkpt lat="43.79329" lon="7.25503">
        <ele>481.5</ele>
        <time>2012-04-19T10:54:16Z</time>
      </trkpt>
      <trkpt lat="43.79325" lon="7.25499">
        <ele>481.3</ele>
        <time>2012-04-19T10:54:17Z</time>
      </trkpt>
      <trkpt lat="43.79322" lon="7.25494">
        <ele>481.6</ele>
        <time>2012-04-19T10:54:18Z</time>
      </trkpt>
      <trkpt lat="43.79316" lon="7.25485">
        <ele>482.4</ele>
        <time>2012-04-19T10:54:20Z</time>
      </trkpt>
      <trkpt lat="43.79312" lon="7.25474">
        <ele>483.2</ele>
        <time>2012-04-19T10:54:22Z</time>
      </trkpt>
      <trkpt lat="43.79309" lon="7.25463">
        <ele>483.5</ele>
        <time>2012-04-19T10:54:24Z</time>
      </trkpt>
      <trkpt lat="43.79307" lon="7.25451">
        <ele>482.9</ele>
        <time>2012-04-19T10:54:26Z</time>
      </trkpt>
      <trkpt lat="43.79306" lon="7.25441">
        <ele>483.6</ele>
        <time>2012-04-19T10:54:28Z</time>
      </trkpt>
      <trkpt lat="43.79306" lon="7.2543">
        <ele>484</ele>
        <time>2012-04-19T10:54:30Z</time>
      </trkpt>
      <trkpt lat="43.79305" lon="7.25419">
        <ele>483.9</ele>
        <time>2012-04-19T10:54:32Z</time>
      </trkpt>
      <trkpt lat="43.79304" lon="7.25408">
        <ele>484</ele>
        <time>2012-04-19T10:54:34Z</time>
      </trkpt>
      <trkpt lat="43.79303" lon="7.25397">
        <ele>484.3</ele>
        <time>2012-04-19T10:54:36Z</time>
      </trkpt>
      <trkpt lat="43.79302" lon="7.25386">
        <ele>484.3</ele>
        <time>2012-04-19T10:54:38Z</time>
      </trkpt>
      <trkpt lat="43.79301" lon="7.25375">
        <ele>485.2</ele>
        <time>2012-04-19T10:54:40Z</time>
      </trkpt>
      <trkpt lat="43.793" lon="7.25364">
        <ele>485.4</ele>
        <time>2012-04-19T10:54:42Z</time>
      </trkpt>
      <trkpt lat="43.79297" lon="7.25353">
        <ele>485.6</ele>
        <time>2012-04-19T10:54:44Z</time>
      </trkpt>
      <trkpt lat="43.79292" lon="7.25342">
        <ele>485.8</ele>
        <time>2012-04-19T10:54:46Z</time>
      </trkpt>
      <trkpt lat="43.79286" lon="7.25334">
        <ele>485.9</ele>
        <time>2012-04-19T10:54:48Z</time>
      </trkpt>
      <trkpt lat="43.79278" lon="7.25327">
        <ele>486.2</ele>
        <time>2012-04-19T10:54:50Z</time>
      </trkpt>
      <trkpt lat="43.7927" lon="7.25322">
        <ele>486.9</ele>
        <time>2012-04-19T10:54:52Z</time>
      </trkpt>
      <trkpt lat="43.79262" lon="7.25321">
        <ele>487</ele>
        <time>2012-04-19T10:54:54Z</time>
      </trkpt>
      <trkpt lat="43.79254" lon="7.25321">
        <ele>487.2</ele>
        <time>2012-04-19T10:54:56Z</time>
      </trkpt>
      <trkpt lat="43.79246" lon="7.25322">
        <ele>487.6</ele>
        <time>2012-04-19T10:54:58Z</time>
      </trkpt>
      <trkpt lat="43.79242" lon="7.25324">
        <ele>487.8</ele>
        <time>2012-04-19T10:54:59Z</time>
      </trkpt>
      <trkpt lat="43.7923" lon="7.25328">
        <ele>489.1</ele>
        <time>2012-04-19T10:55:02Z</time>
      </trkpt>
      <trkpt lat="43.79223" lon="7.25332">
        <ele>489.6</ele>
        <time>2012-04-19T10:55:04Z</time>
      </trkpt>
      <trkpt lat="43.79216" lon="7.25336">
        <ele>489.6</ele>
        <time>2012-04-19T10:55:06Z</time>
      </trkpt>
      <trkpt lat="43.79207" lon="7.25341">
        <ele>489.6</ele>
        <time>2012-04-19T10:55:08Z</time>
      </trkpt>
      <trkpt lat="43.79203" lon="7.25343">
        <ele>489.6</ele>
        <time>2012-04-19T10:55:09Z</time>
      </trkpt>
      <trkpt lat="43.79199" lon="7.25346">
        <ele>489.7</ele>
        <time>2012-04-19T10:55:10Z</time>
      </trkpt>
      <trkpt lat="43.79195" lon="7.25348">
        <ele>489.8</ele>
        <time>2012-04-19T10:55:11Z</time>
      </trkpt>
      <trkpt lat="43.79191" lon="7.2535">
        <ele>489.6</ele>
        <time>2012-04-19T10:55:12Z</time>
      </trkpt>
      <trkpt lat="43.79186" lon="7.25352">
        <ele>489.5</ele>
        <time>2012-04-19T10:55:13Z</time>
      </trkpt>
      <trkpt lat="43.79182" lon="7.25355">
        <ele>489.3</ele>
        <time>2012-04-19T10:55:14Z</time>
      </trkpt>
      <trkpt lat="43.79178" lon="7.25357">
        <ele>489.6</ele>
        <time>2012-04-19T10:55:15Z</time>
      </trkpt>
      <trkpt lat="43.79173" lon="7.25359">
        <ele>489.8</ele>
        <time>2012-04-19T10:55:16Z</time>
      </trkpt>
      <trkpt lat="43.79169" lon="7.25362">
        <ele>490</ele>
        <time>2012-04-19T10:55:17Z</time>
      </trkpt>
      <trkpt lat="43.79165" lon="7.25364">
        <ele>490.1</ele>
        <time>2012-04-19T10:55:18Z</time>
      </trkpt>
      <trkpt lat="43.7916" lon="7.25366">
        <ele>490.7</ele>
        <time>2012-04-19T10:55:19Z</time>
      </trkpt>
      <trkpt lat="43.79156" lon="7.25368">
        <ele>491</ele>
        <time>2012-04-19T10:55:20Z</time>
      </trkpt>
      <trkpt lat="43.79151" lon="7.2537">
        <ele>491.3</ele>
        <time>2012-04-19T10:55:21Z</time>
      </trkpt>
      <trkpt lat="43.79146" lon="7.25371">
        <ele>491.3</ele>
        <time>2012-04-19T10:55:22Z</time>
      </trkpt>
      <trkpt lat="43.79141" lon="7.25372">
        <ele>491.3</ele>
        <time>2012-04-19T10:55:23Z</time>
      </trkpt>
      <trkpt lat="43.79137" lon="7.25373">
        <ele>491.6</ele>
        <time>2012-04-19T10:55:24Z</time>
      </trkpt>
      <trkpt lat="43.79132" lon="7.25374">
        <ele>491.8</ele>
        <time>2012-04-19T10:55:25Z</time>
      </trkpt>
      <trkpt lat="43.79127" lon="7.25375">
        <ele>492</ele>
        <time>2012-04-19T10:55:26Z</time>
      </trkpt>
      <trkpt lat="43.79122" lon="7.25376">
        <ele>492.3</ele>
        <time>2012-04-19T10:55:27Z</time>
      </trkpt>
      <trkpt lat="43.79118" lon="7.25376">
        <ele>492.5</ele>
        <time>2012-04-19T10:55:28Z</time>
      </trkpt>
      <trkpt lat="43.79113" lon="7.25377">
        <ele>492.9</ele>
        <time>2012-04-19T10:55:29Z</time>
      </trkpt>
      <trkpt lat="43.79107" lon="7.25377">
        <ele>493.1</ele>
        <time>2012-04-19T10:55:30Z</time>
      </trkpt>
      <trkpt lat="43.79102" lon="7.25377">
        <ele>492.9</ele>
        <time>2012-04-19T10:55:31Z</time>
      </trkpt>
      <trkpt lat="43.79097" lon="7.25377">
        <ele>492.8</ele>
        <time>2012-04-19T10:55:32Z</time>
      </trkpt>
      <trkpt lat="43.79092" lon="7.25378">
        <ele>492.7</ele>
        <time>2012-04-19T10:55:33Z</time>
      </trkpt>
      <trkpt lat="43.79087" lon="7.25378">
        <ele>493.3</ele>
        <time>2012-04-19T10:55:34Z</time>
      </trkpt>
      <trkpt lat="43.79082" lon="7.25378">
        <ele>493.8</ele>
        <time>2012-04-19T10:55:35Z</time>
      </trkpt>
      <trkpt lat="43.79073" lon="7.25377">
        <ele>494.1</ele>
        <time>2012-04-19T10:55:37Z</time>
      </trkpt>
      <trkpt lat="43.79065" lon="7.25377">
        <ele>495.2</ele>
        <time>2012-04-19T10:55:40Z</time>
      </trkpt>
      <trkpt lat="43.79057" lon="7.25381">
        <ele>495.5</ele>
        <time>2012-04-19T10:56:31Z</time>
      </trkpt>
      <trkpt lat="43.79054" lon="7.25381">
        <ele>495.4</ele>
        <time>2012-04-19T10:56:32Z</time>
      </trkpt>
      <trkpt lat="43.79043" lon="7.2538">
        <ele>495.6</ele>
        <time>2012-04-19T10:56:36Z</time>
      </trkpt>
      <trkpt lat="43.79036" lon="7.25379">
        <ele>495.3</ele>
        <time>2012-04-19T10:56:38Z</time>
      </trkpt>
      <trkpt lat="43.79029" lon="7.25377">
        <ele>495.4</ele>
        <time>2012-04-19T10:56:40Z</time>
      </trkpt>
      <trkpt lat="43.79022" lon="7.25376">
        <ele>495.8</ele>
        <time>2012-04-19T10:56:42Z</time>
      </trkpt>
      <trkpt lat="43.79013" lon="7.25375">
        <ele>496.2</ele>
        <time>2012-04-19T10:56:44Z</time>
      </trkpt>
      <trkpt lat="43.79005" lon="7.25373">
        <ele>497.2</ele>
        <time>2012-04-19T10:56:46Z</time>
      </trkpt>
      <trkpt lat="43.78996" lon="7.25371">
        <ele>497.7</ele>
        <time>2012-04-19T10:56:48Z</time>
      </trkpt>
      <trkpt lat="43.78988" lon="7.25369">
        <ele>497.7</ele>
        <time>2012-04-19T10:56:50Z</time>
      </trkpt>
      <trkpt lat="43.78979" lon="7.25365">
        <ele>497.4</ele>
        <time>2012-04-19T10:56:52Z</time>
      </trkpt>
      <trkpt lat="43.78975" lon="7.25363">
        <ele>497.3</ele>
        <time>2012-04-19T10:56:53Z</time>
      </trkpt>
      <trkpt lat="43.7897" lon="7.25361">
        <ele>497.3</ele>
        <time>2012-04-19T10:56:54Z</time>
      </trkpt>
      <trkpt lat="43.78963" lon="7.25356">
        <ele>497.3</ele>
        <time>2012-04-19T10:56:56Z</time>
      </trkpt>
      <trkpt lat="43.78959" lon="7.25352">
        <ele>498</ele>
        <time>2012-04-19T10:56:57Z</time>
      </trkpt>
      <trkpt lat="43.78955" lon="7.25349">
        <ele>498.5</ele>
        <time>2012-04-19T10:56:58Z</time>
      </trkpt>
      <trkpt lat="43.78951" lon="7.25345">
        <ele>498.5</ele>
        <time>2012-04-19T10:56:59Z</time>
      </trkpt>
      <trkpt lat="43.78947" lon="7.25341">
        <ele>498.5</ele>
        <time>2012-04-19T10:57:00Z</time>
      </trkpt>
      <trkpt lat="43.78943" lon="7.25336">
        <ele>499.2</ele>
        <time>2012-04-19T10:57:01Z</time>
      </trkpt>
      <trkpt lat="43.7894" lon="7.25331">
        <ele>499.7</ele>
        <time>2012-04-19T10:57:02Z</time>
      </trkpt>
      <trkpt lat="43.78938" lon="7.25325">
        <ele>500</ele>
        <time>2012-04-19T10:57:03Z</time>
      </trkpt>
      <trkpt lat="43.78935" lon="7.2532">
        <ele>500.5</ele>
        <time>2012-04-19T10:57:04Z</time>
      </trkpt>
      <trkpt lat="43.78933" lon="7.25315">
        <ele>500.8</ele>
        <time>2012-04-19T10:57:05Z</time>
      </trkpt>
      <trkpt lat="43.7893" lon="7.25309">
        <ele>500.6</ele>
        <time>2012-04-19T10:57:06Z</time>
      </trkpt>
      <trkpt lat="43.78928" lon="7.25303">
        <ele>500.5</ele>
        <time>2012-04-19T10:57:07Z</time>
      </trkpt>
      <trkpt lat="43.78925" lon="7.25298">
        <ele>500.4</ele>
        <time>2012-04-19T10:57:08Z</time>
      </trkpt>
      <trkpt lat="43.7892" lon="7.25288">
        <ele>500.7</ele>
        <time>2012-04-19T10:57:10Z</time>
      </trkpt>
      <trkpt lat="43.78917" lon="7.25283">
        <ele>500.6</ele>
        <time>2012-04-19T10:57:11Z</time>
      </trkpt>
      <trkpt lat="43.78914" lon="7.25278">
        <ele>500.6</ele>
        <time>2012-04-19T10:57:12Z</time>
      </trkpt>
      <trkpt lat="43.78911" lon="7.25274">
        <ele>501</ele>
        <time>2012-04-19T10:57:13Z</time>
      </trkpt>
      <trkpt lat="43.78908" lon="7.25269">
        <ele>501.3</ele>
        <time>2012-04-19T10:57:14Z</time>
      </trkpt>
      <trkpt lat="43.78904" lon="7.25265">
        <ele>501.5</ele>
        <time>2012-04-19T10:57:15Z</time>
      </trkpt>
      <trkpt lat="43.789" lon="7.25261">
        <ele>501.8</ele>
        <time>2012-04-19T10:57:16Z</time>
      </trkpt>
      <trkpt lat="43.78896" lon="7.25258">
        <ele>501.9</ele>
        <time>2012-04-19T10:57:17Z</time>
      </trkpt>
      <trkpt lat="43.78892" lon="7.25255">
        <ele>502.2</ele>
        <time>2012-04-19T10:57:18Z</time>
      </trkpt>
      <trkpt lat="43.78887" lon="7.25252">
        <ele>502.3</ele>
        <time>2012-04-19T10:57:19Z</time>
      </trkpt>
      <trkpt lat="43.78883" lon="7.2525">
        <ele>502.4</ele>
        <time>2012-04-19T10:57:20Z</time>
      </trkpt>
      <trkpt lat="43.78878" lon="7.25249">
        <ele>502.5</ele>
        <time>2012-04-19T10:57:21Z</time>
      </trkpt>
      <trkpt lat="43.78869" lon="7.25247">
        <ele>503.1</ele>
        <time>2012-04-19T10:57:23Z</time>
      </trkpt>
      <trkpt lat="43.78865" lon="7.25247">
        <ele>503.5</ele>
        <time>2012-04-19T10:57:24Z</time>
      </trkpt>
      <trkpt lat="43.7886" lon="7.25247">
        <ele>503.7</ele>
        <time>2012-04-19T10:57:25Z</time>
      </trkpt>
      <trkpt lat="43.78852" lon="7.25247">
        <ele>504</ele>
        <time>2012-04-19T10:57:27Z</time>
      </trkpt>
      <trkpt lat="43.78844" lon="7.25247">
        <ele>504.2</ele>
        <time>2012-04-19T10:57:29Z</time>
      </trkpt>
      <trkpt lat="43.78837" lon="7.25245">
        <ele>504.5</ele>
        <time>2012-04-19T10:57:31Z</time>
      </trkpt>
      <trkpt lat="43.78828" lon="7.25242">
        <ele>504.3</ele>
        <time>2012-04-19T10:57:33Z</time>
      </trkpt>
      <trkpt lat="43.78825" lon="7.25241">
        <ele>504.2</ele>
        <time>2012-04-19T10:57:34Z</time>
      </trkpt>
      <trkpt lat="43.78813" lon="7.25236">
        <ele>505.2</ele>
        <time>2012-04-19T10:57:37Z</time>
      </trkpt>
      <trkpt lat="43.78809" lon="7.25234">
        <ele>505.3</ele>
        <time>2012-04-19T10:57:38Z</time>
      </trkpt>
      <trkpt lat="43.788" lon="7.25228">
        <ele>506.4</ele>
        <time>2012-04-19T10:57:40Z</time>
      </trkpt>
      <trkpt lat="43.78793" lon="7.25225">
        <ele>506.8</ele>
        <time>2012-04-19T10:57:42Z</time>
      </trkpt>
      <trkpt lat="43.78784" lon="7.25222">
        <ele>507</ele>
        <time>2012-04-19T10:57:44Z</time>
      </trkpt>
      <trkpt lat="43.78776" lon="7.25223">
        <ele>507.3</ele>
        <time>2012-04-19T10:57:46Z</time>
      </trkpt>
      <trkpt lat="43.78769" lon="7.25225">
        <ele>507.1</ele>
        <time>2012-04-19T10:57:48Z</time>
      </trkpt>
      <trkpt lat="43.78762" lon="7.25229">
        <ele>507</ele>
        <time>2012-04-19T10:57:50Z</time>
      </trkpt>
      <trkpt lat="43.78755" lon="7.25234">
        <ele>507.5</ele>
        <time>2012-04-19T10:57:52Z</time>
      </trkpt>
      <trkpt lat="43.78748" lon="7.2524">
        <ele>507.9</ele>
        <time>2012-04-19T10:57:54Z</time>
      </trkpt>
      <trkpt lat="43.78741" lon="7.25246">
        <ele>508.4</ele>
        <time>2012-04-19T10:57:56Z</time>
      </trkpt>
      <trkpt lat="43.78734" lon="7.25252">
        <ele>508.7</ele>
        <time>2012-04-19T10:57:58Z</time>
      </trkpt>
      <trkpt lat="43.78728" lon="7.25257">
        <ele>508.8</ele>
        <time>2012-04-19T10:58:00Z</time>
      </trkpt>
      <trkpt lat="43.78724" lon="7.2526">
        <ele>509.3</ele>
        <time>2012-04-19T10:58:01Z</time>
      </trkpt>
      <trkpt lat="43.78716" lon="7.25265">
        <ele>509.7</ele>
        <time>2012-04-19T10:58:03Z</time>
      </trkpt>
      <trkpt lat="43.78708" lon="7.25268">
        <ele>509.7</ele>
        <time>2012-04-19T10:58:05Z</time>
      </trkpt>
      <trkpt lat="43.78699" lon="7.2527">
        <ele>509.5</ele>
        <time>2012-04-19T10:58:07Z</time>
      </trkpt>
      <trkpt lat="43.78691" lon="7.25271">
        <ele>510.4</ele>
        <time>2012-04-19T10:58:09Z</time>
      </trkpt>
      <trkpt lat="43.78682" lon="7.25272">
        <ele>510.8</ele>
        <time>2012-04-19T10:58:11Z</time>
      </trkpt>
      <trkpt lat="43.78677" lon="7.25272">
        <ele>511</ele>
        <time>2012-04-19T10:58:12Z</time>
      </trkpt>
      <trkpt lat="43.78673" lon="7.25272">
        <ele>511.1</ele>
        <time>2012-04-19T10:58:13Z</time>
      </trkpt>
      <trkpt lat="43.78668" lon="7.25271">
        <ele>511.1</ele>
        <time>2012-04-19T10:58:14Z</time>
      </trkpt>
      <trkpt lat="43.78664" lon="7.25271">
        <ele>511.6</ele>
        <time>2012-04-19T10:58:15Z</time>
      </trkpt>
      <trkpt lat="43.78659" lon="7.2527">
        <ele>511.9</ele>
        <time>2012-04-19T10:58:16Z</time>
      </trkpt>
      <trkpt lat="43.78654" lon="7.2527">
        <ele>511.7</ele>
        <time>2012-04-19T10:58:17Z</time>
      </trkpt>
      <trkpt lat="43.7865" lon="7.25269">
        <ele>511.5</ele>
        <time>2012-04-19T10:58:18Z</time>
      </trkpt>
      <trkpt lat="43.78645" lon="7.25269">
        <ele>511.3</ele>
        <time>2012-04-19T10:58:19Z</time>
      </trkpt>
      <trkpt lat="43.7864" lon="7.25269">
        <ele>511.6</ele>
        <time>2012-04-19T10:58:20Z</time>
      </trkpt>
      <trkpt lat="43.78632" lon="7.25268">
        <ele>511.7</ele>
        <time>2012-04-19T10:58:22Z</time>
      </trkpt>
      <trkpt lat="43.78626" lon="7.25268">
        <ele>511.7</ele>
        <time>2012-04-19T10:58:24Z</time>
      </trkpt>
      <trkpt lat="43.78618" lon="7.25267">
        <ele>511.5</ele>
        <time>2012-04-19T10:58:26Z</time>
      </trkpt>
      <trkpt lat="43.78609" lon="7.25268">
        <ele>511.8</ele>
        <time>2012-04-19T10:58:28Z</time>
      </trkpt>
      <trkpt lat="43.78605" lon="7.25269">
        <ele>511.9</ele>
        <time>2012-04-19T10:58:29Z</time>
      </trkpt>
      <trkpt lat="43.786" lon="7.2527">
        <ele>512.1</ele>
        <time>2012-04-19T10:58:30Z</time>
      </trkpt>
      <trkpt lat="43.78591" lon="7.25271">
        <ele>512.6</ele>
        <time>2012-04-19T10:58:32Z</time>
      </trkpt>
      <trkpt lat="43.78583" lon="7.25271">
        <ele>513.3</ele>
        <time>2012-04-19T10:58:34Z</time>
      </trkpt>
      <trkpt lat="43.78575" lon="7.25272">
        <ele>514.4</ele>
        <time>2012-04-19T10:58:36Z</time>
      </trkpt>
      <trkpt lat="43.7857" lon="7.25273">
        <ele>515</ele>
        <time>2012-04-19T10:58:37Z</time>
      </trkpt>
      <trkpt lat="43.78566" lon="7.25273">
        <ele>515.5</ele>
        <time>2012-04-19T10:58:38Z</time>
      </trkpt>
      <trkpt lat="43.78561" lon="7.25274">
        <ele>515.6</ele>
        <time>2012-04-19T10:58:39Z</time>
      </trkpt>
      <trkpt lat="43.78556" lon="7.25274">
        <ele>515.7</ele>
        <time>2012-04-19T10:58:40Z</time>
      </trkpt>
      <trkpt lat="43.78551" lon="7.25274">
        <ele>515.6</ele>
        <time>2012-04-19T10:58:41Z</time>
      </trkpt>
      <trkpt lat="43.78546" lon="7.25274">
        <ele>515.5</ele>
        <time>2012-04-19T10:58:42Z</time>
      </trkpt>
      <trkpt lat="43.78541" lon="7.25274">
        <ele>515.5</ele>
        <time>2012-04-19T10:58:43Z</time>
      </trkpt>
      <trkpt lat="43.78536" lon="7.25274">
        <ele>515.6</ele>
        <time>2012-04-19T10:58:44Z</time>
      </trkpt>
      <trkpt lat="43.78531" lon="7.25274">
        <ele>515.6</ele>
        <time>2012-04-19T10:58:45Z</time>
      </trkpt>
      <trkpt lat="43.78526" lon="7.25275">
        <ele>516.1</ele>
        <time>2012-04-19T10:58:46Z</time>
      </trkpt>
      <trkpt lat="43.78522" lon="7.25275">
        <ele>516.5</ele>
        <time>2012-04-19T10:58:47Z</time>
      </trkpt>
      <trkpt lat="43.78517" lon="7.25276">
        <ele>516.5</ele>
        <time>2012-04-19T10:58:48Z</time>
      </trkpt>
      <trkpt lat="43.78513" lon="7.25277">
        <ele>516.5</ele>
        <time>2012-04-19T10:58:49Z</time>
      </trkpt>
      <trkpt lat="43.78508" lon="7.25278">
        <ele>516.4</ele>
        <time>2012-04-19T10:58:50Z</time>
      </trkpt>
      <trkpt lat="43.78499" lon="7.2528">
        <ele>516.5</ele>
        <time>2012-04-19T10:58:52Z</time>
      </trkpt>
      <trkpt lat="43.78495" lon="7.25282">
        <ele>516.8</ele>
        <time>2012-04-19T10:58:53Z</time>
      </trkpt>
      <trkpt lat="43.78491" lon="7.25283">
        <ele>517.1</ele>
        <time>2012-04-19T10:58:54Z</time>
      </trkpt>
      <trkpt lat="43.78486" lon="7.25284">
        <ele>517.4</ele>
        <time>2012-04-19T10:58:55Z</time>
      </trkpt>
      <trkpt lat="43.78481" lon="7.25286">
        <ele>517.6</ele>
        <time>2012-04-19T10:58:56Z</time>
      </trkpt>
      <trkpt lat="43.78477" lon="7.25287">
        <ele>517.7</ele>
        <time>2012-04-19T10:58:57Z</time>
      </trkpt>
      <trkpt lat="43.78472" lon="7.25288">
        <ele>518</ele>
        <time>2012-04-19T10:58:58Z</time>
      </trkpt>
      <trkpt lat="43.78468" lon="7.2529">
        <ele>518.3</ele>
        <time>2012-04-19T10:58:59Z</time>
      </trkpt>
      <trkpt lat="43.78463" lon="7.25292">
        <ele>518.2</ele>
        <time>2012-04-19T10:59:00Z</time>
      </trkpt>
      <trkpt lat="43.78455" lon="7.25295">
        <ele>518.1</ele>
        <time>2012-04-19T10:59:02Z</time>
      </trkpt>
      <trkpt lat="43.78446" lon="7.25298">
        <ele>518.6</ele>
        <time>2012-04-19T10:59:04Z</time>
      </trkpt>
      <trkpt lat="43.78438" lon="7.25302">
        <ele>519.3</ele>
        <time>2012-04-19T10:59:06Z</time>
      </trkpt>
      <trkpt lat="43.7843" lon="7.25306">
        <ele>519.2</ele>
        <time>2012-04-19T10:59:08Z</time>
      </trkpt>
      <trkpt lat="43.78426" lon="7.25308">
        <ele>519.1</ele>
        <time>2012-04-19T10:59:09Z</time>
      </trkpt>
      <trkpt lat="43.78417" lon="7.25312">
        <ele>519.4</ele>
        <time>2012-04-19T10:59:11Z</time>
      </trkpt>
      <trkpt lat="43.78409" lon="7.25315">
        <ele>519.6</ele>
        <time>2012-04-19T10:59:13Z</time>
      </trkpt>
      <trkpt lat="43.784" lon="7.25319">
        <ele>520.5</ele>
        <time>2012-04-19T10:59:15Z</time>
      </trkpt>
      <trkpt lat="43.78392" lon="7.25323">
        <ele>520.6</ele>
        <time>2012-04-19T10:59:17Z</time>
      </trkpt>
      <trkpt lat="43.78383" lon="7.25327">
        <ele>520.6</ele>
        <time>2012-04-19T10:59:19Z</time>
      </trkpt>
      <trkpt lat="43.78375" lon="7.25331">
        <ele>520.6</ele>
        <time>2012-04-19T10:59:21Z</time>
      </trkpt>
      <trkpt lat="43.78367" lon="7.25336">
        <ele>520.4</ele>
        <time>2012-04-19T10:59:23Z</time>
      </trkpt>
      <trkpt lat="43.78362" lon="7.25338">
        <ele>520.8</ele>
        <time>2012-04-19T10:59:24Z</time>
      </trkpt>
      <trkpt lat="43.78358" lon="7.25341">
        <ele>521.1</ele>
        <time>2012-04-19T10:59:25Z</time>
      </trkpt>
      <trkpt lat="43.78354" lon="7.25344">
        <ele>521.4</ele>
        <time>2012-04-19T10:59:26Z</time>
      </trkpt>
      <trkpt lat="43.7835" lon="7.25347">
        <ele>521.6</ele>
        <time>2012-04-19T10:59:27Z</time>
      </trkpt>
      <trkpt lat="43.78346" lon="7.2535">
        <ele>521.8</ele>
        <time>2012-04-19T10:59:28Z</time>
      </trkpt>
      <trkpt lat="43.78341" lon="7.25353">
        <ele>521.9</ele>
        <time>2012-04-19T10:59:29Z</time>
      </trkpt>
      <trkpt lat="43.78337" lon="7.25356">
        <ele>521.9</ele>
        <time>2012-04-19T10:59:30Z</time>
      </trkpt>
      <trkpt lat="43.78333" lon="7.25359">
        <ele>522.1</ele>
        <time>2012-04-19T10:59:31Z</time>
      </trkpt>
      <trkpt lat="43.78328" lon="7.25362">
        <ele>522.3</ele>
        <time>2012-04-19T10:59:32Z</time>
      </trkpt>
      <trkpt lat="43.78324" lon="7.25366">
        <ele>522.8</ele>
        <time>2012-04-19T10:59:33Z</time>
      </trkpt>
      <trkpt lat="43.7832" lon="7.25369">
        <ele>523.2</ele>
        <time>2012-04-19T10:59:34Z</time>
      </trkpt>
      <trkpt lat="43.78316" lon="7.25372">
        <ele>523.5</ele>
        <time>2012-04-19T10:59:35Z</time>
      </trkpt>
      <trkpt lat="43.78312" lon="7.25375">
        <ele>523.8</ele>
        <time>2012-04-19T10:59:36Z</time>
      </trkpt>
      <trkpt lat="43.78308" lon="7.25378">
        <ele>524</ele>
        <time>2012-04-19T10:59:37Z</time>
      </trkpt>
      <trkpt lat="43.78303" lon="7.2538">
        <ele>524</ele>
        <time>2012-04-19T10:59:38Z</time>
      </trkpt>
      <trkpt lat="43.78299" lon="7.25383">
        <ele>524</ele>
        <time>2012-04-19T10:59:39Z</time>
      </trkpt>
      <trkpt lat="43.78295" lon="7.25386">
        <ele>524.1</ele>
        <time>2012-04-19T10:59:40Z</time>
      </trkpt>
      <trkpt lat="43.78291" lon="7.2539">
        <ele>524.2</ele>
        <time>2012-04-19T10:59:41Z</time>
      </trkpt>
      <trkpt lat="43.78286" lon="7.25393">
        <ele>524.4</ele>
        <time>2012-04-19T10:59:42Z</time>
      </trkpt>
      <trkpt lat="43.78282" lon="7.25396">
        <ele>524.3</ele>
        <time>2012-04-19T10:59:43Z</time>
      </trkpt>
      <trkpt lat="43.78278" lon="7.25399">
        <ele>524.3</ele>
        <time>2012-04-19T10:59:44Z</time>
      </trkpt>
      <trkpt lat="43.78273" lon="7.25402">
        <ele>524.5</ele>
        <time>2012-04-19T10:59:45Z</time>
      </trkpt>
      <trkpt lat="43.78269" lon="7.25404">
        <ele>524.7</ele>
        <time>2012-04-19T10:59:46Z</time>
      </trkpt>
      <trkpt lat="43.78264" lon="7.25406">
        <ele>524.8</ele>
        <time>2012-04-19T10:59:47Z</time>
      </trkpt>
      <trkpt lat="43.7826" lon="7.25407">
        <ele>525.4</ele>
        <time>2012-04-19T10:59:48Z</time>
      </trkpt>
      <trkpt lat="43.78255" lon="7.25408">
        <ele>525.9</ele>
        <time>2012-04-19T10:59:49Z</time>
      </trkpt>
      <trkpt lat="43.7825" lon="7.25407">
        <ele>525.8</ele>
        <time>2012-04-19T10:59:50Z</time>
      </trkpt>
      <trkpt lat="43.78245" lon="7.25406">
        <ele>525.7</ele>
        <time>2012-04-19T10:59:51Z</time>
      </trkpt>
      <trkpt lat="43.7824" lon="7.25403">
        <ele>525.8</ele>
        <time>2012-04-19T10:59:52Z</time>
      </trkpt>
      <trkpt lat="43.78236" lon="7.254">
        <ele>525.9</ele>
        <time>2012-04-19T10:59:53Z</time>
      </trkpt>
      <trkpt lat="43.78232" lon="7.25396">
        <ele>526</ele>
        <time>2012-04-19T10:59:54Z</time>
      </trkpt>
      <trkpt lat="43.78228" lon="7.25392">
        <ele>526.2</ele>
        <time>2012-04-19T10:59:55Z</time>
      </trkpt>
      <trkpt lat="43.78224" lon="7.25387">
        <ele>526.3</ele>
        <time>2012-04-19T10:59:56Z</time>
      </trkpt>
      <trkpt lat="43.78222" lon="7.25381">
        <ele>526.8</ele>
        <time>2012-04-19T10:59:57Z</time>
      </trkpt>
      <trkpt lat="43.78219" lon="7.25375">
        <ele>527.1</ele>
        <time>2012-04-19T10:59:58Z</time>
      </trkpt>
      <trkpt lat="43.78217" lon="7.25369">
        <ele>527</ele>
        <time>2012-04-19T10:59:59Z</time>
      </trkpt>
      <trkpt lat="43.78214" lon="7.25363">
        <ele>527</ele>
        <time>2012-04-19T11:00:00Z</time>
      </trkpt>
      <trkpt lat="43.78212" lon="7.25357">
        <ele>526.9</ele>
        <time>2012-04-19T11:00:01Z</time>
      </trkpt>
      <trkpt lat="43.7821" lon="7.25351">
        <ele>527.1</ele>
        <time>2012-04-19T11:00:02Z</time>
      </trkpt>
      <trkpt lat="43.78208" lon="7.25345">
        <ele>527.3</ele>
        <time>2012-04-19T11:00:03Z</time>
      </trkpt>
      <trkpt lat="43.78207" lon="7.25339">
        <ele>527.5</ele>
        <time>2012-04-19T11:00:04Z</time>
      </trkpt>
      <trkpt lat="43.78205" lon="7.25333">
        <ele>527.6</ele>
        <time>2012-04-19T11:00:05Z</time>
      </trkpt>
      <trkpt lat="43.78203" lon="7.25321">
        <ele>527.7</ele>
        <time>2012-04-19T11:00:07Z</time>
      </trkpt>
      <trkpt lat="43.78201" lon="7.25309">
        <ele>527.7</ele>
        <time>2012-04-19T11:00:09Z</time>
      </trkpt>
      <trkpt lat="43.78201" lon="7.25297">
        <ele>527.9</ele>
        <time>2012-04-19T11:00:11Z</time>
      </trkpt>
      <trkpt lat="43.78202" lon="7.25286">
        <ele>528.1</ele>
        <time>2012-04-19T11:00:13Z</time>
      </trkpt>
      <trkpt lat="43.78205" lon="7.25278">
        <ele>528.3</ele>
        <time>2012-04-19T11:00:15Z</time>
      </trkpt>
      <trkpt lat="43.78211" lon="7.25269">
        <ele>527.8</ele>
        <time>2012-04-19T11:00:20Z</time>
      </trkpt>
      <trkpt lat="43.78204" lon="7.25261">
        <ele>527.9</ele>
        <time>2012-04-19T11:01:12Z</time>
      </trkpt>
      <trkpt lat="43.78202" lon="7.25264">
        <ele>528</ele>
        <time>2012-04-19T11:01:13Z</time>
      </trkpt>
      <trkpt lat="43.78197" lon="7.25277">
        <ele>528.3</ele>
        <time>2012-04-19T11:01:17Z</time>
      </trkpt>
      <trkpt lat="43.78191" lon="7.25286">
        <ele>527.9</ele>
        <time>2012-04-19T11:01:20Z</time>
      </trkpt>
      <trkpt lat="43.78183" lon="7.25281">
        <ele>528.7</ele>
        <time>2012-04-19T11:01:24Z</time>
      </trkpt>
      <trkpt lat="43.78175" lon="7.25279">
        <ele>527.6</ele>
        <time>2012-04-19T11:01:45Z</time>
      </trkpt>
      <trkpt lat="43.78169" lon="7.25275">
        <ele>527.7</ele>
        <time>2012-04-19T11:01:49Z</time>
      </trkpt>
      <trkpt lat="43.78163" lon="7.25268">
        <ele>528.9</ele>
        <time>2012-04-19T11:01:53Z</time>
      </trkpt>
      <trkpt lat="43.78157" lon="7.2526">
        <ele>530.4</ele>
        <time>2012-04-19T11:01:58Z</time>
      </trkpt>
      <trkpt lat="43.78154" lon="7.25248">
        <ele>531.9</ele>
        <time>2012-04-19T11:02:04Z</time>
      </trkpt>
      <trkpt lat="43.78146" lon="7.25243">
        <ele>533.7</ele>
        <time>2012-04-19T11:02:14Z</time>
      </trkpt>
      <trkpt lat="43.78146" lon="7.25244">
        <ele>533.9</ele>
        <time>2012-04-19T11:02:15Z</time>
      </trkpt>
      <trkpt lat="43.78135" lon="7.2526">
        <ele>537.1</ele>
        <time>2012-04-19T11:02:27Z</time>
      </trkpt>
      <trkpt lat="43.78128" lon="7.25266">
        <ele>539</ele>
        <time>2012-04-19T11:02:33Z</time>
      </trkpt>
      <trkpt lat="43.7812" lon="7.25272">
        <ele>540.6</ele>
        <time>2012-04-19T11:02:39Z</time>
      </trkpt>
      <trkpt lat="43.78113" lon="7.25278">
        <ele>541.5</ele>
        <time>2012-04-19T11:02:45Z</time>
      </trkpt>
      <trkpt lat="43.78106" lon="7.25284">
        <ele>542.3</ele>
        <time>2012-04-19T11:02:50Z</time>
      </trkpt>
      <trkpt lat="43.78099" lon="7.2529">
        <ele>543.6</ele>
        <time>2012-04-19T11:02:55Z</time>
      </trkpt>
      <trkpt lat="43.78093" lon="7.25296">
        <ele>544.1</ele>
        <time>2012-04-19T11:02:59Z</time>
      </trkpt>
      <trkpt lat="43.78085" lon="7.25302">
        <ele>544.7</ele>
        <time>2012-04-19T11:03:04Z</time>
      </trkpt>
      <trkpt lat="43.78078" lon="7.25308">
        <ele>546</ele>
        <time>2012-04-19T11:03:09Z</time>
      </trkpt>
      <trkpt lat="43.7807" lon="7.25311">
        <ele>547.9</ele>
        <time>2012-04-19T11:03:14Z</time>
      </trkpt>
      <trkpt lat="43.78063" lon="7.25318">
        <ele>549.5</ele>
        <time>2012-04-19T11:03:20Z</time>
      </trkpt>
      <trkpt lat="43.78062" lon="7.25319">
        <ele>550</ele>
        <time>2012-04-19T11:03:21Z</time>
      </trkpt>
      <trkpt lat="43.78048" lon="7.25329">
        <ele>553.2</ele>
        <time>2012-04-19T11:03:33Z</time>
      </trkpt>
      <trkpt lat="43.78041" lon="7.25334">
        <ele>555</ele>
        <time>2012-04-19T11:03:39Z</time>
      </trkpt>
      <trkpt lat="43.78033" lon="7.25341">
        <ele>556.8</ele>
        <time>2012-04-19T11:03:45Z</time>
      </trkpt>
      <trkpt lat="43.78027" lon="7.25348">
        <ele>559.1</ele>
        <time>2012-04-19T11:03:51Z</time>
      </trkpt>
      <trkpt lat="43.78021" lon="7.25355">
        <ele>560.3</ele>
        <time>2012-04-19T11:03:56Z</time>
      </trkpt>
      <trkpt lat="43.78016" lon="7.25362">
        <ele>561</ele>
        <time>2012-04-19T11:04:00Z</time>
      </trkpt>
      <trkpt lat="43.7801" lon="7.2537">
        <ele>562</ele>
        <time>2012-04-19T11:04:05Z</time>
      </trkpt>
      <trkpt lat="43.78004" lon="7.25376">
        <ele>561.9</ele>
        <time>2012-04-19T11:04:09Z</time>
      </trkpt>
      <trkpt lat="43.77999" lon="7.25386">
        <ele>562.4</ele>
        <time>2012-04-19T11:04:13Z</time>
      </trkpt>
      <trkpt lat="43.77993" lon="7.25394">
        <ele>562.8</ele>
        <time>2012-04-19T11:04:17Z</time>
      </trkpt>
      <trkpt lat="43.77987" lon="7.25402">
        <ele>563.9</ele>
        <time>2012-04-19T11:04:21Z</time>
      </trkpt>
      <trkpt lat="43.7798" lon="7.25408">
        <ele>564</ele>
        <time>2012-04-19T11:04:24Z</time>
      </trkpt>
      <trkpt lat="43.77978" lon="7.25409">
        <ele>563.9</ele>
        <time>2012-04-19T11:04:25Z</time>
      </trkpt>
      <trkpt lat="43.77967" lon="7.2542">
        <ele>564.6</ele>
        <time>2012-04-19T11:04:32Z</time>
      </trkpt>
      <trkpt lat="43.7796" lon="7.25427">
        <ele>565.1</ele>
        <time>2012-04-19T11:04:38Z</time>
      </trkpt>
      <trkpt lat="43.77954" lon="7.25434">
        <ele>567.1</ele>
        <time>2012-04-19T11:04:43Z</time>
      </trkpt>
      <trkpt lat="43.77952" lon="7.25444">
        <ele>568.3</ele>
        <time>2012-04-19T11:04:47Z</time>
      </trkpt>
      <trkpt lat="43.77951" lon="7.25454">
        <ele>569.3</ele>
        <time>2012-04-19T11:04:51Z</time>
      </trkpt>
      <trkpt lat="43.7795" lon="7.25466">
        <ele>569.9</ele>
        <time>2012-04-19T11:04:56Z</time>
      </trkpt>
      <trkpt lat="43.77946" lon="7.25476">
        <ele>570.5</ele>
        <time>2012-04-19T11:05:01Z</time>
      </trkpt>
      <trkpt lat="43.77942" lon="7.25485">
        <ele>572.9</ele>
        <time>2012-04-19T11:05:06Z</time>
      </trkpt>
      <trkpt lat="43.77938" lon="7.25494">
        <ele>574.5</ele>
        <time>2012-04-19T11:05:11Z</time>
      </trkpt>
      <trkpt lat="43.77932" lon="7.25503">
        <ele>575.1</ele>
        <time>2012-04-19T11:05:17Z</time>
      </trkpt>
      <trkpt lat="43.77929" lon="7.25512">
        <ele>577.8</ele>
        <time>2012-04-19T11:05:24Z</time>
      </trkpt>
      <trkpt lat="43.77924" lon="7.25522">
        <ele>579.8</ele>
        <time>2012-04-19T11:05:31Z</time>
      </trkpt>
      <trkpt lat="43.77923" lon="7.25524">
        <ele>579.8</ele>
        <time>2012-04-19T11:05:32Z</time>
      </trkpt>
      <trkpt lat="43.77914" lon="7.25541">
        <ele>584.2</ele>
        <time>2012-04-19T11:05:43Z</time>
      </trkpt>
      <trkpt lat="43.7791" lon="7.25551">
        <ele>587.7</ele>
        <time>2012-04-19T11:05:54Z</time>
      </trkpt>
      <trkpt lat="43.77903" lon="7.25559">
        <ele>589.3</ele>
        <time>2012-04-19T11:06:07Z</time>
      </trkpt>
      <trkpt lat="43.77896" lon="7.25565">
        <ele>592.3</ele>
        <time>2012-04-19T11:06:20Z</time>
      </trkpt>
      <trkpt lat="43.77889" lon="7.25572">
        <ele>597.1</ele>
        <time>2012-04-19T11:06:34Z</time>
      </trkpt>
      <trkpt lat="43.77888" lon="7.25573">
        <ele>597.6</ele>
        <time>2012-04-19T11:06:35Z</time>
      </trkpt>
      <trkpt lat="43.77882" lon="7.2559">
        <ele>603.4</ele>
        <time>2012-04-19T11:07:04Z</time>
      </trkpt>
      <trkpt lat="43.77873" lon="7.25593">
        <ele>605.7</ele>
        <time>2012-04-19T11:07:20Z</time>
      </trkpt>
      <trkpt lat="43.77869" lon="7.25603">
        <ele>610</ele>
        <time>2012-04-19T11:07:35Z</time>
      </trkpt>
      <trkpt lat="43.77868" lon="7.25604">
        <ele>610.1</ele>
        <time>2012-04-19T11:07:36Z</time>
      </trkpt>
      <trkpt lat="43.77863" lon="7.25623">
        <ele>617.6</ele>
        <time>2012-04-19T11:08:06Z</time>
      </trkpt>
      <trkpt lat="43.77854" lon="7.25626">
        <ele>620.4</ele>
        <time>2012-04-19T11:08:18Z</time>
      </trkpt>
      <trkpt lat="43.77846" lon="7.2563">
        <ele>622.9</ele>
        <time>2012-04-19T11:08:32Z</time>
      </trkpt>
      <trkpt lat="43.77837" lon="7.2563">
        <ele>625.4</ele>
        <time>2012-04-19T11:08:42Z</time>
      </trkpt>
      <trkpt lat="43.77836" lon="7.2563">
        <ele>625.7</ele>
        <time>2012-04-19T11:08:43Z</time>
      </trkpt>
      <trkpt lat="43.77821" lon="7.25631">
        <ele>631.9</ele>
        <time>2012-04-19T11:09:08Z</time>
      </trkpt>
      <trkpt lat="43.77814" lon="7.25626">
        <ele>634.9</ele>
        <time>2012-04-19T11:09:22Z</time>
      </trkpt>
      <trkpt lat="43.77807" lon="7.25618">
        <ele>638.6</ele>
        <time>2012-04-19T11:09:43Z</time>
      </trkpt>
      <trkpt lat="43.77806" lon="7.25619">
        <ele>638.8</ele>
        <time>2012-04-19T11:09:44Z</time>
      </trkpt>
      <trkpt lat="43.77793" lon="7.25633">
        <ele>644</ele>
        <time>2012-04-19T11:10:10Z</time>
      </trkpt>
      <trkpt lat="43.77785" lon="7.25636">
        <ele>649.2</ele>
        <time>2012-04-19T11:10:37Z</time>
      </trkpt>
      <trkpt lat="43.77778" lon="7.25643">
        <ele>652.9</ele>
        <time>2012-04-19T11:10:50Z</time>
      </trkpt>
      <trkpt lat="43.77778" lon="7.25644">
        <ele>653.1</ele>
        <time>2012-04-19T11:10:51Z</time>
      </trkpt>
      <trkpt lat="43.77764" lon="7.25657">
        <ele>658.7</ele>
        <time>2012-04-19T11:11:15Z</time>
      </trkpt>
      <trkpt lat="43.77757" lon="7.25663">
        <ele>660.8</ele>
        <time>2012-04-19T11:11:25Z</time>
      </trkpt>
      <trkpt lat="43.77751" lon="7.2567">
        <ele>662.8</ele>
        <time>2012-04-19T11:11:36Z</time>
      </trkpt>
      <trkpt lat="43.77745" lon="7.25681">
        <ele>664.4</ele>
        <time>2012-04-19T11:11:44Z</time>
      </trkpt>
      <trkpt lat="43.77741" lon="7.2569">
        <ele>665.3</ele>
        <time>2012-04-19T11:11:52Z</time>
      </trkpt>
      <trkpt lat="43.7774" lon="7.25691">
        <ele>665.3</ele>
        <time>2012-04-19T11:11:53Z</time>
      </trkpt>
      <trkpt lat="43.77732" lon="7.25711">
        <ele>669.6</ele>
        <time>2012-04-19T11:12:11Z</time>
      </trkpt>
      <trkpt lat="43.7773" lon="7.25722">
        <ele>670.4</ele>
        <time>2012-04-19T11:12:20Z</time>
      </trkpt>
      <trkpt lat="43.77727" lon="7.25733">
        <ele>671.9</ele>
        <time>2012-04-19T11:12:30Z</time>
      </trkpt>
      <trkpt lat="43.77726" lon="7.25745">
        <ele>673.9</ele>
        <time>2012-04-19T11:12:40Z</time>
      </trkpt>
      <trkpt lat="43.77726" lon="7.25757">
        <ele>674.8</ele>
        <time>2012-04-19T11:12:49Z</time>
      </trkpt>
      <trkpt lat="43.77727" lon="7.25769">
        <ele>676.1</ele>
        <time>2012-04-19T11:12:59Z</time>
      </trkpt>
      <trkpt lat="43.77727" lon="7.2577">
        <ele>676.5</ele>
        <time>2012-04-19T11:13:00Z</time>
      </trkpt>
      <trkpt lat="43.77721" lon="7.2579">
        <ele>678.7</ele>
        <time>2012-04-19T11:13:21Z</time>
      </trkpt>
      <trkpt lat="43.77716" lon="7.25801">
        <ele>680.2</ele>
        <time>2012-04-19T11:13:27Z</time>
      </trkpt>
      <trkpt lat="43.77714" lon="7.25811">
        <ele>681.3</ele>
        <time>2012-04-19T11:13:32Z</time>
      </trkpt>
      <trkpt lat="43.7771" lon="7.2582">
        <ele>682.6</ele>
        <time>2012-04-19T11:13:37Z</time>
      </trkpt>
      <trkpt lat="43.77705" lon="7.25828">
        <ele>683.2</ele>
        <time>2012-04-19T11:13:42Z</time>
      </trkpt>
      <trkpt lat="43.77698" lon="7.25836">
        <ele>684.5</ele>
        <time>2012-04-19T11:13:48Z</time>
      </trkpt>
      <trkpt lat="43.77692" lon="7.25845">
        <ele>685.6</ele>
        <time>2012-04-19T11:13:54Z</time>
      </trkpt>
      <trkpt lat="43.77686" lon="7.25853">
        <ele>686</ele>
        <time>2012-04-19T11:14:00Z</time>
      </trkpt>
      <trkpt lat="43.77681" lon="7.25861">
        <ele>687.3</ele>
        <time>2012-04-19T11:14:05Z</time>
      </trkpt>
      <trkpt lat="43.7768" lon="7.25863">
        <ele>687.6</ele>
        <time>2012-04-19T11:14:06Z</time>
      </trkpt>
      <trkpt lat="43.77669" lon="7.25877">
        <ele>689.8</ele>
        <time>2012-04-19T11:14:17Z</time>
      </trkpt>
      <trkpt lat="43.77663" lon="7.25886">
        <ele>691.7</ele>
        <time>2012-04-19T11:14:23Z</time>
      </trkpt>
      <trkpt lat="43.77658" lon="7.25894">
        <ele>692.4</ele>
        <time>2012-04-19T11:14:29Z</time>
      </trkpt>
      <trkpt lat="43.77652" lon="7.25902">
        <ele>693.9</ele>
        <time>2012-04-19T11:14:35Z</time>
      </trkpt>
      <trkpt lat="43.77646" lon="7.25911">
        <ele>695.8</ele>
        <time>2012-04-19T11:14:42Z</time>
      </trkpt>
      <trkpt lat="43.77641" lon="7.25919">
        <ele>698</ele>
        <time>2012-04-19T11:14:49Z</time>
      </trkpt>
      <trkpt lat="43.77635" lon="7.25927">
        <ele>700</ele>
        <time>2012-04-19T11:14:55Z</time>
      </trkpt>
      <trkpt lat="43.77631" lon="7.25936">
        <ele>701.4</ele>
        <time>2012-04-19T11:15:01Z</time>
      </trkpt>
      <trkpt lat="43.77625" lon="7.25943">
        <ele>703</ele>
        <time>2012-04-19T11:15:07Z</time>
      </trkpt>
      <trkpt lat="43.77623" lon="7.25944">
        <ele>703.2</ele>
        <time>2012-04-19T11:15:08Z</time>
      </trkpt>
      <trkpt lat="43.77612" lon="7.25958">
        <ele>705.7</ele>
        <time>2012-04-19T11:15:19Z</time>
      </trkpt>
      <trkpt lat="43.77607" lon="7.25966">
        <ele>707.7</ele>
        <time>2012-04-19T11:15:24Z</time>
      </trkpt>
      <trkpt lat="43.776" lon="7.25972">
        <ele>709.8</ele>
        <time>2012-04-19T11:15:30Z</time>
      </trkpt>
      <trkpt lat="43.77594" lon="7.25979">
        <ele>710.4</ele>
        <time>2012-04-19T11:15:35Z</time>
      </trkpt>
      <trkpt lat="43.77587" lon="7.25987">
        <ele>711.4</ele>
        <time>2012-04-19T11:15:41Z</time>
      </trkpt>
      <trkpt lat="43.77581" lon="7.25994">
        <ele>712.7</ele>
        <time>2012-04-19T11:15:46Z</time>
      </trkpt>
      <trkpt lat="43.77574" lon="7.25999">
        <ele>714.2</ele>
        <time>2012-04-19T11:15:51Z</time>
      </trkpt>
      <trkpt lat="43.77567" lon="7.26004">
        <ele>714.2</ele>
        <time>2012-04-19T11:15:55Z</time>
      </trkpt>
      <trkpt lat="43.7756" lon="7.2601">
        <ele>714.3</ele>
        <time>2012-04-19T11:16:00Z</time>
      </trkpt>
      <trkpt lat="43.77552" lon="7.26013">
        <ele>715.8</ele>
        <time>2012-04-19T11:16:05Z</time>
      </trkpt>
      <trkpt lat="43.77545" lon="7.2602">
        <ele>716.3</ele>
        <time>2012-04-19T11:16:10Z</time>
      </trkpt>
      <trkpt lat="43.77544" lon="7.26022">
        <ele>716.4</ele>
        <time>2012-04-19T11:16:11Z</time>
      </trkpt>
      <trkpt lat="43.77533" lon="7.26033">
        <ele>718.7</ele>
        <time>2012-04-19T11:16:20Z</time>
      </trkpt>
      <trkpt lat="43.77529" lon="7.26022">
        <ele>720.4</ele>
        <time>2012-04-19T11:16:26Z</time>
      </trkpt>
      <trkpt lat="43.77531" lon="7.26012">
        <ele>721</ele>
        <time>2012-04-19T11:16:32Z</time>
      </trkpt>
      <trkpt lat="43.77534" lon="7.26002">
        <ele>721.5</ele>
        <time>2012-04-19T11:16:36Z</time>
      </trkpt>
      <trkpt lat="43.77538" lon="7.25993">
        <ele>721.8</ele>
        <time>2012-04-19T11:16:39Z</time>
      </trkpt>
      <trkpt lat="43.77541" lon="7.25983">
        <ele>721.5</ele>
        <time>2012-04-19T11:16:42Z</time>
      </trkpt>
      <trkpt lat="43.77545" lon="7.25974">
        <ele>721.2</ele>
        <time>2012-04-19T11:16:45Z</time>
      </trkpt>
      <trkpt lat="43.77548" lon="7.25965">
        <ele>721.3</ele>
        <time>2012-04-19T11:16:48Z</time>
      </trkpt>
      <trkpt lat="43.77552" lon="7.25955">
        <ele>721.3</ele>
        <time>2012-04-19T11:16:52Z</time>
      </trkpt>
      <trkpt lat="43.77555" lon="7.25946">
        <ele>721.9</ele>
        <time>2012-04-19T11:16:56Z</time>
      </trkpt>
      <trkpt lat="43.77559" lon="7.25937">
        <ele>722.4</ele>
        <time>2012-04-19T11:16:59Z</time>
      </trkpt>
      <trkpt lat="43.77564" lon="7.25928">
        <ele>722.5</ele>
        <time>2012-04-19T11:17:02Z</time>
      </trkpt>
      <trkpt lat="43.77567" lon="7.25918">
        <ele>722.7</ele>
        <time>2012-04-19T11:17:05Z</time>
      </trkpt>
      <trkpt lat="43.7757" lon="7.25909">
        <ele>723.3</ele>
        <time>2012-04-19T11:17:08Z</time>
      </trkpt>
      <trkpt lat="43.77572" lon="7.25897">
        <ele>722.9</ele>
        <time>2012-04-19T11:17:11Z</time>
      </trkpt>
      <trkpt lat="43.77573" lon="7.25889">
        <ele>723.8</ele>
        <time>2012-04-19T11:17:13Z</time>
      </trkpt>
      <trkpt lat="43.77574" lon="7.25885">
        <ele>723.7</ele>
        <time>2012-04-19T11:17:14Z</time>
      </trkpt>
      <trkpt lat="43.77575" lon="7.25868">
        <ele>724.2</ele>
        <time>2012-04-19T11:17:18Z</time>
      </trkpt>
      <trkpt lat="43.77575" lon="7.25859">
        <ele>724.1</ele>
        <time>2012-04-19T11:17:20Z</time>
      </trkpt>
      <trkpt lat="43.77577" lon="7.2585">
        <ele>724.2</ele>
        <time>2012-04-19T11:17:22Z</time>
      </trkpt>
      <trkpt lat="43.77575" lon="7.25839">
        <ele>724.8</ele>
        <time>2012-04-19T11:17:25Z</time>
      </trkpt>
      <trkpt lat="43.77573" lon="7.25829">
        <ele>725.4</ele>
        <time>2012-04-19T11:17:28Z</time>
      </trkpt>
      <trkpt lat="43.77571" lon="7.25819">
        <ele>726</ele>
        <time>2012-04-19T11:17:31Z</time>
      </trkpt>
      <trkpt lat="43.77564" lon="7.25812">
        <ele>727.1</ele>
        <time>2012-04-19T11:17:35Z</time>
      </trkpt>
      <trkpt lat="43.77557" lon="7.25808">
        <ele>727.2</ele>
        <time>2012-04-19T11:17:38Z</time>
      </trkpt>
      <trkpt lat="43.77551" lon="7.25804">
        <ele>727.4</ele>
        <time>2012-04-19T11:17:41Z</time>
      </trkpt>
      <trkpt lat="43.77544" lon="7.258">
        <ele>727.4</ele>
        <time>2012-04-19T11:17:44Z</time>
      </trkpt>
      <trkpt lat="43.77536" lon="7.25801">
        <ele>728.1</ele>
        <time>2012-04-19T11:17:48Z</time>
      </trkpt>
      <trkpt lat="43.77528" lon="7.25807">
        <ele>728.8</ele>
        <time>2012-04-19T11:17:52Z</time>
      </trkpt>
      <trkpt lat="43.77522" lon="7.25814">
        <ele>729.6</ele>
        <time>2012-04-19T11:17:56Z</time>
      </trkpt>
      <trkpt lat="43.77516" lon="7.25816">
        <ele>729.8</ele>
        <time>2012-04-19T11:17:59Z</time>
      </trkpt>
      <trkpt lat="43.77509" lon="7.25815">
        <ele>729.9</ele>
        <time>2012-04-19T11:18:01Z</time>
      </trkpt>
      <trkpt lat="43.77501" lon="7.25815">
        <ele>730.4</ele>
        <time>2012-04-19T11:18:03Z</time>
      </trkpt>
      <trkpt lat="43.77492" lon="7.25816">
        <ele>730</ele>
        <time>2012-04-19T11:18:06Z</time>
      </trkpt>
      <trkpt lat="43.77485" lon="7.25819">
        <ele>730</ele>
        <time>2012-04-19T11:18:09Z</time>
      </trkpt>
      <trkpt lat="43.77476" lon="7.25822">
        <ele>730.8</ele>
        <time>2012-04-19T11:18:13Z</time>
      </trkpt>
      <trkpt lat="43.77468" lon="7.25828">
        <ele>730.4</ele>
        <time>2012-04-19T11:18:17Z</time>
      </trkpt>
      <trkpt lat="43.77466" lon="7.25829">
        <ele>730.7</ele>
        <time>2012-04-19T11:18:18Z</time>
      </trkpt>
      <trkpt lat="43.77456" lon="7.25835">
        <ele>732.5</ele>
        <time>2012-04-19T11:18:23Z</time>
      </trkpt>
      <trkpt lat="43.77448" lon="7.25837">
        <ele>733.2</ele>
        <time>2012-04-19T11:18:27Z</time>
      </trkpt>
      <trkpt lat="43.77441" lon="7.25832">
        <ele>733.7</ele>
        <time>2012-04-19T11:18:31Z</time>
      </trkpt>
      <trkpt lat="43.77437" lon="7.25826">
        <ele>733.4</ele>
        <time>2012-04-19T11:18:33Z</time>
      </trkpt>
      <trkpt lat="43.77431" lon="7.25818">
        <ele>732.4</ele>
        <time>2012-04-19T11:18:35Z</time>
      </trkpt>
      <trkpt lat="43.77428" lon="7.25813">
        <ele>731.9</ele>
        <time>2012-04-19T11:18:36Z</time>
      </trkpt>
      <trkpt lat="43.77424" lon="7.25808">
        <ele>731.4</ele>
        <time>2012-04-19T11:18:37Z</time>
      </trkpt>
      <trkpt lat="43.77421" lon="7.25803">
        <ele>731</ele>
        <time>2012-04-19T11:18:38Z</time>
      </trkpt>
      <trkpt lat="43.77415" lon="7.25795">
        <ele>730.6</ele>
        <time>2012-04-19T11:18:40Z</time>
      </trkpt>
      <trkpt lat="43.77409" lon="7.25787">
        <ele>729.6</ele>
        <time>2012-04-19T11:18:43Z</time>
      </trkpt>
      <trkpt lat="43.77403" lon="7.2578">
        <ele>729.9</ele>
        <time>2012-04-19T11:18:46Z</time>
      </trkpt>
      <trkpt lat="43.77395" lon="7.25775">
        <ele>728.5</ele>
        <time>2012-04-19T11:18:49Z</time>
      </trkpt>
      <trkpt lat="43.77394" lon="7.25763">
        <ele>728.1</ele>
        <time>2012-04-19T11:18:53Z</time>
      </trkpt>
      <trkpt lat="43.77392" lon="7.25753">
        <ele>727.8</ele>
        <time>2012-04-19T11:18:57Z</time>
      </trkpt>
      <trkpt lat="43.77388" lon="7.25744">
        <ele>729.4</ele>
        <time>2012-04-19T11:19:02Z</time>
      </trkpt>
      <trkpt lat="43.77383" lon="7.25733">
        <ele>730.6</ele>
        <time>2012-04-19T11:19:08Z</time>
      </trkpt>
      <trkpt lat="43.77378" lon="7.25723">
        <ele>734.2</ele>
        <time>2012-04-19T11:19:17Z</time>
      </trkpt>
      <trkpt lat="43.77376" lon="7.25711">
        <ele>736</ele>
        <time>2012-04-19T11:19:32Z</time>
      </trkpt>
      <trkpt lat="43.77376" lon="7.25711">
        <ele>736.3</ele>
        <time>2012-04-19T11:19:33Z</time>
      </trkpt>
      <trkpt lat="43.77365" lon="7.25694">
        <ele>742.5</ele>
        <time>2012-04-19T11:20:05Z</time>
      </trkpt>
      <trkpt lat="43.77359" lon="7.25684">
        <ele>745.6</ele>
        <time>2012-04-19T11:20:20Z</time>
      </trkpt>
      <trkpt lat="43.77353" lon="7.25676">
        <ele>748.9</ele>
        <time>2012-04-19T11:20:38Z</time>
      </trkpt>
      <trkpt lat="43.77352" lon="7.25676">
        <ele>748.9</ele>
        <time>2012-04-19T11:20:39Z</time>
      </trkpt>
      <trkpt lat="43.77342" lon="7.2566">
        <ele>754.6</ele>
        <time>2012-04-19T11:21:09Z</time>
      </trkpt>
      <trkpt lat="43.77338" lon="7.25649">
        <ele>758.3</ele>
        <time>2012-04-19T11:21:22Z</time>
      </trkpt>
      <trkpt lat="43.77333" lon="7.25639">
        <ele>761.4</ele>
        <time>2012-04-19T11:21:38Z</time>
      </trkpt>
      <trkpt lat="43.77328" lon="7.2563">
        <ele>763.7</ele>
        <time>2012-04-19T11:21:54Z</time>
      </trkpt>
      <trkpt lat="43.77328" lon="7.25629">
        <ele>763.8</ele>
        <time>2012-04-19T11:21:55Z</time>
      </trkpt>
      <trkpt lat="43.77317" lon="7.2561">
        <ele>770.3</ele>
        <time>2012-04-19T11:22:25Z</time>
      </trkpt>
      <trkpt lat="43.7731" lon="7.25603">
        <ele>773.8</ele>
        <time>2012-04-19T11:22:39Z</time>
      </trkpt>
      <trkpt lat="43.77307" lon="7.25592">
        <ele>776</ele>
        <time>2012-04-19T11:22:55Z</time>
      </trkpt>
      <trkpt lat="43.77304" lon="7.2558">
        <ele>779.5</ele>
        <time>2012-04-19T11:23:13Z</time>
      </trkpt>
      <trkpt lat="43.77304" lon="7.2558">
        <ele>779.6</ele>
        <time>2012-04-19T11:23:14Z</time>
      </trkpt>
      <trkpt lat="43.77297" lon="7.25559">
        <ele>785.5</ele>
        <time>2012-04-19T11:23:45Z</time>
      </trkpt>
      <trkpt lat="43.77289" lon="7.25552">
        <ele>788.9</ele>
        <time>2012-04-19T11:24:03Z</time>
      </trkpt>
      <trkpt lat="43.77284" lon="7.25543">
        <ele>792.2</ele>
        <time>2012-04-19T11:24:21Z</time>
      </trkpt>
      <trkpt lat="43.77284" lon="7.25542">
        <ele>792.4</ele>
        <time>2012-04-19T11:24:22Z</time>
      </trkpt>
      <trkpt lat="43.77272" lon="7.25526">
        <ele>797.9</ele>
        <time>2012-04-19T11:24:51Z</time>
      </trkpt>
      <trkpt lat="43.77263" lon="7.25521">
        <ele>800.1</ele>
        <time>2012-04-19T11:25:07Z</time>
      </trkpt>
      <trkpt lat="43.77256" lon="7.25514">
        <ele>804.9</ele>
        <time>2012-04-19T11:25:24Z</time>
      </trkpt>
      <trkpt lat="43.77256" lon="7.25514">
        <ele>805.2</ele>
        <time>2012-04-19T11:25:25Z</time>
      </trkpt>
      <trkpt lat="43.77247" lon="7.25494">
        <ele>812.7</ele>
        <time>2012-04-19T11:26:00Z</time>
      </trkpt>
      <trkpt lat="43.77241" lon="7.25484">
        <ele>815.8</ele>
        <time>2012-04-19T11:26:21Z</time>
      </trkpt>
      <trkpt lat="43.77239" lon="7.25472">
        <ele>819.4</ele>
        <time>2012-04-19T11:26:38Z</time>
      </trkpt>
      <trkpt lat="43.77239" lon="7.25471">
        <ele>819.9</ele>
        <time>2012-04-19T11:26:39Z</time>
      </trkpt>
      <trkpt lat="43.77226" lon="7.25456">
        <ele>826.6</ele>
        <time>2012-04-19T11:27:04Z</time>
      </trkpt>
      <trkpt lat="43.77223" lon="7.25444">
        <ele>830</ele>
        <time>2012-04-19T11:27:23Z</time>
      </trkpt>
      <trkpt lat="43.77229" lon="7.25434">
        <ele>830.9</ele>
        <time>2012-04-19T11:28:42Z</time>
      </trkpt>
      <trkpt lat="43.77229" lon="7.25434">
        <ele>830.7</ele>
        <time>2012-04-19T11:28:43Z</time>
      </trkpt>
      <trkpt lat="43.77237" lon="7.25428">
        <ele>830</ele>
        <time>2012-04-19T11:31:45Z</time>
      </trkpt>
      <trkpt lat="43.77248" lon="7.25419">
        <ele>830.2</ele>
        <time>2012-04-19T11:31:51Z</time>
      </trkpt>
      <trkpt lat="43.77253" lon="7.25414">
        <ele>830.3</ele>
        <time>2012-04-19T11:31:53Z</time>
      </trkpt>
      <trkpt lat="43.7726" lon="7.25407">
        <ele>829.5</ele>
        <time>2012-04-19T11:31:56Z</time>
      </trkpt>
      <trkpt lat="43.77267" lon="7.25402">
        <ele>828.8</ele>
        <time>2012-04-19T11:31:58Z</time>
      </trkpt>
      <trkpt lat="43.77274" lon="7.25396">
        <ele>828.1</ele>
        <time>2012-04-19T11:32:00Z</time>
      </trkpt>
      <trkpt lat="43.77281" lon="7.2539">
        <ele>827.5</ele>
        <time>2012-04-19T11:32:02Z</time>
      </trkpt>
      <trkpt lat="43.77289" lon="7.25389">
        <ele>826.3</ele>
        <time>2012-04-19T11:32:05Z</time>
      </trkpt>
      <trkpt lat="43.77296" lon="7.2539">
        <ele>826</ele>
        <time>2012-04-19T11:32:07Z</time>
      </trkpt>
      <trkpt lat="43.77304" lon="7.25391">
        <ele>825.4</ele>
        <time>2012-04-19T11:32:10Z</time>
      </trkpt>
      <trkpt lat="43.77312" lon="7.25393">
        <ele>824.9</ele>
        <time>2012-04-19T11:32:12Z</time>
      </trkpt>
      <trkpt lat="43.77318" lon="7.25395">
        <ele>824.2</ele>
        <time>2012-04-19T11:32:14Z</time>
      </trkpt>
      <trkpt lat="43.77325" lon="7.25393">
        <ele>823.5</ele>
        <time>2012-04-19T11:32:16Z</time>
      </trkpt>
      <trkpt lat="43.77331" lon="7.25391">
        <ele>822.7</ele>
        <time>2012-04-19T11:32:18Z</time>
      </trkpt>
      <trkpt lat="43.77338" lon="7.25389">
        <ele>822.1</ele>
        <time>2012-04-19T11:32:20Z</time>
      </trkpt>
      <trkpt lat="43.77345" lon="7.25385">
        <ele>821.7</ele>
        <time>2012-04-19T11:32:22Z</time>
      </trkpt>
      <trkpt lat="43.77351" lon="7.2538">
        <ele>821.5</ele>
        <time>2012-04-19T11:32:24Z</time>
      </trkpt>
      <trkpt lat="43.77358" lon="7.25377">
        <ele>820.7</ele>
        <time>2012-04-19T11:32:27Z</time>
      </trkpt>
      <trkpt lat="43.77365" lon="7.25372">
        <ele>819.9</ele>
        <time>2012-04-19T11:32:30Z</time>
      </trkpt>
      <trkpt lat="43.77373" lon="7.2537">
        <ele>819.4</ele>
        <time>2012-04-19T11:32:33Z</time>
      </trkpt>
      <trkpt lat="43.77381" lon="7.25366">
        <ele>817.8</ele>
        <time>2012-04-19T11:32:36Z</time>
      </trkpt>
      <trkpt lat="43.77387" lon="7.25364">
        <ele>817.1</ele>
        <time>2012-04-19T11:32:38Z</time>
      </trkpt>
      <trkpt lat="43.77393" lon="7.25362">
        <ele>816.6</ele>
        <time>2012-04-19T11:32:40Z</time>
      </trkpt>
      <trkpt lat="43.77402" lon="7.25361">
        <ele>815.1</ele>
        <time>2012-04-19T11:32:43Z</time>
      </trkpt>
      <trkpt lat="43.77408" lon="7.25361">
        <ele>813.9</ele>
        <time>2012-04-19T11:32:45Z</time>
      </trkpt>
      <trkpt lat="43.77417" lon="7.25361">
        <ele>813.4</ele>
        <time>2012-04-19T11:32:48Z</time>
      </trkpt>
      <trkpt lat="43.7742" lon="7.25358">
        <ele>812.6</ele>
        <time>2012-04-19T11:32:49Z</time>
      </trkpt>
      <trkpt lat="43.77432" lon="7.25355">
        <ele>810.4</ele>
        <time>2012-04-19T11:32:52Z</time>
      </trkpt>
      <trkpt lat="43.7744" lon="7.2535">
        <ele>807.9</ele>
        <time>2012-04-19T11:32:55Z</time>
      </trkpt>
      <trkpt lat="43.77445" lon="7.25344">
        <ele>806</ele>
        <time>2012-04-19T11:32:57Z</time>
      </trkpt>
      <trkpt lat="43.77451" lon="7.25338">
        <ele>804.3</ele>
        <time>2012-04-19T11:32:59Z</time>
      </trkpt>
      <trkpt lat="43.77459" lon="7.25334">
        <ele>802.6</ele>
        <time>2012-04-19T11:33:01Z</time>
      </trkpt>
      <trkpt lat="43.77467" lon="7.25333">
        <ele>800.8</ele>
        <time>2012-04-19T11:33:03Z</time>
      </trkpt>
      <trkpt lat="43.77475" lon="7.25331">
        <ele>799.2</ele>
        <time>2012-04-19T11:33:05Z</time>
      </trkpt>
      <trkpt lat="43.77482" lon="7.25333">
        <ele>798.6</ele>
        <time>2012-04-19T11:33:07Z</time>
      </trkpt>
      <trkpt lat="43.7749" lon="7.25328">
        <ele>796.5</ele>
        <time>2012-04-19T11:33:10Z</time>
      </trkpt>
      <trkpt lat="43.77498" lon="7.25328">
        <ele>795.3</ele>
        <time>2012-04-19T11:33:12Z</time>
      </trkpt>
      <trkpt lat="43.77502" lon="7.25326">
        <ele>794.4</ele>
        <time>2012-04-19T11:33:13Z</time>
      </trkpt>
      <trkpt lat="43.77508" lon="7.25323">
        <ele>793.6</ele>
        <time>2012-04-19T11:33:14Z</time>
      </trkpt>
      <trkpt lat="43.77513" lon="7.2532">
        <ele>792.4</ele>
        <time>2012-04-19T11:33:15Z</time>
      </trkpt>
      <trkpt lat="43.77517" lon="7.25316">
        <ele>791.5</ele>
        <time>2012-04-19T11:33:16Z</time>
      </trkpt>
      <trkpt lat="43.7752" lon="7.25311">
        <ele>790.9</ele>
        <time>2012-04-19T11:33:17Z</time>
      </trkpt>
      <trkpt lat="43.77523" lon="7.25305">
        <ele>789.8</ele>
        <time>2012-04-19T11:33:18Z</time>
      </trkpt>
      <trkpt lat="43.7753" lon="7.253">
        <ele>786.7</ele>
        <time>2012-04-19T11:33:21Z</time>
      </trkpt>
      <trkpt lat="43.77537" lon="7.25305">
        <ele>785</ele>
        <time>2012-04-19T11:33:23Z</time>
      </trkpt>
      <trkpt lat="43.77528" lon="7.25306">
        <ele>783.5</ele>
        <time>2012-04-19T11:34:03Z</time>
      </trkpt>
      <trkpt lat="43.77527" lon="7.25307">
        <ele>783.6</ele>
        <time>2012-04-19T11:34:04Z</time>
      </trkpt>
      <trkpt lat="43.77516" lon="7.25322">
        <ele>786.4</ele>
        <time>2012-04-19T11:34:21Z</time>
      </trkpt>
      <trkpt lat="43.77508" lon="7.25326">
        <ele>788.8</ele>
        <time>2012-04-19T11:34:31Z</time>
      </trkpt>
      <trkpt lat="43.775" lon="7.25329">
        <ele>790.1</ele>
        <time>2012-04-19T11:34:41Z</time>
      </trkpt>
      <trkpt lat="43.77491" lon="7.25332">
        <ele>793.2</ele>
        <time>2012-04-19T11:36:30Z</time>
      </trkpt>
      <trkpt lat="43.77491" lon="7.25332">
        <ele>793.5</ele>
        <time>2012-04-19T11:36:31Z</time>
      </trkpt>
      <trkpt lat="43.775" lon="7.25327">
        <ele>792.8</ele>
        <time>2012-04-19T11:41:23Z</time>
      </trkpt>
      <trkpt lat="43.77511" lon="7.25321">
        <ele>792.1</ele>
        <time>2012-04-19T11:41:26Z</time>
      </trkpt>
      <trkpt lat="43.77515" lon="7.25318">
        <ele>791.3</ele>
        <time>2012-04-19T11:41:27Z</time>
      </trkpt>
      <trkpt lat="43.77519" lon="7.25315">
        <ele>790.7</ele>
        <time>2012-04-19T11:41:28Z</time>
      </trkpt>
      <trkpt lat="43.77522" lon="7.25309">
        <ele>789.7</ele>
        <time>2012-04-19T11:41:29Z</time>
      </trkpt>
      <trkpt lat="43.77525" lon="7.25303">
        <ele>788.9</ele>
        <time>2012-04-19T11:41:30Z</time>
      </trkpt>
      <trkpt lat="43.77533" lon="7.25298">
        <ele>786.4</ele>
        <time>2012-04-19T11:41:33Z</time>
      </trkpt>
      <trkpt lat="43.77538" lon="7.25303">
        <ele>784.8</ele>
        <time>2012-04-19T11:41:35Z</time>
      </trkpt>
      <trkpt lat="43.77544" lon="7.25298">
        <ele>783.7</ele>
        <time>2012-04-19T11:41:37Z</time>
      </trkpt>
      <trkpt lat="43.77549" lon="7.25291">
        <ele>782.4</ele>
        <time>2012-04-19T11:41:39Z</time>
      </trkpt>
      <trkpt lat="43.77557" lon="7.25294">
        <ele>780.8</ele>
        <time>2012-04-19T11:41:41Z</time>
      </trkpt>
      <trkpt lat="43.77563" lon="7.25289">
        <ele>778.7</ele>
        <time>2012-04-19T11:41:43Z</time>
      </trkpt>
      <trkpt lat="43.77568" lon="7.25283">
        <ele>777.3</ele>
        <time>2012-04-19T11:41:45Z</time>
      </trkpt>
      <trkpt lat="43.77576" lon="7.25279">
        <ele>775.1</ele>
        <time>2012-04-19T11:41:47Z</time>
      </trkpt>
      <trkpt lat="43.77583" lon="7.25278">
        <ele>773.6</ele>
        <time>2012-04-19T11:41:49Z</time>
      </trkpt>
      <trkpt lat="43.77586" lon="7.25269">
        <ele>770.6</ele>
        <time>2012-04-19T11:41:52Z</time>
      </trkpt>
      <trkpt lat="43.77592" lon="7.25261">
        <ele>768.6</ele>
        <time>2012-04-19T11:41:55Z</time>
      </trkpt>
      <trkpt lat="43.77593" lon="7.25251">
        <ele>766.4</ele>
        <time>2012-04-19T11:41:58Z</time>
      </trkpt>
      <trkpt lat="43.776" lon="7.25244">
        <ele>763.8</ele>
        <time>2012-04-19T11:42:01Z</time>
      </trkpt>
      <trkpt lat="43.77599" lon="7.25233">
        <ele>761.2</ele>
        <time>2012-04-19T11:42:04Z</time>
      </trkpt>
      <trkpt lat="43.77603" lon="7.25222">
        <ele>758.3</ele>
        <time>2012-04-19T11:42:07Z</time>
      </trkpt>
      <trkpt lat="43.77603" lon="7.25214">
        <ele>755.5</ele>
        <time>2012-04-19T11:42:10Z</time>
      </trkpt>
      <trkpt lat="43.77596" lon="7.25207">
        <ele>754.1</ele>
        <time>2012-04-19T11:42:12Z</time>
      </trkpt>
      <trkpt lat="43.77597" lon="7.25197">
        <ele>752</ele>
        <time>2012-04-19T11:42:15Z</time>
      </trkpt>
      <trkpt lat="43.77602" lon="7.25189">
        <ele>749.5</ele>
        <time>2012-04-19T11:42:18Z</time>
      </trkpt>
      <trkpt lat="43.77602" lon="7.25179">
        <ele>747.4</ele>
        <time>2012-04-19T11:42:20Z</time>
      </trkpt>
      <trkpt lat="43.7761" lon="7.25174">
        <ele>745.4</ele>
        <time>2012-04-19T11:42:22Z</time>
      </trkpt>
      <trkpt lat="43.77615" lon="7.25173">
        <ele>744.7</ele>
        <time>2012-04-19T11:42:23Z</time>
      </trkpt>
      <trkpt lat="43.77623" lon="7.25172">
        <ele>742.7</ele>
        <time>2012-04-19T11:42:25Z</time>
      </trkpt>
      <trkpt lat="43.77626" lon="7.25171">
        <ele>741.2</ele>
        <time>2012-04-19T11:42:26Z</time>
      </trkpt>
      <trkpt lat="43.77627" lon="7.25152">
        <ele>736.5</ele>
        <time>2012-04-19T11:42:31Z</time>
      </trkpt>
      <trkpt lat="43.77624" lon="7.25144">
        <ele>734.3</ele>
        <time>2012-04-19T11:42:33Z</time>
      </trkpt>
      <trkpt lat="43.77632" lon="7.25141">
        <ele>730.6</ele>
        <time>2012-04-19T11:42:37Z</time>
      </trkpt>
      <trkpt lat="43.77639" lon="7.25139">
        <ele>729.3</ele>
        <time>2012-04-19T11:42:39Z</time>
      </trkpt>
      <trkpt lat="43.77646" lon="7.25136">
        <ele>728.5</ele>
        <time>2012-04-19T11:42:41Z</time>
      </trkpt>
      <trkpt lat="43.77651" lon="7.25126">
        <ele>725.2</ele>
        <time>2012-04-19T11:42:45Z</time>
      </trkpt>
      <trkpt lat="43.77649" lon="7.25116">
        <ele>722.5</ele>
        <time>2012-04-19T11:42:48Z</time>
      </trkpt>
      <trkpt lat="43.77657" lon="7.2511">
        <ele>721.1</ele>
        <time>2012-04-19T11:42:50Z</time>
      </trkpt>
      <trkpt lat="43.77662" lon="7.25106">
        <ele>720.5</ele>
        <time>2012-04-19T11:42:51Z</time>
      </trkpt>
      <trkpt lat="43.77668" lon="7.25104">
        <ele>719.8</ele>
        <time>2012-04-19T11:42:52Z</time>
      </trkpt>
      <trkpt lat="43.77673" lon="7.25104">
        <ele>719.2</ele>
        <time>2012-04-19T11:42:53Z</time>
      </trkpt>
      <trkpt lat="43.77679" lon="7.25104">
        <ele>718</ele>
        <time>2012-04-19T11:42:54Z</time>
      </trkpt>
      <trkpt lat="43.77685" lon="7.25104">
        <ele>717</ele>
        <time>2012-04-19T11:42:55Z</time>
      </trkpt>
      <trkpt lat="43.7769" lon="7.25102">
        <ele>716.3</ele>
        <time>2012-04-19T11:42:56Z</time>
      </trkpt>
      <trkpt lat="43.77695" lon="7.25095">
        <ele>714.9</ele>
        <time>2012-04-19T11:42:58Z</time>
      </trkpt>
      <trkpt lat="43.77698" lon="7.25091">
        <ele>713.9</ele>
        <time>2012-04-19T11:42:59Z</time>
      </trkpt>
      <trkpt lat="43.77702" lon="7.25086">
        <ele>713</ele>
        <time>2012-04-19T11:43:00Z</time>
      </trkpt>
      <trkpt lat="43.7771" lon="7.25079">
        <ele>711.4</ele>
        <time>2012-04-19T11:43:02Z</time>
      </trkpt>
      <trkpt lat="43.77715" lon="7.25074">
        <ele>709.5</ele>
        <time>2012-04-19T11:43:04Z</time>
      </trkpt>
      <trkpt lat="43.77719" lon="7.25064">
        <ele>707.9</ele>
        <time>2012-04-19T11:43:06Z</time>
      </trkpt>
      <trkpt lat="43.77723" lon="7.25058">
        <ele>707.3</ele>
        <time>2012-04-19T11:43:07Z</time>
      </trkpt>
      <trkpt lat="43.77728" lon="7.25049">
        <ele>706.2</ele>
        <time>2012-04-19T11:43:09Z</time>
      </trkpt>
      <trkpt lat="43.7773" lon="7.25041">
        <ele>704.5</ele>
        <time>2012-04-19T11:43:11Z</time>
      </trkpt>
      <trkpt lat="43.77734" lon="7.25031">
        <ele>702.6</ele>
        <time>2012-04-19T11:43:13Z</time>
      </trkpt>
      <trkpt lat="43.77736" lon="7.25025">
        <ele>701.8</ele>
        <time>2012-04-19T11:43:14Z</time>
      </trkpt>
      <trkpt lat="43.77738" lon="7.25019">
        <ele>701.3</ele>
        <time>2012-04-19T11:43:15Z</time>
      </trkpt>
      <trkpt lat="43.77742" lon="7.25008">
        <ele>699.6</ele>
        <time>2012-04-19T11:43:17Z</time>
      </trkpt>
      <trkpt lat="43.77747" lon="7.25002">
        <ele>697.7</ele>
        <time>2012-04-19T11:43:19Z</time>
      </trkpt>
      <trkpt lat="43.77751" lon="7.24994">
        <ele>696.5</ele>
        <time>2012-04-19T11:43:21Z</time>
      </trkpt>
      <trkpt lat="43.77758" lon="7.24992">
        <ele>695.3</ele>
        <time>2012-04-19T11:43:23Z</time>
      </trkpt>
      <trkpt lat="43.77764" lon="7.24991">
        <ele>694.4</ele>
        <time>2012-04-19T11:43:25Z</time>
      </trkpt>
      <trkpt lat="43.77765" lon="7.24981">
        <ele>693.4</ele>
        <time>2012-04-19T11:43:28Z</time>
      </trkpt>
      <trkpt lat="43.77766" lon="7.24978">
        <ele>693</ele>
        <time>2012-04-19T11:43:29Z</time>
      </trkpt>
      <trkpt lat="43.77779" lon="7.24972">
        <ele>689.4</ele>
        <time>2012-04-19T11:43:33Z</time>
      </trkpt>
      <trkpt lat="43.77788" lon="7.24967">
        <ele>686.5</ele>
        <time>2012-04-19T11:43:37Z</time>
      </trkpt>
      <trkpt lat="43.77786" lon="7.24959">
        <ele>685.6</ele>
        <time>2012-04-19T11:43:39Z</time>
      </trkpt>
      <trkpt lat="43.77789" lon="7.24949">
        <ele>680.2</ele>
        <time>2012-04-19T11:43:43Z</time>
      </trkpt>
      <trkpt lat="43.77796" lon="7.24943">
        <ele>675.6</ele>
        <time>2012-04-19T11:43:47Z</time>
      </trkpt>
      <trkpt lat="43.77801" lon="7.24938">
        <ele>672.3</ele>
        <time>2012-04-19T11:43:50Z</time>
      </trkpt>
      <trkpt lat="43.77809" lon="7.24938">
        <ele>669.3</ele>
        <time>2012-04-19T11:43:52Z</time>
      </trkpt>
      <trkpt lat="43.77816" lon="7.24939">
        <ele>667.1</ele>
        <time>2012-04-19T11:43:54Z</time>
      </trkpt>
      <trkpt lat="43.77813" lon="7.24929">
        <ele>660.4</ele>
        <time>2012-04-19T11:44:00Z</time>
      </trkpt>
      <trkpt lat="43.77806" lon="7.24923">
        <ele>658.5</ele>
        <time>2012-04-19T11:44:04Z</time>
      </trkpt>
      <trkpt lat="43.778" lon="7.24918">
        <ele>658.1</ele>
        <time>2012-04-19T11:44:07Z</time>
      </trkpt>
      <trkpt lat="43.77795" lon="7.24912">
        <ele>657.7</ele>
        <time>2012-04-19T11:44:09Z</time>
      </trkpt>
      <trkpt lat="43.7779" lon="7.24906">
        <ele>657.8</ele>
        <time>2012-04-19T11:44:11Z</time>
      </trkpt>
      <trkpt lat="43.77783" lon="7.24901">
        <ele>656.8</ele>
        <time>2012-04-19T11:44:14Z</time>
      </trkpt>
      <trkpt lat="43.77775" lon="7.24901">
        <ele>656.8</ele>
        <time>2012-04-19T11:44:18Z</time>
      </trkpt>
      <trkpt lat="43.77767" lon="7.24902">
        <ele>657.1</ele>
        <time>2012-04-19T11:45:23Z</time>
      </trkpt>
      <trkpt lat="43.77765" lon="7.24902">
        <ele>657.4</ele>
        <time>2012-04-19T11:45:24Z</time>
      </trkpt>
      <trkpt lat="43.77751" lon="7.24909">
        <ele>658.2</ele>
        <time>2012-04-19T11:45:32Z</time>
      </trkpt>
      <trkpt lat="43.77744" lon="7.24911">
        <ele>658.5</ele>
        <time>2012-04-19T11:45:35Z</time>
      </trkpt>
      <trkpt lat="43.77736" lon="7.24914">
        <ele>658.3</ele>
        <time>2012-04-19T11:45:38Z</time>
      </trkpt>
      <trkpt lat="43.77729" lon="7.24917">
        <ele>658.5</ele>
        <time>2012-04-19T11:45:41Z</time>
      </trkpt>
      <trkpt lat="43.77721" lon="7.24921">
        <ele>658</ele>
        <time>2012-04-19T11:45:44Z</time>
      </trkpt>
      <trkpt lat="43.77714" lon="7.24924">
        <ele>658.4</ele>
        <time>2012-04-19T11:45:47Z</time>
      </trkpt>
      <trkpt lat="43.77707" lon="7.24926">
        <ele>658.1</ele>
        <time>2012-04-19T11:45:50Z</time>
      </trkpt>
      <trkpt lat="43.77698" lon="7.24926">
        <ele>657.7</ele>
        <time>2012-04-19T11:45:53Z</time>
      </trkpt>
      <trkpt lat="43.77689" lon="7.24923">
        <ele>657.6</ele>
        <time>2012-04-19T11:45:56Z</time>
      </trkpt>
      <trkpt lat="43.77681" lon="7.24918">
        <ele>658.3</ele>
        <time>2012-04-19T11:45:59Z</time>
      </trkpt>
      <trkpt lat="43.77673" lon="7.24914">
        <ele>658.4</ele>
        <time>2012-04-19T11:46:02Z</time>
      </trkpt>
      <trkpt lat="43.77666" lon="7.24913">
        <ele>658.7</ele>
        <time>2012-04-19T11:46:05Z</time>
      </trkpt>
      <trkpt lat="43.77659" lon="7.24915">
        <ele>659.2</ele>
        <time>2012-04-19T11:46:08Z</time>
      </trkpt>
      <trkpt lat="43.77651" lon="7.24916">
        <ele>661.6</ele>
        <time>2012-04-19T11:46:12Z</time>
      </trkpt>
      <trkpt lat="43.77643" lon="7.24917">
        <ele>662.8</ele>
        <time>2012-04-19T11:46:16Z</time>
      </trkpt>
      <trkpt lat="43.77635" lon="7.24917">
        <ele>663.5</ele>
        <time>2012-04-19T11:46:20Z</time>
      </trkpt>
      <trkpt lat="43.77627" lon="7.24919">
        <ele>664.7</ele>
        <time>2012-04-19T11:46:25Z</time>
      </trkpt>
      <trkpt lat="43.77625" lon="7.24919">
        <ele>665</ele>
        <time>2012-04-19T11:46:26Z</time>
      </trkpt>
      <trkpt lat="43.7761" lon="7.24921">
        <ele>665.3</ele>
        <time>2012-04-19T11:46:34Z</time>
      </trkpt>
      <trkpt lat="43.77601" lon="7.24922">
        <ele>665.9</ele>
        <time>2012-04-19T11:46:39Z</time>
      </trkpt>
      <trkpt lat="43.77594" lon="7.24924">
        <ele>666</ele>
        <time>2012-04-19T11:46:42Z</time>
      </trkpt>
      <trkpt lat="43.77586" lon="7.24927">
        <ele>665.6</ele>
        <time>2012-04-19T11:46:45Z</time>
      </trkpt>
      <trkpt lat="43.7758" lon="7.24928">
        <ele>665.5</ele>
        <time>2012-04-19T11:46:47Z</time>
      </trkpt>
      <trkpt lat="43.77571" lon="7.24931">
        <ele>665.3</ele>
        <time>2012-04-19T11:46:50Z</time>
      </trkpt>
      <trkpt lat="43.77563" lon="7.24933">
        <ele>664.9</ele>
        <time>2012-04-19T11:46:53Z</time>
      </trkpt>
      <trkpt lat="43.77555" lon="7.24937">
        <ele>664.6</ele>
        <time>2012-04-19T11:46:56Z</time>
      </trkpt>
      <trkpt lat="43.77547" lon="7.24939">
        <ele>665</ele>
        <time>2012-04-19T11:46:59Z</time>
      </trkpt>
      <trkpt lat="43.77539" lon="7.24941">
        <ele>664.6</ele>
        <time>2012-04-19T11:47:02Z</time>
      </trkpt>
      <trkpt lat="43.77532" lon="7.24942">
        <ele>664.3</ele>
        <time>2012-04-19T11:47:05Z</time>
      </trkpt>
      <trkpt lat="43.77524" lon="7.24944">
        <ele>665.6</ele>
        <time>2012-04-19T11:47:08Z</time>
      </trkpt>
      <trkpt lat="43.77516" lon="7.24945">
        <ele>666</ele>
        <time>2012-04-19T11:47:11Z</time>
      </trkpt>
      <trkpt lat="43.7751" lon="7.24946">
        <ele>665.8</ele>
        <time>2012-04-19T11:47:13Z</time>
      </trkpt>
      <trkpt lat="43.77503" lon="7.24947">
        <ele>665.8</ele>
        <time>2012-04-19T11:47:15Z</time>
      </trkpt>
      <trkpt lat="43.77496" lon="7.24948">
        <ele>665.9</ele>
        <time>2012-04-19T11:47:17Z</time>
      </trkpt>
      <trkpt lat="43.7749" lon="7.24949">
        <ele>666.3</ele>
        <time>2012-04-19T11:47:19Z</time>
      </trkpt>
      <trkpt lat="43.77484" lon="7.24949">
        <ele>666.9</ele>
        <time>2012-04-19T11:47:21Z</time>
      </trkpt>
      <trkpt lat="43.77478" lon="7.2495">
        <ele>666.7</ele>
        <time>2012-04-19T11:47:23Z</time>
      </trkpt>
      <trkpt lat="43.77469" lon="7.24951">
        <ele>666.3</ele>
        <time>2012-04-19T11:47:26Z</time>
      </trkpt>
      <trkpt lat="43.77461" lon="7.24951">
        <ele>667.6</ele>
        <time>2012-04-19T11:47:29Z</time>
      </trkpt>
      <trkpt lat="43.77458" lon="7.2495">
        <ele>668</ele>
        <time>2012-04-19T11:47:30Z</time>
      </trkpt>
      <trkpt lat="43.77444" lon="7.24948">
        <ele>668.6</ele>
        <time>2012-04-19T11:47:35Z</time>
      </trkpt>
      <trkpt lat="43.77436" lon="7.24951">
        <ele>668.9</ele>
        <time>2012-04-19T11:47:39Z</time>
      </trkpt>
      <trkpt lat="43.77428" lon="7.24955">
        <ele>670.3</ele>
        <time>2012-04-19T11:47:44Z</time>
      </trkpt>
      <trkpt lat="43.77421" lon="7.2496">
        <ele>671.6</ele>
        <time>2012-04-19T11:47:49Z</time>
      </trkpt>
      <trkpt lat="43.77413" lon="7.24963">
        <ele>673.8</ele>
        <time>2012-04-19T11:47:55Z</time>
      </trkpt>
      <trkpt lat="43.77406" lon="7.24966">
        <ele>675.6</ele>
        <time>2012-04-19T11:48:00Z</time>
      </trkpt>
      <trkpt lat="43.77397" lon="7.24964">
        <ele>676.3</ele>
        <time>2012-04-19T11:48:04Z</time>
      </trkpt>
      <trkpt lat="43.77389" lon="7.24965">
        <ele>675.7</ele>
        <time>2012-04-19T11:48:08Z</time>
      </trkpt>
      <trkpt lat="43.77381" lon="7.24968">
        <ele>676.9</ele>
        <time>2012-04-19T11:48:13Z</time>
      </trkpt>
      <trkpt lat="43.77373" lon="7.24969">
        <ele>677.5</ele>
        <time>2012-04-19T11:48:18Z</time>
      </trkpt>
      <trkpt lat="43.77365" lon="7.24972">
        <ele>678.7</ele>
        <time>2012-04-19T11:48:23Z</time>
      </trkpt>
      <trkpt lat="43.77357" lon="7.24974">
        <ele>680.5</ele>
        <time>2012-04-19T11:48:28Z</time>
      </trkpt>
      <trkpt lat="43.7735" lon="7.24975">
        <ele>681.8</ele>
        <time>2012-04-19T11:48:33Z</time>
      </trkpt>
      <trkpt lat="43.77348" lon="7.24975">
        <ele>681.9</ele>
        <time>2012-04-19T11:48:34Z</time>
      </trkpt>
      <trkpt lat="43.77335" lon="7.24974">
        <ele>683</ele>
        <time>2012-04-19T11:48:40Z</time>
      </trkpt>
      <trkpt lat="43.77327" lon="7.24975">
        <ele>683.2</ele>
        <time>2012-04-19T11:48:44Z</time>
      </trkpt>
      <trkpt lat="43.7732" lon="7.24976">
        <ele>684</ele>
        <time>2012-04-19T11:48:47Z</time>
      </trkpt>
      <trkpt lat="43.77313" lon="7.24976">
        <ele>683.6</ele>
        <time>2012-04-19T11:48:50Z</time>
      </trkpt>
      <trkpt lat="43.77304" lon="7.24977">
        <ele>684</ele>
        <time>2012-04-19T11:48:55Z</time>
      </trkpt>
      <trkpt lat="43.77296" lon="7.24978">
        <ele>684.7</ele>
        <time>2012-04-19T11:49:01Z</time>
      </trkpt>
      <trkpt lat="43.77289" lon="7.24979">
        <ele>685</ele>
        <time>2012-04-19T11:49:05Z</time>
      </trkpt>
      <trkpt lat="43.77282" lon="7.2498">
        <ele>685</ele>
        <time>2012-04-19T11:49:08Z</time>
      </trkpt>
      <trkpt lat="43.77275" lon="7.24981">
        <ele>685.6</ele>
        <time>2012-04-19T11:49:11Z</time>
      </trkpt>
      <trkpt lat="43.77267" lon="7.24982">
        <ele>686</ele>
        <time>2012-04-19T11:49:14Z</time>
      </trkpt>
      <trkpt lat="43.77259" lon="7.24983">
        <ele>686.6</ele>
        <time>2012-04-19T11:49:17Z</time>
      </trkpt>
      <trkpt lat="43.77252" lon="7.24984">
        <ele>686.8</ele>
        <time>2012-04-19T11:49:20Z</time>
      </trkpt>
      <trkpt lat="43.77245" lon="7.24985">
        <ele>687.6</ele>
        <time>2012-04-19T11:49:23Z</time>
      </trkpt>
      <trkpt lat="43.77237" lon="7.24987">
        <ele>687.8</ele>
        <time>2012-04-19T11:49:26Z</time>
      </trkpt>
      <trkpt lat="43.7723" lon="7.2499">
        <ele>687.2</ele>
        <time>2012-04-19T11:49:29Z</time>
      </trkpt>
      <trkpt lat="43.77222" lon="7.24992">
        <ele>688</ele>
        <time>2012-04-19T11:49:32Z</time>
      </trkpt>
      <trkpt lat="43.77215" lon="7.24993">
        <ele>688.7</ele>
        <time>2012-04-19T11:49:35Z</time>
      </trkpt>
      <trkpt lat="43.77212" lon="7.24993">
        <ele>688.9</ele>
        <time>2012-04-19T11:49:36Z</time>
      </trkpt>
      <trkpt lat="43.77197" lon="7.24995">
        <ele>688.9</ele>
        <time>2012-04-19T11:49:41Z</time>
      </trkpt>
      <trkpt lat="43.7719" lon="7.24995">
        <ele>688.9</ele>
        <time>2012-04-19T11:49:43Z</time>
      </trkpt>
      <trkpt lat="43.77183" lon="7.24995">
        <ele>689.2</ele>
        <time>2012-04-19T11:49:45Z</time>
      </trkpt>
      <trkpt lat="43.77176" lon="7.24995">
        <ele>689.4</ele>
        <time>2012-04-19T11:49:47Z</time>
      </trkpt>
      <trkpt lat="43.7717" lon="7.24997">
        <ele>689.5</ele>
        <time>2012-04-19T11:49:49Z</time>
      </trkpt>
      <trkpt lat="43.77163" lon="7.24998">
        <ele>689.6</ele>
        <time>2012-04-19T11:49:51Z</time>
      </trkpt>
      <trkpt lat="43.77156" lon="7.24999">
        <ele>689.4</ele>
        <time>2012-04-19T11:49:53Z</time>
      </trkpt>
      <trkpt lat="43.77149" lon="7.25">
        <ele>688.8</ele>
        <time>2012-04-19T11:49:55Z</time>
      </trkpt>
      <trkpt lat="43.77142" lon="7.25">
        <ele>688.8</ele>
        <time>2012-04-19T11:49:57Z</time>
      </trkpt>
      <trkpt lat="43.77134" lon="7.25">
        <ele>688.5</ele>
        <time>2012-04-19T11:49:59Z</time>
      </trkpt>
      <trkpt lat="43.77127" lon="7.24999">
        <ele>688.1</ele>
        <time>2012-04-19T11:50:01Z</time>
      </trkpt>
      <trkpt lat="43.7712" lon="7.25">
        <ele>688.1</ele>
        <time>2012-04-19T11:50:03Z</time>
      </trkpt>
      <trkpt lat="43.77113" lon="7.25">
        <ele>688</ele>
        <time>2012-04-19T11:50:05Z</time>
      </trkpt>
      <trkpt lat="43.77106" lon="7.25">
        <ele>687.9</ele>
        <time>2012-04-19T11:50:07Z</time>
      </trkpt>
      <trkpt lat="43.77099" lon="7.25">
        <ele>687.9</ele>
        <time>2012-04-19T11:50:09Z</time>
      </trkpt>
      <trkpt lat="43.77093" lon="7.25001">
        <ele>687.8</ele>
        <time>2012-04-19T11:50:11Z</time>
      </trkpt>
      <trkpt lat="43.77084" lon="7.25">
        <ele>687.6</ele>
        <time>2012-04-19T11:50:14Z</time>
      </trkpt>
      <trkpt lat="43.77077" lon="7.24997">
        <ele>687.8</ele>
        <time>2012-04-19T11:50:16Z</time>
      </trkpt>
      <trkpt lat="43.77072" lon="7.24993">
        <ele>688.3</ele>
        <time>2012-04-19T11:50:18Z</time>
      </trkpt>
      <trkpt lat="43.77066" lon="7.24989">
        <ele>688.6</ele>
        <time>2012-04-19T11:50:20Z</time>
      </trkpt>
      <trkpt lat="43.77059" lon="7.24984">
        <ele>688.2</ele>
        <time>2012-04-19T11:50:22Z</time>
      </trkpt>
      <trkpt lat="43.77053" lon="7.2498">
        <ele>688.3</ele>
        <time>2012-04-19T11:50:24Z</time>
      </trkpt>
      <trkpt lat="43.77045" lon="7.24977">
        <ele>689.6</ele>
        <time>2012-04-19T11:50:27Z</time>
      </trkpt>
      <trkpt lat="43.77037" lon="7.24973">
        <ele>689.2</ele>
        <time>2012-04-19T11:50:30Z</time>
      </trkpt>
      <trkpt lat="43.77029" lon="7.24972">
        <ele>689.2</ele>
        <time>2012-04-19T11:50:33Z</time>
      </trkpt>
      <trkpt lat="43.77022" lon="7.24976">
        <ele>689.9</ele>
        <time>2012-04-19T11:50:39Z</time>
      </trkpt>
      <trkpt lat="43.77021" lon="7.24977">
        <ele>690.2</ele>
        <time>2012-04-19T11:50:40Z</time>
      </trkpt>
      <trkpt lat="43.77009" lon="7.24984">
        <ele>691</ele>
        <time>2012-04-19T11:50:50Z</time>
      </trkpt>
      <trkpt lat="43.77" lon="7.24988">
        <ele>690.9</ele>
        <time>2012-04-19T11:50:53Z</time>
      </trkpt>
      <trkpt lat="43.76995" lon="7.24991">
        <ele>691.1</ele>
        <time>2012-04-19T11:50:55Z</time>
      </trkpt>
      <trkpt lat="43.76988" lon="7.24994">
        <ele>691.7</ele>
        <time>2012-04-19T11:50:57Z</time>
      </trkpt>
      <trkpt lat="43.76979" lon="7.24998">
        <ele>691.7</ele>
        <time>2012-04-19T11:50:59Z</time>
      </trkpt>
      <trkpt lat="43.76975" lon="7.24999">
        <ele>691.5</ele>
        <time>2012-04-19T11:51:00Z</time>
      </trkpt>
      <trkpt lat="43.7697" lon="7.25">
        <ele>691.1</ele>
        <time>2012-04-19T11:51:01Z</time>
      </trkpt>
      <trkpt lat="43.76966" lon="7.25002">
        <ele>690.8</ele>
        <time>2012-04-19T11:51:02Z</time>
      </trkpt>
      <trkpt lat="43.76961" lon="7.25004">
        <ele>690.6</ele>
        <time>2012-04-19T11:51:03Z</time>
      </trkpt>
      <trkpt lat="43.76953" lon="7.25007">
        <ele>690.3</ele>
        <time>2012-04-19T11:51:05Z</time>
      </trkpt>
      <trkpt lat="43.76946" lon="7.25008">
        <ele>689.6</ele>
        <time>2012-04-19T11:51:07Z</time>
      </trkpt>
      <trkpt lat="43.76937" lon="7.25011">
        <ele>688.1</ele>
        <time>2012-04-19T11:51:09Z</time>
      </trkpt>
      <trkpt lat="43.76933" lon="7.25013">
        <ele>687.4</ele>
        <time>2012-04-19T11:51:10Z</time>
      </trkpt>
      <trkpt lat="43.76928" lon="7.25017">
        <ele>686.9</ele>
        <time>2012-04-19T11:51:11Z</time>
      </trkpt>
      <trkpt lat="43.76923" lon="7.2502">
        <ele>686.5</ele>
        <time>2012-04-19T11:51:12Z</time>
      </trkpt>
      <trkpt lat="43.76918" lon="7.25023">
        <ele>686.2</ele>
        <time>2012-04-19T11:51:13Z</time>
      </trkpt>
      <trkpt lat="43.76913" lon="7.25026">
        <ele>685.9</ele>
        <time>2012-04-19T11:51:14Z</time>
      </trkpt>
      <trkpt lat="43.76908" lon="7.25029">
        <ele>685.3</ele>
        <time>2012-04-19T11:51:15Z</time>
      </trkpt>
      <trkpt lat="43.76902" lon="7.25032">
        <ele>684.8</ele>
        <time>2012-04-19T11:51:16Z</time>
      </trkpt>
      <trkpt lat="43.76897" lon="7.25033">
        <ele>684.5</ele>
        <time>2012-04-19T11:51:17Z</time>
      </trkpt>
      <trkpt lat="43.76892" lon="7.25034">
        <ele>683.5</ele>
        <time>2012-04-19T11:51:18Z</time>
      </trkpt>
      <trkpt lat="43.76886" lon="7.25036">
        <ele>682.8</ele>
        <time>2012-04-19T11:51:19Z</time>
      </trkpt>
      <trkpt lat="43.76879" lon="7.25036">
        <ele>682.1</ele>
        <time>2012-04-19T11:51:20Z</time>
      </trkpt>
      <trkpt lat="43.76874" lon="7.25037">
        <ele>681.5</ele>
        <time>2012-04-19T11:51:21Z</time>
      </trkpt>
      <trkpt lat="43.76869" lon="7.25037">
        <ele>680.8</ele>
        <time>2012-04-19T11:51:22Z</time>
      </trkpt>
      <trkpt lat="43.76864" lon="7.25038">
        <ele>680.3</ele>
        <time>2012-04-19T11:51:23Z</time>
      </trkpt>
      <trkpt lat="43.76859" lon="7.25039">
        <ele>679.9</ele>
        <time>2012-04-19T11:51:24Z</time>
      </trkpt>
      <trkpt lat="43.76853" lon="7.2504">
        <ele>678.7</ele>
        <time>2012-04-19T11:51:25Z</time>
      </trkpt>
      <trkpt lat="43.76848" lon="7.25041">
        <ele>677.8</ele>
        <time>2012-04-19T11:51:26Z</time>
      </trkpt>
      <trkpt lat="43.76843" lon="7.25044">
        <ele>677.2</ele>
        <time>2012-04-19T11:51:27Z</time>
      </trkpt>
      <trkpt lat="43.76838" lon="7.25047">
        <ele>676.7</ele>
        <time>2012-04-19T11:51:28Z</time>
      </trkpt>
      <trkpt lat="43.76832" lon="7.2505">
        <ele>676.2</ele>
        <time>2012-04-19T11:51:29Z</time>
      </trkpt>
      <trkpt lat="43.76824" lon="7.25051">
        <ele>675.5</ele>
        <time>2012-04-19T11:51:31Z</time>
      </trkpt>
      <trkpt lat="43.76815" lon="7.25047">
        <ele>671.5</ele>
        <time>2012-04-19T11:51:35Z</time>
      </trkpt>
      <trkpt lat="43.76807" lon="7.25046">
        <ele>669.8</ele>
        <time>2012-04-19T11:51:46Z</time>
      </trkpt>
      <trkpt lat="43.76806" lon="7.25045">
        <ele>669.5</ele>
        <time>2012-04-19T11:51:47Z</time>
      </trkpt>
      <trkpt lat="43.76793" lon="7.25037">
        <ele>670.3</ele>
        <time>2012-04-19T11:51:53Z</time>
      </trkpt>
      <trkpt lat="43.76787" lon="7.25039">
        <ele>670.1</ele>
        <time>2012-04-19T11:51:55Z</time>
      </trkpt>
      <trkpt lat="43.7678" lon="7.25043">
        <ele>669.5</ele>
        <time>2012-04-19T11:51:57Z</time>
      </trkpt>
      <trkpt lat="43.76772" lon="7.25046">
        <ele>669.1</ele>
        <time>2012-04-19T11:51:59Z</time>
      </trkpt>
      <trkpt lat="43.76764" lon="7.2505">
        <ele>668.5</ele>
        <time>2012-04-19T11:52:01Z</time>
      </trkpt>
      <trkpt lat="43.76759" lon="7.25052">
        <ele>668.3</ele>
        <time>2012-04-19T11:52:02Z</time>
      </trkpt>
      <trkpt lat="43.76754" lon="7.25054">
        <ele>668.1</ele>
        <time>2012-04-19T11:52:03Z</time>
      </trkpt>
      <trkpt lat="43.76746" lon="7.25057">
        <ele>667.3</ele>
        <time>2012-04-19T11:52:05Z</time>
      </trkpt>
      <trkpt lat="43.7674" lon="7.2506">
        <ele>665.9</ele>
        <time>2012-04-19T11:52:07Z</time>
      </trkpt>
      <trkpt lat="43.76733" lon="7.25063">
        <ele>664.8</ele>
        <time>2012-04-19T11:52:09Z</time>
      </trkpt>
      <trkpt lat="43.76727" lon="7.25061">
        <ele>664</ele>
        <time>2012-04-19T11:52:11Z</time>
      </trkpt>
      <trkpt lat="43.7672" lon="7.2506">
        <ele>663.3</ele>
        <time>2012-04-19T11:52:13Z</time>
      </trkpt>
      <trkpt lat="43.76713" lon="7.2506">
        <ele>662.5</ele>
        <time>2012-04-19T11:52:15Z</time>
      </trkpt>
      <trkpt lat="43.76704" lon="7.25059">
        <ele>661.1</ele>
        <time>2012-04-19T11:52:17Z</time>
      </trkpt>
      <trkpt lat="43.76699" lon="7.25057">
        <ele>660.5</ele>
        <time>2012-04-19T11:52:18Z</time>
      </trkpt>
      <trkpt lat="43.76694" lon="7.25055">
        <ele>659.9</ele>
        <time>2012-04-19T11:52:19Z</time>
      </trkpt>
      <trkpt lat="43.76686" lon="7.25058">
        <ele>659.2</ele>
        <time>2012-04-19T11:52:21Z</time>
      </trkpt>
      <trkpt lat="43.76684" lon="7.25063">
        <ele>658.6</ele>
        <time>2012-04-19T11:52:22Z</time>
      </trkpt>
      <trkpt lat="43.76682" lon="7.25069">
        <ele>658.2</ele>
        <time>2012-04-19T11:52:23Z</time>
      </trkpt>
      <trkpt lat="43.76679" lon="7.25075">
        <ele>657.6</ele>
        <time>2012-04-19T11:52:24Z</time>
      </trkpt>
      <trkpt lat="43.76677" lon="7.25081">
        <ele>657.2</ele>
        <time>2012-04-19T11:52:25Z</time>
      </trkpt>
      <trkpt lat="43.76672" lon="7.2509">
        <ele>656</ele>
        <time>2012-04-19T11:52:27Z</time>
      </trkpt>
      <trkpt lat="43.76665" lon="7.25095">
        <ele>654.2</ele>
        <time>2012-04-19T11:52:29Z</time>
      </trkpt>
      <trkpt lat="43.7666" lon="7.25096">
        <ele>653.2</ele>
        <time>2012-04-19T11:52:30Z</time>
      </trkpt>
      <trkpt lat="43.76655" lon="7.25097">
        <ele>652.4</ele>
        <time>2012-04-19T11:52:31Z</time>
      </trkpt>
      <trkpt lat="43.76649" lon="7.25098">
        <ele>651.8</ele>
        <time>2012-04-19T11:52:32Z</time>
      </trkpt>
      <trkpt lat="43.76643" lon="7.25099">
        <ele>651.3</ele>
        <time>2012-04-19T11:52:33Z</time>
      </trkpt>
      <trkpt lat="43.76636" lon="7.25098">
        <ele>649.9</ele>
        <time>2012-04-19T11:52:35Z</time>
      </trkpt>
      <trkpt lat="43.76629" lon="7.251">
        <ele>649</ele>
        <time>2012-04-19T11:52:37Z</time>
      </trkpt>
      <trkpt lat="43.7662" lon="7.25102">
        <ele>647.7</ele>
        <time>2012-04-19T11:52:39Z</time>
      </trkpt>
      <trkpt lat="43.76612" lon="7.25105">
        <ele>647.1</ele>
        <time>2012-04-19T11:52:41Z</time>
      </trkpt>
      <trkpt lat="43.76604" lon="7.25107">
        <ele>646.2</ele>
        <time>2012-04-19T11:52:43Z</time>
      </trkpt>
      <trkpt lat="43.76597" lon="7.25109">
        <ele>645.5</ele>
        <time>2012-04-19T11:52:45Z</time>
      </trkpt>
      <trkpt lat="43.76589" lon="7.25113">
        <ele>645.3</ele>
        <time>2012-04-19T11:52:47Z</time>
      </trkpt>
      <trkpt lat="43.76584" lon="7.25114">
        <ele>644.7</ele>
        <time>2012-04-19T11:52:48Z</time>
      </trkpt>
      <trkpt lat="43.7658" lon="7.25116">
        <ele>644.3</ele>
        <time>2012-04-19T11:52:49Z</time>
      </trkpt>
      <trkpt lat="43.76575" lon="7.25118">
        <ele>643.4</ele>
        <time>2012-04-19T11:52:50Z</time>
      </trkpt>
      <trkpt lat="43.76571" lon="7.2512">
        <ele>642.7</ele>
        <time>2012-04-19T11:52:51Z</time>
      </trkpt>
      <trkpt lat="43.76566" lon="7.25123">
        <ele>642.2</ele>
        <time>2012-04-19T11:52:52Z</time>
      </trkpt>
      <trkpt lat="43.76562" lon="7.25126">
        <ele>642.1</ele>
        <time>2012-04-19T11:52:53Z</time>
      </trkpt>
      <trkpt lat="43.76557" lon="7.25129">
        <ele>642.1</ele>
        <time>2012-04-19T11:52:54Z</time>
      </trkpt>
      <trkpt lat="43.76552" lon="7.25131">
        <ele>641.2</ele>
        <time>2012-04-19T11:52:55Z</time>
      </trkpt>
      <trkpt lat="43.76548" lon="7.25134">
        <ele>640.4</ele>
        <time>2012-04-19T11:52:56Z</time>
      </trkpt>
      <trkpt lat="43.76543" lon="7.25136">
        <ele>639.8</ele>
        <time>2012-04-19T11:52:57Z</time>
      </trkpt>
      <trkpt lat="43.76538" lon="7.25137">
        <ele>639.2</ele>
        <time>2012-04-19T11:52:58Z</time>
      </trkpt>
      <trkpt lat="43.76533" lon="7.25136">
        <ele>638.9</ele>
        <time>2012-04-19T11:52:59Z</time>
      </trkpt>
      <trkpt lat="43.76527" lon="7.25134">
        <ele>638.5</ele>
        <time>2012-04-19T11:53:00Z</time>
      </trkpt>
      <trkpt lat="43.76522" lon="7.25131">
        <ele>638.2</ele>
        <time>2012-04-19T11:53:01Z</time>
      </trkpt>
      <trkpt lat="43.76517" lon="7.25129">
        <ele>637.5</ele>
        <time>2012-04-19T11:53:02Z</time>
      </trkpt>
      <trkpt lat="43.76512" lon="7.25127">
        <ele>637</ele>
        <time>2012-04-19T11:53:03Z</time>
      </trkpt>
      <trkpt lat="43.76504" lon="7.25124">
        <ele>635.4</ele>
        <time>2012-04-19T11:53:05Z</time>
      </trkpt>
      <trkpt lat="43.76496" lon="7.2512">
        <ele>634.6</ele>
        <time>2012-04-19T11:53:07Z</time>
      </trkpt>
      <trkpt lat="43.76491" lon="7.25119">
        <ele>634.3</ele>
        <time>2012-04-19T11:53:08Z</time>
      </trkpt>
      <trkpt lat="43.76487" lon="7.25119">
        <ele>633.7</ele>
        <time>2012-04-19T11:53:09Z</time>
      </trkpt>
      <trkpt lat="43.76479" lon="7.2512">
        <ele>632.6</ele>
        <time>2012-04-19T11:53:11Z</time>
      </trkpt>
      <trkpt lat="43.76472" lon="7.25123">
        <ele>631.8</ele>
        <time>2012-04-19T11:53:13Z</time>
      </trkpt>
      <trkpt lat="43.76465" lon="7.25122">
        <ele>631</ele>
        <time>2012-04-19T11:53:16Z</time>
      </trkpt>
      <trkpt lat="43.76458" lon="7.25123">
        <ele>630.7</ele>
        <time>2012-04-19T11:53:18Z</time>
      </trkpt>
      <trkpt lat="43.7645" lon="7.25125">
        <ele>629.6</ele>
        <time>2012-04-19T11:53:20Z</time>
      </trkpt>
      <trkpt lat="43.76442" lon="7.25129">
        <ele>628.9</ele>
        <time>2012-04-19T11:53:22Z</time>
      </trkpt>
      <trkpt lat="43.76436" lon="7.25132">
        <ele>627.8</ele>
        <time>2012-04-19T11:53:24Z</time>
      </trkpt>
      <trkpt lat="43.76428" lon="7.25135">
        <ele>626.8</ele>
        <time>2012-04-19T11:53:27Z</time>
      </trkpt>
      <trkpt lat="43.76422" lon="7.25137">
        <ele>626.2</ele>
        <time>2012-04-19T11:53:29Z</time>
      </trkpt>
      <trkpt lat="43.76416" lon="7.2514">
        <ele>625.7</ele>
        <time>2012-04-19T11:53:31Z</time>
      </trkpt>
      <trkpt lat="43.76409" lon="7.25143">
        <ele>625.1</ele>
        <time>2012-04-19T11:53:33Z</time>
      </trkpt>
      <trkpt lat="43.76402" lon="7.25147">
        <ele>622.8</ele>
        <time>2012-04-19T11:53:36Z</time>
      </trkpt>
      <trkpt lat="43.76396" lon="7.25153">
        <ele>621.8</ele>
        <time>2012-04-19T11:53:38Z</time>
      </trkpt>
      <trkpt lat="43.76392" lon="7.25156">
        <ele>621.5</ele>
        <time>2012-04-19T11:53:39Z</time>
      </trkpt>
      <trkpt lat="43.76388" lon="7.2516">
        <ele>621.4</ele>
        <time>2012-04-19T11:53:40Z</time>
      </trkpt>
      <trkpt lat="43.76384" lon="7.25164">
        <ele>621.3</ele>
        <time>2012-04-19T11:53:41Z</time>
      </trkpt>
      <trkpt lat="43.76378" lon="7.25171">
        <ele>620.4</ele>
        <time>2012-04-19T11:53:43Z</time>
      </trkpt>
      <trkpt lat="43.76372" lon="7.25176">
        <ele>619.4</ele>
        <time>2012-04-19T11:53:45Z</time>
      </trkpt>
      <trkpt lat="43.76367" lon="7.25181">
        <ele>618.6</ele>
        <time>2012-04-19T11:53:47Z</time>
      </trkpt>
      <trkpt lat="43.76362" lon="7.2519">
        <ele>618.3</ele>
        <time>2012-04-19T11:53:49Z</time>
      </trkpt>
      <trkpt lat="43.76356" lon="7.25199">
        <ele>616.4</ele>
        <time>2012-04-19T11:53:59Z</time>
      </trkpt>
      <trkpt lat="43.76354" lon="7.25201">
        <ele>616.3</ele>
        <time>2012-04-19T11:54:00Z</time>
      </trkpt>
      <trkpt lat="43.76341" lon="7.25208">
        <ele>616.1</ele>
        <time>2012-04-19T11:54:05Z</time>
      </trkpt>
      <trkpt lat="43.76335" lon="7.25207">
        <ele>615</ele>
        <time>2012-04-19T11:54:07Z</time>
      </trkpt>
      <trkpt lat="43.76328" lon="7.25205">
        <ele>613.8</ele>
        <time>2012-04-19T11:54:09Z</time>
      </trkpt>
      <trkpt lat="43.7632" lon="7.25204">
        <ele>612.6</ele>
        <time>2012-04-19T11:54:11Z</time>
      </trkpt>
      <trkpt lat="43.76315" lon="7.25205">
        <ele>612</ele>
        <time>2012-04-19T11:54:12Z</time>
      </trkpt>
      <trkpt lat="43.7631" lon="7.25207">
        <ele>611.4</ele>
        <time>2012-04-19T11:54:13Z</time>
      </trkpt>
      <trkpt lat="43.76306" lon="7.25207">
        <ele>611</ele>
        <time>2012-04-19T11:54:14Z</time>
      </trkpt>
      <trkpt lat="43.76301" lon="7.25208">
        <ele>610.7</ele>
        <time>2012-04-19T11:54:15Z</time>
      </trkpt>
      <trkpt lat="43.76292" lon="7.2521">
        <ele>609.4</ele>
        <time>2012-04-19T11:54:17Z</time>
      </trkpt>
      <trkpt lat="43.76285" lon="7.25211">
        <ele>608.6</ele>
        <time>2012-04-19T11:54:19Z</time>
      </trkpt>
      <trkpt lat="43.76277" lon="7.25211">
        <ele>607.5</ele>
        <time>2012-04-19T11:54:21Z</time>
      </trkpt>
      <trkpt lat="43.76268" lon="7.25212">
        <ele>606.7</ele>
        <time>2012-04-19T11:54:23Z</time>
      </trkpt>
      <trkpt lat="43.7626" lon="7.25213">
        <ele>605.7</ele>
        <time>2012-04-19T11:54:25Z</time>
      </trkpt>
      <trkpt lat="43.76251" lon="7.25215">
        <ele>604.6</ele>
        <time>2012-04-19T11:54:27Z</time>
      </trkpt>
      <trkpt lat="43.76245" lon="7.25217">
        <ele>603.8</ele>
        <time>2012-04-19T11:54:29Z</time>
      </trkpt>
      <trkpt lat="43.76236" lon="7.25218">
        <ele>602.9</ele>
        <time>2012-04-19T11:54:32Z</time>
      </trkpt>
      <trkpt lat="43.76229" lon="7.25218">
        <ele>602.7</ele>
        <time>2012-04-19T11:54:34Z</time>
      </trkpt>
      <trkpt lat="43.76221" lon="7.25219">
        <ele>601.5</ele>
        <time>2012-04-19T11:54:36Z</time>
      </trkpt>
      <trkpt lat="43.76217" lon="7.2522">
        <ele>600.9</ele>
        <time>2012-04-19T11:54:37Z</time>
      </trkpt>
      <trkpt lat="43.76208" lon="7.25225">
        <ele>600.3</ele>
        <time>2012-04-19T11:54:39Z</time>
      </trkpt>
      <trkpt lat="43.762" lon="7.25228">
        <ele>600.2</ele>
        <time>2012-04-19T11:54:42Z</time>
      </trkpt>
      <trkpt lat="43.76192" lon="7.25231">
        <ele>597.4</ele>
        <time>2012-04-19T11:54:50Z</time>
      </trkpt>
      <trkpt lat="43.76184" lon="7.25235">
        <ele>596.8</ele>
        <time>2012-04-19T11:54:59Z</time>
      </trkpt>
      <trkpt lat="43.76176" lon="7.2524">
        <ele>596.8</ele>
        <time>2012-04-19T11:55:04Z</time>
      </trkpt>
      <trkpt lat="43.76174" lon="7.25241">
        <ele>596.7</ele>
        <time>2012-04-19T11:55:05Z</time>
      </trkpt>
      <trkpt lat="43.76163" lon="7.25248">
        <ele>596.3</ele>
        <time>2012-04-19T11:55:09Z</time>
      </trkpt>
      <trkpt lat="43.76157" lon="7.25252">
        <ele>595.8</ele>
        <time>2012-04-19T11:55:11Z</time>
      </trkpt>
      <trkpt lat="43.7615" lon="7.25253">
        <ele>594.7</ele>
        <time>2012-04-19T11:55:14Z</time>
      </trkpt>
      <trkpt lat="43.76144" lon="7.25256">
        <ele>592.7</ele>
        <time>2012-04-19T11:55:17Z</time>
      </trkpt>
      <trkpt lat="43.76139" lon="7.25259">
        <ele>591.4</ele>
        <time>2012-04-19T11:55:19Z</time>
      </trkpt>
      <trkpt lat="43.76132" lon="7.25265">
        <ele>591.3</ele>
        <time>2012-04-19T11:55:21Z</time>
      </trkpt>
      <trkpt lat="43.76128" lon="7.25267">
        <ele>590.8</ele>
        <time>2012-04-19T11:55:22Z</time>
      </trkpt>
      <trkpt lat="43.76123" lon="7.25269">
        <ele>590.4</ele>
        <time>2012-04-19T11:55:23Z</time>
      </trkpt>
      <trkpt lat="43.76119" lon="7.25272">
        <ele>589.7</ele>
        <time>2012-04-19T11:55:24Z</time>
      </trkpt>
      <trkpt lat="43.76111" lon="7.25277">
        <ele>588.8</ele>
        <time>2012-04-19T11:55:26Z</time>
      </trkpt>
      <trkpt lat="43.76105" lon="7.25282">
        <ele>587.9</ele>
        <time>2012-04-19T11:55:28Z</time>
      </trkpt>
      <trkpt lat="43.76098" lon="7.25287">
        <ele>585.8</ele>
        <time>2012-04-19T11:55:31Z</time>
      </trkpt>
      <trkpt lat="43.76091" lon="7.25287">
        <ele>583.8</ele>
        <time>2012-04-19T11:55:35Z</time>
      </trkpt>
      <trkpt lat="43.76082" lon="7.2529">
        <ele>581.7</ele>
        <time>2012-04-19T11:55:38Z</time>
      </trkpt>
      <trkpt lat="43.76074" lon="7.25293">
        <ele>581.4</ele>
        <time>2012-04-19T11:55:40Z</time>
      </trkpt>
      <trkpt lat="43.7607" lon="7.25295">
        <ele>581.1</ele>
        <time>2012-04-19T11:55:41Z</time>
      </trkpt>
      <trkpt lat="43.76066" lon="7.25297">
        <ele>580.8</ele>
        <time>2012-04-19T11:55:42Z</time>
      </trkpt>
      <trkpt lat="43.76058" lon="7.25302">
        <ele>579.9</ele>
        <time>2012-04-19T11:55:44Z</time>
      </trkpt>
      <trkpt lat="43.76052" lon="7.25306">
        <ele>579.1</ele>
        <time>2012-04-19T11:55:46Z</time>
      </trkpt>
      <trkpt lat="43.76044" lon="7.25311">
        <ele>577.5</ele>
        <time>2012-04-19T11:55:49Z</time>
      </trkpt>
      <trkpt lat="43.76038" lon="7.25311">
        <ele>576.9</ele>
        <time>2012-04-19T11:55:51Z</time>
      </trkpt>
      <trkpt lat="43.76029" lon="7.25313">
        <ele>576</ele>
        <time>2012-04-19T11:55:53Z</time>
      </trkpt>
      <trkpt lat="43.76022" lon="7.25318">
        <ele>575.2</ele>
        <time>2012-04-19T11:55:55Z</time>
      </trkpt>
      <trkpt lat="43.76027" lon="7.2531">
        <ele>573.6</ele>
        <time>2012-04-19T11:57:04Z</time>
      </trkpt>
      <trkpt lat="43.76029" lon="7.2531">
        <ele>573.6</ele>
        <time>2012-04-19T11:57:05Z</time>
      </trkpt>
      <trkpt lat="43.76044" lon="7.25304">
        <ele>576.2</ele>
        <time>2012-04-19T11:57:23Z</time>
      </trkpt>
      <trkpt lat="43.76051" lon="7.25297">
        <ele>576.4</ele>
        <time>2012-04-19T11:57:32Z</time>
      </trkpt>
      <trkpt lat="43.76058" lon="7.25292">
        <ele>578.2</ele>
        <time>2012-04-19T11:57:42Z</time>
      </trkpt>
      <trkpt lat="43.76066" lon="7.25287">
        <ele>579.1</ele>
        <time>2012-04-19T11:57:48Z</time>
      </trkpt>
      <trkpt lat="43.76074" lon="7.25283">
        <ele>579.6</ele>
        <time>2012-04-19T11:57:54Z</time>
      </trkpt>
      <trkpt lat="43.76082" lon="7.2528">
        <ele>580.4</ele>
        <time>2012-04-19T11:58:00Z</time>
      </trkpt>
      <trkpt lat="43.76091" lon="7.25277">
        <ele>582.8</ele>
        <time>2012-04-19T11:58:17Z</time>
      </trkpt>
      <trkpt lat="43.76092" lon="7.25277">
        <ele>582.8</ele>
        <time>2012-04-19T11:58:18Z</time>
      </trkpt>
      <trkpt lat="43.76106" lon="7.25266">
        <ele>585.9</ele>
        <time>2012-04-19T11:58:43Z</time>
      </trkpt>
      <trkpt lat="43.76114" lon="7.25261">
        <ele>586.7</ele>
        <time>2012-04-19T11:58:52Z</time>
      </trkpt>
      <trkpt lat="43.76122" lon="7.25257">
        <ele>587.7</ele>
        <time>2012-04-19T11:59:01Z</time>
      </trkpt>
      <trkpt lat="43.7613" lon="7.25251">
        <ele>589.7</ele>
        <time>2012-04-19T11:59:13Z</time>
      </trkpt>
      <trkpt lat="43.76138" lon="7.25246">
        <ele>591</ele>
        <time>2012-04-19T11:59:24Z</time>
      </trkpt>
      <trkpt lat="43.76139" lon="7.25246">
        <ele>591.1</ele>
        <time>2012-04-19T11:59:25Z</time>
      </trkpt>
      <trkpt lat="43.76155" lon="7.2524">
        <ele>594.2</ele>
        <time>2012-04-19T11:59:48Z</time>
      </trkpt>
      <trkpt lat="43.76162" lon="7.25234">
        <ele>594.4</ele>
        <time>2012-04-19T11:59:57Z</time>
      </trkpt>
      <trkpt lat="43.76171" lon="7.25231">
        <ele>596</ele>
        <time>2012-04-19T12:00:07Z</time>
      </trkpt>
      <trkpt lat="43.76178" lon="7.25225">
        <ele>596.1</ele>
        <time>2012-04-19T12:00:16Z</time>
      </trkpt>
      <trkpt lat="43.76185" lon="7.25219">
        <ele>596.5</ele>
        <time>2012-04-19T12:00:25Z</time>
      </trkpt>
      <trkpt lat="43.76193" lon="7.25219">
        <ele>597.7</ele>
        <time>2012-04-19T12:00:36Z</time>
      </trkpt>
      <trkpt lat="43.76194" lon="7.25218">
        <ele>597.7</ele>
        <time>2012-04-19T12:00:37Z</time>
      </trkpt>
      <trkpt lat="43.76209" lon="7.2521">
        <ele>598.5</ele>
        <time>2012-04-19T12:00:53Z</time>
      </trkpt>
      <trkpt lat="43.76218" lon="7.25208">
        <ele>599.6</ele>
        <time>2012-04-19T12:01:02Z</time>
      </trkpt>
      <trkpt lat="43.76226" lon="7.25208">
        <ele>599.4</ele>
        <time>2012-04-19T12:01:09Z</time>
      </trkpt>
      <trkpt lat="43.76234" lon="7.25208">
        <ele>600.8</ele>
        <time>2012-04-19T12:01:14Z</time>
      </trkpt>
      <trkpt lat="43.76242" lon="7.25207">
        <ele>601.8</ele>
        <time>2012-04-19T12:01:22Z</time>
      </trkpt>
      <trkpt lat="43.76251" lon="7.25204">
        <ele>601.7</ele>
        <time>2012-04-19T12:01:29Z</time>
      </trkpt>
      <trkpt lat="43.76259" lon="7.25203">
        <ele>602.9</ele>
        <time>2012-04-19T12:01:36Z</time>
      </trkpt>
      <trkpt lat="43.76267" lon="7.25202">
        <ele>603.9</ele>
        <time>2012-04-19T12:01:43Z</time>
      </trkpt>
      <trkpt lat="43.76268" lon="7.25202">
        <ele>603.9</ele>
        <time>2012-04-19T12:01:44Z</time>
      </trkpt>
      <trkpt lat="43.76284" lon="7.25199">
        <ele>605.8</ele>
        <time>2012-04-19T12:02:00Z</time>
      </trkpt>
      <trkpt lat="43.76292" lon="7.25196">
        <ele>606.7</ele>
        <time>2012-04-19T12:02:08Z</time>
      </trkpt>
      <trkpt lat="43.76301" lon="7.25195">
        <ele>607.6</ele>
        <time>2012-04-19T12:02:14Z</time>
      </trkpt>
      <trkpt lat="43.76308" lon="7.25193">
        <ele>608</ele>
        <time>2012-04-19T12:02:20Z</time>
      </trkpt>
      <trkpt lat="43.76317" lon="7.25194">
        <ele>610</ele>
        <time>2012-04-19T12:02:27Z</time>
      </trkpt>
      <trkpt lat="43.76325" lon="7.25196">
        <ele>611.4</ele>
        <time>2012-04-19T12:02:41Z</time>
      </trkpt>
      <trkpt lat="43.76334" lon="7.25198">
        <ele>613</ele>
        <time>2012-04-19T12:03:00Z</time>
      </trkpt>
      <trkpt lat="43.76335" lon="7.25198">
        <ele>613</ele>
        <time>2012-04-19T12:03:01Z</time>
      </trkpt>
      <trkpt lat="43.7635" lon="7.2519">
        <ele>615.1</ele>
        <time>2012-04-19T12:03:21Z</time>
      </trkpt>
      <trkpt lat="43.76356" lon="7.25181">
        <ele>615.5</ele>
        <time>2012-04-19T12:03:39Z</time>
      </trkpt>
      <trkpt lat="43.7635" lon="7.25181">
        <ele>614.5</ele>
        <time>2012-04-19T12:04:43Z</time>
      </trkpt>
      <trkpt lat="43.76347" lon="7.2518">
        <ele>614.3</ele>
        <time>2012-04-19T12:04:44Z</time>
      </trkpt>
      <trkpt lat="43.76341" lon="7.25168">
        <ele>609.9</ele>
        <time>2012-04-19T12:04:49Z</time>
      </trkpt>
      <trkpt lat="43.76333" lon="7.25166">
        <ele>607.6</ele>
        <time>2012-04-19T12:04:52Z</time>
      </trkpt>
      <trkpt lat="43.76325" lon="7.25162">
        <ele>604.9</ele>
        <time>2012-04-19T12:04:55Z</time>
      </trkpt>
      <trkpt lat="43.7632" lon="7.25157">
        <ele>602.7</ele>
        <time>2012-04-19T12:04:57Z</time>
      </trkpt>
      <trkpt lat="43.76319" lon="7.25146">
        <ele>600.4</ele>
        <time>2012-04-19T12:05:00Z</time>
      </trkpt>
      <trkpt lat="43.76318" lon="7.25133">
        <ele>597.7</ele>
        <time>2012-04-19T12:05:03Z</time>
      </trkpt>
      <trkpt lat="43.76318" lon="7.25122">
        <ele>594.3</ele>
        <time>2012-04-19T12:05:06Z</time>
      </trkpt>
      <trkpt lat="43.76309" lon="7.25119">
        <ele>590.4</ele>
        <time>2012-04-19T12:05:09Z</time>
      </trkpt>
      <trkpt lat="43.76303" lon="7.25117">
        <ele>588.5</ele>
        <time>2012-04-19T12:05:11Z</time>
      </trkpt>
      <trkpt lat="43.76296" lon="7.2512">
        <ele>586.5</ele>
        <time>2012-04-19T12:05:13Z</time>
      </trkpt>
      <trkpt lat="43.76288" lon="7.25117">
        <ele>583.2</ele>
        <time>2012-04-19T12:05:16Z</time>
      </trkpt>
      <trkpt lat="43.76282" lon="7.25116">
        <ele>581.6</ele>
        <time>2012-04-19T12:05:18Z</time>
      </trkpt>
      <trkpt lat="43.76277" lon="7.25106">
        <ele>578.4</ele>
        <time>2012-04-19T12:05:22Z</time>
      </trkpt>
      <trkpt lat="43.76269" lon="7.25104">
        <ele>575.3</ele>
        <time>2012-04-19T12:05:25Z</time>
      </trkpt>
      <trkpt lat="43.76264" lon="7.25097">
        <ele>570.3</ele>
        <time>2012-04-19T12:05:29Z</time>
      </trkpt>
      <trkpt lat="43.7626" lon="7.25088">
        <ele>567.8</ele>
        <time>2012-04-19T12:05:32Z</time>
      </trkpt>
      <trkpt lat="43.76258" lon="7.25081">
        <ele>565.1</ele>
        <time>2012-04-19T12:05:34Z</time>
      </trkpt>
      <trkpt lat="43.76261" lon="7.25069">
        <ele>562.9</ele>
        <time>2012-04-19T12:05:36Z</time>
      </trkpt>
      <trkpt lat="43.76264" lon="7.25063">
        <ele>561.5</ele>
        <time>2012-04-19T12:05:37Z</time>
      </trkpt>
      <trkpt lat="43.76262" lon="7.25053">
        <ele>557.3</ele>
        <time>2012-04-19T12:05:41Z</time>
      </trkpt>
      <trkpt lat="43.76257" lon="7.25052">
        <ele>556</ele>
        <time>2012-04-19T12:05:42Z</time>
      </trkpt>
      <trkpt lat="43.7625" lon="7.25053">
        <ele>553.8</ele>
        <time>2012-04-19T12:05:44Z</time>
      </trkpt>
      <trkpt lat="43.76247" lon="7.25041">
        <ele>548.5</ele>
        <time>2012-04-19T12:05:48Z</time>
      </trkpt>
      <trkpt lat="43.76248" lon="7.25038">
        <ele>547.2</ele>
        <time>2012-04-19T12:05:49Z</time>
      </trkpt>
      <trkpt lat="43.76236" lon="7.25025">
        <ele>539.6</ele>
        <time>2012-04-19T12:05:56Z</time>
      </trkpt>
      <trkpt lat="43.7623" lon="7.25024">
        <ele>537.4</ele>
        <time>2012-04-19T12:05:58Z</time>
      </trkpt>
      <trkpt lat="43.76222" lon="7.25019">
        <ele>534.4</ele>
        <time>2012-04-19T12:06:01Z</time>
      </trkpt>
      <trkpt lat="43.76219" lon="7.25008">
        <ele>529.7</ele>
        <time>2012-04-19T12:06:06Z</time>
      </trkpt>
      <trkpt lat="43.76213" lon="7.25008">
        <ele>528.2</ele>
        <time>2012-04-19T12:06:08Z</time>
      </trkpt>
      <trkpt lat="43.76206" lon="7.25006">
        <ele>526.4</ele>
        <time>2012-04-19T12:06:10Z</time>
      </trkpt>
      <trkpt lat="43.76201" lon="7.24998">
        <ele>523.3</ele>
        <time>2012-04-19T12:06:13Z</time>
      </trkpt>
      <trkpt lat="43.76192" lon="7.25">
        <ele>521</ele>
        <time>2012-04-19T12:06:16Z</time>
      </trkpt>
      <trkpt lat="43.76184" lon="7.24997">
        <ele>518.4</ele>
        <time>2012-04-19T12:06:20Z</time>
      </trkpt>
      <trkpt lat="43.76183" lon="7.24986">
        <ele>515.9</ele>
        <time>2012-04-19T12:06:23Z</time>
      </trkpt>
      <trkpt lat="43.76182" lon="7.24975">
        <ele>512.9</ele>
        <time>2012-04-19T12:06:26Z</time>
      </trkpt>
      <trkpt lat="43.76175" lon="7.24973">
        <ele>510.6</ele>
        <time>2012-04-19T12:06:28Z</time>
      </trkpt>
      <trkpt lat="43.76171" lon="7.24965">
        <ele>505.6</ele>
        <time>2012-04-19T12:06:33Z</time>
      </trkpt>
      <trkpt lat="43.76177" lon="7.24956">
        <ele>504.3</ele>
        <time>2012-04-19T12:06:35Z</time>
      </trkpt>
      <trkpt lat="43.76179" lon="7.24944">
        <ele>501.6</ele>
        <time>2012-04-19T12:06:38Z</time>
      </trkpt>
      <trkpt lat="43.76179" lon="7.24935">
        <ele>500.4</ele>
        <time>2012-04-19T12:06:40Z</time>
      </trkpt>
      <trkpt lat="43.76185" lon="7.24926">
        <ele>498</ele>
        <time>2012-04-19T12:06:42Z</time>
      </trkpt>
      <trkpt lat="43.76183" lon="7.24915">
        <ele>495.6</ele>
        <time>2012-04-19T12:06:45Z</time>
      </trkpt>
      <trkpt lat="43.76175" lon="7.24911">
        <ele>491.3</ele>
        <time>2012-04-19T12:06:48Z</time>
      </trkpt>
      <trkpt lat="43.76169" lon="7.24907">
        <ele>489.4</ele>
        <time>2012-04-19T12:06:50Z</time>
      </trkpt>
      <trkpt lat="43.76165" lon="7.24907">
        <ele>488.6</ele>
        <time>2012-04-19T12:06:51Z</time>
      </trkpt>
      <trkpt lat="43.76152" lon="7.24905">
        <ele>485.2</ele>
        <time>2012-04-19T12:06:54Z</time>
      </trkpt>
      <trkpt lat="43.76148" lon="7.24897">
        <ele>481.6</ele>
        <time>2012-04-19T12:06:57Z</time>
      </trkpt>
      <trkpt lat="43.7615" lon="7.24885">
        <ele>479.8</ele>
        <time>2012-04-19T12:06:59Z</time>
      </trkpt>
      <trkpt lat="43.76143" lon="7.24881">
        <ele>476.3</ele>
        <time>2012-04-19T12:07:02Z</time>
      </trkpt>
      <trkpt lat="43.76136" lon="7.24881">
        <ele>474.6</ele>
        <time>2012-04-19T12:07:04Z</time>
      </trkpt>
      <trkpt lat="43.76128" lon="7.24883">
        <ele>472.6</ele>
        <time>2012-04-19T12:07:06Z</time>
      </trkpt>
      <trkpt lat="43.7612" lon="7.24885">
        <ele>469.8</ele>
        <time>2012-04-19T12:07:08Z</time>
      </trkpt>
      <trkpt lat="43.76113" lon="7.24886">
        <ele>468.2</ele>
        <time>2012-04-19T12:07:10Z</time>
      </trkpt>
      <trkpt lat="43.76106" lon="7.24888">
        <ele>466.6</ele>
        <time>2012-04-19T12:07:12Z</time>
      </trkpt>
      <trkpt lat="43.76099" lon="7.24891">
        <ele>465.1</ele>
        <time>2012-04-19T12:07:14Z</time>
      </trkpt>
      <trkpt lat="43.76093" lon="7.24893">
        <ele>463.5</ele>
        <time>2012-04-19T12:07:17Z</time>
      </trkpt>
      <trkpt lat="43.76087" lon="7.24894">
        <ele>462.4</ele>
        <time>2012-04-19T12:07:19Z</time>
      </trkpt>
      <trkpt lat="43.7608" lon="7.24897">
        <ele>461.3</ele>
        <time>2012-04-19T12:07:21Z</time>
      </trkpt>
      <trkpt lat="43.76074" lon="7.24899">
        <ele>460.6</ele>
        <time>2012-04-19T12:07:23Z</time>
      </trkpt>
      <trkpt lat="43.76068" lon="7.24904">
        <ele>459.4</ele>
        <time>2012-04-19T12:07:25Z</time>
      </trkpt>
      <trkpt lat="43.76062" lon="7.24909">
        <ele>459.2</ele>
        <time>2012-04-19T12:07:27Z</time>
      </trkpt>
      <trkpt lat="43.76056" lon="7.2491">
        <ele>459.3</ele>
        <time>2012-04-19T12:07:29Z</time>
      </trkpt>
      <trkpt lat="43.76049" lon="7.24912">
        <ele>459</ele>
        <time>2012-04-19T12:07:31Z</time>
      </trkpt>
      <trkpt lat="43.76042" lon="7.24912">
        <ele>458.6</ele>
        <time>2012-04-19T12:07:33Z</time>
      </trkpt>
      <trkpt lat="43.76034" lon="7.24911">
        <ele>458</ele>
        <time>2012-04-19T12:07:35Z</time>
      </trkpt>
      <trkpt lat="43.76026" lon="7.24908">
        <ele>457.5</ele>
        <time>2012-04-19T12:07:37Z</time>
      </trkpt>
      <trkpt lat="43.76019" lon="7.249">
        <ele>454.4</ele>
        <time>2012-04-19T12:07:59Z</time>
      </trkpt>
      <trkpt lat="43.76019" lon="7.249">
        <ele>454.4</ele>
        <time>2012-04-19T12:08:00Z</time>
      </trkpt>
      <trkpt lat="43.76017" lon="7.24881">
        <ele>453.9</ele>
        <time>2012-04-19T12:08:28Z</time>
      </trkpt>
      <trkpt lat="43.7601" lon="7.24875">
        <ele>452.8</ele>
        <time>2012-04-19T12:08:30Z</time>
      </trkpt>
      <trkpt lat="43.76006" lon="7.2487">
        <ele>452.3</ele>
        <time>2012-04-19T12:08:31Z</time>
      </trkpt>
      <trkpt lat="43.76003" lon="7.24863">
        <ele>451.5</ele>
        <time>2012-04-19T12:08:32Z</time>
      </trkpt>
      <trkpt lat="43.76" lon="7.24856">
        <ele>451</ele>
        <time>2012-04-19T12:08:33Z</time>
      </trkpt>
      <trkpt lat="43.75998" lon="7.24847">
        <ele>450.5</ele>
        <time>2012-04-19T12:08:34Z</time>
      </trkpt>
      <trkpt lat="43.75996" lon="7.2484">
        <ele>450</ele>
        <time>2012-04-19T12:08:35Z</time>
      </trkpt>
      <trkpt lat="43.75994" lon="7.24833">
        <ele>449.6</ele>
        <time>2012-04-19T12:08:36Z</time>
      </trkpt>
      <trkpt lat="43.7599" lon="7.24824">
        <ele>448.1</ele>
        <time>2012-04-19T12:08:38Z</time>
      </trkpt>
      <trkpt lat="43.75989" lon="7.24816">
        <ele>447.1</ele>
        <time>2012-04-19T12:08:40Z</time>
      </trkpt>
      <trkpt lat="43.75988" lon="7.24806">
        <ele>445.9</ele>
        <time>2012-04-19T12:08:42Z</time>
      </trkpt>
      <trkpt lat="43.75989" lon="7.24796">
        <ele>444</ele>
        <time>2012-04-19T12:08:44Z</time>
      </trkpt>
      <trkpt lat="43.7599" lon="7.24788">
        <ele>442.4</ele>
        <time>2012-04-19T12:08:46Z</time>
      </trkpt>
      <trkpt lat="43.75988" lon="7.24778">
        <ele>441</ele>
        <time>2012-04-19T12:08:48Z</time>
      </trkpt>
      <trkpt lat="43.75992" lon="7.24767">
        <ele>435.5</ele>
        <time>2012-04-19T12:08:53Z</time>
      </trkpt>
      <trkpt lat="43.75984" lon="7.24764">
        <ele>431.8</ele>
        <time>2012-04-19T12:09:00Z</time>
      </trkpt>
      <trkpt lat="43.75982" lon="7.24764">
        <ele>431.9</ele>
        <time>2012-04-19T12:09:01Z</time>
      </trkpt>
      <trkpt lat="43.75968" lon="7.24767">
        <ele>431.6</ele>
        <time>2012-04-19T12:09:05Z</time>
      </trkpt>
      <trkpt lat="43.7596" lon="7.24769">
        <ele>431.9</ele>
        <time>2012-04-19T12:09:07Z</time>
      </trkpt>
      <trkpt lat="43.75953" lon="7.24773">
        <ele>431.5</ele>
        <time>2012-04-19T12:09:09Z</time>
      </trkpt>
      <trkpt lat="43.75949" lon="7.24781">
        <ele>430.3</ele>
        <time>2012-04-19T12:09:11Z</time>
      </trkpt>
      <trkpt lat="43.75947" lon="7.2479">
        <ele>429.9</ele>
        <time>2012-04-19T12:09:13Z</time>
      </trkpt>
      <trkpt lat="43.75944" lon="7.24801">
        <ele>429.5</ele>
        <time>2012-04-19T12:09:15Z</time>
      </trkpt>
      <trkpt lat="43.7594" lon="7.2481">
        <ele>428.9</ele>
        <time>2012-04-19T12:09:17Z</time>
      </trkpt>
      <trkpt lat="43.75938" lon="7.24816">
        <ele>428.4</ele>
        <time>2012-04-19T12:09:18Z</time>
      </trkpt>
      <trkpt lat="43.75937" lon="7.24822">
        <ele>428.1</ele>
        <time>2012-04-19T12:09:19Z</time>
      </trkpt>
      <trkpt lat="43.75935" lon="7.24833">
        <ele>427.4</ele>
        <time>2012-04-19T12:09:21Z</time>
      </trkpt>
      <trkpt lat="43.75933" lon="7.24842">
        <ele>427.7</ele>
        <time>2012-04-19T12:09:23Z</time>
      </trkpt>
      <trkpt lat="43.75931" lon="7.2485">
        <ele>427.4</ele>
        <time>2012-04-19T12:09:25Z</time>
      </trkpt>
      <trkpt lat="43.7593" lon="7.2486">
        <ele>426.7</ele>
        <time>2012-04-19T12:09:27Z</time>
      </trkpt>
      <trkpt lat="43.75928" lon="7.24871">
        <ele>426.2</ele>
        <time>2012-04-19T12:09:29Z</time>
      </trkpt>
      <trkpt lat="43.75926" lon="7.24882">
        <ele>426.1</ele>
        <time>2012-04-19T12:09:31Z</time>
      </trkpt>
      <trkpt lat="43.75924" lon="7.24892">
        <ele>425.7</ele>
        <time>2012-04-19T12:09:33Z</time>
      </trkpt>
      <trkpt lat="43.75922" lon="7.24901">
        <ele>425.5</ele>
        <time>2012-04-19T12:09:35Z</time>
      </trkpt>
      <trkpt lat="43.75921" lon="7.2491">
        <ele>425.6</ele>
        <time>2012-04-19T12:09:37Z</time>
      </trkpt>
      <trkpt lat="43.75919" lon="7.24919">
        <ele>425.7</ele>
        <time>2012-04-19T12:09:39Z</time>
      </trkpt>
      <trkpt lat="43.75916" lon="7.24927">
        <ele>425.9</ele>
        <time>2012-04-19T12:09:41Z</time>
      </trkpt>
      <trkpt lat="43.75911" lon="7.24934">
        <ele>426.1</ele>
        <time>2012-04-19T12:09:43Z</time>
      </trkpt>
      <trkpt lat="43.75906" lon="7.2494">
        <ele>425.9</ele>
        <time>2012-04-19T12:09:45Z</time>
      </trkpt>
      <trkpt lat="43.759" lon="7.24946">
        <ele>425</ele>
        <time>2012-04-19T12:09:47Z</time>
      </trkpt>
      <trkpt lat="43.75895" lon="7.24953">
        <ele>424.4</ele>
        <time>2012-04-19T12:09:49Z</time>
      </trkpt>
      <trkpt lat="43.75891" lon="7.2496">
        <ele>424.3</ele>
        <time>2012-04-19T12:09:51Z</time>
      </trkpt>
      <trkpt lat="43.75885" lon="7.24965">
        <ele>424.4</ele>
        <time>2012-04-19T12:09:53Z</time>
      </trkpt>
      <trkpt lat="43.75879" lon="7.24969">
        <ele>424.4</ele>
        <time>2012-04-19T12:09:55Z</time>
      </trkpt>
      <trkpt lat="43.75872" lon="7.24973">
        <ele>424.5</ele>
        <time>2012-04-19T12:09:58Z</time>
      </trkpt>
      <trkpt lat="43.75867" lon="7.24983">
        <ele>424.3</ele>
        <time>2012-04-19T12:10:02Z</time>
      </trkpt>
      <trkpt lat="43.75867" lon="7.24985">
        <ele>424.6</ele>
        <time>2012-04-19T12:10:03Z</time>
      </trkpt>
      <trkpt lat="43.75857" lon="7.24999">
        <ele>427.1</ele>
        <time>2012-04-19T12:10:12Z</time>
      </trkpt>
      <trkpt lat="43.75849" lon="7.25002">
        <ele>427.3</ele>
        <time>2012-04-19T12:10:18Z</time>
      </trkpt>
      <trkpt lat="43.75843" lon="7.25005">
        <ele>427.7</ele>
        <time>2012-04-19T12:10:22Z</time>
      </trkpt>
      <trkpt lat="43.75834" lon="7.25008">
        <ele>428.3</ele>
        <time>2012-04-19T12:10:26Z</time>
      </trkpt>
      <trkpt lat="43.75827" lon="7.25011">
        <ele>428.5</ele>
        <time>2012-04-19T12:10:29Z</time>
      </trkpt>
      <trkpt lat="43.75819" lon="7.25013">
        <ele>428.1</ele>
        <time>2012-04-19T12:10:32Z</time>
      </trkpt>
      <trkpt lat="43.75813" lon="7.25014">
        <ele>428</ele>
        <time>2012-04-19T12:10:34Z</time>
      </trkpt>
      <trkpt lat="43.75805" lon="7.25018">
        <ele>427.9</ele>
        <time>2012-04-19T12:10:37Z</time>
      </trkpt>
      <trkpt lat="43.758" lon="7.25024">
        <ele>428.5</ele>
        <time>2012-04-19T12:10:39Z</time>
      </trkpt>
      <trkpt lat="43.75793" lon="7.25031">
        <ele>428.8</ele>
        <time>2012-04-19T12:10:42Z</time>
      </trkpt>
      <trkpt lat="43.75788" lon="7.25036">
        <ele>428.3</ele>
        <time>2012-04-19T12:10:44Z</time>
      </trkpt>
      <trkpt lat="43.75781" lon="7.2504">
        <ele>427.4</ele>
        <time>2012-04-19T12:10:46Z</time>
      </trkpt>
      <trkpt lat="43.75774" lon="7.25045">
        <ele>427.6</ele>
        <time>2012-04-19T12:10:49Z</time>
      </trkpt>
      <trkpt lat="43.75768" lon="7.25047">
        <ele>426.9</ele>
        <time>2012-04-19T12:10:51Z</time>
      </trkpt>
      <trkpt lat="43.75762" lon="7.25057">
        <ele>426.9</ele>
        <time>2012-04-19T12:10:54Z</time>
      </trkpt>
      <trkpt lat="43.75756" lon="7.2506">
        <ele>426.8</ele>
        <time>2012-04-19T12:10:56Z</time>
      </trkpt>
      <trkpt lat="43.7575" lon="7.25066">
        <ele>426.1</ele>
        <time>2012-04-19T12:10:58Z</time>
      </trkpt>
      <trkpt lat="43.75744" lon="7.25071">
        <ele>426</ele>
        <time>2012-04-19T12:11:00Z</time>
      </trkpt>
      <trkpt lat="43.75737" lon="7.25077">
        <ele>425.9</ele>
        <time>2012-04-19T12:11:02Z</time>
      </trkpt>
      <trkpt lat="43.75731" lon="7.25081">
        <ele>425.8</ele>
        <time>2012-04-19T12:11:04Z</time>
      </trkpt>
      <trkpt lat="43.75726" lon="7.25085">
        <ele>425.8</ele>
        <time>2012-04-19T12:11:06Z</time>
      </trkpt>
      <trkpt lat="43.75724" lon="7.25088">
        <ele>426.1</ele>
        <time>2012-04-19T12:11:07Z</time>
      </trkpt>
      <trkpt lat="43.75715" lon="7.25096">
        <ele>426.4</ele>
        <time>2012-04-19T12:11:10Z</time>
      </trkpt>
      <trkpt lat="43.75709" lon="7.25103">
        <ele>427.3</ele>
        <time>2012-04-19T12:11:13Z</time>
      </trkpt>
      <trkpt lat="43.75702" lon="7.2511">
        <ele>427.5</ele>
        <time>2012-04-19T12:11:16Z</time>
      </trkpt>
      <trkpt lat="43.75695" lon="7.25115">
        <ele>427.8</ele>
        <time>2012-04-19T12:11:19Z</time>
      </trkpt>
      <trkpt lat="43.75689" lon="7.2512">
        <ele>428.5</ele>
        <time>2012-04-19T12:11:22Z</time>
      </trkpt>
      <trkpt lat="43.75683" lon="7.25128">
        <ele>428.7</ele>
        <time>2012-04-19T12:11:26Z</time>
      </trkpt>
      <trkpt lat="43.75677" lon="7.25135">
        <ele>429.6</ele>
        <time>2012-04-19T12:11:30Z</time>
      </trkpt>
      <trkpt lat="43.7567" lon="7.25142">
        <ele>430.2</ele>
        <time>2012-04-19T12:11:34Z</time>
      </trkpt>
      <trkpt lat="43.75663" lon="7.25146">
        <ele>431.7</ele>
        <time>2012-04-19T12:11:37Z</time>
      </trkpt>
      <trkpt lat="43.75657" lon="7.25151">
        <ele>431.9</ele>
        <time>2012-04-19T12:11:40Z</time>
      </trkpt>
      <trkpt lat="43.75649" lon="7.25156">
        <ele>432.7</ele>
        <time>2012-04-19T12:11:46Z</time>
      </trkpt>
      <trkpt lat="43.75642" lon="7.25159">
        <ele>432.8</ele>
        <time>2012-04-19T12:11:51Z</time>
      </trkpt>
      <trkpt lat="43.75635" lon="7.2516">
        <ele>432.8</ele>
        <time>2012-04-19T12:11:54Z</time>
      </trkpt>
      <trkpt lat="43.75626" lon="7.25162">
        <ele>432.5</ele>
        <time>2012-04-19T12:11:57Z</time>
      </trkpt>
      <trkpt lat="43.75619" lon="7.25165">
        <ele>432.5</ele>
        <time>2012-04-19T12:12:00Z</time>
      </trkpt>
      <trkpt lat="43.75612" lon="7.25172">
        <ele>431.4</ele>
        <time>2012-04-19T12:12:04Z</time>
      </trkpt>
      <trkpt lat="43.75605" lon="7.25178">
        <ele>430.9</ele>
        <time>2012-04-19T12:12:08Z</time>
      </trkpt>
      <trkpt lat="43.75603" lon="7.2518">
        <ele>430.6</ele>
        <time>2012-04-19T12:12:09Z</time>
      </trkpt>
      <trkpt lat="43.7559" lon="7.25184">
        <ele>429.4</ele>
        <time>2012-04-19T12:12:14Z</time>
      </trkpt>
      <trkpt lat="43.75583" lon="7.25187">
        <ele>429.2</ele>
        <time>2012-04-19T12:12:17Z</time>
      </trkpt>
      <trkpt lat="43.75576" lon="7.25189">
        <ele>429.2</ele>
        <time>2012-04-19T12:12:20Z</time>
      </trkpt>
      <trkpt lat="43.75568" lon="7.25193">
        <ele>429.2</ele>
        <time>2012-04-19T12:12:23Z</time>
      </trkpt>
      <trkpt lat="43.7556" lon="7.25195">
        <ele>428.6</ele>
        <time>2012-04-19T12:12:26Z</time>
      </trkpt>
      <trkpt lat="43.75555" lon="7.25187">
        <ele>428</ele>
        <time>2012-04-19T12:12:29Z</time>
      </trkpt>
      <trkpt lat="43.75547" lon="7.25184">
        <ele>427.6</ele>
        <time>2012-04-19T12:12:32Z</time>
      </trkpt>
      <trkpt lat="43.7554" lon="7.25184">
        <ele>427.2</ele>
        <time>2012-04-19T12:12:35Z</time>
      </trkpt>
      <trkpt lat="43.75531" lon="7.25182">
        <ele>426</ele>
        <time>2012-04-19T12:12:38Z</time>
      </trkpt>
      <trkpt lat="43.75524" lon="7.25177">
        <ele>425.7</ele>
        <time>2012-04-19T12:12:42Z</time>
      </trkpt>
      <trkpt lat="43.75516" lon="7.25181">
        <ele>425.5</ele>
        <time>2012-04-19T12:12:47Z</time>
      </trkpt>
      <trkpt lat="43.75508" lon="7.25187">
        <ele>426.3</ele>
        <time>2012-04-19T12:12:52Z</time>
      </trkpt>
      <trkpt lat="43.75501" lon="7.25192">
        <ele>426.6</ele>
        <time>2012-04-19T12:12:56Z</time>
      </trkpt>
      <trkpt lat="43.75494" lon="7.25195">
        <ele>427.5</ele>
        <time>2012-04-19T12:12:59Z</time>
      </trkpt>
      <trkpt lat="43.75486" lon="7.25196">
        <ele>428.1</ele>
        <time>2012-04-19T12:13:03Z</time>
      </trkpt>
      <trkpt lat="43.7548" lon="7.252">
        <ele>428.4</ele>
        <time>2012-04-19T12:13:07Z</time>
      </trkpt>
      <trkpt lat="43.75474" lon="7.25209">
        <ele>428.4</ele>
        <time>2012-04-19T12:13:11Z</time>
      </trkpt>
      <trkpt lat="43.75473" lon="7.25211">
        <ele>428.3</ele>
        <time>2012-04-19T12:13:12Z</time>
      </trkpt>
      <trkpt lat="43.75465" lon="7.25225">
        <ele>428.9</ele>
        <time>2012-04-19T12:13:17Z</time>
      </trkpt>
      <trkpt lat="43.7546" lon="7.25233">
        <ele>429.1</ele>
        <time>2012-04-19T12:13:20Z</time>
      </trkpt>
      <trkpt lat="43.75451" lon="7.25234">
        <ele>429.3</ele>
        <time>2012-04-19T12:13:23Z</time>
      </trkpt>
      <trkpt lat="43.75445" lon="7.25233">
        <ele>429.3</ele>
        <time>2012-04-19T12:13:25Z</time>
      </trkpt>
      <trkpt lat="43.75436" lon="7.25233">
        <ele>429</ele>
        <time>2012-04-19T12:13:28Z</time>
      </trkpt>
      <trkpt lat="43.7543" lon="7.25236">
        <ele>429.2</ele>
        <time>2012-04-19T12:13:30Z</time>
      </trkpt>
      <trkpt lat="43.75423" lon="7.25239">
        <ele>429.3</ele>
        <time>2012-04-19T12:13:32Z</time>
      </trkpt>
      <trkpt lat="43.75417" lon="7.25243">
        <ele>429</ele>
        <time>2012-04-19T12:13:34Z</time>
      </trkpt>
      <trkpt lat="43.75411" lon="7.25247">
        <ele>429</ele>
        <time>2012-04-19T12:13:36Z</time>
      </trkpt>
      <trkpt lat="43.75406" lon="7.25251">
        <ele>429.4</ele>
        <time>2012-04-19T12:13:38Z</time>
      </trkpt>
      <trkpt lat="43.75401" lon="7.25257">
        <ele>429.4</ele>
        <time>2012-04-19T12:13:40Z</time>
      </trkpt>
      <trkpt lat="43.75395" lon="7.25262">
        <ele>429.1</ele>
        <time>2012-04-19T12:13:42Z</time>
      </trkpt>
      <trkpt lat="43.75389" lon="7.25269">
        <ele>428.7</ele>
        <time>2012-04-19T12:13:44Z</time>
      </trkpt>
      <trkpt lat="43.75385" lon="7.25276">
        <ele>428.3</ele>
        <time>2012-04-19T12:13:46Z</time>
      </trkpt>
      <trkpt lat="43.7538" lon="7.25287">
        <ele>428.5</ele>
        <time>2012-04-19T12:13:49Z</time>
      </trkpt>
      <trkpt lat="43.75375" lon="7.25296">
        <ele>428.6</ele>
        <time>2012-04-19T12:13:52Z</time>
      </trkpt>
      <trkpt lat="43.75369" lon="7.25301">
        <ele>428.4</ele>
        <time>2012-04-19T12:13:54Z</time>
      </trkpt>
      <trkpt lat="43.75362" lon="7.25303">
        <ele>428.7</ele>
        <time>2012-04-19T12:13:56Z</time>
      </trkpt>
      <trkpt lat="43.75355" lon="7.25307">
        <ele>428.5</ele>
        <time>2012-04-19T12:13:58Z</time>
      </trkpt>
      <trkpt lat="43.75347" lon="7.25307">
        <ele>428.4</ele>
        <time>2012-04-19T12:14:00Z</time>
      </trkpt>
      <trkpt lat="43.75339" lon="7.25306">
        <ele>428.6</ele>
        <time>2012-04-19T12:14:02Z</time>
      </trkpt>
      <trkpt lat="43.75331" lon="7.25309">
        <ele>428.7</ele>
        <time>2012-04-19T12:14:04Z</time>
      </trkpt>
      <trkpt lat="43.75323" lon="7.25312">
        <ele>428.4</ele>
        <time>2012-04-19T12:14:06Z</time>
      </trkpt>
      <trkpt lat="43.75318" lon="7.25314">
        <ele>427.7</ele>
        <time>2012-04-19T12:14:07Z</time>
      </trkpt>
      <trkpt lat="43.7531" lon="7.25315">
        <ele>426.9</ele>
        <time>2012-04-19T12:14:09Z</time>
      </trkpt>
      <trkpt lat="43.75301" lon="7.25312">
        <ele>426.6</ele>
        <time>2012-04-19T12:14:11Z</time>
      </trkpt>
      <trkpt lat="43.75297" lon="7.2531">
        <ele>426.2</ele>
        <time>2012-04-19T12:14:12Z</time>
      </trkpt>
      <trkpt lat="43.75292" lon="7.2531">
        <ele>425.8</ele>
        <time>2012-04-19T12:14:13Z</time>
      </trkpt>
      <trkpt lat="43.75287" lon="7.25309">
        <ele>426</ele>
        <time>2012-04-19T12:14:14Z</time>
      </trkpt>
      <trkpt lat="43.75282" lon="7.25308">
        <ele>426.1</ele>
        <time>2012-04-19T12:14:15Z</time>
      </trkpt>
      <trkpt lat="43.75276" lon="7.25307">
        <ele>426.2</ele>
        <time>2012-04-19T12:14:16Z</time>
      </trkpt>
      <trkpt lat="43.75271" lon="7.25305">
        <ele>425.8</ele>
        <time>2012-04-19T12:14:17Z</time>
      </trkpt>
      <trkpt lat="43.75266" lon="7.25305">
        <ele>425.5</ele>
        <time>2012-04-19T12:14:18Z</time>
      </trkpt>
      <trkpt lat="43.75261" lon="7.25304">
        <ele>425</ele>
        <time>2012-04-19T12:14:19Z</time>
      </trkpt>
      <trkpt lat="43.75252" lon="7.25301">
        <ele>424</ele>
        <time>2012-04-19T12:14:21Z</time>
      </trkpt>
      <trkpt lat="43.75244" lon="7.25302">
        <ele>420.9</ele>
        <time>2012-04-19T12:14:36Z</time>
      </trkpt>
      <trkpt lat="43.75237" lon="7.25304">
        <ele>420.6</ele>
        <time>2012-04-19T12:14:39Z</time>
      </trkpt>
      <trkpt lat="43.75231" lon="7.25307">
        <ele>420.3</ele>
        <time>2012-04-19T12:14:41Z</time>
      </trkpt>
      <trkpt lat="43.75222" lon="7.25306">
        <ele>419.8</ele>
        <time>2012-04-19T12:14:43Z</time>
      </trkpt>
      <trkpt lat="43.75215" lon="7.25306">
        <ele>419.1</ele>
        <time>2012-04-19T12:14:45Z</time>
      </trkpt>
      <trkpt lat="43.7521" lon="7.2531">
        <ele>418.3</ele>
        <time>2012-04-19T12:14:47Z</time>
      </trkpt>
      <trkpt lat="43.75204" lon="7.25313">
        <ele>417.6</ele>
        <time>2012-04-19T12:14:49Z</time>
      </trkpt>
      <trkpt lat="43.75201" lon="7.25321">
        <ele>417.7</ele>
        <time>2012-04-19T12:14:51Z</time>
      </trkpt>
      <trkpt lat="43.75201" lon="7.25331">
        <ele>416.7</ele>
        <time>2012-04-19T12:14:53Z</time>
      </trkpt>
      <trkpt lat="43.75195" lon="7.25337">
        <ele>416.9</ele>
        <time>2012-04-19T12:14:56Z</time>
      </trkpt>
      <trkpt lat="43.75188" lon="7.25335">
        <ele>416.7</ele>
        <time>2012-04-19T12:14:59Z</time>
      </trkpt>
      <trkpt lat="43.75181" lon="7.25336">
        <ele>416.1</ele>
        <time>2012-04-19T12:15:02Z</time>
      </trkpt>
      <trkpt lat="43.75173" lon="7.25336">
        <ele>415.8</ele>
        <time>2012-04-19T12:15:05Z</time>
      </trkpt>
      <trkpt lat="43.75165" lon="7.25334">
        <ele>414.7</ele>
        <time>2012-04-19T12:15:09Z</time>
      </trkpt>
      <trkpt lat="43.75159" lon="7.25331">
        <ele>414.1</ele>
        <time>2012-04-19T12:15:11Z</time>
      </trkpt>
      <trkpt lat="43.75153" lon="7.2533">
        <ele>413.6</ele>
        <time>2012-04-19T12:15:13Z</time>
      </trkpt>
      <trkpt lat="43.75146" lon="7.25333">
        <ele>413.6</ele>
        <time>2012-04-19T12:15:15Z</time>
      </trkpt>
      <trkpt lat="43.75143" lon="7.25338">
        <ele>412.5</ele>
        <time>2012-04-19T12:15:16Z</time>
      </trkpt>
      <trkpt lat="43.75138" lon="7.25351">
        <ele>410.1</ele>
        <time>2012-04-19T12:15:19Z</time>
      </trkpt>
      <trkpt lat="43.75135" lon="7.25361">
        <ele>409.7</ele>
        <time>2012-04-19T12:15:22Z</time>
      </trkpt>
      <trkpt lat="43.75132" lon="7.25372">
        <ele>408.7</ele>
        <time>2012-04-19T12:15:24Z</time>
      </trkpt>
      <trkpt lat="43.75129" lon="7.25377">
        <ele>407.5</ele>
        <time>2012-04-19T12:15:25Z</time>
      </trkpt>
      <trkpt lat="43.75125" lon="7.25382">
        <ele>406.6</ele>
        <time>2012-04-19T12:15:26Z</time>
      </trkpt>
      <trkpt lat="43.75122" lon="7.25388">
        <ele>405.9</ele>
        <time>2012-04-19T12:15:27Z</time>
      </trkpt>
      <trkpt lat="43.7512" lon="7.25394">
        <ele>405.4</ele>
        <time>2012-04-19T12:15:28Z</time>
      </trkpt>
      <trkpt lat="43.75114" lon="7.25403">
        <ele>404.3</ele>
        <time>2012-04-19T12:15:30Z</time>
      </trkpt>
      <trkpt lat="43.7511" lon="7.25407">
        <ele>403.8</ele>
        <time>2012-04-19T12:15:31Z</time>
      </trkpt>
      <trkpt lat="43.75105" lon="7.25415">
        <ele>402.4</ele>
        <time>2012-04-19T12:15:34Z</time>
      </trkpt>
      <trkpt lat="43.75097" lon="7.25419">
        <ele>400.9</ele>
        <time>2012-04-19T12:15:38Z</time>
      </trkpt>
      <trkpt lat="43.75091" lon="7.25424">
        <ele>400.4</ele>
        <time>2012-04-19T12:15:40Z</time>
      </trkpt>
      <trkpt lat="43.75084" lon="7.2543">
        <ele>399.9</ele>
        <time>2012-04-19T12:15:42Z</time>
      </trkpt>
      <trkpt lat="43.75079" lon="7.25437">
        <ele>398.7</ele>
        <time>2012-04-19T12:15:44Z</time>
      </trkpt>
      <trkpt lat="43.75072" lon="7.25441">
        <ele>396.8</ele>
        <time>2012-04-19T12:15:48Z</time>
      </trkpt>
      <trkpt lat="43.75064" lon="7.25441">
        <ele>394.8</ele>
        <time>2012-04-19T12:15:52Z</time>
      </trkpt>
      <trkpt lat="43.75056" lon="7.25438">
        <ele>394.1</ele>
        <time>2012-04-19T12:15:55Z</time>
      </trkpt>
      <trkpt lat="43.75048" lon="7.25442">
        <ele>392.7</ele>
        <time>2012-04-19T12:16:03Z</time>
      </trkpt>
      <trkpt lat="43.75041" lon="7.25445">
        <ele>391.2</ele>
        <time>2012-04-19T12:16:11Z</time>
      </trkpt>
      <trkpt lat="43.75033" lon="7.25447">
        <ele>391</ele>
        <time>2012-04-19T12:16:19Z</time>
      </trkpt>
      <trkpt lat="43.75031" lon="7.25447">
        <ele>391</ele>
        <time>2012-04-19T12:16:20Z</time>
      </trkpt>
      <trkpt lat="43.75016" lon="7.2545">
        <ele>389.2</ele>
        <time>2012-04-19T12:16:32Z</time>
      </trkpt>
      <trkpt lat="43.75007" lon="7.2545">
        <ele>389</ele>
        <time>2012-04-19T12:16:36Z</time>
      </trkpt>
      <trkpt lat="43.75001" lon="7.25446">
        <ele>388.3</ele>
        <time>2012-04-19T12:16:39Z</time>
      </trkpt>
      <trkpt lat="43.74993" lon="7.25445">
        <ele>387.1</ele>
        <time>2012-04-19T12:16:42Z</time>
      </trkpt>
      <trkpt lat="43.74987" lon="7.25445">
        <ele>386.7</ele>
        <time>2012-04-19T12:16:44Z</time>
      </trkpt>
      <trkpt lat="43.7498" lon="7.25446">
        <ele>386.5</ele>
        <time>2012-04-19T12:16:46Z</time>
      </trkpt>
      <trkpt lat="43.74971" lon="7.25447">
        <ele>386.2</ele>
        <time>2012-04-19T12:16:48Z</time>
      </trkpt>
      <trkpt lat="43.74967" lon="7.25448">
        <ele>386.5</ele>
        <time>2012-04-19T12:16:49Z</time>
      </trkpt>
      <trkpt lat="43.74962" lon="7.25447">
        <ele>386.7</ele>
        <time>2012-04-19T12:16:50Z</time>
      </trkpt>
      <trkpt lat="43.74956" lon="7.25446">
        <ele>386.7</ele>
        <time>2012-04-19T12:16:51Z</time>
      </trkpt>
      <trkpt lat="43.74951" lon="7.25444">
        <ele>386.7</ele>
        <time>2012-04-19T12:16:52Z</time>
      </trkpt>
      <trkpt lat="43.74945" lon="7.25443">
        <ele>386.1</ele>
        <time>2012-04-19T12:16:53Z</time>
      </trkpt>
      <trkpt lat="43.7494" lon="7.25441">
        <ele>385.6</ele>
        <time>2012-04-19T12:16:54Z</time>
      </trkpt>
      <trkpt lat="43.74934" lon="7.2544">
        <ele>385.3</ele>
        <time>2012-04-19T12:16:55Z</time>
      </trkpt>
      <trkpt lat="43.74929" lon="7.25441">
        <ele>384.5</ele>
        <time>2012-04-19T12:16:56Z</time>
      </trkpt>
      <trkpt lat="43.74923" lon="7.25442">
        <ele>384</ele>
        <time>2012-04-19T12:16:57Z</time>
      </trkpt>
      <trkpt lat="43.74918" lon="7.25441">
        <ele>383.5</ele>
        <time>2012-04-19T12:16:58Z</time>
      </trkpt>
      <trkpt lat="43.74912" lon="7.2544">
        <ele>383.2</ele>
        <time>2012-04-19T12:16:59Z</time>
      </trkpt>
      <trkpt lat="43.74907" lon="7.25439">
        <ele>382.7</ele>
        <time>2012-04-19T12:17:00Z</time>
      </trkpt>
      <trkpt lat="43.749" lon="7.25438">
        <ele>382.4</ele>
        <time>2012-04-19T12:17:01Z</time>
      </trkpt>
      <trkpt lat="43.74895" lon="7.25437">
        <ele>382.1</ele>
        <time>2012-04-19T12:17:02Z</time>
      </trkpt>
      <trkpt lat="43.74889" lon="7.25436">
        <ele>381.8</ele>
        <time>2012-04-19T12:17:03Z</time>
      </trkpt>
      <trkpt lat="43.74884" lon="7.25434">
        <ele>381.6</ele>
        <time>2012-04-19T12:17:04Z</time>
      </trkpt>
      <trkpt lat="43.74878" lon="7.25431">
        <ele>381.2</ele>
        <time>2012-04-19T12:17:05Z</time>
      </trkpt>
      <trkpt lat="43.74873" lon="7.25429">
        <ele>380.8</ele>
        <time>2012-04-19T12:17:06Z</time>
      </trkpt>
      <trkpt lat="43.74867" lon="7.25427">
        <ele>380.6</ele>
        <time>2012-04-19T12:17:07Z</time>
      </trkpt>
      <trkpt lat="43.74863" lon="7.25425">
        <ele>380.1</ele>
        <time>2012-04-19T12:17:08Z</time>
      </trkpt>
      <trkpt lat="43.74858" lon="7.25423">
        <ele>379.7</ele>
        <time>2012-04-19T12:17:09Z</time>
      </trkpt>
      <trkpt lat="43.74851" lon="7.2542">
        <ele>379.2</ele>
        <time>2012-04-19T12:17:11Z</time>
      </trkpt>
      <trkpt lat="43.74847" lon="7.25418">
        <ele>378.5</ele>
        <time>2012-04-19T12:17:12Z</time>
      </trkpt>
      <trkpt lat="43.74842" lon="7.25415">
        <ele>378.1</ele>
        <time>2012-04-19T12:17:13Z</time>
      </trkpt>
      <trkpt lat="43.74837" lon="7.25412">
        <ele>377.7</ele>
        <time>2012-04-19T12:17:14Z</time>
      </trkpt>
      <trkpt lat="43.74832" lon="7.25408">
        <ele>377.7</ele>
        <time>2012-04-19T12:17:15Z</time>
      </trkpt>
      <trkpt lat="43.74827" lon="7.25405">
        <ele>377.7</ele>
        <time>2012-04-19T12:17:16Z</time>
      </trkpt>
      <trkpt lat="43.74822" lon="7.25401">
        <ele>377.2</ele>
        <time>2012-04-19T12:17:17Z</time>
      </trkpt>
      <trkpt lat="43.74814" lon="7.25397">
        <ele>376.4</ele>
        <time>2012-04-19T12:17:19Z</time>
      </trkpt>
      <trkpt lat="43.74806" lon="7.25392">
        <ele>375.2</ele>
        <time>2012-04-19T12:17:23Z</time>
      </trkpt>
      <trkpt lat="43.74805" lon="7.25391">
        <ele>374.8</ele>
        <time>2012-04-19T12:17:24Z</time>
      </trkpt>
      <trkpt lat="43.74791" lon="7.25384">
        <ele>373.2</ele>
        <time>2012-04-19T12:17:34Z</time>
      </trkpt>
      <trkpt lat="43.74785" lon="7.25379">
        <ele>372.7</ele>
        <time>2012-04-19T12:17:37Z</time>
      </trkpt>
      <trkpt lat="43.74779" lon="7.25375">
        <ele>371.7</ele>
        <time>2012-04-19T12:17:39Z</time>
      </trkpt>
      <trkpt lat="43.74775" lon="7.25374">
        <ele>371.4</ele>
        <time>2012-04-19T12:17:40Z</time>
      </trkpt>
      <trkpt lat="43.7477" lon="7.25374">
        <ele>371.1</ele>
        <time>2012-04-19T12:17:41Z</time>
      </trkpt>
      <trkpt lat="43.74764" lon="7.25373">
        <ele>370.8</ele>
        <time>2012-04-19T12:17:42Z</time>
      </trkpt>
      <trkpt lat="43.74758" lon="7.25374">
        <ele>370.5</ele>
        <time>2012-04-19T12:17:43Z</time>
      </trkpt>
      <trkpt lat="43.74753" lon="7.25374">
        <ele>370.2</ele>
        <time>2012-04-19T12:17:44Z</time>
      </trkpt>
      <trkpt lat="43.74748" lon="7.25374">
        <ele>370.1</ele>
        <time>2012-04-19T12:17:45Z</time>
      </trkpt>
      <trkpt lat="43.74743" lon="7.25374">
        <ele>369.6</ele>
        <time>2012-04-19T12:17:46Z</time>
      </trkpt>
      <trkpt lat="43.74737" lon="7.25376">
        <ele>369.3</ele>
        <time>2012-04-19T12:17:47Z</time>
      </trkpt>
      <trkpt lat="43.74731" lon="7.25378">
        <ele>368.8</ele>
        <time>2012-04-19T12:17:48Z</time>
      </trkpt>
      <trkpt lat="43.74726" lon="7.2538">
        <ele>368.4</ele>
        <time>2012-04-19T12:17:49Z</time>
      </trkpt>
      <trkpt lat="43.7472" lon="7.2538">
        <ele>367.3</ele>
        <time>2012-04-19T12:17:50Z</time>
      </trkpt>
      <trkpt lat="43.74713" lon="7.25379">
        <ele>366.5</ele>
        <time>2012-04-19T12:17:51Z</time>
      </trkpt>
      <trkpt lat="43.74707" lon="7.25376">
        <ele>365.9</ele>
        <time>2012-04-19T12:17:52Z</time>
      </trkpt>
      <trkpt lat="43.747" lon="7.25375">
        <ele>365.5</ele>
        <time>2012-04-19T12:17:53Z</time>
      </trkpt>
      <trkpt lat="43.74694" lon="7.25372">
        <ele>365.2</ele>
        <time>2012-04-19T12:17:54Z</time>
      </trkpt>
      <trkpt lat="43.74688" lon="7.25367">
        <ele>364.4</ele>
        <time>2012-04-19T12:17:55Z</time>
      </trkpt>
      <trkpt lat="43.74681" lon="7.25363">
        <ele>363.8</ele>
        <time>2012-04-19T12:17:56Z</time>
      </trkpt>
      <trkpt lat="43.74675" lon="7.25356">
        <ele>363.1</ele>
        <time>2012-04-19T12:17:57Z</time>
      </trkpt>
      <trkpt lat="43.7467" lon="7.25349">
        <ele>362.5</ele>
        <time>2012-04-19T12:17:58Z</time>
      </trkpt>
      <trkpt lat="43.74665" lon="7.25341">
        <ele>362.1</ele>
        <time>2012-04-19T12:17:59Z</time>
      </trkpt>
      <trkpt lat="43.7466" lon="7.25334">
        <ele>361.6</ele>
        <time>2012-04-19T12:18:00Z</time>
      </trkpt>
      <trkpt lat="43.74656" lon="7.25325">
        <ele>361.2</ele>
        <time>2012-04-19T12:18:01Z</time>
      </trkpt>
      <trkpt lat="43.74654" lon="7.25316">
        <ele>360.4</ele>
        <time>2012-04-19T12:18:02Z</time>
      </trkpt>
      <trkpt lat="43.74652" lon="7.25309">
        <ele>359.8</ele>
        <time>2012-04-19T12:18:03Z</time>
      </trkpt>
      <trkpt lat="43.74646" lon="7.25301">
        <ele>358.8</ele>
        <time>2012-04-19T12:18:05Z</time>
      </trkpt>
      <trkpt lat="43.74638" lon="7.25296">
        <ele>357.5</ele>
        <time>2012-04-19T12:18:07Z</time>
      </trkpt>
      <trkpt lat="43.74633" lon="7.25287">
        <ele>354.7</ele>
        <time>2012-04-19T12:18:10Z</time>
      </trkpt>
      <trkpt lat="43.74633" lon="7.25276">
        <ele>352.9</ele>
        <time>2012-04-19T12:18:12Z</time>
      </trkpt>
      <trkpt lat="43.74635" lon="7.25269">
        <ele>352.1</ele>
        <time>2012-04-19T12:18:13Z</time>
      </trkpt>
      <trkpt lat="43.7464" lon="7.25258">
        <ele>351.1</ele>
        <time>2012-04-19T12:18:15Z</time>
      </trkpt>
      <trkpt lat="43.7464" lon="7.25251">
        <ele>351.4</ele>
        <time>2012-04-19T12:18:17Z</time>
      </trkpt>
      <trkpt lat="43.7464" lon="7.25241">
        <ele>351.5</ele>
        <time>2012-04-19T12:18:19Z</time>
      </trkpt>
      <trkpt lat="43.74634" lon="7.25234">
        <ele>350.5</ele>
        <time>2012-04-19T12:18:22Z</time>
      </trkpt>
      <trkpt lat="43.74628" lon="7.25241">
        <ele>348.6</ele>
        <time>2012-04-19T12:18:25Z</time>
      </trkpt>
      <trkpt lat="43.74625" lon="7.25242">
        <ele>347.3</ele>
        <time>2012-04-19T12:18:26Z</time>
      </trkpt>
      <trkpt lat="43.74615" lon="7.2523">
        <ele>338.2</ele>
        <time>2012-04-19T12:18:41Z</time>
      </trkpt>
      <trkpt lat="43.74613" lon="7.25221">
        <ele>337.8</ele>
        <time>2012-04-19T12:18:44Z</time>
      </trkpt>
      <trkpt lat="43.74608" lon="7.25211">
        <ele>338.1</ele>
        <time>2012-04-19T12:18:46Z</time>
      </trkpt>
      <trkpt lat="43.74604" lon="7.25202">
        <ele>338</ele>
        <time>2012-04-19T12:18:48Z</time>
      </trkpt>
      <trkpt lat="43.74601" lon="7.25196">
        <ele>338</ele>
        <time>2012-04-19T12:18:49Z</time>
      </trkpt>
      <trkpt lat="43.74597" lon="7.25188">
        <ele>337.6</ele>
        <time>2012-04-19T12:18:50Z</time>
      </trkpt>
      <trkpt lat="43.74594" lon="7.25181">
        <ele>337.4</ele>
        <time>2012-04-19T12:18:51Z</time>
      </trkpt>
      <trkpt lat="43.74591" lon="7.25171">
        <ele>335.6</ele>
        <time>2012-04-19T12:18:53Z</time>
      </trkpt>
      <trkpt lat="43.7459" lon="7.25159">
        <ele>331.6</ele>
        <time>2012-04-19T12:18:58Z</time>
      </trkpt>
      <trkpt lat="43.74588" lon="7.25148">
        <ele>328.9</ele>
        <time>2012-04-19T12:19:10Z</time>
      </trkpt>
      <trkpt lat="43.74592" lon="7.25138">
        <ele>328.5</ele>
        <time>2012-04-19T12:19:25Z</time>
      </trkpt>
      <trkpt lat="43.74601" lon="7.25136">
        <ele>328.7</ele>
        <time>2012-04-19T12:19:36Z</time>
      </trkpt>
      <trkpt lat="43.74601" lon="7.25136">
        <ele>328.6</ele>
        <time>2012-04-19T12:19:37Z</time>
      </trkpt>
      <trkpt lat="43.74606" lon="7.25147">
        <ele>330.2</ele>
        <time>2012-04-19T12:21:31Z</time>
      </trkpt>
      <trkpt lat="43.74617" lon="7.25136">
        <ele>331.4</ele>
        <time>2012-04-19T12:21:37Z</time>
      </trkpt>
      <trkpt lat="43.74619" lon="7.25126">
        <ele>332</ele>
        <time>2012-04-19T12:21:40Z</time>
      </trkpt>
      <trkpt lat="43.74618" lon="7.25115">
        <ele>331.7</ele>
        <time>2012-04-19T12:21:43Z</time>
      </trkpt>
      <trkpt lat="43.74617" lon="7.25106">
        <ele>331.9</ele>
        <time>2012-04-19T12:21:45Z</time>
      </trkpt>
      <trkpt lat="43.74616" lon="7.25098">
        <ele>332</ele>
        <time>2012-04-19T12:21:47Z</time>
      </trkpt>
      <trkpt lat="43.74615" lon="7.25089">
        <ele>332.1</ele>
        <time>2012-04-19T12:21:49Z</time>
      </trkpt>
      <trkpt lat="43.74615" lon="7.25079">
        <ele>331.8</ele>
        <time>2012-04-19T12:21:51Z</time>
      </trkpt>
      <trkpt lat="43.74615" lon="7.25069">
        <ele>331.9</ele>
        <time>2012-04-19T12:21:53Z</time>
      </trkpt>
      <trkpt lat="43.74615" lon="7.25059">
        <ele>332</ele>
        <time>2012-04-19T12:21:55Z</time>
      </trkpt>
      <trkpt lat="43.74616" lon="7.25049">
        <ele>332.2</ele>
        <time>2012-04-19T12:21:57Z</time>
      </trkpt>
      <trkpt lat="43.74617" lon="7.25039">
        <ele>332.4</ele>
        <time>2012-04-19T12:21:59Z</time>
      </trkpt>
      <trkpt lat="43.74619" lon="7.2503">
        <ele>332.7</ele>
        <time>2012-04-19T12:22:01Z</time>
      </trkpt>
      <trkpt lat="43.74622" lon="7.25021">
        <ele>332.9</ele>
        <time>2012-04-19T12:22:03Z</time>
      </trkpt>
      <trkpt lat="43.74625" lon="7.25013">
        <ele>332.9</ele>
        <time>2012-04-19T12:22:05Z</time>
      </trkpt>
      <trkpt lat="43.74627" lon="7.25003">
        <ele>333.1</ele>
        <time>2012-04-19T12:22:07Z</time>
      </trkpt>
      <trkpt lat="43.74629" lon="7.24993">
        <ele>332.8</ele>
        <time>2012-04-19T12:22:09Z</time>
      </trkpt>
      <trkpt lat="43.74632" lon="7.24983">
        <ele>332.6</ele>
        <time>2012-04-19T12:22:11Z</time>
      </trkpt>
      <trkpt lat="43.74636" lon="7.24974">
        <ele>332.6</ele>
        <time>2012-04-19T12:22:13Z</time>
      </trkpt>
      <trkpt lat="43.7464" lon="7.24964">
        <ele>333</ele>
        <time>2012-04-19T12:22:15Z</time>
      </trkpt>
      <trkpt lat="43.74643" lon="7.24955">
        <ele>333.9</ele>
        <time>2012-04-19T12:22:17Z</time>
      </trkpt>
      <trkpt lat="43.74646" lon="7.24945">
        <ele>334.3</ele>
        <time>2012-04-19T12:22:19Z</time>
      </trkpt>
      <trkpt lat="43.74649" lon="7.24935">
        <ele>334.3</ele>
        <time>2012-04-19T12:22:21Z</time>
      </trkpt>
      <trkpt lat="43.7465" lon="7.24925">
        <ele>334.3</ele>
        <time>2012-04-19T12:22:23Z</time>
      </trkpt>
      <trkpt lat="43.74652" lon="7.24913">
        <ele>334.2</ele>
        <time>2012-04-19T12:22:26Z</time>
      </trkpt>
      <trkpt lat="43.74652" lon="7.24904">
        <ele>334.4</ele>
        <time>2012-04-19T12:22:28Z</time>
      </trkpt>
      <trkpt lat="43.74653" lon="7.24894">
        <ele>334.5</ele>
        <time>2012-04-19T12:22:30Z</time>
      </trkpt>
      <trkpt lat="43.74653" lon="7.24883">
        <ele>334.4</ele>
        <time>2012-04-19T12:22:32Z</time>
      </trkpt>
      <trkpt lat="43.74653" lon="7.24876">
        <ele>334.1</ele>
        <time>2012-04-19T12:22:33Z</time>
      </trkpt>
      <trkpt lat="43.74656" lon="7.24859">
        <ele>334.3</ele>
        <time>2012-04-19T12:22:36Z</time>
      </trkpt>
      <trkpt lat="43.74659" lon="7.24847">
        <ele>335.2</ele>
        <time>2012-04-19T12:22:38Z</time>
      </trkpt>
      <trkpt lat="43.74662" lon="7.24836">
        <ele>335.5</ele>
        <time>2012-04-19T12:22:40Z</time>
      </trkpt>
      <trkpt lat="43.74667" lon="7.24826">
        <ele>335.9</ele>
        <time>2012-04-19T12:22:42Z</time>
      </trkpt>
      <trkpt lat="43.74673" lon="7.24817">
        <ele>336.3</ele>
        <time>2012-04-19T12:22:44Z</time>
      </trkpt>
      <trkpt lat="43.74677" lon="7.24813">
        <ele>336.5</ele>
        <time>2012-04-19T12:22:45Z</time>
      </trkpt>
      <trkpt lat="43.74681" lon="7.2481">
        <ele>336.7</ele>
        <time>2012-04-19T12:22:46Z</time>
      </trkpt>
      <trkpt lat="43.74685" lon="7.24807">
        <ele>336.6</ele>
        <time>2012-04-19T12:22:47Z</time>
      </trkpt>
      <trkpt lat="43.7469" lon="7.24805">
        <ele>336.6</ele>
        <time>2012-04-19T12:22:48Z</time>
      </trkpt>
      <trkpt lat="43.74698" lon="7.24801">
        <ele>337</ele>
        <time>2012-04-19T12:22:50Z</time>
      </trkpt>
      <trkpt lat="43.74706" lon="7.24798">
        <ele>337.1</ele>
        <time>2012-04-19T12:22:52Z</time>
      </trkpt>
      <trkpt lat="43.74713" lon="7.24795">
        <ele>336.7</ele>
        <time>2012-04-19T12:22:54Z</time>
      </trkpt>
      <trkpt lat="43.7472" lon="7.24792">
        <ele>336.5</ele>
        <time>2012-04-19T12:22:56Z</time>
      </trkpt>
      <trkpt lat="43.74728" lon="7.24789">
        <ele>336.6</ele>
        <time>2012-04-19T12:22:58Z</time>
      </trkpt>
      <trkpt lat="43.74735" lon="7.24786">
        <ele>337.3</ele>
        <time>2012-04-19T12:23:00Z</time>
      </trkpt>
      <trkpt lat="43.74743" lon="7.24782">
        <ele>337.3</ele>
        <time>2012-04-19T12:23:02Z</time>
      </trkpt>
      <trkpt lat="43.74751" lon="7.2478">
        <ele>337.1</ele>
        <time>2012-04-19T12:23:04Z</time>
      </trkpt>
      <trkpt lat="43.7476" lon="7.24777">
        <ele>337.2</ele>
        <time>2012-04-19T12:23:06Z</time>
      </trkpt>
      <trkpt lat="43.74767" lon="7.24775">
        <ele>337.7</ele>
        <time>2012-04-19T12:23:08Z</time>
      </trkpt>
      <trkpt lat="43.74776" lon="7.24772">
        <ele>338.1</ele>
        <time>2012-04-19T12:23:10Z</time>
      </trkpt>
      <trkpt lat="43.74784" lon="7.2477">
        <ele>338.3</ele>
        <time>2012-04-19T12:23:12Z</time>
      </trkpt>
      <trkpt lat="43.74793" lon="7.24767">
        <ele>338.1</ele>
        <time>2012-04-19T12:23:14Z</time>
      </trkpt>
      <trkpt lat="43.74801" lon="7.24765">
        <ele>338.7</ele>
        <time>2012-04-19T12:23:16Z</time>
      </trkpt>
      <trkpt lat="43.7481" lon="7.24763">
        <ele>339.3</ele>
        <time>2012-04-19T12:23:18Z</time>
      </trkpt>
      <trkpt lat="43.74814" lon="7.24761">
        <ele>339.5</ele>
        <time>2012-04-19T12:23:19Z</time>
      </trkpt>
      <trkpt lat="43.74823" lon="7.24759">
        <ele>339.5</ele>
        <time>2012-04-19T12:23:21Z</time>
      </trkpt>
      <trkpt lat="43.74832" lon="7.24757">
        <ele>339.4</ele>
        <time>2012-04-19T12:23:23Z</time>
      </trkpt>
      <trkpt lat="43.74841" lon="7.24756">
        <ele>339.5</ele>
        <time>2012-04-19T12:23:25Z</time>
      </trkpt>
      <trkpt lat="43.74845" lon="7.24755">
        <ele>339.7</ele>
        <time>2012-04-19T12:23:26Z</time>
      </trkpt>
      <trkpt lat="43.7485" lon="7.24754">
        <ele>339.7</ele>
        <time>2012-04-19T12:23:27Z</time>
      </trkpt>
      <trkpt lat="43.74854" lon="7.24753">
        <ele>339.7</ele>
        <time>2012-04-19T12:23:28Z</time>
      </trkpt>
      <trkpt lat="43.74859" lon="7.24753">
        <ele>339.8</ele>
        <time>2012-04-19T12:23:29Z</time>
      </trkpt>
      <trkpt lat="43.74863" lon="7.24752">
        <ele>339.7</ele>
        <time>2012-04-19T12:23:30Z</time>
      </trkpt>
      <trkpt lat="43.74868" lon="7.24752">
        <ele>339.7</ele>
        <time>2012-04-19T12:23:31Z</time>
      </trkpt>
      <trkpt lat="43.74872" lon="7.24751">
        <ele>339.7</ele>
        <time>2012-04-19T12:23:32Z</time>
      </trkpt>
      <trkpt lat="43.74877" lon="7.24751">
        <ele>339.7</ele>
        <time>2012-04-19T12:23:33Z</time>
      </trkpt>
      <trkpt lat="43.74882" lon="7.24751">
        <ele>340.2</ele>
        <time>2012-04-19T12:23:34Z</time>
      </trkpt>
      <trkpt lat="43.74886" lon="7.24751">
        <ele>340.5</ele>
        <time>2012-04-19T12:23:35Z</time>
      </trkpt>
      <trkpt lat="43.74891" lon="7.24751">
        <ele>340.7</ele>
        <time>2012-04-19T12:23:36Z</time>
      </trkpt>
      <trkpt lat="43.74899" lon="7.2475">
        <ele>340.5</ele>
        <time>2012-04-19T12:23:38Z</time>
      </trkpt>
      <trkpt lat="43.74908" lon="7.2475">
        <ele>340.1</ele>
        <time>2012-04-19T12:23:40Z</time>
      </trkpt>
      <trkpt lat="43.74917" lon="7.24752">
        <ele>340.4</ele>
        <time>2012-04-19T12:23:42Z</time>
      </trkpt>
      <trkpt lat="43.74925" lon="7.24754">
        <ele>340.9</ele>
        <time>2012-04-19T12:23:44Z</time>
      </trkpt>
      <trkpt lat="43.74933" lon="7.24756">
        <ele>341</ele>
        <time>2012-04-19T12:23:46Z</time>
      </trkpt>
      <trkpt lat="43.74941" lon="7.24758">
        <ele>340.8</ele>
        <time>2012-04-19T12:23:48Z</time>
      </trkpt>
      <trkpt lat="43.74949" lon="7.2476">
        <ele>341</ele>
        <time>2012-04-19T12:23:50Z</time>
      </trkpt>
      <trkpt lat="43.74958" lon="7.24761">
        <ele>340.7</ele>
        <time>2012-04-19T12:23:52Z</time>
      </trkpt>
      <trkpt lat="43.74966" lon="7.24758">
        <ele>340.6</ele>
        <time>2012-04-19T12:23:54Z</time>
      </trkpt>
      <trkpt lat="43.74974" lon="7.24753">
        <ele>340.8</ele>
        <time>2012-04-19T12:23:56Z</time>
      </trkpt>
      <trkpt lat="43.7498" lon="7.24744">
        <ele>341.1</ele>
        <time>2012-04-19T12:23:58Z</time>
      </trkpt>
      <trkpt lat="43.74985" lon="7.24734">
        <ele>341.2</ele>
        <time>2012-04-19T12:24:00Z</time>
      </trkpt>
      <trkpt lat="43.74991" lon="7.24726">
        <ele>341.1</ele>
        <time>2012-04-19T12:24:02Z</time>
      </trkpt>
      <trkpt lat="43.74999" lon="7.2472">
        <ele>341.2</ele>
        <time>2012-04-19T12:24:04Z</time>
      </trkpt>
      <trkpt lat="43.75003" lon="7.24718">
        <ele>341.4</ele>
        <time>2012-04-19T12:24:05Z</time>
      </trkpt>
      <trkpt lat="43.75007" lon="7.24716">
        <ele>341.5</ele>
        <time>2012-04-19T12:24:06Z</time>
      </trkpt>
      <trkpt lat="43.75012" lon="7.24714">
        <ele>341.6</ele>
        <time>2012-04-19T12:24:07Z</time>
      </trkpt>
      <trkpt lat="43.75016" lon="7.24712">
        <ele>341.6</ele>
        <time>2012-04-19T12:24:08Z</time>
      </trkpt>
      <trkpt lat="43.75025" lon="7.24709">
        <ele>341.4</ele>
        <time>2012-04-19T12:24:10Z</time>
      </trkpt>
      <trkpt lat="43.7503" lon="7.24708">
        <ele>341.3</ele>
        <time>2012-04-19T12:24:11Z</time>
      </trkpt>
      <trkpt lat="43.75034" lon="7.24706">
        <ele>341.4</ele>
        <time>2012-04-19T12:24:12Z</time>
      </trkpt>
      <trkpt lat="43.75043" lon="7.24703">
        <ele>341.6</ele>
        <time>2012-04-19T12:24:14Z</time>
      </trkpt>
      <trkpt lat="43.75047" lon="7.24702">
        <ele>341.9</ele>
        <time>2012-04-19T12:24:15Z</time>
      </trkpt>
      <trkpt lat="43.75052" lon="7.247">
        <ele>342.1</ele>
        <time>2012-04-19T12:24:16Z</time>
      </trkpt>
      <trkpt lat="43.7506" lon="7.24697">
        <ele>342.5</ele>
        <time>2012-04-19T12:24:18Z</time>
      </trkpt>
      <trkpt lat="43.75065" lon="7.24696">
        <ele>342.3</ele>
        <time>2012-04-19T12:24:19Z</time>
      </trkpt>
      <trkpt lat="43.75073" lon="7.24693">
        <ele>342</ele>
        <time>2012-04-19T12:24:21Z</time>
      </trkpt>
      <trkpt lat="43.75078" lon="7.24692">
        <ele>342.2</ele>
        <time>2012-04-19T12:24:22Z</time>
      </trkpt>
      <trkpt lat="43.75082" lon="7.24691">
        <ele>342.3</ele>
        <time>2012-04-19T12:24:23Z</time>
      </trkpt>
      <trkpt lat="43.75091" lon="7.24691">
        <ele>342.5</ele>
        <time>2012-04-19T12:24:25Z</time>
      </trkpt>
      <trkpt lat="43.751" lon="7.24694">
        <ele>342.7</ele>
        <time>2012-04-19T12:24:27Z</time>
      </trkpt>
      <trkpt lat="43.75107" lon="7.247">
        <ele>342.8</ele>
        <time>2012-04-19T12:24:29Z</time>
      </trkpt>
      <trkpt lat="43.75113" lon="7.24707">
        <ele>343.3</ele>
        <time>2012-04-19T12:24:31Z</time>
      </trkpt>
      <trkpt lat="43.75117" lon="7.24714">
        <ele>343.8</ele>
        <time>2012-04-19T12:24:33Z</time>
      </trkpt>
      <trkpt lat="43.75121" lon="7.24722">
        <ele>344.1</ele>
        <time>2012-04-19T12:24:35Z</time>
      </trkpt>
      <trkpt lat="43.75124" lon="7.24725">
        <ele>344.5</ele>
        <time>2012-04-19T12:24:36Z</time>
      </trkpt>
      <trkpt lat="43.75135" lon="7.24732">
        <ele>345</ele>
        <time>2012-04-19T12:24:39Z</time>
      </trkpt>
      <trkpt lat="43.75139" lon="7.24734">
        <ele>345.1</ele>
        <time>2012-04-19T12:24:40Z</time>
      </trkpt>
      <trkpt lat="43.75144" lon="7.24734">
        <ele>345.1</ele>
        <time>2012-04-19T12:24:41Z</time>
      </trkpt>
      <trkpt lat="43.75152" lon="7.24732">
        <ele>345.3</ele>
        <time>2012-04-19T12:24:43Z</time>
      </trkpt>
      <trkpt lat="43.75159" lon="7.24726">
        <ele>345.5</ele>
        <time>2012-04-19T12:24:45Z</time>
      </trkpt>
      <trkpt lat="43.75165" lon="7.24718">
        <ele>345.9</ele>
        <time>2012-04-19T12:24:47Z</time>
      </trkpt>
      <trkpt lat="43.7517" lon="7.24709">
        <ele>346.6</ele>
        <time>2012-04-19T12:24:49Z</time>
      </trkpt>
      <trkpt lat="43.75175" lon="7.247">
        <ele>347.2</ele>
        <time>2012-04-19T12:24:51Z</time>
      </trkpt>
      <trkpt lat="43.7518" lon="7.24691">
        <ele>347.4</ele>
        <time>2012-04-19T12:24:53Z</time>
      </trkpt>
      <trkpt lat="43.75186" lon="7.24683">
        <ele>347.5</ele>
        <time>2012-04-19T12:24:55Z</time>
      </trkpt>
      <trkpt lat="43.75194" lon="7.24678">
        <ele>347.8</ele>
        <time>2012-04-19T12:24:57Z</time>
      </trkpt>
      <trkpt lat="43.75202" lon="7.24676">
        <ele>348.2</ele>
        <time>2012-04-19T12:24:59Z</time>
      </trkpt>
      <trkpt lat="43.7521" lon="7.24677">
        <ele>348.4</ele>
        <time>2012-04-19T12:25:01Z</time>
      </trkpt>
      <trkpt lat="43.75218" lon="7.24678">
        <ele>348.5</ele>
        <time>2012-04-19T12:25:03Z</time>
      </trkpt>
      <trkpt lat="43.75226" lon="7.24678">
        <ele>348.6</ele>
        <time>2012-04-19T12:25:05Z</time>
      </trkpt>
      <trkpt lat="43.75234" lon="7.24679">
        <ele>348.8</ele>
        <time>2012-04-19T12:25:07Z</time>
      </trkpt>
      <trkpt lat="43.75241" lon="7.24676">
        <ele>349.1</ele>
        <time>2012-04-19T12:25:09Z</time>
      </trkpt>
      <trkpt lat="43.75248" lon="7.24671">
        <ele>349.6</ele>
        <time>2012-04-19T12:25:11Z</time>
      </trkpt>
      <trkpt lat="43.75254" lon="7.24664">
        <ele>350.3</ele>
        <time>2012-04-19T12:25:13Z</time>
      </trkpt>
      <trkpt lat="43.75259" lon="7.24655">
        <ele>350.4</ele>
        <time>2012-04-19T12:25:15Z</time>
      </trkpt>
      <trkpt lat="43.75264" lon="7.24647">
        <ele>350.5</ele>
        <time>2012-04-19T12:25:17Z</time>
      </trkpt>
      <trkpt lat="43.75269" lon="7.24638">
        <ele>350.4</ele>
        <time>2012-04-19T12:25:19Z</time>
      </trkpt>
      <trkpt lat="43.75276" lon="7.24632">
        <ele>350.9</ele>
        <time>2012-04-19T12:25:21Z</time>
      </trkpt>
      <trkpt lat="43.75284" lon="7.24629">
        <ele>351.8</ele>
        <time>2012-04-19T12:25:23Z</time>
      </trkpt>
      <trkpt lat="43.75293" lon="7.24629">
        <ele>352.2</ele>
        <time>2012-04-19T12:25:25Z</time>
      </trkpt>
      <trkpt lat="43.753" lon="7.24631">
        <ele>352.3</ele>
        <time>2012-04-19T12:25:27Z</time>
      </trkpt>
      <trkpt lat="43.75308" lon="7.24634">
        <ele>352.3</ele>
        <time>2012-04-19T12:25:29Z</time>
      </trkpt>
      <trkpt lat="43.75314" lon="7.24639">
        <ele>353.1</ele>
        <time>2012-04-19T12:25:31Z</time>
      </trkpt>
      <trkpt lat="43.75321" lon="7.24647">
        <ele>354</ele>
        <time>2012-04-19T12:25:33Z</time>
      </trkpt>
      <trkpt lat="43.75327" lon="7.24656">
        <ele>354.3</ele>
        <time>2012-04-19T12:25:35Z</time>
      </trkpt>
      <trkpt lat="43.75333" lon="7.24664">
        <ele>354.4</ele>
        <time>2012-04-19T12:25:37Z</time>
      </trkpt>
      <trkpt lat="43.75337" lon="7.24667">
        <ele>354.4</ele>
        <time>2012-04-19T12:25:38Z</time>
      </trkpt>
      <trkpt lat="43.75347" lon="7.24679">
        <ele>355.1</ele>
        <time>2012-04-19T12:25:41Z</time>
      </trkpt>
      <trkpt lat="43.75354" lon="7.24686">
        <ele>355.2</ele>
        <time>2012-04-19T12:25:43Z</time>
      </trkpt>
      <trkpt lat="43.75361" lon="7.24693">
        <ele>355.4</ele>
        <time>2012-04-19T12:25:45Z</time>
      </trkpt>
      <trkpt lat="43.75368" lon="7.247">
        <ele>355.8</ele>
        <time>2012-04-19T12:25:47Z</time>
      </trkpt>
      <trkpt lat="43.75375" lon="7.24706">
        <ele>356</ele>
        <time>2012-04-19T12:25:49Z</time>
      </trkpt>
      <trkpt lat="43.75382" lon="7.24712">
        <ele>356.4</ele>
        <time>2012-04-19T12:25:51Z</time>
      </trkpt>
      <trkpt lat="43.75388" lon="7.24717">
        <ele>356.9</ele>
        <time>2012-04-19T12:25:53Z</time>
      </trkpt>
      <trkpt lat="43.75395" lon="7.24724">
        <ele>356.7</ele>
        <time>2012-04-19T12:25:55Z</time>
      </trkpt>
      <trkpt lat="43.75403" lon="7.2473">
        <ele>357</ele>
        <time>2012-04-19T12:25:57Z</time>
      </trkpt>
      <trkpt lat="43.7541" lon="7.24735">
        <ele>357.5</ele>
        <time>2012-04-19T12:25:59Z</time>
      </trkpt>
      <trkpt lat="43.75418" lon="7.24739">
        <ele>357.6</ele>
        <time>2012-04-19T12:26:01Z</time>
      </trkpt>
      <trkpt lat="43.75426" lon="7.24741">
        <ele>358.7</ele>
        <time>2012-04-19T12:26:03Z</time>
      </trkpt>
      <trkpt lat="43.75434" lon="7.24742">
        <ele>358.3</ele>
        <time>2012-04-19T12:26:05Z</time>
      </trkpt>
      <trkpt lat="43.75442" lon="7.24741">
        <ele>358.9</ele>
        <time>2012-04-19T12:26:07Z</time>
      </trkpt>
      <trkpt lat="43.75449" lon="7.24739">
        <ele>359.1</ele>
        <time>2012-04-19T12:26:09Z</time>
      </trkpt>
      <trkpt lat="43.75457" lon="7.24737">
        <ele>359</ele>
        <time>2012-04-19T12:26:11Z</time>
      </trkpt>
      <trkpt lat="43.75466" lon="7.24734">
        <ele>359.1</ele>
        <time>2012-04-19T12:26:13Z</time>
      </trkpt>
      <trkpt lat="43.75474" lon="7.24731">
        <ele>359.3</ele>
        <time>2012-04-19T12:26:15Z</time>
      </trkpt>
      <trkpt lat="43.75482" lon="7.24728">
        <ele>359.7</ele>
        <time>2012-04-19T12:26:17Z</time>
      </trkpt>
      <trkpt lat="43.7549" lon="7.24725">
        <ele>360.4</ele>
        <time>2012-04-19T12:26:19Z</time>
      </trkpt>
      <trkpt lat="43.75497" lon="7.24722">
        <ele>360.7</ele>
        <time>2012-04-19T12:26:21Z</time>
      </trkpt>
      <trkpt lat="43.75505" lon="7.24719">
        <ele>360.7</ele>
        <time>2012-04-19T12:26:23Z</time>
      </trkpt>
      <trkpt lat="43.75513" lon="7.24717">
        <ele>361.1</ele>
        <time>2012-04-19T12:26:25Z</time>
      </trkpt>
      <trkpt lat="43.7552" lon="7.24719">
        <ele>361.5</ele>
        <time>2012-04-19T12:26:27Z</time>
      </trkpt>
      <trkpt lat="43.75528" lon="7.24724">
        <ele>361.6</ele>
        <time>2012-04-19T12:26:29Z</time>
      </trkpt>
      <trkpt lat="43.75534" lon="7.2473">
        <ele>361.6</ele>
        <time>2012-04-19T12:26:31Z</time>
      </trkpt>
      <trkpt lat="43.75542" lon="7.24734">
        <ele>362</ele>
        <time>2012-04-19T12:26:33Z</time>
      </trkpt>
      <trkpt lat="43.7555" lon="7.24736">
        <ele>362.9</ele>
        <time>2012-04-19T12:26:35Z</time>
      </trkpt>
      <trkpt lat="43.75558" lon="7.24736">
        <ele>363.6</ele>
        <time>2012-04-19T12:26:37Z</time>
      </trkpt>
      <trkpt lat="43.75566" lon="7.24734">
        <ele>363.8</ele>
        <time>2012-04-19T12:26:39Z</time>
      </trkpt>
      <trkpt lat="43.75571" lon="7.24735">
        <ele>364.1</ele>
        <time>2012-04-19T12:26:40Z</time>
      </trkpt>
      <trkpt lat="43.75583" lon="7.2474">
        <ele>364</ele>
        <time>2012-04-19T12:26:43Z</time>
      </trkpt>
      <trkpt lat="43.7559" lon="7.24746">
        <ele>364</ele>
        <time>2012-04-19T12:26:45Z</time>
      </trkpt>
      <trkpt lat="43.75594" lon="7.24756">
        <ele>364</ele>
        <time>2012-04-19T12:26:47Z</time>
      </trkpt>
      <trkpt lat="43.75596" lon="7.24767">
        <ele>364.5</ele>
        <time>2012-04-19T12:26:49Z</time>
      </trkpt>
      <trkpt lat="43.75597" lon="7.24778">
        <ele>365</ele>
        <time>2012-04-19T12:26:51Z</time>
      </trkpt>
      <trkpt lat="43.75598" lon="7.24789">
        <ele>365.3</ele>
        <time>2012-04-19T12:26:53Z</time>
      </trkpt>
      <trkpt lat="43.75599" lon="7.248">
        <ele>365</ele>
        <time>2012-04-19T12:26:55Z</time>
      </trkpt>
      <trkpt lat="43.75599" lon="7.24811">
        <ele>365.4</ele>
        <time>2012-04-19T12:26:57Z</time>
      </trkpt>
      <trkpt lat="43.756" lon="7.24822">
        <ele>365.5</ele>
        <time>2012-04-19T12:26:59Z</time>
      </trkpt>
      <trkpt lat="43.75601" lon="7.24833">
        <ele>365.7</ele>
        <time>2012-04-19T12:27:01Z</time>
      </trkpt>
      <trkpt lat="43.75604" lon="7.24844">
        <ele>366</ele>
        <time>2012-04-19T12:27:03Z</time>
      </trkpt>
      <trkpt lat="43.75609" lon="7.24854">
        <ele>366.1</ele>
        <time>2012-04-19T12:27:05Z</time>
      </trkpt>
      <trkpt lat="43.75615" lon="7.24862">
        <ele>365.9</ele>
        <time>2012-04-19T12:27:07Z</time>
      </trkpt>
      <trkpt lat="43.75623" lon="7.24867">
        <ele>366.3</ele>
        <time>2012-04-19T12:27:09Z</time>
      </trkpt>
      <trkpt lat="43.75632" lon="7.24868">
        <ele>366.7</ele>
        <time>2012-04-19T12:27:11Z</time>
      </trkpt>
      <trkpt lat="43.7564" lon="7.24868">
        <ele>367</ele>
        <time>2012-04-19T12:27:13Z</time>
      </trkpt>
      <trkpt lat="43.75646" lon="7.24869">
        <ele>367.1</ele>
        <time>2012-04-19T12:27:15Z</time>
      </trkpt>
      <trkpt lat="43.75652" lon="7.24869">
        <ele>367.3</ele>
        <time>2012-04-19T12:27:17Z</time>
      </trkpt>
      <trkpt lat="43.75659" lon="7.24868">
        <ele>367.5</ele>
        <time>2012-04-19T12:27:19Z</time>
      </trkpt>
      <trkpt lat="43.75666" lon="7.24865">
        <ele>367.8</ele>
        <time>2012-04-19T12:27:21Z</time>
      </trkpt>
      <trkpt lat="43.75672" lon="7.24858">
        <ele>367.8</ele>
        <time>2012-04-19T12:27:23Z</time>
      </trkpt>
      <trkpt lat="43.75677" lon="7.24849">
        <ele>367.9</ele>
        <time>2012-04-19T12:27:25Z</time>
      </trkpt>
      <trkpt lat="43.7568" lon="7.24838">
        <ele>368.1</ele>
        <time>2012-04-19T12:27:27Z</time>
      </trkpt>
      <trkpt lat="43.75682" lon="7.24826">
        <ele>367.9</ele>
        <time>2012-04-19T12:27:29Z</time>
      </trkpt>
      <trkpt lat="43.75685" lon="7.24815">
        <ele>367.5</ele>
        <time>2012-04-19T12:27:31Z</time>
      </trkpt>
      <trkpt lat="43.75688" lon="7.24804">
        <ele>367.4</ele>
        <time>2012-04-19T12:27:33Z</time>
      </trkpt>
      <trkpt lat="43.75692" lon="7.24795">
        <ele>368.2</ele>
        <time>2012-04-19T12:27:35Z</time>
      </trkpt>
      <trkpt lat="43.75696" lon="7.24786">
        <ele>368.1</ele>
        <time>2012-04-19T12:27:37Z</time>
      </trkpt>
      <trkpt lat="43.757" lon="7.24778">
        <ele>368.5</ele>
        <time>2012-04-19T12:27:39Z</time>
      </trkpt>
      <trkpt lat="43.75704" lon="7.24769">
        <ele>368.9</ele>
        <time>2012-04-19T12:27:41Z</time>
      </trkpt>
      <trkpt lat="43.75707" lon="7.24764">
        <ele>369.1</ele>
        <time>2012-04-19T12:27:42Z</time>
      </trkpt>
      <trkpt lat="43.75713" lon="7.24752">
        <ele>370.1</ele>
        <time>2012-04-19T12:27:45Z</time>
      </trkpt>
      <trkpt lat="43.75718" lon="7.24744">
        <ele>370.5</ele>
        <time>2012-04-19T12:27:47Z</time>
      </trkpt>
      <trkpt lat="43.75724" lon="7.24736">
        <ele>371</ele>
        <time>2012-04-19T12:27:49Z</time>
      </trkpt>
      <trkpt lat="43.75729" lon="7.24728">
        <ele>371.1</ele>
        <time>2012-04-19T12:27:51Z</time>
      </trkpt>
      <trkpt lat="43.75735" lon="7.24721">
        <ele>370.9</ele>
        <time>2012-04-19T12:27:53Z</time>
      </trkpt>
      <trkpt lat="43.75741" lon="7.24714">
        <ele>370.8</ele>
        <time>2012-04-19T12:27:55Z</time>
      </trkpt>
      <trkpt lat="43.75747" lon="7.24709">
        <ele>370.8</ele>
        <time>2012-04-19T12:27:57Z</time>
      </trkpt>
      <trkpt lat="43.75754" lon="7.24705">
        <ele>371.2</ele>
        <time>2012-04-19T12:27:59Z</time>
      </trkpt>
      <trkpt lat="43.75762" lon="7.24702">
        <ele>372</ele>
        <time>2012-04-19T12:28:01Z</time>
      </trkpt>
      <trkpt lat="43.75769" lon="7.24702">
        <ele>372.7</ele>
        <time>2012-04-19T12:28:03Z</time>
      </trkpt>
      <trkpt lat="43.75775" lon="7.24703">
        <ele>373.2</ele>
        <time>2012-04-19T12:28:05Z</time>
      </trkpt>
      <trkpt lat="43.75782" lon="7.24706">
        <ele>373.5</ele>
        <time>2012-04-19T12:28:07Z</time>
      </trkpt>
      <trkpt lat="43.7579" lon="7.24708">
        <ele>373.7</ele>
        <time>2012-04-19T12:28:09Z</time>
      </trkpt>
      <trkpt lat="43.75796" lon="7.24711">
        <ele>373.8</ele>
        <time>2012-04-19T12:28:11Z</time>
      </trkpt>
      <trkpt lat="43.75803" lon="7.24716">
        <ele>374.4</ele>
        <time>2012-04-19T12:28:13Z</time>
      </trkpt>
      <trkpt lat="43.75809" lon="7.24722">
        <ele>375.1</ele>
        <time>2012-04-19T12:28:15Z</time>
      </trkpt>
      <trkpt lat="43.75816" lon="7.24727">
        <ele>375.5</ele>
        <time>2012-04-19T12:28:17Z</time>
      </trkpt>
      <trkpt lat="43.75822" lon="7.2473">
        <ele>376</ele>
        <time>2012-04-19T12:28:19Z</time>
      </trkpt>
      <trkpt lat="43.7583" lon="7.24731">
        <ele>376.4</ele>
        <time>2012-04-19T12:28:21Z</time>
      </trkpt>
      <trkpt lat="43.75838" lon="7.2473">
        <ele>376.8</ele>
        <time>2012-04-19T12:28:23Z</time>
      </trkpt>
      <trkpt lat="43.75846" lon="7.24725">
        <ele>376.7</ele>
        <time>2012-04-19T12:28:25Z</time>
      </trkpt>
      <trkpt lat="43.75851" lon="7.24717">
        <ele>376.9</ele>
        <time>2012-04-19T12:28:27Z</time>
      </trkpt>
      <trkpt lat="43.75854" lon="7.24708">
        <ele>377.1</ele>
        <time>2012-04-19T12:28:29Z</time>
      </trkpt>
      <trkpt lat="43.75857" lon="7.24699">
        <ele>377.4</ele>
        <time>2012-04-19T12:28:31Z</time>
      </trkpt>
      <trkpt lat="43.75859" lon="7.24689">
        <ele>377.7</ele>
        <time>2012-04-19T12:28:33Z</time>
      </trkpt>
      <trkpt lat="43.75861" lon="7.24679">
        <ele>378</ele>
        <time>2012-04-19T12:28:35Z</time>
      </trkpt>
      <trkpt lat="43.75863" lon="7.2467">
        <ele>378.6</ele>
        <time>2012-04-19T12:28:37Z</time>
      </trkpt>
      <trkpt lat="43.75865" lon="7.2466">
        <ele>378.8</ele>
        <time>2012-04-19T12:28:39Z</time>
      </trkpt>
      <trkpt lat="43.75868" lon="7.24651">
        <ele>379</ele>
        <time>2012-04-19T12:28:41Z</time>
      </trkpt>
      <trkpt lat="43.75873" lon="7.24643">
        <ele>379.2</ele>
        <time>2012-04-19T12:28:43Z</time>
      </trkpt>
      <trkpt lat="43.75875" lon="7.24639">
        <ele>379.2</ele>
        <time>2012-04-19T12:28:44Z</time>
      </trkpt>
      <trkpt lat="43.75885" lon="7.24631">
        <ele>379.5</ele>
        <time>2012-04-19T12:28:47Z</time>
      </trkpt>
      <trkpt lat="43.75893" lon="7.24626">
        <ele>380.2</ele>
        <time>2012-04-19T12:28:49Z</time>
      </trkpt>
      <trkpt lat="43.759" lon="7.24621">
        <ele>380.5</ele>
        <time>2012-04-19T12:28:51Z</time>
      </trkpt>
      <trkpt lat="43.75907" lon="7.24617">
        <ele>381.3</ele>
        <time>2012-04-19T12:28:53Z</time>
      </trkpt>
      <trkpt lat="43.75914" lon="7.24614">
        <ele>381.2</ele>
        <time>2012-04-19T12:28:55Z</time>
      </trkpt>
      <trkpt lat="43.75922" lon="7.2461">
        <ele>380.9</ele>
        <time>2012-04-19T12:28:57Z</time>
      </trkpt>
      <trkpt lat="43.75928" lon="7.24606">
        <ele>380.8</ele>
        <time>2012-04-19T12:28:59Z</time>
      </trkpt>
      <trkpt lat="43.75935" lon="7.24602">
        <ele>381.6</ele>
        <time>2012-04-19T12:29:02Z</time>
      </trkpt>
      <trkpt lat="43.75941" lon="7.246">
        <ele>381.9</ele>
        <time>2012-04-19T12:29:04Z</time>
      </trkpt>
      <trkpt lat="43.75947" lon="7.24597">
        <ele>382</ele>
        <time>2012-04-19T12:29:06Z</time>
      </trkpt>
      <trkpt lat="43.75954" lon="7.24596">
        <ele>382.7</ele>
        <time>2012-04-19T12:29:08Z</time>
      </trkpt>
      <trkpt lat="43.75961" lon="7.24595">
        <ele>382.8</ele>
        <time>2012-04-19T12:29:10Z</time>
      </trkpt>
      <trkpt lat="43.75968" lon="7.24595">
        <ele>383.4</ele>
        <time>2012-04-19T12:29:12Z</time>
      </trkpt>
      <trkpt lat="43.75975" lon="7.24597">
        <ele>383.8</ele>
        <time>2012-04-19T12:29:14Z</time>
      </trkpt>
      <trkpt lat="43.75982" lon="7.246">
        <ele>384</ele>
        <time>2012-04-19T12:29:16Z</time>
      </trkpt>
      <trkpt lat="43.75988" lon="7.24603">
        <ele>384.2</ele>
        <time>2012-04-19T12:29:18Z</time>
      </trkpt>
      <trkpt lat="43.75993" lon="7.24609">
        <ele>384.4</ele>
        <time>2012-04-19T12:29:20Z</time>
      </trkpt>
      <trkpt lat="43.76" lon="7.24615">
        <ele>384.5</ele>
        <time>2012-04-19T12:29:22Z</time>
      </trkpt>
      <trkpt lat="43.76006" lon="7.24621">
        <ele>384.7</ele>
        <time>2012-04-19T12:29:24Z</time>
      </trkpt>
      <trkpt lat="43.76012" lon="7.24627">
        <ele>385</ele>
        <time>2012-04-19T12:29:26Z</time>
      </trkpt>
      <trkpt lat="43.76019" lon="7.24633">
        <ele>385.8</ele>
        <time>2012-04-19T12:29:28Z</time>
      </trkpt>
      <trkpt lat="43.76026" lon="7.24639">
        <ele>386.2</ele>
        <time>2012-04-19T12:29:30Z</time>
      </trkpt>
      <trkpt lat="43.76033" lon="7.24643">
        <ele>386.2</ele>
        <time>2012-04-19T12:29:32Z</time>
      </trkpt>
      <trkpt lat="43.7604" lon="7.24645">
        <ele>387</ele>
        <time>2012-04-19T12:29:34Z</time>
      </trkpt>
      <trkpt lat="43.76048" lon="7.24644">
        <ele>387.9</ele>
        <time>2012-04-19T12:29:36Z</time>
      </trkpt>
      <trkpt lat="43.76054" lon="7.2464">
        <ele>388.2</ele>
        <time>2012-04-19T12:29:38Z</time>
      </trkpt>
      <trkpt lat="43.76061" lon="7.24634">
        <ele>388.3</ele>
        <time>2012-04-19T12:29:40Z</time>
      </trkpt>
      <trkpt lat="43.76064" lon="7.2463">
        <ele>388.3</ele>
        <time>2012-04-19T12:29:41Z</time>
      </trkpt>
      <trkpt lat="43.76067" lon="7.24625">
        <ele>388.2</ele>
        <time>2012-04-19T12:29:42Z</time>
      </trkpt>
      <trkpt lat="43.7607" lon="7.2462">
        <ele>388.1</ele>
        <time>2012-04-19T12:29:43Z</time>
      </trkpt>
      <trkpt lat="43.76073" lon="7.24616">
        <ele>388</ele>
        <time>2012-04-19T12:29:44Z</time>
      </trkpt>
      <trkpt lat="43.76079" lon="7.24607">
        <ele>388.4</ele>
        <time>2012-04-19T12:29:46Z</time>
      </trkpt>
      <trkpt lat="43.76082" lon="7.24603">
        <ele>388.8</ele>
        <time>2012-04-19T12:29:47Z</time>
      </trkpt>
      <trkpt lat="43.76093" lon="7.24593">
        <ele>389.2</ele>
        <time>2012-04-19T12:29:50Z</time>
      </trkpt>
      <trkpt lat="43.761" lon="7.24588">
        <ele>389.5</ele>
        <time>2012-04-19T12:29:52Z</time>
      </trkpt>
      <trkpt lat="43.76109" lon="7.24584">
        <ele>390</ele>
        <time>2012-04-19T12:29:54Z</time>
      </trkpt>
      <trkpt lat="43.76117" lon="7.2458">
        <ele>390.3</ele>
        <time>2012-04-19T12:29:56Z</time>
      </trkpt>
      <trkpt lat="43.76125" lon="7.24577">
        <ele>390.4</ele>
        <time>2012-04-19T12:29:58Z</time>
      </trkpt>
      <trkpt lat="43.76134" lon="7.24577">
        <ele>390.6</ele>
        <time>2012-04-19T12:30:00Z</time>
      </trkpt>
      <trkpt lat="43.76143" lon="7.24577">
        <ele>391.2</ele>
        <time>2012-04-19T12:30:02Z</time>
      </trkpt>
      <trkpt lat="43.76151" lon="7.24579">
        <ele>391.8</ele>
        <time>2012-04-19T12:30:04Z</time>
      </trkpt>
      <trkpt lat="43.7616" lon="7.24581">
        <ele>392.4</ele>
        <time>2012-04-19T12:30:06Z</time>
      </trkpt>
      <trkpt lat="43.76168" lon="7.24582">
        <ele>392.5</ele>
        <time>2012-04-19T12:30:08Z</time>
      </trkpt>
      <trkpt lat="43.76176" lon="7.24581">
        <ele>392.4</ele>
        <time>2012-04-19T12:30:10Z</time>
      </trkpt>
      <trkpt lat="43.76184" lon="7.24577">
        <ele>392.4</ele>
        <time>2012-04-19T12:30:12Z</time>
      </trkpt>
      <trkpt lat="43.7619" lon="7.24571">
        <ele>393</ele>
        <time>2012-04-19T12:30:14Z</time>
      </trkpt>
      <trkpt lat="43.76195" lon="7.24562">
        <ele>393.7</ele>
        <time>2012-04-19T12:30:16Z</time>
      </trkpt>
      <trkpt lat="43.76197" lon="7.24552">
        <ele>394.1</ele>
        <time>2012-04-19T12:30:18Z</time>
      </trkpt>
      <trkpt lat="43.76198" lon="7.24542">
        <ele>394.6</ele>
        <time>2012-04-19T12:30:20Z</time>
      </trkpt>
      <trkpt lat="43.76197" lon="7.24532">
        <ele>394.9</ele>
        <time>2012-04-19T12:30:22Z</time>
      </trkpt>
      <trkpt lat="43.76194" lon="7.24522">
        <ele>395.6</ele>
        <time>2012-04-19T12:30:24Z</time>
      </trkpt>
      <trkpt lat="43.76191" lon="7.24513">
        <ele>395.6</ele>
        <time>2012-04-19T12:30:26Z</time>
      </trkpt>
      <trkpt lat="43.76189" lon="7.24503">
        <ele>396.4</ele>
        <time>2012-04-19T12:30:28Z</time>
      </trkpt>
      <trkpt lat="43.76189" lon="7.24493">
        <ele>396.6</ele>
        <time>2012-04-19T12:30:30Z</time>
      </trkpt>
      <trkpt lat="43.7619" lon="7.24483">
        <ele>396.7</ele>
        <time>2012-04-19T12:30:32Z</time>
      </trkpt>
      <trkpt lat="43.76191" lon="7.24472">
        <ele>397</ele>
        <time>2012-04-19T12:30:34Z</time>
      </trkpt>
      <trkpt lat="43.76191" lon="7.24462">
        <ele>397.3</ele>
        <time>2012-04-19T12:30:36Z</time>
      </trkpt>
      <trkpt lat="43.76193" lon="7.24451">
        <ele>397.2</ele>
        <time>2012-04-19T12:30:38Z</time>
      </trkpt>
      <trkpt lat="43.76196" lon="7.24441">
        <ele>397.8</ele>
        <time>2012-04-19T12:30:40Z</time>
      </trkpt>
      <trkpt lat="43.76201" lon="7.24433">
        <ele>398.2</ele>
        <time>2012-04-19T12:30:42Z</time>
      </trkpt>
      <trkpt lat="43.76206" lon="7.24426">
        <ele>398.7</ele>
        <time>2012-04-19T12:30:44Z</time>
      </trkpt>
      <trkpt lat="43.76211" lon="7.2442">
        <ele>399.2</ele>
        <time>2012-04-19T12:30:46Z</time>
      </trkpt>
      <trkpt lat="43.76216" lon="7.24413">
        <ele>399.4</ele>
        <time>2012-04-19T12:30:48Z</time>
      </trkpt>
      <trkpt lat="43.76221" lon="7.24407">
        <ele>399.6</ele>
        <time>2012-04-19T12:30:50Z</time>
      </trkpt>
      <trkpt lat="43.76224" lon="7.24404">
        <ele>399.9</ele>
        <time>2012-04-19T12:30:51Z</time>
      </trkpt>
      <trkpt lat="43.76232" lon="7.24395">
        <ele>400.1</ele>
        <time>2012-04-19T12:30:54Z</time>
      </trkpt>
      <trkpt lat="43.76237" lon="7.24389">
        <ele>400.5</ele>
        <time>2012-04-19T12:30:56Z</time>
      </trkpt>
      <trkpt lat="43.76242" lon="7.24382">
        <ele>401</ele>
        <time>2012-04-19T12:30:58Z</time>
      </trkpt>
      <trkpt lat="43.76247" lon="7.24375">
        <ele>401.2</ele>
        <time>2012-04-19T12:31:00Z</time>
      </trkpt>
      <trkpt lat="43.76253" lon="7.24368">
        <ele>401.9</ele>
        <time>2012-04-19T12:31:02Z</time>
      </trkpt>
      <trkpt lat="43.76259" lon="7.24362">
        <ele>402.3</ele>
        <time>2012-04-19T12:31:04Z</time>
      </trkpt>
      <trkpt lat="43.76267" lon="7.24356">
        <ele>402.7</ele>
        <time>2012-04-19T12:31:06Z</time>
      </trkpt>
      <trkpt lat="43.76274" lon="7.2435">
        <ele>402.9</ele>
        <time>2012-04-19T12:31:08Z</time>
      </trkpt>
      <trkpt lat="43.76281" lon="7.24343">
        <ele>403.3</ele>
        <time>2012-04-19T12:31:10Z</time>
      </trkpt>
      <trkpt lat="43.76289" lon="7.24337">
        <ele>403.9</ele>
        <time>2012-04-19T12:31:12Z</time>
      </trkpt>
      <trkpt lat="43.76297" lon="7.24332">
        <ele>404.3</ele>
        <time>2012-04-19T12:31:14Z</time>
      </trkpt>
      <trkpt lat="43.76301" lon="7.2433">
        <ele>404.1</ele>
        <time>2012-04-19T12:31:15Z</time>
      </trkpt>
      <trkpt lat="43.76309" lon="7.24326">
        <ele>404.4</ele>
        <time>2012-04-19T12:31:17Z</time>
      </trkpt>
      <trkpt lat="43.76318" lon="7.24322">
        <ele>405.3</ele>
        <time>2012-04-19T12:31:19Z</time>
      </trkpt>
      <trkpt lat="43.76326" lon="7.2432">
        <ele>406</ele>
        <time>2012-04-19T12:31:21Z</time>
      </trkpt>
      <trkpt lat="43.76331" lon="7.24319">
        <ele>406.4</ele>
        <time>2012-04-19T12:31:22Z</time>
      </trkpt>
      <trkpt lat="43.76335" lon="7.24318">
        <ele>406.6</ele>
        <time>2012-04-19T12:31:23Z</time>
      </trkpt>
      <trkpt lat="43.76344" lon="7.24318">
        <ele>406.9</ele>
        <time>2012-04-19T12:31:25Z</time>
      </trkpt>
      <trkpt lat="43.76349" lon="7.24317">
        <ele>407</ele>
        <time>2012-04-19T12:31:26Z</time>
      </trkpt>
      <trkpt lat="43.76353" lon="7.24316">
        <ele>407.2</ele>
        <time>2012-04-19T12:31:27Z</time>
      </trkpt>
      <trkpt lat="43.76358" lon="7.24316">
        <ele>407.4</ele>
        <time>2012-04-19T12:31:28Z</time>
      </trkpt>
      <trkpt lat="43.76362" lon="7.24315">
        <ele>407.7</ele>
        <time>2012-04-19T12:31:29Z</time>
      </trkpt>
      <trkpt lat="43.76367" lon="7.24314">
        <ele>408</ele>
        <time>2012-04-19T12:31:30Z</time>
      </trkpt>
      <trkpt lat="43.76372" lon="7.24314">
        <ele>408.1</ele>
        <time>2012-04-19T12:31:31Z</time>
      </trkpt>
      <trkpt lat="43.76377" lon="7.24313">
        <ele>408.3</ele>
        <time>2012-04-19T12:31:32Z</time>
      </trkpt>
      <trkpt lat="43.76382" lon="7.24313">
        <ele>408.3</ele>
        <time>2012-04-19T12:31:33Z</time>
      </trkpt>
      <trkpt lat="43.76387" lon="7.24313">
        <ele>408.6</ele>
        <time>2012-04-19T12:31:34Z</time>
      </trkpt>
      <trkpt lat="43.76391" lon="7.24312">
        <ele>408.8</ele>
        <time>2012-04-19T12:31:35Z</time>
      </trkpt>
      <trkpt lat="43.76396" lon="7.24312">
        <ele>409.5</ele>
        <time>2012-04-19T12:31:36Z</time>
      </trkpt>
      <trkpt lat="43.764" lon="7.2431">
        <ele>410.1</ele>
        <time>2012-04-19T12:31:37Z</time>
      </trkpt>
      <trkpt lat="43.76409" lon="7.24306">
        <ele>410.4</ele>
        <time>2012-04-19T12:31:39Z</time>
      </trkpt>
      <trkpt lat="43.76417" lon="7.24302">
        <ele>410.7</ele>
        <time>2012-04-19T12:31:41Z</time>
      </trkpt>
      <trkpt lat="43.76425" lon="7.24296">
        <ele>411.3</ele>
        <time>2012-04-19T12:31:43Z</time>
      </trkpt>
      <trkpt lat="43.76433" lon="7.2429">
        <ele>411.8</ele>
        <time>2012-04-19T12:31:45Z</time>
      </trkpt>
      <trkpt lat="43.7644" lon="7.24283">
        <ele>412.2</ele>
        <time>2012-04-19T12:31:47Z</time>
      </trkpt>
      <trkpt lat="43.76446" lon="7.24275">
        <ele>412.7</ele>
        <time>2012-04-19T12:31:49Z</time>
      </trkpt>
      <trkpt lat="43.76453" lon="7.24267">
        <ele>413</ele>
        <time>2012-04-19T12:31:51Z</time>
      </trkpt>
      <trkpt lat="43.7646" lon="7.2426">
        <ele>413.2</ele>
        <time>2012-04-19T12:31:53Z</time>
      </trkpt>
      <trkpt lat="43.76463" lon="7.24256">
        <ele>413.2</ele>
        <time>2012-04-19T12:31:54Z</time>
      </trkpt>
      <trkpt lat="43.76474" lon="7.24246">
        <ele>413</ele>
        <time>2012-04-19T12:31:57Z</time>
      </trkpt>
      <trkpt lat="43.76482" lon="7.24241">
        <ele>413.2</ele>
        <time>2012-04-19T12:31:59Z</time>
      </trkpt>
      <trkpt lat="43.7649" lon="7.24236">
        <ele>414.1</ele>
        <time>2012-04-19T12:32:01Z</time>
      </trkpt>
      <trkpt lat="43.76499" lon="7.24232">
        <ele>414.1</ele>
        <time>2012-04-19T12:32:03Z</time>
      </trkpt>
      <trkpt lat="43.76503" lon="7.24231">
        <ele>414.1</ele>
        <time>2012-04-19T12:32:04Z</time>
      </trkpt>
      <trkpt lat="43.76507" lon="7.24229">
        <ele>414.4</ele>
        <time>2012-04-19T12:32:05Z</time>
      </trkpt>
      <trkpt lat="43.76512" lon="7.24229">
        <ele>414.6</ele>
        <time>2012-04-19T12:32:06Z</time>
      </trkpt>
      <trkpt lat="43.76517" lon="7.24228">
        <ele>415.4</ele>
        <time>2012-04-19T12:32:07Z</time>
      </trkpt>
      <trkpt lat="43.76522" lon="7.24227">
        <ele>416.1</ele>
        <time>2012-04-19T12:32:08Z</time>
      </trkpt>
      <trkpt lat="43.76526" lon="7.24226">
        <ele>416.4</ele>
        <time>2012-04-19T12:32:09Z</time>
      </trkpt>
      <trkpt lat="43.76531" lon="7.24225">
        <ele>416.6</ele>
        <time>2012-04-19T12:32:10Z</time>
      </trkpt>
      <trkpt lat="43.76536" lon="7.24225">
        <ele>416.8</ele>
        <time>2012-04-19T12:32:11Z</time>
      </trkpt>
      <trkpt lat="43.76541" lon="7.24224">
        <ele>417.2</ele>
        <time>2012-04-19T12:32:12Z</time>
      </trkpt>
      <trkpt lat="43.76545" lon="7.24223">
        <ele>417.5</ele>
        <time>2012-04-19T12:32:13Z</time>
      </trkpt>
      <trkpt lat="43.7655" lon="7.24222">
        <ele>417.9</ele>
        <time>2012-04-19T12:32:14Z</time>
      </trkpt>
      <trkpt lat="43.76555" lon="7.24221">
        <ele>418.2</ele>
        <time>2012-04-19T12:32:15Z</time>
      </trkpt>
      <trkpt lat="43.76559" lon="7.2422">
        <ele>418.3</ele>
        <time>2012-04-19T12:32:16Z</time>
      </trkpt>
      <trkpt lat="43.76564" lon="7.2422">
        <ele>418.3</ele>
        <time>2012-04-19T12:32:17Z</time>
      </trkpt>
      <trkpt lat="43.76569" lon="7.24219">
        <ele>418.4</ele>
        <time>2012-04-19T12:32:18Z</time>
      </trkpt>
      <trkpt lat="43.76573" lon="7.24217">
        <ele>418.4</ele>
        <time>2012-04-19T12:32:19Z</time>
      </trkpt>
      <trkpt lat="43.76578" lon="7.24216">
        <ele>418.4</ele>
        <time>2012-04-19T12:32:20Z</time>
      </trkpt>
      <trkpt lat="43.76583" lon="7.24216">
        <ele>418.7</ele>
        <time>2012-04-19T12:32:21Z</time>
      </trkpt>
      <trkpt lat="43.76588" lon="7.24215">
        <ele>418.9</ele>
        <time>2012-04-19T12:32:22Z</time>
      </trkpt>
      <trkpt lat="43.76593" lon="7.24214">
        <ele>419.1</ele>
        <time>2012-04-19T12:32:23Z</time>
      </trkpt>
      <trkpt lat="43.76598" lon="7.24212">
        <ele>418.9</ele>
        <time>2012-04-19T12:32:24Z</time>
      </trkpt>
      <trkpt lat="43.76603" lon="7.24211">
        <ele>418.7</ele>
        <time>2012-04-19T12:32:25Z</time>
      </trkpt>
      <trkpt lat="43.76608" lon="7.2421">
        <ele>418.8</ele>
        <time>2012-04-19T12:32:26Z</time>
      </trkpt>
      <trkpt lat="43.76613" lon="7.24209">
        <ele>418.8</ele>
        <time>2012-04-19T12:32:27Z</time>
      </trkpt>
      <trkpt lat="43.76619" lon="7.24208">
        <ele>419.4</ele>
        <time>2012-04-19T12:32:28Z</time>
      </trkpt>
      <trkpt lat="43.76624" lon="7.24207">
        <ele>419.8</ele>
        <time>2012-04-19T12:32:29Z</time>
      </trkpt>
      <trkpt lat="43.76629" lon="7.24206">
        <ele>420.2</ele>
        <time>2012-04-19T12:32:30Z</time>
      </trkpt>
      <trkpt lat="43.76635" lon="7.24204">
        <ele>420.1</ele>
        <time>2012-04-19T12:32:31Z</time>
      </trkpt>
      <trkpt lat="43.7664" lon="7.24203">
        <ele>420.1</ele>
        <time>2012-04-19T12:32:32Z</time>
      </trkpt>
      <trkpt lat="43.76645" lon="7.24202">
        <ele>420.3</ele>
        <time>2012-04-19T12:32:33Z</time>
      </trkpt>
      <trkpt lat="43.7665" lon="7.24201">
        <ele>420.5</ele>
        <time>2012-04-19T12:32:34Z</time>
      </trkpt>
      <trkpt lat="43.76655" lon="7.24199">
        <ele>420.8</ele>
        <time>2012-04-19T12:32:35Z</time>
      </trkpt>
      <trkpt lat="43.7666" lon="7.24198">
        <ele>421.1</ele>
        <time>2012-04-19T12:32:36Z</time>
      </trkpt>
      <trkpt lat="43.76666" lon="7.24197">
        <ele>421.2</ele>
        <time>2012-04-19T12:32:37Z</time>
      </trkpt>
      <trkpt lat="43.76671" lon="7.24196">
        <ele>421.6</ele>
        <time>2012-04-19T12:32:38Z</time>
      </trkpt>
      <trkpt lat="43.76676" lon="7.24195">
        <ele>421.8</ele>
        <time>2012-04-19T12:32:39Z</time>
      </trkpt>
      <trkpt lat="43.76681" lon="7.24194">
        <ele>422</ele>
        <time>2012-04-19T12:32:40Z</time>
      </trkpt>
      <trkpt lat="43.76687" lon="7.24193">
        <ele>422.1</ele>
        <time>2012-04-19T12:32:41Z</time>
      </trkpt>
      <trkpt lat="43.76692" lon="7.24192">
        <ele>422.1</ele>
        <time>2012-04-19T12:32:42Z</time>
      </trkpt>
      <trkpt lat="43.76697" lon="7.24192">
        <ele>422.2</ele>
        <time>2012-04-19T12:32:43Z</time>
      </trkpt>
      <trkpt lat="43.76702" lon="7.24192">
        <ele>422.2</ele>
        <time>2012-04-19T12:32:44Z</time>
      </trkpt>
      <trkpt lat="43.76708" lon="7.24192">
        <ele>422.3</ele>
        <time>2012-04-19T12:32:45Z</time>
      </trkpt>
      <trkpt lat="43.76713" lon="7.24193">
        <ele>422.3</ele>
        <time>2012-04-19T12:32:46Z</time>
      </trkpt>
      <trkpt lat="43.76719" lon="7.24194">
        <ele>422.1</ele>
        <time>2012-04-19T12:32:47Z</time>
      </trkpt>
      <trkpt lat="43.76724" lon="7.24194">
        <ele>421.9</ele>
        <time>2012-04-19T12:32:48Z</time>
      </trkpt>
      <trkpt lat="43.7673" lon="7.24195">
        <ele>421.8</ele>
        <time>2012-04-19T12:32:49Z</time>
      </trkpt>
      <trkpt lat="43.76736" lon="7.24197">
        <ele>421.9</ele>
        <time>2012-04-19T12:32:50Z</time>
      </trkpt>
      <trkpt lat="43.76741" lon="7.24198">
        <ele>422</ele>
        <time>2012-04-19T12:32:51Z</time>
      </trkpt>
      <trkpt lat="43.76747" lon="7.24199">
        <ele>422</ele>
        <time>2012-04-19T12:32:52Z</time>
      </trkpt>
      <trkpt lat="43.76752" lon="7.242">
        <ele>421.9</ele>
        <time>2012-04-19T12:32:53Z</time>
      </trkpt>
      <trkpt lat="43.76758" lon="7.24201">
        <ele>422.2</ele>
        <time>2012-04-19T12:32:54Z</time>
      </trkpt>
      <trkpt lat="43.76763" lon="7.24202">
        <ele>422.3</ele>
        <time>2012-04-19T12:32:55Z</time>
      </trkpt>
      <trkpt lat="43.76769" lon="7.24202">
        <ele>422.5</ele>
        <time>2012-04-19T12:32:56Z</time>
      </trkpt>
      <trkpt lat="43.76774" lon="7.24203">
        <ele>423.1</ele>
        <time>2012-04-19T12:32:57Z</time>
      </trkpt>
      <trkpt lat="43.76779" lon="7.24203">
        <ele>423.5</ele>
        <time>2012-04-19T12:32:58Z</time>
      </trkpt>
      <trkpt lat="43.76785" lon="7.24203">
        <ele>423.5</ele>
        <time>2012-04-19T12:32:59Z</time>
      </trkpt>
      <trkpt lat="43.7679" lon="7.24202">
        <ele>423.5</ele>
        <time>2012-04-19T12:33:00Z</time>
      </trkpt>
      <trkpt lat="43.76796" lon="7.24201">
        <ele>423.6</ele>
        <time>2012-04-19T12:33:01Z</time>
      </trkpt>
      <trkpt lat="43.76801" lon="7.242">
        <ele>423.9</ele>
        <time>2012-04-19T12:33:02Z</time>
      </trkpt>
      <trkpt lat="43.76806" lon="7.24199">
        <ele>424.1</ele>
        <time>2012-04-19T12:33:03Z</time>
      </trkpt>
      <trkpt lat="43.76811" lon="7.24197">
        <ele>424.6</ele>
        <time>2012-04-19T12:33:04Z</time>
      </trkpt>
      <trkpt lat="43.76817" lon="7.24195">
        <ele>425</ele>
        <time>2012-04-19T12:33:05Z</time>
      </trkpt>
      <trkpt lat="43.76822" lon="7.24194">
        <ele>424.9</ele>
        <time>2012-04-19T12:33:06Z</time>
      </trkpt>
      <trkpt lat="43.76827" lon="7.24192">
        <ele>424.9</ele>
        <time>2012-04-19T12:33:07Z</time>
      </trkpt>
      <trkpt lat="43.76833" lon="7.2419">
        <ele>424.9</ele>
        <time>2012-04-19T12:33:08Z</time>
      </trkpt>
      <trkpt lat="43.76838" lon="7.24188">
        <ele>425.2</ele>
        <time>2012-04-19T12:33:09Z</time>
      </trkpt>
      <trkpt lat="43.76843" lon="7.24186">
        <ele>425.4</ele>
        <time>2012-04-19T12:33:10Z</time>
      </trkpt>
      <trkpt lat="43.76849" lon="7.24184">
        <ele>425.2</ele>
        <time>2012-04-19T12:33:11Z</time>
      </trkpt>
      <trkpt lat="43.76854" lon="7.24183">
        <ele>425</ele>
        <time>2012-04-19T12:33:12Z</time>
      </trkpt>
      <trkpt lat="43.7686" lon="7.24183">
        <ele>425.2</ele>
        <time>2012-04-19T12:33:13Z</time>
      </trkpt>
      <trkpt lat="43.76865" lon="7.24182">
        <ele>425.3</ele>
        <time>2012-04-19T12:33:14Z</time>
      </trkpt>
      <trkpt lat="43.76871" lon="7.24183">
        <ele>425.4</ele>
        <time>2012-04-19T12:33:15Z</time>
      </trkpt>
      <trkpt lat="43.76877" lon="7.24183">
        <ele>425.5</ele>
        <time>2012-04-19T12:33:16Z</time>
      </trkpt>
      <trkpt lat="43.76882" lon="7.24185">
        <ele>425.6</ele>
        <time>2012-04-19T12:33:17Z</time>
      </trkpt>
      <trkpt lat="43.76887" lon="7.24186">
        <ele>425.7</ele>
        <time>2012-04-19T12:33:18Z</time>
      </trkpt>
      <trkpt lat="43.76893" lon="7.24188">
        <ele>425.8</ele>
        <time>2012-04-19T12:33:19Z</time>
      </trkpt>
      <trkpt lat="43.76898" lon="7.24191">
        <ele>425.9</ele>
        <time>2012-04-19T12:33:20Z</time>
      </trkpt>
      <trkpt lat="43.76903" lon="7.24193">
        <ele>425.9</ele>
        <time>2012-04-19T12:33:21Z</time>
      </trkpt>
      <trkpt lat="43.76908" lon="7.24196">
        <ele>425.9</ele>
        <time>2012-04-19T12:33:22Z</time>
      </trkpt>
      <trkpt lat="43.76914" lon="7.24199">
        <ele>426.1</ele>
        <time>2012-04-19T12:33:23Z</time>
      </trkpt>
      <trkpt lat="43.76919" lon="7.24202">
        <ele>426.2</ele>
        <time>2012-04-19T12:33:24Z</time>
      </trkpt>
      <trkpt lat="43.76923" lon="7.24206">
        <ele>426.5</ele>
        <time>2012-04-19T12:33:25Z</time>
      </trkpt>
      <trkpt lat="43.76928" lon="7.24209">
        <ele>426.8</ele>
        <time>2012-04-19T12:33:26Z</time>
      </trkpt>
      <trkpt lat="43.76933" lon="7.24212">
        <ele>426.9</ele>
        <time>2012-04-19T12:33:27Z</time>
      </trkpt>
      <trkpt lat="43.76937" lon="7.24215">
        <ele>426.9</ele>
        <time>2012-04-19T12:33:28Z</time>
      </trkpt>
      <trkpt lat="43.76942" lon="7.24218">
        <ele>426.8</ele>
        <time>2012-04-19T12:33:29Z</time>
      </trkpt>
      <trkpt lat="43.76946" lon="7.24221">
        <ele>427</ele>
        <time>2012-04-19T12:33:30Z</time>
      </trkpt>
      <trkpt lat="43.76951" lon="7.24224">
        <ele>427.1</ele>
        <time>2012-04-19T12:33:31Z</time>
      </trkpt>
      <trkpt lat="43.76955" lon="7.24227">
        <ele>427.5</ele>
        <time>2012-04-19T12:33:32Z</time>
      </trkpt>
      <trkpt lat="43.76959" lon="7.2423">
        <ele>427.8</ele>
        <time>2012-04-19T12:33:33Z</time>
      </trkpt>
      <trkpt lat="43.76964" lon="7.24234">
        <ele>428.1</ele>
        <time>2012-04-19T12:33:34Z</time>
      </trkpt>
      <trkpt lat="43.76968" lon="7.24238">
        <ele>428</ele>
        <time>2012-04-19T12:33:35Z</time>
      </trkpt>
      <trkpt lat="43.76973" lon="7.24241">
        <ele>427.9</ele>
        <time>2012-04-19T12:33:36Z</time>
      </trkpt>
      <trkpt lat="43.76978" lon="7.24245">
        <ele>428</ele>
        <time>2012-04-19T12:33:37Z</time>
      </trkpt>
      <trkpt lat="43.76983" lon="7.24249">
        <ele>428.1</ele>
        <time>2012-04-19T12:33:38Z</time>
      </trkpt>
      <trkpt lat="43.76988" lon="7.24253">
        <ele>428.5</ele>
        <time>2012-04-19T12:33:39Z</time>
      </trkpt>
      <trkpt lat="43.76993" lon="7.24256">
        <ele>428.8</ele>
        <time>2012-04-19T12:33:40Z</time>
      </trkpt>
      <trkpt lat="43.76998" lon="7.24258">
        <ele>429</ele>
        <time>2012-04-19T12:33:41Z</time>
      </trkpt>
      <trkpt lat="43.77003" lon="7.24261">
        <ele>429.3</ele>
        <time>2012-04-19T12:33:42Z</time>
      </trkpt>
      <trkpt lat="43.77008" lon="7.24263">
        <ele>429.6</ele>
        <time>2012-04-19T12:33:43Z</time>
      </trkpt>
      <trkpt lat="43.77014" lon="7.24265">
        <ele>429.4</ele>
        <time>2012-04-19T12:33:44Z</time>
      </trkpt>
      <trkpt lat="43.77019" lon="7.24266">
        <ele>429.3</ele>
        <time>2012-04-19T12:33:45Z</time>
      </trkpt>
      <trkpt lat="43.77025" lon="7.24266">
        <ele>429.2</ele>
        <time>2012-04-19T12:33:46Z</time>
      </trkpt>
      <trkpt lat="43.77031" lon="7.24267">
        <ele>429.4</ele>
        <time>2012-04-19T12:33:47Z</time>
      </trkpt>
      <trkpt lat="43.77036" lon="7.24268">
        <ele>429.5</ele>
        <time>2012-04-19T12:33:48Z</time>
      </trkpt>
      <trkpt lat="43.77042" lon="7.24268">
        <ele>429.9</ele>
        <time>2012-04-19T12:33:49Z</time>
      </trkpt>
      <trkpt lat="43.77047" lon="7.24268">
        <ele>430.3</ele>
        <time>2012-04-19T12:33:50Z</time>
      </trkpt>
      <trkpt lat="43.77052" lon="7.24268">
        <ele>430.6</ele>
        <time>2012-04-19T12:33:51Z</time>
      </trkpt>
      <trkpt lat="43.77058" lon="7.24268">
        <ele>430.8</ele>
        <time>2012-04-19T12:33:52Z</time>
      </trkpt>
      <trkpt lat="43.77063" lon="7.24267">
        <ele>430.9</ele>
        <time>2012-04-19T12:33:53Z</time>
      </trkpt>
      <trkpt lat="43.77068" lon="7.24267">
        <ele>431.3</ele>
        <time>2012-04-19T12:33:54Z</time>
      </trkpt>
      <trkpt lat="43.77074" lon="7.24266">
        <ele>431.5</ele>
        <time>2012-04-19T12:33:55Z</time>
      </trkpt>
      <trkpt lat="43.77079" lon="7.24265">
        <ele>431.7</ele>
        <time>2012-04-19T12:33:56Z</time>
      </trkpt>
      <trkpt lat="43.77084" lon="7.24264">
        <ele>431.9</ele>
        <time>2012-04-19T12:33:57Z</time>
      </trkpt>
      <trkpt lat="43.7709" lon="7.24264">
        <ele>432.1</ele>
        <time>2012-04-19T12:33:58Z</time>
      </trkpt>
      <trkpt lat="43.77095" lon="7.24263">
        <ele>432.4</ele>
        <time>2012-04-19T12:33:59Z</time>
      </trkpt>
      <trkpt lat="43.771" lon="7.24262">
        <ele>432.5</ele>
        <time>2012-04-19T12:34:00Z</time>
      </trkpt>
      <trkpt lat="43.77105" lon="7.2426">
        <ele>432.7</ele>
        <time>2012-04-19T12:34:01Z</time>
      </trkpt>
      <trkpt lat="43.7711" lon="7.24259">
        <ele>432.9</ele>
        <time>2012-04-19T12:34:02Z</time>
      </trkpt>
      <trkpt lat="43.77115" lon="7.24258">
        <ele>433.3</ele>
        <time>2012-04-19T12:34:03Z</time>
      </trkpt>
      <trkpt lat="43.7712" lon="7.24257">
        <ele>433.6</ele>
        <time>2012-04-19T12:34:04Z</time>
      </trkpt>
      <trkpt lat="43.77125" lon="7.24256">
        <ele>433.8</ele>
        <time>2012-04-19T12:34:05Z</time>
      </trkpt>
      <trkpt lat="43.7713" lon="7.24255">
        <ele>433.6</ele>
        <time>2012-04-19T12:34:06Z</time>
      </trkpt>
      <trkpt lat="43.77135" lon="7.24254">
        <ele>433.5</ele>
        <time>2012-04-19T12:34:07Z</time>
      </trkpt>
      <trkpt lat="43.7714" lon="7.24252">
        <ele>433.7</ele>
        <time>2012-04-19T12:34:08Z</time>
      </trkpt>
      <trkpt lat="43.77145" lon="7.24251">
        <ele>433.8</ele>
        <time>2012-04-19T12:34:09Z</time>
      </trkpt>
      <trkpt lat="43.7715" lon="7.24251">
        <ele>434.3</ele>
        <time>2012-04-19T12:34:10Z</time>
      </trkpt>
      <trkpt lat="43.77156" lon="7.24251">
        <ele>434.6</ele>
        <time>2012-04-19T12:34:11Z</time>
      </trkpt>
      <trkpt lat="43.77161" lon="7.24251">
        <ele>434.9</ele>
        <time>2012-04-19T12:34:12Z</time>
      </trkpt>
      <trkpt lat="43.77166" lon="7.24252">
        <ele>435</ele>
        <time>2012-04-19T12:34:13Z</time>
      </trkpt>
      <trkpt lat="43.77172" lon="7.24253">
        <ele>435.1</ele>
        <time>2012-04-19T12:34:14Z</time>
      </trkpt>
      <trkpt lat="43.77177" lon="7.24254">
        <ele>435.2</ele>
        <time>2012-04-19T12:34:15Z</time>
      </trkpt>
      <trkpt lat="43.77182" lon="7.24255">
        <ele>435.2</ele>
        <time>2012-04-19T12:34:16Z</time>
      </trkpt>
      <trkpt lat="43.77186" lon="7.24256">
        <ele>435.6</ele>
        <time>2012-04-19T12:34:17Z</time>
      </trkpt>
      <trkpt lat="43.77191" lon="7.24258">
        <ele>435.9</ele>
        <time>2012-04-19T12:34:18Z</time>
      </trkpt>
      <trkpt lat="43.77196" lon="7.24259">
        <ele>436.1</ele>
        <time>2012-04-19T12:34:19Z</time>
      </trkpt>
      <trkpt lat="43.772" lon="7.24261">
        <ele>436.3</ele>
        <time>2012-04-19T12:34:20Z</time>
      </trkpt>
      <trkpt lat="43.77205" lon="7.24263">
        <ele>436.5</ele>
        <time>2012-04-19T12:34:21Z</time>
      </trkpt>
      <trkpt lat="43.7721" lon="7.24265">
        <ele>436.7</ele>
        <time>2012-04-19T12:34:22Z</time>
      </trkpt>
      <trkpt lat="43.77215" lon="7.24267">
        <ele>436.8</ele>
        <time>2012-04-19T12:34:23Z</time>
      </trkpt>
      <trkpt lat="43.7722" lon="7.24269">
        <ele>436.9</ele>
        <time>2012-04-19T12:34:24Z</time>
      </trkpt>
      <trkpt lat="43.77224" lon="7.24271">
        <ele>437.2</ele>
        <time>2012-04-19T12:34:25Z</time>
      </trkpt>
      <trkpt lat="43.77229" lon="7.24274">
        <ele>437.4</ele>
        <time>2012-04-19T12:34:26Z</time>
      </trkpt>
      <trkpt lat="43.77233" lon="7.24278">
        <ele>437.5</ele>
        <time>2012-04-19T12:34:27Z</time>
      </trkpt>
      <trkpt lat="43.77237" lon="7.24282">
        <ele>437.5</ele>
        <time>2012-04-19T12:34:28Z</time>
      </trkpt>
      <trkpt lat="43.77241" lon="7.24286">
        <ele>438</ele>
        <time>2012-04-19T12:34:29Z</time>
      </trkpt>
      <trkpt lat="43.77245" lon="7.24291">
        <ele>438.3</ele>
        <time>2012-04-19T12:34:30Z</time>
      </trkpt>
      <trkpt lat="43.77248" lon="7.24296">
        <ele>438.6</ele>
        <time>2012-04-19T12:34:31Z</time>
      </trkpt>
      <trkpt lat="43.77251" lon="7.243">
        <ele>439</ele>
        <time>2012-04-19T12:34:32Z</time>
      </trkpt>
      <trkpt lat="43.77255" lon="7.24305">
        <ele>439.3</ele>
        <time>2012-04-19T12:34:33Z</time>
      </trkpt>
      <trkpt lat="43.77258" lon="7.2431">
        <ele>439.6</ele>
        <time>2012-04-19T12:34:34Z</time>
      </trkpt>
      <trkpt lat="43.77262" lon="7.24316">
        <ele>439.8</ele>
        <time>2012-04-19T12:34:35Z</time>
      </trkpt>
      <trkpt lat="43.77265" lon="7.24321">
        <ele>440.1</ele>
        <time>2012-04-19T12:34:36Z</time>
      </trkpt>
      <trkpt lat="43.77269" lon="7.24325">
        <ele>440.3</ele>
        <time>2012-04-19T12:34:37Z</time>
      </trkpt>
      <trkpt lat="43.77273" lon="7.2433">
        <ele>440.4</ele>
        <time>2012-04-19T12:34:38Z</time>
      </trkpt>
      <trkpt lat="43.77276" lon="7.24334">
        <ele>440.4</ele>
        <time>2012-04-19T12:34:39Z</time>
      </trkpt>
      <trkpt lat="43.7728" lon="7.24338">
        <ele>440.3</ele>
        <time>2012-04-19T12:34:40Z</time>
      </trkpt>
      <trkpt lat="43.77284" lon="7.24342">
        <ele>440.3</ele>
        <time>2012-04-19T12:34:41Z</time>
      </trkpt>
      <trkpt lat="43.77292" lon="7.24347">
        <ele>440.3</ele>
        <time>2012-04-19T12:34:43Z</time>
      </trkpt>
      <trkpt lat="43.773" lon="7.24349">
        <ele>441.1</ele>
        <time>2012-04-19T12:34:45Z</time>
      </trkpt>
      <trkpt lat="43.77307" lon="7.24348">
        <ele>441.1</ele>
        <time>2012-04-19T12:34:47Z</time>
      </trkpt>
      <trkpt lat="43.77315" lon="7.24345">
        <ele>441.8</ele>
        <time>2012-04-19T12:34:49Z</time>
      </trkpt>
      <trkpt lat="43.77323" lon="7.24341">
        <ele>442.1</ele>
        <time>2012-04-19T12:34:51Z</time>
      </trkpt>
      <trkpt lat="43.77329" lon="7.24335">
        <ele>442.2</ele>
        <time>2012-04-19T12:34:53Z</time>
      </trkpt>
      <trkpt lat="43.77337" lon="7.2433">
        <ele>442.7</ele>
        <time>2012-04-19T12:34:55Z</time>
      </trkpt>
      <trkpt lat="43.77345" lon="7.24327">
        <ele>443.2</ele>
        <time>2012-04-19T12:34:57Z</time>
      </trkpt>
      <trkpt lat="43.77354" lon="7.24326">
        <ele>443.6</ele>
        <time>2012-04-19T12:34:59Z</time>
      </trkpt>
      <trkpt lat="43.77362" lon="7.24326">
        <ele>444</ele>
        <time>2012-04-19T12:35:01Z</time>
      </trkpt>
      <trkpt lat="43.77367" lon="7.24326">
        <ele>444.1</ele>
        <time>2012-04-19T12:35:02Z</time>
      </trkpt>
      <trkpt lat="43.7738" lon="7.24327">
        <ele>445</ele>
        <time>2012-04-19T12:35:05Z</time>
      </trkpt>
      <trkpt lat="43.77388" lon="7.24328">
        <ele>445.1</ele>
        <time>2012-04-19T12:35:07Z</time>
      </trkpt>
      <trkpt lat="43.77397" lon="7.24328">
        <ele>445.2</ele>
        <time>2012-04-19T12:35:09Z</time>
      </trkpt>
      <trkpt lat="43.77406" lon="7.24329">
        <ele>445.6</ele>
        <time>2012-04-19T12:35:11Z</time>
      </trkpt>
      <trkpt lat="43.77414" lon="7.2433">
        <ele>446.3</ele>
        <time>2012-04-19T12:35:13Z</time>
      </trkpt>
      <trkpt lat="43.77423" lon="7.24331">
        <ele>446.9</ele>
        <time>2012-04-19T12:35:15Z</time>
      </trkpt>
      <trkpt lat="43.77427" lon="7.24331">
        <ele>447.1</ele>
        <time>2012-04-19T12:35:16Z</time>
      </trkpt>
      <trkpt lat="43.77432" lon="7.24332">
        <ele>447.1</ele>
        <time>2012-04-19T12:35:17Z</time>
      </trkpt>
      <trkpt lat="43.77436" lon="7.24333">
        <ele>447.1</ele>
        <time>2012-04-19T12:35:18Z</time>
      </trkpt>
      <trkpt lat="43.77441" lon="7.24334">
        <ele>447.3</ele>
        <time>2012-04-19T12:35:19Z</time>
      </trkpt>
      <trkpt lat="43.7745" lon="7.24337">
        <ele>447.5</ele>
        <time>2012-04-19T12:35:21Z</time>
      </trkpt>
      <trkpt lat="43.77454" lon="7.24339">
        <ele>447.5</ele>
        <time>2012-04-19T12:35:22Z</time>
      </trkpt>
      <trkpt lat="43.77458" lon="7.24342">
        <ele>447.4</ele>
        <time>2012-04-19T12:35:23Z</time>
      </trkpt>
      <trkpt lat="43.77462" lon="7.24345">
        <ele>448</ele>
        <time>2012-04-19T12:35:24Z</time>
      </trkpt>
      <trkpt lat="43.77466" lon="7.24348">
        <ele>448.4</ele>
        <time>2012-04-19T12:35:25Z</time>
      </trkpt>
      <trkpt lat="43.7747" lon="7.24352">
        <ele>448.4</ele>
        <time>2012-04-19T12:35:26Z</time>
      </trkpt>
      <trkpt lat="43.77474" lon="7.24357">
        <ele>448.4</ele>
        <time>2012-04-19T12:35:27Z</time>
      </trkpt>
      <trkpt lat="43.77478" lon="7.2436">
        <ele>448.4</ele>
        <time>2012-04-19T12:35:28Z</time>
      </trkpt>
      <trkpt lat="43.77483" lon="7.24363">
        <ele>448.6</ele>
        <time>2012-04-19T12:35:29Z</time>
      </trkpt>
      <trkpt lat="43.77488" lon="7.24365">
        <ele>448.7</ele>
        <time>2012-04-19T12:35:30Z</time>
      </trkpt>
      <trkpt lat="43.77493" lon="7.24366">
        <ele>449.4</ele>
        <time>2012-04-19T12:35:31Z</time>
      </trkpt>
      <trkpt lat="43.77499" lon="7.24367">
        <ele>449.9</ele>
        <time>2012-04-19T12:35:32Z</time>
      </trkpt>
      <trkpt lat="43.77504" lon="7.24366">
        <ele>449.9</ele>
        <time>2012-04-19T12:35:33Z</time>
      </trkpt>
      <trkpt lat="43.77508" lon="7.24364">
        <ele>449.8</ele>
        <time>2012-04-19T12:35:34Z</time>
      </trkpt>
      <trkpt lat="43.77513" lon="7.24361">
        <ele>449.8</ele>
        <time>2012-04-19T12:35:35Z</time>
      </trkpt>
      <trkpt lat="43.77517" lon="7.24358">
        <ele>450.3</ele>
        <time>2012-04-19T12:35:36Z</time>
      </trkpt>
      <trkpt lat="43.77521" lon="7.24355">
        <ele>450.6</ele>
        <time>2012-04-19T12:35:37Z</time>
      </trkpt>
      <trkpt lat="43.77525" lon="7.24351">
        <ele>450.6</ele>
        <time>2012-04-19T12:35:38Z</time>
      </trkpt>
      <trkpt lat="43.77529" lon="7.24347">
        <ele>450.6</ele>
        <time>2012-04-19T12:35:39Z</time>
      </trkpt>
      <trkpt lat="43.77533" lon="7.24343">
        <ele>450.7</ele>
        <time>2012-04-19T12:35:40Z</time>
      </trkpt>
      <trkpt lat="43.77538" lon="7.2434">
        <ele>450.8</ele>
        <time>2012-04-19T12:35:41Z</time>
      </trkpt>
      <trkpt lat="43.77542" lon="7.24337">
        <ele>450.9</ele>
        <time>2012-04-19T12:35:42Z</time>
      </trkpt>
      <trkpt lat="43.77547" lon="7.24334">
        <ele>451.2</ele>
        <time>2012-04-19T12:35:43Z</time>
      </trkpt>
      <trkpt lat="43.77552" lon="7.24333">
        <ele>451.5</ele>
        <time>2012-04-19T12:35:44Z</time>
      </trkpt>
      <trkpt lat="43.77556" lon="7.24331">
        <ele>451.8</ele>
        <time>2012-04-19T12:35:45Z</time>
      </trkpt>
      <trkpt lat="43.77561" lon="7.2433">
        <ele>452</ele>
        <time>2012-04-19T12:35:46Z</time>
      </trkpt>
      <trkpt lat="43.77566" lon="7.24329">
        <ele>452.1</ele>
        <time>2012-04-19T12:35:47Z</time>
      </trkpt>
      <trkpt lat="43.77571" lon="7.24328">
        <ele>452.6</ele>
        <time>2012-04-19T12:35:48Z</time>
      </trkpt>
      <trkpt lat="43.77575" lon="7.24327">
        <ele>453</ele>
        <time>2012-04-19T12:35:49Z</time>
      </trkpt>
      <trkpt lat="43.7758" lon="7.24326">
        <ele>453</ele>
        <time>2012-04-19T12:35:50Z</time>
      </trkpt>
      <trkpt lat="43.77585" lon="7.24326">
        <ele>453</ele>
        <time>2012-04-19T12:35:51Z</time>
      </trkpt>
      <trkpt lat="43.77589" lon="7.24325">
        <ele>453.3</ele>
        <time>2012-04-19T12:35:52Z</time>
      </trkpt>
      <trkpt lat="43.77598" lon="7.24324">
        <ele>453.8</ele>
        <time>2012-04-19T12:35:54Z</time>
      </trkpt>
      <trkpt lat="43.77607" lon="7.24322">
        <ele>454.1</ele>
        <time>2012-04-19T12:35:56Z</time>
      </trkpt>
      <trkpt lat="43.77615" lon="7.24321">
        <ele>454.4</ele>
        <time>2012-04-19T12:35:58Z</time>
      </trkpt>
      <trkpt lat="43.77624" lon="7.24319">
        <ele>454.7</ele>
        <time>2012-04-19T12:36:00Z</time>
      </trkpt>
      <trkpt lat="43.77632" lon="7.24318">
        <ele>455.2</ele>
        <time>2012-04-19T12:36:02Z</time>
      </trkpt>
      <trkpt lat="43.77641" lon="7.24317">
        <ele>455.5</ele>
        <time>2012-04-19T12:36:04Z</time>
      </trkpt>
      <trkpt lat="43.77645" lon="7.24317">
        <ele>455.6</ele>
        <time>2012-04-19T12:36:05Z</time>
      </trkpt>
      <trkpt lat="43.77658" lon="7.24317">
        <ele>456.7</ele>
        <time>2012-04-19T12:36:08Z</time>
      </trkpt>
      <trkpt lat="43.77666" lon="7.24319">
        <ele>455.9</ele>
        <time>2012-04-19T12:36:10Z</time>
      </trkpt>
      <trkpt lat="43.77675" lon="7.24322">
        <ele>456.8</ele>
        <time>2012-04-19T12:36:12Z</time>
      </trkpt>
      <trkpt lat="43.77683" lon="7.24325">
        <ele>457.5</ele>
        <time>2012-04-19T12:36:14Z</time>
      </trkpt>
      <trkpt lat="43.77691" lon="7.24329">
        <ele>457.9</ele>
        <time>2012-04-19T12:36:16Z</time>
      </trkpt>
      <trkpt lat="43.77698" lon="7.24335">
        <ele>458.2</ele>
        <time>2012-04-19T12:36:18Z</time>
      </trkpt>
      <trkpt lat="43.77705" lon="7.24342">
        <ele>458.4</ele>
        <time>2012-04-19T12:36:20Z</time>
      </trkpt>
      <trkpt lat="43.77711" lon="7.2435">
        <ele>458.4</ele>
        <time>2012-04-19T12:36:22Z</time>
      </trkpt>
      <trkpt lat="43.77717" lon="7.24359">
        <ele>458.6</ele>
        <time>2012-04-19T12:36:24Z</time>
      </trkpt>
      <trkpt lat="43.77723" lon="7.24368">
        <ele>459</ele>
        <time>2012-04-19T12:36:26Z</time>
      </trkpt>
      <trkpt lat="43.77731" lon="7.24374">
        <ele>459.7</ele>
        <time>2012-04-19T12:36:28Z</time>
      </trkpt>
      <trkpt lat="43.77739" lon="7.24377">
        <ele>460.1</ele>
        <time>2012-04-19T12:36:30Z</time>
      </trkpt>
      <trkpt lat="43.77747" lon="7.24377">
        <ele>460.1</ele>
        <time>2012-04-19T12:36:32Z</time>
      </trkpt>
      <trkpt lat="43.77754" lon="7.24373">
        <ele>460.9</ele>
        <time>2012-04-19T12:36:34Z</time>
      </trkpt>
      <trkpt lat="43.77761" lon="7.24368">
        <ele>461.8</ele>
        <time>2012-04-19T12:36:36Z</time>
      </trkpt>
      <trkpt lat="43.77768" lon="7.24363">
        <ele>461.8</ele>
        <time>2012-04-19T12:36:38Z</time>
      </trkpt>
      <trkpt lat="43.77774" lon="7.24357">
        <ele>461.8</ele>
        <time>2012-04-19T12:36:40Z</time>
      </trkpt>
      <trkpt lat="43.77781" lon="7.24351">
        <ele>461.8</ele>
        <time>2012-04-19T12:36:42Z</time>
      </trkpt>
      <trkpt lat="43.77785" lon="7.24348">
        <ele>461.8</ele>
        <time>2012-04-19T12:36:43Z</time>
      </trkpt>
      <trkpt lat="43.77789" lon="7.24345">
        <ele>461.9</ele>
        <time>2012-04-19T12:36:44Z</time>
      </trkpt>
      <trkpt lat="43.77797" lon="7.2434">
        <ele>462.1</ele>
        <time>2012-04-19T12:36:46Z</time>
      </trkpt>
      <trkpt lat="43.77806" lon="7.24335">
        <ele>462.1</ele>
        <time>2012-04-19T12:36:48Z</time>
      </trkpt>
      <trkpt lat="43.77814" lon="7.24333">
        <ele>462.1</ele>
        <time>2012-04-19T12:36:50Z</time>
      </trkpt>
      <trkpt lat="43.77823" lon="7.24331">
        <ele>462.6</ele>
        <time>2012-04-19T12:36:52Z</time>
      </trkpt>
      <trkpt lat="43.77832" lon="7.24331">
        <ele>463.4</ele>
        <time>2012-04-19T12:36:54Z</time>
      </trkpt>
      <trkpt lat="43.77841" lon="7.24331">
        <ele>464.3</ele>
        <time>2012-04-19T12:36:56Z</time>
      </trkpt>
      <trkpt lat="43.77849" lon="7.2433">
        <ele>465</ele>
        <time>2012-04-19T12:36:58Z</time>
      </trkpt>
      <trkpt lat="43.77854" lon="7.24331">
        <ele>464.8</ele>
        <time>2012-04-19T12:36:59Z</time>
      </trkpt>
      <trkpt lat="43.77858" lon="7.24331">
        <ele>464.7</ele>
        <time>2012-04-19T12:37:00Z</time>
      </trkpt>
      <trkpt lat="43.77863" lon="7.24331">
        <ele>464.8</ele>
        <time>2012-04-19T12:37:01Z</time>
      </trkpt>
      <trkpt lat="43.77868" lon="7.24331">
        <ele>464.8</ele>
        <time>2012-04-19T12:37:02Z</time>
      </trkpt>
      <trkpt lat="43.77872" lon="7.24331">
        <ele>464.9</ele>
        <time>2012-04-19T12:37:03Z</time>
      </trkpt>
      <trkpt lat="43.77881" lon="7.24331">
        <ele>465.1</ele>
        <time>2012-04-19T12:37:05Z</time>
      </trkpt>
      <trkpt lat="43.77886" lon="7.24331">
        <ele>465.4</ele>
        <time>2012-04-19T12:37:06Z</time>
      </trkpt>
      <trkpt lat="43.7789" lon="7.24331">
        <ele>465.6</ele>
        <time>2012-04-19T12:37:07Z</time>
      </trkpt>
      <trkpt lat="43.77895" lon="7.24332">
        <ele>465.9</ele>
        <time>2012-04-19T12:37:08Z</time>
      </trkpt>
      <trkpt lat="43.77899" lon="7.24332">
        <ele>466.1</ele>
        <time>2012-04-19T12:37:09Z</time>
      </trkpt>
      <trkpt lat="43.77904" lon="7.24333">
        <ele>466.3</ele>
        <time>2012-04-19T12:37:10Z</time>
      </trkpt>
      <trkpt lat="43.77908" lon="7.24334">
        <ele>466.6</ele>
        <time>2012-04-19T12:37:11Z</time>
      </trkpt>
      <trkpt lat="43.77913" lon="7.24335">
        <ele>466.8</ele>
        <time>2012-04-19T12:37:12Z</time>
      </trkpt>
      <trkpt lat="43.77918" lon="7.24336">
        <ele>466.8</ele>
        <time>2012-04-19T12:37:13Z</time>
      </trkpt>
      <trkpt lat="43.77922" lon="7.24338">
        <ele>466.9</ele>
        <time>2012-04-19T12:37:14Z</time>
      </trkpt>
      <trkpt lat="43.77927" lon="7.24339">
        <ele>467.2</ele>
        <time>2012-04-19T12:37:15Z</time>
      </trkpt>
      <trkpt lat="43.77931" lon="7.24341">
        <ele>467.4</ele>
        <time>2012-04-19T12:37:16Z</time>
      </trkpt>
      <trkpt lat="43.77936" lon="7.24343">
        <ele>467.6</ele>
        <time>2012-04-19T12:37:17Z</time>
      </trkpt>
      <trkpt lat="43.7794" lon="7.24345">
        <ele>467.6</ele>
        <time>2012-04-19T12:37:18Z</time>
      </trkpt>
      <trkpt lat="43.77944" lon="7.24348">
        <ele>467.6</ele>
        <time>2012-04-19T12:37:19Z</time>
      </trkpt>
      <trkpt lat="43.77948" lon="7.24351">
        <ele>467.8</ele>
        <time>2012-04-19T12:37:20Z</time>
      </trkpt>
      <trkpt lat="43.77952" lon="7.24354">
        <ele>467.9</ele>
        <time>2012-04-19T12:37:21Z</time>
      </trkpt>
      <trkpt lat="43.77956" lon="7.24358">
        <ele>468</ele>
        <time>2012-04-19T12:37:22Z</time>
      </trkpt>
      <trkpt lat="43.77959" lon="7.24362">
        <ele>468.3</ele>
        <time>2012-04-19T12:37:23Z</time>
      </trkpt>
      <trkpt lat="43.77963" lon="7.24366">
        <ele>468.4</ele>
        <time>2012-04-19T12:37:24Z</time>
      </trkpt>
      <trkpt lat="43.77966" lon="7.24371">
        <ele>469</ele>
        <time>2012-04-19T12:37:25Z</time>
      </trkpt>
      <trkpt lat="43.7797" lon="7.24376">
        <ele>469.5</ele>
        <time>2012-04-19T12:37:26Z</time>
      </trkpt>
      <trkpt lat="43.77973" lon="7.24381">
        <ele>469.6</ele>
        <time>2012-04-19T12:37:27Z</time>
      </trkpt>
      <trkpt lat="43.77977" lon="7.24386">
        <ele>469.7</ele>
        <time>2012-04-19T12:37:28Z</time>
      </trkpt>
      <trkpt lat="43.7798" lon="7.2439">
        <ele>469.8</ele>
        <time>2012-04-19T12:37:29Z</time>
      </trkpt>
      <trkpt lat="43.77983" lon="7.24395">
        <ele>469.7</ele>
        <time>2012-04-19T12:37:30Z</time>
      </trkpt>
      <trkpt lat="43.77987" lon="7.24399">
        <ele>469.6</ele>
        <time>2012-04-19T12:37:31Z</time>
      </trkpt>
      <trkpt lat="43.7799" lon="7.24403">
        <ele>469.8</ele>
        <time>2012-04-19T12:37:32Z</time>
      </trkpt>
      <trkpt lat="43.77993" lon="7.24408">
        <ele>469.9</ele>
        <time>2012-04-19T12:37:33Z</time>
      </trkpt>
      <trkpt lat="43.77997" lon="7.24412">
        <ele>470.5</ele>
        <time>2012-04-19T12:37:34Z</time>
      </trkpt>
      <trkpt lat="43.78" lon="7.24417">
        <ele>470.9</ele>
        <time>2012-04-19T12:37:35Z</time>
      </trkpt>
      <trkpt lat="43.78007" lon="7.24425">
        <ele>471.2</ele>
        <time>2012-04-19T12:37:37Z</time>
      </trkpt>
      <trkpt lat="43.78013" lon="7.24433">
        <ele>471.2</ele>
        <time>2012-04-19T12:37:39Z</time>
      </trkpt>
      <trkpt lat="43.7802" lon="7.2444">
        <ele>471.4</ele>
        <time>2012-04-19T12:37:41Z</time>
      </trkpt>
      <trkpt lat="43.78024" lon="7.24444">
        <ele>471.8</ele>
        <time>2012-04-19T12:37:42Z</time>
      </trkpt>
      <trkpt lat="43.78028" lon="7.24447">
        <ele>472.1</ele>
        <time>2012-04-19T12:37:43Z</time>
      </trkpt>
      <trkpt lat="43.78031" lon="7.24451">
        <ele>472.3</ele>
        <time>2012-04-19T12:37:44Z</time>
      </trkpt>
      <trkpt lat="43.78038" lon="7.24459">
        <ele>472.6</ele>
        <time>2012-04-19T12:37:46Z</time>
      </trkpt>
      <trkpt lat="43.78046" lon="7.24466">
        <ele>472.7</ele>
        <time>2012-04-19T12:37:48Z</time>
      </trkpt>
      <trkpt lat="43.78049" lon="7.24469">
        <ele>472.7</ele>
        <time>2012-04-19T12:37:49Z</time>
      </trkpt>
      <trkpt lat="43.78057" lon="7.24476">
        <ele>473.3</ele>
        <time>2012-04-19T12:37:51Z</time>
      </trkpt>
      <trkpt lat="43.78064" lon="7.24482">
        <ele>474.1</ele>
        <time>2012-04-19T12:37:53Z</time>
      </trkpt>
      <trkpt lat="43.78071" lon="7.24488">
        <ele>474.6</ele>
        <time>2012-04-19T12:37:55Z</time>
      </trkpt>
      <trkpt lat="43.78078" lon="7.24493">
        <ele>474.7</ele>
        <time>2012-04-19T12:37:57Z</time>
      </trkpt>
      <trkpt lat="43.78084" lon="7.24497">
        <ele>475.5</ele>
        <time>2012-04-19T12:37:59Z</time>
      </trkpt>
      <trkpt lat="43.78091" lon="7.24502">
        <ele>475.7</ele>
        <time>2012-04-19T12:38:01Z</time>
      </trkpt>
      <trkpt lat="43.78098" lon="7.24507">
        <ele>476.4</ele>
        <time>2012-04-19T12:38:03Z</time>
      </trkpt>
      <trkpt lat="43.78105" lon="7.2451">
        <ele>476.9</ele>
        <time>2012-04-19T12:38:05Z</time>
      </trkpt>
      <trkpt lat="43.78113" lon="7.24514">
        <ele>476.9</ele>
        <time>2012-04-19T12:38:07Z</time>
      </trkpt>
      <trkpt lat="43.7812" lon="7.24518">
        <ele>477.5</ele>
        <time>2012-04-19T12:38:09Z</time>
      </trkpt>
      <trkpt lat="43.78123" lon="7.24521">
        <ele>477.2</ele>
        <time>2012-04-19T12:38:10Z</time>
      </trkpt>
      <trkpt lat="43.78133" lon="7.2453">
        <ele>476.7</ele>
        <time>2012-04-19T12:38:13Z</time>
      </trkpt>
      <trkpt lat="43.7814" lon="7.24537">
        <ele>477</ele>
        <time>2012-04-19T12:38:15Z</time>
      </trkpt>
      <trkpt lat="43.78145" lon="7.24544">
        <ele>477.7</ele>
        <time>2012-04-19T12:38:17Z</time>
      </trkpt>
      <trkpt lat="43.7815" lon="7.24551">
        <ele>478.4</ele>
        <time>2012-04-19T12:38:19Z</time>
      </trkpt>
      <trkpt lat="43.78155" lon="7.24559">
        <ele>478</ele>
        <time>2012-04-19T12:38:21Z</time>
      </trkpt>
      <trkpt lat="43.7816" lon="7.24566">
        <ele>478.9</ele>
        <time>2012-04-19T12:38:23Z</time>
      </trkpt>
      <trkpt lat="43.78166" lon="7.24573">
        <ele>479.1</ele>
        <time>2012-04-19T12:38:25Z</time>
      </trkpt>
      <trkpt lat="43.78172" lon="7.2458">
        <ele>479.1</ele>
        <time>2012-04-19T12:38:27Z</time>
      </trkpt>
      <trkpt lat="43.78178" lon="7.24587">
        <ele>485</ele>
        <time>2012-04-19T12:38:29Z</time>
      </trkpt>
      <trkpt lat="43.78185" lon="7.24592">
        <ele>493.1</ele>
        <time>2012-04-19T12:38:31Z</time>
      </trkpt>
      <trkpt lat="43.78191" lon="7.24596">
        <ele>497.9</ele>
        <time>2012-04-19T12:38:33Z</time>
      </trkpt>
      <trkpt lat="43.78197" lon="7.24601">
        <ele>500.9</ele>
        <time>2012-04-19T12:38:35Z</time>
      </trkpt>
      <trkpt lat="43.78204" lon="7.24605">
        <ele>502.3</ele>
        <time>2012-04-19T12:38:37Z</time>
      </trkpt>
      <trkpt lat="43.7821" lon="7.24609">
        <ele>502.4</ele>
        <time>2012-04-19T12:38:39Z</time>
      </trkpt>
      <trkpt lat="43.78217" lon="7.24612">
        <ele>502.9</ele>
        <time>2012-04-19T12:38:41Z</time>
      </trkpt>
      <trkpt lat="43.78223" lon="7.24616">
        <ele>503.7</ele>
        <time>2012-04-19T12:38:43Z</time>
      </trkpt>
      <trkpt lat="43.78229" lon="7.2462">
        <ele>504.1</ele>
        <time>2012-04-19T12:38:45Z</time>
      </trkpt>
      <trkpt lat="43.78236" lon="7.24624">
        <ele>504.7</ele>
        <time>2012-04-19T12:38:47Z</time>
      </trkpt>
      <trkpt lat="43.78243" lon="7.24628">
        <ele>505.3</ele>
        <time>2012-04-19T12:38:49Z</time>
      </trkpt>
      <trkpt lat="43.7825" lon="7.24632">
        <ele>505.4</ele>
        <time>2012-04-19T12:38:51Z</time>
      </trkpt>
      <trkpt lat="43.78256" lon="7.24636">
        <ele>505.9</ele>
        <time>2012-04-19T12:38:53Z</time>
      </trkpt>
      <trkpt lat="43.78263" lon="7.2464">
        <ele>506.5</ele>
        <time>2012-04-19T12:38:55Z</time>
      </trkpt>
      <trkpt lat="43.7827" lon="7.24646">
        <ele>506.3</ele>
        <time>2012-04-19T12:38:57Z</time>
      </trkpt>
      <trkpt lat="43.78276" lon="7.24652">
        <ele>505.8</ele>
        <time>2012-04-19T12:38:59Z</time>
      </trkpt>
      <trkpt lat="43.78281" lon="7.2466">
        <ele>507</ele>
        <time>2012-04-19T12:39:01Z</time>
      </trkpt>
      <trkpt lat="43.78286" lon="7.24668">
        <ele>507.1</ele>
        <time>2012-04-19T12:39:03Z</time>
      </trkpt>
      <trkpt lat="43.78291" lon="7.24677">
        <ele>507.1</ele>
        <time>2012-04-19T12:39:05Z</time>
      </trkpt>
      <trkpt lat="43.78294" lon="7.24686">
        <ele>508.1</ele>
        <time>2012-04-19T12:39:07Z</time>
      </trkpt>
      <trkpt lat="43.78298" lon="7.24695">
        <ele>508.9</ele>
        <time>2012-04-19T12:39:09Z</time>
      </trkpt>
      <trkpt lat="43.78301" lon="7.24703">
        <ele>509.1</ele>
        <time>2012-04-19T12:39:11Z</time>
      </trkpt>
      <trkpt lat="43.78305" lon="7.24711">
        <ele>509.7</ele>
        <time>2012-04-19T12:39:13Z</time>
      </trkpt>
      <trkpt lat="43.78306" lon="7.24715">
        <ele>509.5</ele>
        <time>2012-04-19T12:39:14Z</time>
      </trkpt>
      <trkpt lat="43.78312" lon="7.24727">
        <ele>509.4</ele>
        <time>2012-04-19T12:39:17Z</time>
      </trkpt>
      <trkpt lat="43.78316" lon="7.24734">
        <ele>509.6</ele>
        <time>2012-04-19T12:39:19Z</time>
      </trkpt>
      <trkpt lat="43.78322" lon="7.24739">
        <ele>509.5</ele>
        <time>2012-04-19T12:39:21Z</time>
      </trkpt>
      <trkpt lat="43.7833" lon="7.24741">
        <ele>509.8</ele>
        <time>2012-04-19T12:39:24Z</time>
      </trkpt>
      <trkpt lat="43.78335" lon="7.24731">
        <ele>510.9</ele>
        <time>2012-04-19T12:39:28Z</time>
      </trkpt>
      <trkpt lat="43.78337" lon="7.24721">
        <ele>511.2</ele>
        <time>2012-04-19T12:39:31Z</time>
      </trkpt>
      <trkpt lat="43.78338" lon="7.24712">
        <ele>511.6</ele>
        <time>2012-04-19T12:39:33Z</time>
      </trkpt>
      <trkpt lat="43.7834" lon="7.24704">
        <ele>512.1</ele>
        <time>2012-04-19T12:39:35Z</time>
      </trkpt>
      <trkpt lat="43.78341" lon="7.24695">
        <ele>512.4</ele>
        <time>2012-04-19T12:39:37Z</time>
      </trkpt>
      <trkpt lat="43.78343" lon="7.24686">
        <ele>513</ele>
        <time>2012-04-19T12:39:39Z</time>
      </trkpt>
      <trkpt lat="43.78346" lon="7.24677">
        <ele>513.3</ele>
        <time>2012-04-19T12:39:41Z</time>
      </trkpt>
      <trkpt lat="43.78348" lon="7.24669">
        <ele>513.6</ele>
        <time>2012-04-19T12:39:43Z</time>
      </trkpt>
      <trkpt lat="43.78351" lon="7.2466">
        <ele>514</ele>
        <time>2012-04-19T12:39:45Z</time>
      </trkpt>
      <trkpt lat="43.78354" lon="7.24652">
        <ele>514.1</ele>
        <time>2012-04-19T12:39:47Z</time>
      </trkpt>
      <trkpt lat="43.78358" lon="7.24646">
        <ele>514.3</ele>
        <time>2012-04-19T12:39:49Z</time>
      </trkpt>
      <trkpt lat="43.78363" lon="7.2464">
        <ele>514.1</ele>
        <time>2012-04-19T12:39:51Z</time>
      </trkpt>
      <trkpt lat="43.78368" lon="7.24634">
        <ele>515.2</ele>
        <time>2012-04-19T12:39:53Z</time>
      </trkpt>
      <trkpt lat="43.78373" lon="7.24628">
        <ele>516.1</ele>
        <time>2012-04-19T12:39:55Z</time>
      </trkpt>
      <trkpt lat="43.78379" lon="7.24622">
        <ele>516.4</ele>
        <time>2012-04-19T12:39:57Z</time>
      </trkpt>
      <trkpt lat="43.78384" lon="7.24618">
        <ele>516.5</ele>
        <time>2012-04-19T12:39:59Z</time>
      </trkpt>
      <trkpt lat="43.78389" lon="7.24613">
        <ele>516.5</ele>
        <time>2012-04-19T12:40:01Z</time>
      </trkpt>
      <trkpt lat="43.78395" lon="7.24609">
        <ele>517.1</ele>
        <time>2012-04-19T12:40:03Z</time>
      </trkpt>
      <trkpt lat="43.78401" lon="7.24605">
        <ele>517.5</ele>
        <time>2012-04-19T12:40:05Z</time>
      </trkpt>
      <trkpt lat="43.78406" lon="7.24599">
        <ele>518.1</ele>
        <time>2012-04-19T12:40:07Z</time>
      </trkpt>
      <trkpt lat="43.78411" lon="7.24593">
        <ele>518</ele>
        <time>2012-04-19T12:40:09Z</time>
      </trkpt>
      <trkpt lat="43.78415" lon="7.24586">
        <ele>518</ele>
        <time>2012-04-19T12:40:11Z</time>
      </trkpt>
      <trkpt lat="43.78418" lon="7.24578">
        <ele>518.5</ele>
        <time>2012-04-19T12:40:13Z</time>
      </trkpt>
      <trkpt lat="43.78422" lon="7.24568">
        <ele>518.7</ele>
        <time>2012-04-19T12:40:16Z</time>
      </trkpt>
      <trkpt lat="43.78424" lon="7.24564">
        <ele>518.5</ele>
        <time>2012-04-19T12:40:17Z</time>
      </trkpt>
      <trkpt lat="43.78429" lon="7.24549">
        <ele>519.5</ele>
        <time>2012-04-19T12:40:21Z</time>
      </trkpt>
      <trkpt lat="43.78432" lon="7.24541">
        <ele>519.7</ele>
        <time>2012-04-19T12:40:23Z</time>
      </trkpt>
      <trkpt lat="43.78436" lon="7.24534">
        <ele>520</ele>
        <time>2012-04-19T12:40:25Z</time>
      </trkpt>
      <trkpt lat="43.7844" lon="7.24526">
        <ele>520.3</ele>
        <time>2012-04-19T12:40:27Z</time>
      </trkpt>
      <trkpt lat="43.78444" lon="7.24519">
        <ele>520.3</ele>
        <time>2012-04-19T12:40:29Z</time>
      </trkpt>
      <trkpt lat="43.78448" lon="7.24512">
        <ele>520.1</ele>
        <time>2012-04-19T12:40:31Z</time>
      </trkpt>
      <trkpt lat="43.78453" lon="7.24505">
        <ele>520.7</ele>
        <time>2012-04-19T12:40:33Z</time>
      </trkpt>
      <trkpt lat="43.78457" lon="7.24497">
        <ele>521</ele>
        <time>2012-04-19T12:40:35Z</time>
      </trkpt>
      <trkpt lat="43.78461" lon="7.2449">
        <ele>521.4</ele>
        <time>2012-04-19T12:40:37Z</time>
      </trkpt>
      <trkpt lat="43.78465" lon="7.24482">
        <ele>521.9</ele>
        <time>2012-04-19T12:40:39Z</time>
      </trkpt>
      <trkpt lat="43.78468" lon="7.24473">
        <ele>522.5</ele>
        <time>2012-04-19T12:40:41Z</time>
      </trkpt>
      <trkpt lat="43.78469" lon="7.24465">
        <ele>522.7</ele>
        <time>2012-04-19T12:40:43Z</time>
      </trkpt>
      <trkpt lat="43.7847" lon="7.24454">
        <ele>523.1</ele>
        <time>2012-04-19T12:40:46Z</time>
      </trkpt>
      <trkpt lat="43.78463" lon="7.24448">
        <ele>521.6</ele>
        <time>2012-04-19T12:46:45Z</time>
      </trkpt>
      <trkpt lat="43.78462" lon="7.24448">
        <ele>521.4</ele>
        <time>2012-04-19T12:46:46Z</time>
      </trkpt>
    </trkseg>
  </trk>
</gpx>